<?xml version="1.0" encoding="UTF-8" standalone="no" ?>
<gpx xmlns="http://www.topografix.com/GPX/1/1" xmlns:xsi="http://www.w3.org/2001/XMLSchema-instance" xsi:schemaLocation="http://www.topografix.com/GPX/1/1 http://www.topografix.com/GPX/1/1/gpx.xsd" version="1.1" creator="VisuGPX - https://www.visugpx.com">
  <metadata>
    <name>La Rochelle</name>
    <desc><![CDATA[Ile de Ré...]]></desc>
  </metadata>
  <trk>
    <name><![CDATA[02-SEP-16 19:20:15]]></name>
    <trkseg>
      <trkpt lat="46.18765" lon="-1.40805">
        <ele>0.14</ele>
        <time>2016-09-02T07:49:20Z</time>
      </trkpt>
      <trkpt lat="46.18765" lon="-1.40805">
        <ele>4.46</ele>
        <time>2016-09-02T07:49:21Z</time>
      </trkpt>
      <trkpt lat="46.18765" lon="-1.40805">
        <ele>3.5</ele>
        <time>2016-09-02T07:49:45Z</time>
      </trkpt>
      <trkpt lat="46.18765" lon="-1.40805">
        <ele>3.5</ele>
        <time>2016-09-02T07:49:58Z</time>
      </trkpt>
      <trkpt lat="46.18765" lon="-1.40805">
        <ele>3.5</ele>
        <time>2016-09-02T07:50:09Z</time>
      </trkpt>
      <trkpt lat="46.18763" lon="-1.40803">
        <ele>3.02</ele>
        <time>2016-09-02T07:50:17Z</time>
      </trkpt>
      <trkpt lat="46.18762" lon="-1.40803">
        <ele>3.02</ele>
        <time>2016-09-02T07:50:25Z</time>
      </trkpt>
      <trkpt lat="46.18762" lon="-1.40803">
        <ele>3.02</ele>
        <time>2016-09-02T07:50:27Z</time>
      </trkpt>
      <trkpt lat="46.1876" lon="-1.40794">
        <ele>2.54</ele>
        <time>2016-09-02T07:50:31Z</time>
      </trkpt>
      <trkpt lat="46.18758" lon="-1.40784">
        <ele>3.02</ele>
        <time>2016-09-02T07:50:34Z</time>
      </trkpt>
      <trkpt lat="46.18747" lon="-1.40775">
        <ele>3.02</ele>
        <time>2016-09-02T07:50:39Z</time>
      </trkpt>
      <trkpt lat="46.18713" lon="-1.40764">
        <ele>3.02</ele>
        <time>2016-09-02T07:50:50Z</time>
      </trkpt>
      <trkpt lat="46.18709" lon="-1.40732">
        <ele>3.02</ele>
        <time>2016-09-02T07:50:57Z</time>
      </trkpt>
      <trkpt lat="46.18707" lon="-1.40685">
        <ele>3.02</ele>
        <time>2016-09-02T07:51:06Z</time>
      </trkpt>
      <trkpt lat="46.18702" lon="-1.40642">
        <ele>3.5</ele>
        <time>2016-09-02T07:51:14Z</time>
      </trkpt>
      <trkpt lat="46.18706" lon="-1.40603">
        <ele>3.02</ele>
        <time>2016-09-02T07:51:22Z</time>
      </trkpt>
      <trkpt lat="46.18708" lon="-1.40569">
        <ele>3.02</ele>
        <time>2016-09-02T07:51:29Z</time>
      </trkpt>
      <trkpt lat="46.18706" lon="-1.40514">
        <ele>3.02</ele>
        <time>2016-09-02T07:51:39Z</time>
      </trkpt>
      <trkpt lat="46.18711" lon="-1.40443">
        <ele>2.54</ele>
        <time>2016-09-02T07:51:52Z</time>
      </trkpt>
      <trkpt lat="46.18715" lon="-1.40396">
        <ele>3.5</ele>
        <time>2016-09-02T07:52:01Z</time>
      </trkpt>
      <trkpt lat="46.18715" lon="-1.40378">
        <ele>3.5</ele>
        <time>2016-09-02T07:52:04Z</time>
      </trkpt>
      <trkpt lat="46.18715" lon="-1.40339">
        <ele>3.02</ele>
        <time>2016-09-02T07:52:10Z</time>
      </trkpt>
      <trkpt lat="46.18714" lon="-1.40332">
        <ele>2.54</ele>
        <time>2016-09-02T07:52:11Z</time>
      </trkpt>
      <trkpt lat="46.18695" lon="-1.4023">
        <ele>3.02</ele>
        <time>2016-09-02T07:52:26Z</time>
      </trkpt>
      <trkpt lat="46.18685" lon="-1.40187">
        <ele>3.02</ele>
        <time>2016-09-02T07:52:33Z</time>
      </trkpt>
      <trkpt lat="46.18682" lon="-1.40181">
        <ele>3.5</ele>
        <time>2016-09-02T07:52:34Z</time>
      </trkpt>
      <trkpt lat="46.1866" lon="-1.40139">
        <ele>3.5</ele>
        <time>2016-09-02T07:52:42Z</time>
      </trkpt>
      <trkpt lat="46.18657" lon="-1.40133">
        <ele>3.02</ele>
        <time>2016-09-02T07:52:43Z</time>
      </trkpt>
      <trkpt lat="46.18649" lon="-1.40116">
        <ele>3.5</ele>
        <time>2016-09-02T07:52:46Z</time>
      </trkpt>
      <trkpt lat="46.18634" lon="-1.4009">
        <ele>3.5</ele>
        <time>2016-09-02T07:52:51Z</time>
      </trkpt>
      <trkpt lat="46.18632" lon="-1.40084">
        <ele>3.5</ele>
        <time>2016-09-02T07:52:52Z</time>
      </trkpt>
      <trkpt lat="46.18631" lon="-1.40077">
        <ele>3.5</ele>
        <time>2016-09-02T07:52:53Z</time>
      </trkpt>
      <trkpt lat="46.18631" lon="-1.4007">
        <ele>3.02</ele>
        <time>2016-09-02T07:52:54Z</time>
      </trkpt>
      <trkpt lat="46.18631" lon="-1.40062">
        <ele>3.02</ele>
        <time>2016-09-02T07:52:55Z</time>
      </trkpt>
      <trkpt lat="46.18631" lon="-1.40033">
        <ele>3.5</ele>
        <time>2016-09-02T07:52:59Z</time>
      </trkpt>
      <trkpt lat="46.18638" lon="-1.39944">
        <ele>3.5</ele>
        <time>2016-09-02T07:53:12Z</time>
      </trkpt>
      <trkpt lat="46.18646" lon="-1.39895">
        <ele>3.98</ele>
        <time>2016-09-02T07:53:19Z</time>
      </trkpt>
      <trkpt lat="46.18647" lon="-1.39888">
        <ele>3.5</ele>
        <time>2016-09-02T07:53:20Z</time>
      </trkpt>
      <trkpt lat="46.18647" lon="-1.39881">
        <ele>3.5</ele>
        <time>2016-09-02T07:53:21Z</time>
      </trkpt>
      <trkpt lat="46.18646" lon="-1.39874">
        <ele>3.98</ele>
        <time>2016-09-02T07:53:22Z</time>
      </trkpt>
      <trkpt lat="46.18645" lon="-1.39868">
        <ele>3.98</ele>
        <time>2016-09-02T07:53:23Z</time>
      </trkpt>
      <trkpt lat="46.18642" lon="-1.39862">
        <ele>3.98</ele>
        <time>2016-09-02T07:53:24Z</time>
      </trkpt>
      <trkpt lat="46.1864" lon="-1.39856">
        <ele>3.98</ele>
        <time>2016-09-02T07:53:25Z</time>
      </trkpt>
      <trkpt lat="46.18637" lon="-1.3985">
        <ele>3.5</ele>
        <time>2016-09-02T07:53:26Z</time>
      </trkpt>
      <trkpt lat="46.18634" lon="-1.39844">
        <ele>3.98</ele>
        <time>2016-09-02T07:53:27Z</time>
      </trkpt>
      <trkpt lat="46.18632" lon="-1.39838">
        <ele>3.5</ele>
        <time>2016-09-02T07:53:28Z</time>
      </trkpt>
      <trkpt lat="46.18615" lon="-1.39765">
        <ele>3.5</ele>
        <time>2016-09-02T07:53:39Z</time>
      </trkpt>
      <trkpt lat="46.18615" lon="-1.39758">
        <ele>3.5</ele>
        <time>2016-09-02T07:53:40Z</time>
      </trkpt>
      <trkpt lat="46.18615" lon="-1.39751">
        <ele>3.98</ele>
        <time>2016-09-02T07:53:41Z</time>
      </trkpt>
      <trkpt lat="46.18614" lon="-1.39744">
        <ele>3.98</ele>
        <time>2016-09-02T07:53:42Z</time>
      </trkpt>
      <trkpt lat="46.18614" lon="-1.39737">
        <ele>3.98</ele>
        <time>2016-09-02T07:53:43Z</time>
      </trkpt>
      <trkpt lat="46.18614" lon="-1.3973">
        <ele>3.98</ele>
        <time>2016-09-02T07:53:44Z</time>
      </trkpt>
      <trkpt lat="46.18614" lon="-1.39723">
        <ele>3.98</ele>
        <time>2016-09-02T07:53:45Z</time>
      </trkpt>
      <trkpt lat="46.18614" lon="-1.39717">
        <ele>3.98</ele>
        <time>2016-09-02T07:53:46Z</time>
      </trkpt>
      <trkpt lat="46.18612" lon="-1.3967">
        <ele>4.46</ele>
        <time>2016-09-02T07:53:53Z</time>
      </trkpt>
      <trkpt lat="46.18612" lon="-1.39664">
        <ele>3.98</ele>
        <time>2016-09-02T07:53:54Z</time>
      </trkpt>
      <trkpt lat="46.18611" lon="-1.39631">
        <ele>4.46</ele>
        <time>2016-09-02T07:53:59Z</time>
      </trkpt>
      <trkpt lat="46.18612" lon="-1.39625">
        <ele>3.98</ele>
        <time>2016-09-02T07:54:00Z</time>
      </trkpt>
      <trkpt lat="46.18623" lon="-1.39556">
        <ele>4.94</ele>
        <time>2016-09-02T07:54:11Z</time>
      </trkpt>
      <trkpt lat="46.18623" lon="-1.39551">
        <ele>4.46</ele>
        <time>2016-09-02T07:54:12Z</time>
      </trkpt>
      <trkpt lat="46.18622" lon="-1.39479">
        <ele>4.94</ele>
        <time>2016-09-02T07:54:23Z</time>
      </trkpt>
      <trkpt lat="46.18623" lon="-1.39439">
        <ele>4.94</ele>
        <time>2016-09-02T07:54:29Z</time>
      </trkpt>
      <trkpt lat="46.18624" lon="-1.39399">
        <ele>4.94</ele>
        <time>2016-09-02T07:54:35Z</time>
      </trkpt>
      <trkpt lat="46.18629" lon="-1.39317">
        <ele>4.94</ele>
        <time>2016-09-02T07:54:47Z</time>
      </trkpt>
      <trkpt lat="46.18629" lon="-1.39311">
        <ele>4.94</ele>
        <time>2016-09-02T07:54:48Z</time>
      </trkpt>
      <trkpt lat="46.18629" lon="-1.39304">
        <ele>5.42</ele>
        <time>2016-09-02T07:54:49Z</time>
      </trkpt>
      <trkpt lat="46.18632" lon="-1.39237">
        <ele>5.42</ele>
        <time>2016-09-02T07:55:01Z</time>
      </trkpt>
      <trkpt lat="46.18634" lon="-1.39233">
        <ele>5.42</ele>
        <time>2016-09-02T07:55:02Z</time>
      </trkpt>
      <trkpt lat="46.18643" lon="-1.39222">
        <ele>5.91</ele>
        <time>2016-09-02T07:55:06Z</time>
      </trkpt>
      <trkpt lat="46.18645" lon="-1.39223">
        <ele>5.42</ele>
        <time>2016-09-02T07:55:07Z</time>
      </trkpt>
      <trkpt lat="46.18644" lon="-1.39225">
        <ele>5.42</ele>
        <time>2016-09-02T07:55:08Z</time>
      </trkpt>
      <trkpt lat="46.18642" lon="-1.39228">
        <ele>5.42</ele>
        <time>2016-09-02T07:55:09Z</time>
      </trkpt>
      <trkpt lat="46.18641" lon="-1.39231">
        <ele>5.42</ele>
        <time>2016-09-02T07:55:10Z</time>
      </trkpt>
      <trkpt lat="46.18641" lon="-1.39235">
        <ele>4.94</ele>
        <time>2016-09-02T07:55:11Z</time>
      </trkpt>
      <trkpt lat="46.18641" lon="-1.3924">
        <ele>5.91</ele>
        <time>2016-09-02T07:55:12Z</time>
      </trkpt>
      <trkpt lat="46.18642" lon="-1.39245">
        <ele>5.42</ele>
        <time>2016-09-02T07:55:13Z</time>
      </trkpt>
      <trkpt lat="46.18649" lon="-1.39266">
        <ele>5.42</ele>
        <time>2016-09-02T07:55:18Z</time>
      </trkpt>
      <trkpt lat="46.18651" lon="-1.3927">
        <ele>5.42</ele>
        <time>2016-09-02T07:55:19Z</time>
      </trkpt>
      <trkpt lat="46.18654" lon="-1.39274">
        <ele>4.94</ele>
        <time>2016-09-02T07:55:20Z</time>
      </trkpt>
      <trkpt lat="46.18656" lon="-1.39278">
        <ele>4.94</ele>
        <time>2016-09-02T07:55:21Z</time>
      </trkpt>
      <trkpt lat="46.1866" lon="-1.39282">
        <ele>5.42</ele>
        <time>2016-09-02T07:55:22Z</time>
      </trkpt>
      <trkpt lat="46.18664" lon="-1.39286">
        <ele>5.42</ele>
        <time>2016-09-02T07:55:23Z</time>
      </trkpt>
      <trkpt lat="46.18691" lon="-1.39344">
        <ele>4.94</ele>
        <time>2016-09-02T07:55:33Z</time>
      </trkpt>
      <trkpt lat="46.1871" lon="-1.39395">
        <ele>5.42</ele>
        <time>2016-09-02T07:55:42Z</time>
      </trkpt>
      <trkpt lat="46.18712" lon="-1.39396">
        <ele>5.42</ele>
        <time>2016-09-02T07:55:43Z</time>
      </trkpt>
      <trkpt lat="46.18715" lon="-1.39395">
        <ele>5.42</ele>
        <time>2016-09-02T07:55:44Z</time>
      </trkpt>
      <trkpt lat="46.18716" lon="-1.39394">
        <ele>5.42</ele>
        <time>2016-09-02T07:55:45Z</time>
      </trkpt>
      <trkpt lat="46.18717" lon="-1.39391">
        <ele>5.42</ele>
        <time>2016-09-02T07:55:46Z</time>
      </trkpt>
      <trkpt lat="46.18717" lon="-1.39386">
        <ele>4.94</ele>
        <time>2016-09-02T07:55:47Z</time>
      </trkpt>
      <trkpt lat="46.18721" lon="-1.3934">
        <ele>4.94</ele>
        <time>2016-09-02T07:55:55Z</time>
      </trkpt>
      <trkpt lat="46.18723" lon="-1.39322">
        <ele>4.94</ele>
        <time>2016-09-02T07:55:58Z</time>
      </trkpt>
      <trkpt lat="46.18724" lon="-1.39316">
        <ele>5.42</ele>
        <time>2016-09-02T07:55:59Z</time>
      </trkpt>
      <trkpt lat="46.18727" lon="-1.39304">
        <ele>5.42</ele>
        <time>2016-09-02T07:56:01Z</time>
      </trkpt>
      <trkpt lat="46.18729" lon="-1.39291">
        <ele>5.42</ele>
        <time>2016-09-02T07:56:03Z</time>
      </trkpt>
      <trkpt lat="46.1873" lon="-1.39279">
        <ele>5.42</ele>
        <time>2016-09-02T07:56:05Z</time>
      </trkpt>
      <trkpt lat="46.18731" lon="-1.39272">
        <ele>5.42</ele>
        <time>2016-09-02T07:56:06Z</time>
      </trkpt>
      <trkpt lat="46.18731" lon="-1.39266">
        <ele>4.94</ele>
        <time>2016-09-02T07:56:07Z</time>
      </trkpt>
      <trkpt lat="46.18732" lon="-1.3926">
        <ele>4.94</ele>
        <time>2016-09-02T07:56:08Z</time>
      </trkpt>
      <trkpt lat="46.18733" lon="-1.39254">
        <ele>4.94</ele>
        <time>2016-09-02T07:56:09Z</time>
      </trkpt>
      <trkpt lat="46.18734" lon="-1.39248">
        <ele>5.42</ele>
        <time>2016-09-02T07:56:10Z</time>
      </trkpt>
      <trkpt lat="46.18736" lon="-1.39229">
        <ele>5.42</ele>
        <time>2016-09-02T07:56:13Z</time>
      </trkpt>
      <trkpt lat="46.18737" lon="-1.39223">
        <ele>5.42</ele>
        <time>2016-09-02T07:56:14Z</time>
      </trkpt>
      <trkpt lat="46.18738" lon="-1.39217">
        <ele>5.42</ele>
        <time>2016-09-02T07:56:15Z</time>
      </trkpt>
      <trkpt lat="46.18738" lon="-1.39211">
        <ele>5.42</ele>
        <time>2016-09-02T07:56:16Z</time>
      </trkpt>
      <trkpt lat="46.18739" lon="-1.39205">
        <ele>5.42</ele>
        <time>2016-09-02T07:56:17Z</time>
      </trkpt>
      <trkpt lat="46.18739" lon="-1.39193">
        <ele>4.94</ele>
        <time>2016-09-02T07:56:19Z</time>
      </trkpt>
      <trkpt lat="46.18739" lon="-1.39187">
        <ele>5.42</ele>
        <time>2016-09-02T07:56:20Z</time>
      </trkpt>
      <trkpt lat="46.18744" lon="-1.3909">
        <ele>5.91</ele>
        <time>2016-09-02T07:56:35Z</time>
      </trkpt>
      <trkpt lat="46.18751" lon="-1.39016">
        <ele>5.91</ele>
        <time>2016-09-02T07:56:46Z</time>
      </trkpt>
      <trkpt lat="46.18752" lon="-1.3901">
        <ele>5.91</ele>
        <time>2016-09-02T07:56:47Z</time>
      </trkpt>
      <trkpt lat="46.18754" lon="-1.39004">
        <ele>5.42</ele>
        <time>2016-09-02T07:56:48Z</time>
      </trkpt>
      <trkpt lat="46.18758" lon="-1.39001">
        <ele>5.91</ele>
        <time>2016-09-02T07:56:49Z</time>
      </trkpt>
      <trkpt lat="46.18762" lon="-1.38998">
        <ele>6.39</ele>
        <time>2016-09-02T07:56:50Z</time>
      </trkpt>
      <trkpt lat="46.18766" lon="-1.38995">
        <ele>5.91</ele>
        <time>2016-09-02T07:56:51Z</time>
      </trkpt>
      <trkpt lat="46.18784" lon="-1.38987">
        <ele>0.14</ele>
        <time>2016-09-02T07:56:55Z</time>
      </trkpt>
      <trkpt lat="46.18788" lon="-1.38985">
        <ele>7.35</ele>
        <time>2016-09-02T07:56:56Z</time>
      </trkpt>
      <trkpt lat="46.1885" lon="-1.38953">
        <ele>6.39</ele>
        <time>2016-09-02T07:57:10Z</time>
      </trkpt>
      <trkpt lat="46.18875" lon="-1.3894">
        <ele>5.91</ele>
        <time>2016-09-02T07:57:16Z</time>
      </trkpt>
      <trkpt lat="46.18879" lon="-1.38936">
        <ele>5.91</ele>
        <time>2016-09-02T07:57:17Z</time>
      </trkpt>
      <trkpt lat="46.18882" lon="-1.38931">
        <ele>6.39</ele>
        <time>2016-09-02T07:57:18Z</time>
      </trkpt>
      <trkpt lat="46.18883" lon="-1.38924">
        <ele>6.39</ele>
        <time>2016-09-02T07:57:19Z</time>
      </trkpt>
      <trkpt lat="46.18883" lon="-1.38917">
        <ele>5.91</ele>
        <time>2016-09-02T07:57:20Z</time>
      </trkpt>
      <trkpt lat="46.18883" lon="-1.3891">
        <ele>5.91</ele>
        <time>2016-09-02T07:57:21Z</time>
      </trkpt>
      <trkpt lat="46.189" lon="-1.3883">
        <ele>6.39</ele>
        <time>2016-09-02T07:57:33Z</time>
      </trkpt>
      <trkpt lat="46.18903" lon="-1.38824">
        <ele>6.39</ele>
        <time>2016-09-02T07:57:34Z</time>
      </trkpt>
      <trkpt lat="46.18939" lon="-1.38759">
        <ele>5.91</ele>
        <time>2016-09-02T07:57:46Z</time>
      </trkpt>
      <trkpt lat="46.18974" lon="-1.38705">
        <ele>5.91</ele>
        <time>2016-09-02T07:57:57Z</time>
      </trkpt>
      <trkpt lat="46.18979" lon="-1.38696">
        <ele>5.91</ele>
        <time>2016-09-02T07:58:00Z</time>
      </trkpt>
      <trkpt lat="46.18978" lon="-1.38692">
        <ele>5.91</ele>
        <time>2016-09-02T07:58:01Z</time>
      </trkpt>
      <trkpt lat="46.18977" lon="-1.38687">
        <ele>5.91</ele>
        <time>2016-09-02T07:58:02Z</time>
      </trkpt>
      <trkpt lat="46.18976" lon="-1.38682">
        <ele>5.91</ele>
        <time>2016-09-02T07:58:03Z</time>
      </trkpt>
      <trkpt lat="46.18975" lon="-1.38677">
        <ele>5.91</ele>
        <time>2016-09-02T07:58:04Z</time>
      </trkpt>
      <trkpt lat="46.1897" lon="-1.38654">
        <ele>5.91</ele>
        <time>2016-09-02T07:58:08Z</time>
      </trkpt>
      <trkpt lat="46.18969" lon="-1.38648">
        <ele>6.39</ele>
        <time>2016-09-02T07:58:09Z</time>
      </trkpt>
      <trkpt lat="46.1894" lon="-1.38566">
        <ele>5.91</ele>
        <time>2016-09-02T07:58:23Z</time>
      </trkpt>
      <trkpt lat="46.1891" lon="-1.38494">
        <ele>5.42</ele>
        <time>2016-09-02T07:58:35Z</time>
      </trkpt>
      <trkpt lat="46.18896" lon="-1.38462">
        <ele>6.39</ele>
        <time>2016-09-02T07:58:41Z</time>
      </trkpt>
      <trkpt lat="46.18868" lon="-1.38399">
        <ele>5.91</ele>
        <time>2016-09-02T07:58:51Z</time>
      </trkpt>
      <trkpt lat="46.18846" lon="-1.38345">
        <ele>6.39</ele>
        <time>2016-09-02T07:59:01Z</time>
      </trkpt>
      <trkpt lat="46.18846" lon="-1.3834">
        <ele>6.39</ele>
        <time>2016-09-02T07:59:02Z</time>
      </trkpt>
      <trkpt lat="46.18846" lon="-1.38335">
        <ele>6.39</ele>
        <time>2016-09-02T07:59:03Z</time>
      </trkpt>
      <trkpt lat="46.18848" lon="-1.38329">
        <ele>6.39</ele>
        <time>2016-09-02T07:59:04Z</time>
      </trkpt>
      <trkpt lat="46.1885" lon="-1.38325">
        <ele>6.87</ele>
        <time>2016-09-02T07:59:05Z</time>
      </trkpt>
      <trkpt lat="46.18852" lon="-1.3832">
        <ele>6.39</ele>
        <time>2016-09-02T07:59:06Z</time>
      </trkpt>
      <trkpt lat="46.18859" lon="-1.38305">
        <ele>6.39</ele>
        <time>2016-09-02T07:59:09Z</time>
      </trkpt>
      <trkpt lat="46.18862" lon="-1.383">
        <ele>6.39</ele>
        <time>2016-09-02T07:59:10Z</time>
      </trkpt>
      <trkpt lat="46.18863" lon="-1.38293">
        <ele>6.39</ele>
        <time>2016-09-02T07:59:11Z</time>
      </trkpt>
      <trkpt lat="46.18864" lon="-1.38287">
        <ele>6.39</ele>
        <time>2016-09-02T07:59:12Z</time>
      </trkpt>
      <trkpt lat="46.18864" lon="-1.38281">
        <ele>6.87</ele>
        <time>2016-09-02T07:59:13Z</time>
      </trkpt>
      <trkpt lat="46.18863" lon="-1.38275">
        <ele>6.87</ele>
        <time>2016-09-02T07:59:14Z</time>
      </trkpt>
      <trkpt lat="46.18862" lon="-1.38269">
        <ele>6.87</ele>
        <time>2016-09-02T07:59:15Z</time>
      </trkpt>
      <trkpt lat="46.18862" lon="-1.38265">
        <ele>6.87</ele>
        <time>2016-09-02T07:59:16Z</time>
      </trkpt>
      <trkpt lat="46.18862" lon="-1.38262">
        <ele>7.35</ele>
        <time>2016-09-02T07:59:17Z</time>
      </trkpt>
      <trkpt lat="46.18862" lon="-1.3826">
        <ele>7.35</ele>
        <time>2016-09-02T07:59:18Z</time>
      </trkpt>
      <trkpt lat="46.18862" lon="-1.38256">
        <ele>6.87</ele>
        <time>2016-09-02T07:59:20Z</time>
      </trkpt>
      <trkpt lat="46.18861" lon="-1.38254">
        <ele>7.35</ele>
        <time>2016-09-02T07:59:21Z</time>
      </trkpt>
      <trkpt lat="46.18859" lon="-1.38252">
        <ele>7.35</ele>
        <time>2016-09-02T07:59:22Z</time>
      </trkpt>
      <trkpt lat="46.18855" lon="-1.3825">
        <ele>6.87</ele>
        <time>2016-09-02T07:59:23Z</time>
      </trkpt>
      <trkpt lat="46.18852" lon="-1.38249">
        <ele>6.87</ele>
        <time>2016-09-02T07:59:24Z</time>
      </trkpt>
      <trkpt lat="46.18843" lon="-1.38247">
        <ele>6.39</ele>
        <time>2016-09-02T07:59:26Z</time>
      </trkpt>
      <trkpt lat="46.18838" lon="-1.38247">
        <ele>6.39</ele>
        <time>2016-09-02T07:59:27Z</time>
      </trkpt>
      <trkpt lat="46.18793" lon="-1.3825">
        <ele>6.39</ele>
        <time>2016-09-02T07:59:37Z</time>
      </trkpt>
      <trkpt lat="46.1879" lon="-1.38247">
        <ele>6.39</ele>
        <time>2016-09-02T07:59:38Z</time>
      </trkpt>
      <trkpt lat="46.18788" lon="-1.38243">
        <ele>6.39</ele>
        <time>2016-09-02T07:59:39Z</time>
      </trkpt>
      <trkpt lat="46.18786" lon="-1.38231">
        <ele>6.39</ele>
        <time>2016-09-02T07:59:41Z</time>
      </trkpt>
      <trkpt lat="46.18785" lon="-1.38225">
        <ele>5.91</ele>
        <time>2016-09-02T07:59:42Z</time>
      </trkpt>
      <trkpt lat="46.18781" lon="-1.38205">
        <ele>6.39</ele>
        <time>2016-09-02T07:59:45Z</time>
      </trkpt>
      <trkpt lat="46.18778" lon="-1.382">
        <ele>5.91</ele>
        <time>2016-09-02T07:59:46Z</time>
      </trkpt>
      <trkpt lat="46.18775" lon="-1.38196">
        <ele>5.91</ele>
        <time>2016-09-02T07:59:47Z</time>
      </trkpt>
      <trkpt lat="46.18772" lon="-1.38191">
        <ele>5.42</ele>
        <time>2016-09-02T07:59:48Z</time>
      </trkpt>
      <trkpt lat="46.18772" lon="-1.38184">
        <ele>5.91</ele>
        <time>2016-09-02T07:59:49Z</time>
      </trkpt>
      <trkpt lat="46.18772" lon="-1.38176">
        <ele>5.91</ele>
        <time>2016-09-02T07:59:50Z</time>
      </trkpt>
      <trkpt lat="46.18772" lon="-1.38169">
        <ele>5.91</ele>
        <time>2016-09-02T07:59:51Z</time>
      </trkpt>
      <trkpt lat="46.18772" lon="-1.38161">
        <ele>6.39</ele>
        <time>2016-09-02T07:59:52Z</time>
      </trkpt>
      <trkpt lat="46.18772" lon="-1.38154">
        <ele>5.91</ele>
        <time>2016-09-02T07:59:53Z</time>
      </trkpt>
      <trkpt lat="46.18769" lon="-1.38121">
        <ele>6.39</ele>
        <time>2016-09-02T07:59:58Z</time>
      </trkpt>
      <trkpt lat="46.18767" lon="-1.38119">
        <ele>5.91</ele>
        <time>2016-09-02T07:59:59Z</time>
      </trkpt>
      <trkpt lat="46.18756" lon="-1.38117">
        <ele>6.39</ele>
        <time>2016-09-02T08:00:02Z</time>
      </trkpt>
      <trkpt lat="46.18752" lon="-1.38114">
        <ele>6.39</ele>
        <time>2016-09-02T08:00:03Z</time>
      </trkpt>
      <trkpt lat="46.18748" lon="-1.3811">
        <ele>6.39</ele>
        <time>2016-09-02T08:00:04Z</time>
      </trkpt>
      <trkpt lat="46.18745" lon="-1.38105">
        <ele>5.91</ele>
        <time>2016-09-02T08:00:05Z</time>
      </trkpt>
      <trkpt lat="46.18743" lon="-1.38098">
        <ele>6.39</ele>
        <time>2016-09-02T08:00:06Z</time>
      </trkpt>
      <trkpt lat="46.1874" lon="-1.38092">
        <ele>5.91</ele>
        <time>2016-09-02T08:00:07Z</time>
      </trkpt>
      <trkpt lat="46.18719" lon="-1.38048">
        <ele>5.42</ele>
        <time>2016-09-02T08:00:14Z</time>
      </trkpt>
      <trkpt lat="46.18716" lon="-1.38042">
        <ele>5.91</ele>
        <time>2016-09-02T08:00:15Z</time>
      </trkpt>
      <trkpt lat="46.18713" lon="-1.38035">
        <ele>5.91</ele>
        <time>2016-09-02T08:00:16Z</time>
      </trkpt>
      <trkpt lat="46.18706" lon="-1.38022">
        <ele>5.42</ele>
        <time>2016-09-02T08:00:18Z</time>
      </trkpt>
      <trkpt lat="46.18652" lon="-1.37916">
        <ele>3.02</ele>
        <time>2016-09-02T08:00:33Z</time>
      </trkpt>
      <trkpt lat="46.18624" lon="-1.37873">
        <ele>3.02</ele>
        <time>2016-09-02T08:00:40Z</time>
      </trkpt>
      <trkpt lat="46.1862" lon="-1.37868">
        <ele>2.54</ele>
        <time>2016-09-02T08:00:41Z</time>
      </trkpt>
      <trkpt lat="46.18616" lon="-1.37862">
        <ele>3.02</ele>
        <time>2016-09-02T08:00:42Z</time>
      </trkpt>
      <trkpt lat="46.18612" lon="-1.37856">
        <ele>3.02</ele>
        <time>2016-09-02T08:00:43Z</time>
      </trkpt>
      <trkpt lat="46.18609" lon="-1.37852">
        <ele>3.02</ele>
        <time>2016-09-02T08:00:44Z</time>
      </trkpt>
      <trkpt lat="46.18605" lon="-1.37846">
        <ele>3.5</ele>
        <time>2016-09-02T08:00:45Z</time>
      </trkpt>
      <trkpt lat="46.18572" lon="-1.37811">
        <ele>5.42</ele>
        <time>2016-09-02T08:00:53Z</time>
      </trkpt>
      <trkpt lat="46.18568" lon="-1.37807">
        <ele>6.39</ele>
        <time>2016-09-02T08:00:54Z</time>
      </trkpt>
      <trkpt lat="46.18527" lon="-1.37771">
        <ele>5.91</ele>
        <time>2016-09-02T08:01:03Z</time>
      </trkpt>
      <trkpt lat="46.18512" lon="-1.3776">
        <ele>6.39</ele>
        <time>2016-09-02T08:01:06Z</time>
      </trkpt>
      <trkpt lat="46.18508" lon="-1.37757">
        <ele>6.39</ele>
        <time>2016-09-02T08:01:07Z</time>
      </trkpt>
      <trkpt lat="46.18504" lon="-1.37754">
        <ele>6.39</ele>
        <time>2016-09-02T08:01:08Z</time>
      </trkpt>
      <trkpt lat="46.18499" lon="-1.37752">
        <ele>6.39</ele>
        <time>2016-09-02T08:01:09Z</time>
      </trkpt>
      <trkpt lat="46.18495" lon="-1.3775">
        <ele>7.35</ele>
        <time>2016-09-02T08:01:10Z</time>
      </trkpt>
      <trkpt lat="46.1849" lon="-1.37746">
        <ele>6.87</ele>
        <time>2016-09-02T08:01:11Z</time>
      </trkpt>
      <trkpt lat="46.18481" lon="-1.3774">
        <ele>6.87</ele>
        <time>2016-09-02T08:01:13Z</time>
      </trkpt>
      <trkpt lat="46.18422" lon="-1.37713">
        <ele>6.39</ele>
        <time>2016-09-02T08:01:24Z</time>
      </trkpt>
      <trkpt lat="46.18364" lon="-1.37696">
        <ele>6.39</ele>
        <time>2016-09-02T08:01:34Z</time>
      </trkpt>
      <trkpt lat="46.18359" lon="-1.37695">
        <ele>6.87</ele>
        <time>2016-09-02T08:01:35Z</time>
      </trkpt>
      <trkpt lat="46.18331" lon="-1.37687">
        <ele>5.91</ele>
        <time>2016-09-02T08:01:40Z</time>
      </trkpt>
      <trkpt lat="46.18326" lon="-1.37686">
        <ele>5.91</ele>
        <time>2016-09-02T08:01:41Z</time>
      </trkpt>
      <trkpt lat="46.18265" lon="-1.37671">
        <ele>5.91</ele>
        <time>2016-09-02T08:01:52Z</time>
      </trkpt>
      <trkpt lat="46.18194" lon="-1.37655">
        <ele>5.42</ele>
        <time>2016-09-02T08:02:05Z</time>
      </trkpt>
      <trkpt lat="46.18184" lon="-1.37653">
        <ele>5.91</ele>
        <time>2016-09-02T08:02:07Z</time>
      </trkpt>
      <trkpt lat="46.18179" lon="-1.37651">
        <ele>5.91</ele>
        <time>2016-09-02T08:02:08Z</time>
      </trkpt>
      <trkpt lat="46.18113" lon="-1.37635">
        <ele>6.39</ele>
        <time>2016-09-02T08:02:21Z</time>
      </trkpt>
      <trkpt lat="46.181" lon="-1.37629">
        <ele>6.39</ele>
        <time>2016-09-02T08:02:24Z</time>
      </trkpt>
      <trkpt lat="46.18086" lon="-1.37624">
        <ele>6.87</ele>
        <time>2016-09-02T08:02:27Z</time>
      </trkpt>
      <trkpt lat="46.1804" lon="-1.37602">
        <ele>5.91</ele>
        <time>2016-09-02T08:02:36Z</time>
      </trkpt>
      <trkpt lat="46.18032" lon="-1.37599">
        <ele>5.42</ele>
        <time>2016-09-02T08:02:37Z</time>
      </trkpt>
      <trkpt lat="46.18" lon="-1.37592">
        <ele>6.39</ele>
        <time>2016-09-02T08:02:42Z</time>
      </trkpt>
      <trkpt lat="46.17995" lon="-1.37589">
        <ele>6.87</ele>
        <time>2016-09-02T08:02:43Z</time>
      </trkpt>
      <trkpt lat="46.17991" lon="-1.37585">
        <ele>6.39</ele>
        <time>2016-09-02T08:02:44Z</time>
      </trkpt>
      <trkpt lat="46.17977" lon="-1.37571">
        <ele>5.42</ele>
        <time>2016-09-02T08:02:47Z</time>
      </trkpt>
      <trkpt lat="46.17972" lon="-1.37566">
        <ele>5.42</ele>
        <time>2016-09-02T08:02:48Z</time>
      </trkpt>
      <trkpt lat="46.17966" lon="-1.37561">
        <ele>4.94</ele>
        <time>2016-09-02T08:02:49Z</time>
      </trkpt>
      <trkpt lat="46.1796" lon="-1.37558">
        <ele>4.94</ele>
        <time>2016-09-02T08:02:50Z</time>
      </trkpt>
      <trkpt lat="46.17955" lon="-1.37556">
        <ele>4.94</ele>
        <time>2016-09-02T08:02:51Z</time>
      </trkpt>
      <trkpt lat="46.1795" lon="-1.37556">
        <ele>4.46</ele>
        <time>2016-09-02T08:02:52Z</time>
      </trkpt>
      <trkpt lat="46.17945" lon="-1.37554">
        <ele>4.46</ele>
        <time>2016-09-02T08:02:53Z</time>
      </trkpt>
      <trkpt lat="46.1794" lon="-1.37551">
        <ele>3.98</ele>
        <time>2016-09-02T08:02:54Z</time>
      </trkpt>
      <trkpt lat="46.17936" lon="-1.37546">
        <ele>4.46</ele>
        <time>2016-09-02T08:02:55Z</time>
      </trkpt>
      <trkpt lat="46.17932" lon="-1.37541">
        <ele>4.46</ele>
        <time>2016-09-02T08:02:56Z</time>
      </trkpt>
      <trkpt lat="46.1793" lon="-1.37534">
        <ele>4.46</ele>
        <time>2016-09-02T08:02:57Z</time>
      </trkpt>
      <trkpt lat="46.17928" lon="-1.37527">
        <ele>4.46</ele>
        <time>2016-09-02T08:02:58Z</time>
      </trkpt>
      <trkpt lat="46.17926" lon="-1.3752">
        <ele>4.46</ele>
        <time>2016-09-02T08:02:59Z</time>
      </trkpt>
      <trkpt lat="46.17926" lon="-1.37513">
        <ele>4.94</ele>
        <time>2016-09-02T08:03:00Z</time>
      </trkpt>
      <trkpt lat="46.17927" lon="-1.37506">
        <ele>4.94</ele>
        <time>2016-09-02T08:03:01Z</time>
      </trkpt>
      <trkpt lat="46.17929" lon="-1.37499">
        <ele>4.94</ele>
        <time>2016-09-02T08:03:02Z</time>
      </trkpt>
      <trkpt lat="46.17932" lon="-1.37494">
        <ele>4.94</ele>
        <time>2016-09-02T08:03:03Z</time>
      </trkpt>
      <trkpt lat="46.17936" lon="-1.37489">
        <ele>3.98</ele>
        <time>2016-09-02T08:03:04Z</time>
      </trkpt>
      <trkpt lat="46.1794" lon="-1.37483">
        <ele>3.98</ele>
        <time>2016-09-02T08:03:05Z</time>
      </trkpt>
      <trkpt lat="46.17942" lon="-1.37476">
        <ele>3.98</ele>
        <time>2016-09-02T08:03:06Z</time>
      </trkpt>
      <trkpt lat="46.17944" lon="-1.37468">
        <ele>3.98</ele>
        <time>2016-09-02T08:03:07Z</time>
      </trkpt>
      <trkpt lat="46.17945" lon="-1.37461">
        <ele>4.46</ele>
        <time>2016-09-02T08:03:08Z</time>
      </trkpt>
      <trkpt lat="46.17946" lon="-1.37455">
        <ele>5.42</ele>
        <time>2016-09-02T08:03:09Z</time>
      </trkpt>
      <trkpt lat="46.17946" lon="-1.37449">
        <ele>5.42</ele>
        <time>2016-09-02T08:03:10Z</time>
      </trkpt>
      <trkpt lat="46.17947" lon="-1.37443">
        <ele>5.42</ele>
        <time>2016-09-02T08:03:11Z</time>
      </trkpt>
      <trkpt lat="46.17938" lon="-1.37405">
        <ele>5.91</ele>
        <time>2016-09-02T08:03:19Z</time>
      </trkpt>
      <trkpt lat="46.17931" lon="-1.37388">
        <ele>5.42</ele>
        <time>2016-09-02T08:03:23Z</time>
      </trkpt>
      <trkpt lat="46.17928" lon="-1.37388">
        <ele>5.42</ele>
        <time>2016-09-02T08:03:24Z</time>
      </trkpt>
      <trkpt lat="46.17894" lon="-1.3739">
        <ele>5.42</ele>
        <time>2016-09-02T08:03:32Z</time>
      </trkpt>
      <trkpt lat="46.1789" lon="-1.37387">
        <ele>5.42</ele>
        <time>2016-09-02T08:03:33Z</time>
      </trkpt>
      <trkpt lat="46.17887" lon="-1.37383">
        <ele>5.42</ele>
        <time>2016-09-02T08:03:34Z</time>
      </trkpt>
      <trkpt lat="46.17873" lon="-1.37362">
        <ele>5.91</ele>
        <time>2016-09-02T08:03:41Z</time>
      </trkpt>
      <trkpt lat="46.17872" lon="-1.3736">
        <ele>5.91</ele>
        <time>2016-09-02T08:03:42Z</time>
      </trkpt>
      <trkpt lat="46.17873" lon="-1.37359">
        <ele>5.91</ele>
        <time>2016-09-02T08:03:43Z</time>
      </trkpt>
      <trkpt lat="46.17879" lon="-1.37372">
        <ele>5.42</ele>
        <time>2016-09-02T08:03:50Z</time>
      </trkpt>
      <trkpt lat="46.17876" lon="-1.37377">
        <ele>5.42</ele>
        <time>2016-09-02T08:03:55Z</time>
      </trkpt>
      <trkpt lat="46.17876" lon="-1.37378">
        <ele>5.91</ele>
        <time>2016-09-02T08:04:00Z</time>
      </trkpt>
      <trkpt lat="46.17876" lon="-1.37377">
        <ele>5.42</ele>
        <time>2016-09-02T08:04:02Z</time>
      </trkpt>
      <trkpt lat="46.17866" lon="-1.37354">
        <ele>5.42</ele>
        <time>2016-09-02T08:04:09Z</time>
      </trkpt>
      <trkpt lat="46.17861" lon="-1.37338">
        <ele>5.42</ele>
        <time>2016-09-02T08:04:12Z</time>
      </trkpt>
      <trkpt lat="46.17861" lon="-1.37326">
        <ele>5.42</ele>
        <time>2016-09-02T08:04:14Z</time>
      </trkpt>
      <trkpt lat="46.17861" lon="-1.37313">
        <ele>3.98</ele>
        <time>2016-09-02T08:04:16Z</time>
      </trkpt>
      <trkpt lat="46.17856" lon="-1.37271">
        <ele>5.42</ele>
        <time>2016-09-02T08:04:22Z</time>
      </trkpt>
      <trkpt lat="46.17857" lon="-1.37264">
        <ele>5.42</ele>
        <time>2016-09-02T08:04:23Z</time>
      </trkpt>
      <trkpt lat="46.17858" lon="-1.37256">
        <ele>5.42</ele>
        <time>2016-09-02T08:04:24Z</time>
      </trkpt>
      <trkpt lat="46.17859" lon="-1.3725">
        <ele>5.42</ele>
        <time>2016-09-02T08:04:25Z</time>
      </trkpt>
      <trkpt lat="46.17859" lon="-1.37243">
        <ele>5.42</ele>
        <time>2016-09-02T08:04:26Z</time>
      </trkpt>
      <trkpt lat="46.1786" lon="-1.37212">
        <ele>5.91</ele>
        <time>2016-09-02T08:04:30Z</time>
      </trkpt>
      <trkpt lat="46.17858" lon="-1.37205">
        <ele>5.91</ele>
        <time>2016-09-02T08:04:31Z</time>
      </trkpt>
      <trkpt lat="46.17856" lon="-1.37198">
        <ele>5.42</ele>
        <time>2016-09-02T08:04:32Z</time>
      </trkpt>
      <trkpt lat="46.17853" lon="-1.37192">
        <ele>4.94</ele>
        <time>2016-09-02T08:04:33Z</time>
      </trkpt>
      <trkpt lat="46.17848" lon="-1.37187">
        <ele>4.94</ele>
        <time>2016-09-02T08:04:34Z</time>
      </trkpt>
      <trkpt lat="46.17843" lon="-1.37183">
        <ele>4.94</ele>
        <time>2016-09-02T08:04:35Z</time>
      </trkpt>
      <trkpt lat="46.17803" lon="-1.3713">
        <ele>2.54</ele>
        <time>2016-09-02T08:04:43Z</time>
      </trkpt>
      <trkpt lat="46.17778" lon="-1.37088">
        <ele>3.5</ele>
        <time>2016-09-02T08:04:49Z</time>
      </trkpt>
      <trkpt lat="46.17774" lon="-1.37083">
        <ele>3.02</ele>
        <time>2016-09-02T08:04:50Z</time>
      </trkpt>
      <trkpt lat="46.17769" lon="-1.37079">
        <ele>3.5</ele>
        <time>2016-09-02T08:04:51Z</time>
      </trkpt>
      <trkpt lat="46.17765" lon="-1.37076">
        <ele>3.5</ele>
        <time>2016-09-02T08:04:52Z</time>
      </trkpt>
      <trkpt lat="46.1776" lon="-1.37073">
        <ele>3.5</ele>
        <time>2016-09-02T08:04:53Z</time>
      </trkpt>
      <trkpt lat="46.17756" lon="-1.3707">
        <ele>3.98</ele>
        <time>2016-09-02T08:04:54Z</time>
      </trkpt>
      <trkpt lat="46.17752" lon="-1.37067">
        <ele>4.46</ele>
        <time>2016-09-02T08:04:55Z</time>
      </trkpt>
      <trkpt lat="46.17734" lon="-1.37054">
        <ele>5.42</ele>
        <time>2016-09-02T08:04:59Z</time>
      </trkpt>
      <trkpt lat="46.17697" lon="-1.37034">
        <ele>5.91</ele>
        <time>2016-09-02T08:05:06Z</time>
      </trkpt>
      <trkpt lat="46.17681" lon="-1.37027">
        <ele>5.91</ele>
        <time>2016-09-02T08:05:09Z</time>
      </trkpt>
      <trkpt lat="46.17676" lon="-1.37025">
        <ele>5.42</ele>
        <time>2016-09-02T08:05:10Z</time>
      </trkpt>
      <trkpt lat="46.17659" lon="-1.37018">
        <ele>5.91</ele>
        <time>2016-09-02T08:05:13Z</time>
      </trkpt>
      <trkpt lat="46.17654" lon="-1.37013">
        <ele>5.42</ele>
        <time>2016-09-02T08:05:14Z</time>
      </trkpt>
      <trkpt lat="46.1765" lon="-1.37008">
        <ele>5.91</ele>
        <time>2016-09-02T08:05:15Z</time>
      </trkpt>
      <trkpt lat="46.17646" lon="-1.37001">
        <ele>6.39</ele>
        <time>2016-09-02T08:05:16Z</time>
      </trkpt>
      <trkpt lat="46.17643" lon="-1.36995">
        <ele>5.91</ele>
        <time>2016-09-02T08:05:17Z</time>
      </trkpt>
      <trkpt lat="46.1764" lon="-1.36988">
        <ele>6.39</ele>
        <time>2016-09-02T08:05:18Z</time>
      </trkpt>
      <trkpt lat="46.17637" lon="-1.36982">
        <ele>6.39</ele>
        <time>2016-09-02T08:05:19Z</time>
      </trkpt>
      <trkpt lat="46.17634" lon="-1.36976">
        <ele>6.87</ele>
        <time>2016-09-02T08:05:20Z</time>
      </trkpt>
      <trkpt lat="46.17594" lon="-1.36891">
        <ele>8.31</ele>
        <time>2016-09-02T08:05:33Z</time>
      </trkpt>
      <trkpt lat="46.17544" lon="-1.36835">
        <ele>7.83</ele>
        <time>2016-09-02T08:05:45Z</time>
      </trkpt>
      <trkpt lat="46.1752" lon="-1.36813">
        <ele>8.31</ele>
        <time>2016-09-02T08:05:50Z</time>
      </trkpt>
      <trkpt lat="46.17482" lon="-1.36785">
        <ele>7.83</ele>
        <time>2016-09-02T08:05:58Z</time>
      </trkpt>
      <trkpt lat="46.17426" lon="-1.36737">
        <ele>7.83</ele>
        <time>2016-09-02T08:06:09Z</time>
      </trkpt>
      <trkpt lat="46.17422" lon="-1.36731">
        <ele>7.83</ele>
        <time>2016-09-02T08:06:10Z</time>
      </trkpt>
      <trkpt lat="46.17418" lon="-1.36725">
        <ele>7.35</ele>
        <time>2016-09-02T08:06:11Z</time>
      </trkpt>
      <trkpt lat="46.17413" lon="-1.36719">
        <ele>7.35</ele>
        <time>2016-09-02T08:06:12Z</time>
      </trkpt>
      <trkpt lat="46.17384" lon="-1.36667">
        <ele>7.35</ele>
        <time>2016-09-02T08:06:20Z</time>
      </trkpt>
      <trkpt lat="46.1738" lon="-1.3666">
        <ele>6.87</ele>
        <time>2016-09-02T08:06:21Z</time>
      </trkpt>
      <trkpt lat="46.17376" lon="-1.36653">
        <ele>6.87</ele>
        <time>2016-09-02T08:06:22Z</time>
      </trkpt>
      <trkpt lat="46.17357" lon="-1.36621">
        <ele>5.91</ele>
        <time>2016-09-02T08:06:27Z</time>
      </trkpt>
      <trkpt lat="46.17344" lon="-1.36603">
        <ele>5.91</ele>
        <time>2016-09-02T08:06:30Z</time>
      </trkpt>
      <trkpt lat="46.1734" lon="-1.36598">
        <ele>5.91</ele>
        <time>2016-09-02T08:06:31Z</time>
      </trkpt>
      <trkpt lat="46.17294" lon="-1.36529">
        <ele>4.94</ele>
        <time>2016-09-02T08:06:42Z</time>
      </trkpt>
      <trkpt lat="46.1729" lon="-1.36525">
        <ele>4.46</ele>
        <time>2016-09-02T08:06:43Z</time>
      </trkpt>
      <trkpt lat="46.17286" lon="-1.36521">
        <ele>4.46</ele>
        <time>2016-09-02T08:06:44Z</time>
      </trkpt>
      <trkpt lat="46.1724" lon="-1.36469">
        <ele>3.02</ele>
        <time>2016-09-02T08:06:53Z</time>
      </trkpt>
      <trkpt lat="46.17164" lon="-1.36392">
        <ele>3.98</ele>
        <time>2016-09-02T08:07:08Z</time>
      </trkpt>
      <trkpt lat="46.17118" lon="-1.36339">
        <ele>5.42</ele>
        <time>2016-09-02T08:07:19Z</time>
      </trkpt>
      <trkpt lat="46.171" lon="-1.36322">
        <ele>6.39</ele>
        <time>2016-09-02T08:07:23Z</time>
      </trkpt>
      <trkpt lat="46.17076" lon="-1.36303">
        <ele>6.39</ele>
        <time>2016-09-02T08:07:28Z</time>
      </trkpt>
      <trkpt lat="46.17072" lon="-1.36299">
        <ele>6.39</ele>
        <time>2016-09-02T08:07:29Z</time>
      </trkpt>
      <trkpt lat="46.17067" lon="-1.36295">
        <ele>6.39</ele>
        <time>2016-09-02T08:07:30Z</time>
      </trkpt>
      <trkpt lat="46.17062" lon="-1.36292">
        <ele>6.39</ele>
        <time>2016-09-02T08:07:31Z</time>
      </trkpt>
      <trkpt lat="46.17057" lon="-1.36289">
        <ele>6.39</ele>
        <time>2016-09-02T08:07:32Z</time>
      </trkpt>
      <trkpt lat="46.17052" lon="-1.36285">
        <ele>6.39</ele>
        <time>2016-09-02T08:07:33Z</time>
      </trkpt>
      <trkpt lat="46.16982" lon="-1.36245">
        <ele>5.91</ele>
        <time>2016-09-02T08:07:46Z</time>
      </trkpt>
      <trkpt lat="46.169" lon="-1.36195">
        <ele>5.42</ele>
        <time>2016-09-02T08:08:01Z</time>
      </trkpt>
      <trkpt lat="46.16848" lon="-1.36139">
        <ele>5.42</ele>
        <time>2016-09-02T08:08:12Z</time>
      </trkpt>
      <trkpt lat="46.16799" lon="-1.36046">
        <ele>4.94</ele>
        <time>2016-09-02T08:08:26Z</time>
      </trkpt>
      <trkpt lat="46.16756" lon="-1.35946">
        <ele>4.46</ele>
        <time>2016-09-02T08:08:40Z</time>
      </trkpt>
      <trkpt lat="46.16709" lon="-1.35838">
        <ele>3.98</ele>
        <time>2016-09-02T08:08:55Z</time>
      </trkpt>
      <trkpt lat="46.16689" lon="-1.35797">
        <ele>3.98</ele>
        <time>2016-09-02T08:09:01Z</time>
      </trkpt>
      <trkpt lat="46.16687" lon="-1.35789">
        <ele>3.98</ele>
        <time>2016-09-02T08:09:02Z</time>
      </trkpt>
      <trkpt lat="46.16685" lon="-1.35782">
        <ele>3.5</ele>
        <time>2016-09-02T08:09:03Z</time>
      </trkpt>
      <trkpt lat="46.16682" lon="-1.35774">
        <ele>3.02</ele>
        <time>2016-09-02T08:09:04Z</time>
      </trkpt>
      <trkpt lat="46.16679" lon="-1.35767">
        <ele>3.5</ele>
        <time>2016-09-02T08:09:05Z</time>
      </trkpt>
      <trkpt lat="46.16676" lon="-1.35761">
        <ele>3.5</ele>
        <time>2016-09-02T08:09:06Z</time>
      </trkpt>
      <trkpt lat="46.16673" lon="-1.35755">
        <ele>3.5</ele>
        <time>2016-09-02T08:09:07Z</time>
      </trkpt>
      <trkpt lat="46.16628" lon="-1.35663">
        <ele>3.98</ele>
        <time>2016-09-02T08:09:21Z</time>
      </trkpt>
      <trkpt lat="46.16619" lon="-1.35644">
        <ele>4.94</ele>
        <time>2016-09-02T08:09:24Z</time>
      </trkpt>
      <trkpt lat="46.16593" lon="-1.35596">
        <ele>5.42</ele>
        <time>2016-09-02T08:09:32Z</time>
      </trkpt>
      <trkpt lat="46.16547" lon="-1.35499">
        <ele>6.39</ele>
        <time>2016-09-02T08:09:47Z</time>
      </trkpt>
      <trkpt lat="46.1654" lon="-1.35486">
        <ele>6.39</ele>
        <time>2016-09-02T08:09:49Z</time>
      </trkpt>
      <trkpt lat="46.16538" lon="-1.3548">
        <ele>6.39</ele>
        <time>2016-09-02T08:09:50Z</time>
      </trkpt>
      <trkpt lat="46.1652" lon="-1.3544">
        <ele>6.39</ele>
        <time>2016-09-02T08:09:56Z</time>
      </trkpt>
      <trkpt lat="46.16508" lon="-1.35396">
        <ele>6.87</ele>
        <time>2016-09-02T08:10:02Z</time>
      </trkpt>
      <trkpt lat="46.1649" lon="-1.3529">
        <ele>7.35</ele>
        <time>2016-09-02T08:10:16Z</time>
      </trkpt>
      <trkpt lat="46.16475" lon="-1.3523">
        <ele>7.83</ele>
        <time>2016-09-02T08:10:24Z</time>
      </trkpt>
      <trkpt lat="46.16466" lon="-1.35201">
        <ele>7.83</ele>
        <time>2016-09-02T08:10:28Z</time>
      </trkpt>
      <trkpt lat="46.1642" lon="-1.35116">
        <ele>7.83</ele>
        <time>2016-09-02T08:10:42Z</time>
      </trkpt>
      <trkpt lat="46.16369" lon="-1.35026">
        <ele>8.31</ele>
        <time>2016-09-02T08:10:57Z</time>
      </trkpt>
      <trkpt lat="46.16322" lon="-1.34927">
        <ele>8.79</ele>
        <time>2016-09-02T08:11:12Z</time>
      </trkpt>
      <trkpt lat="46.16313" lon="-1.34908">
        <ele>9.27</ele>
        <time>2016-09-02T08:11:15Z</time>
      </trkpt>
      <trkpt lat="46.16309" lon="-1.34902">
        <ele>9.27</ele>
        <time>2016-09-02T08:11:16Z</time>
      </trkpt>
      <trkpt lat="46.16276" lon="-1.34832">
        <ele>9.27</ele>
        <time>2016-09-02T08:11:27Z</time>
      </trkpt>
      <trkpt lat="46.16274" lon="-1.34825">
        <ele>9.75</ele>
        <time>2016-09-02T08:11:28Z</time>
      </trkpt>
      <trkpt lat="46.16271" lon="-1.34818">
        <ele>9.75</ele>
        <time>2016-09-02T08:11:29Z</time>
      </trkpt>
      <trkpt lat="46.16269" lon="-1.3481">
        <ele>9.27</ele>
        <time>2016-09-02T08:11:30Z</time>
      </trkpt>
      <trkpt lat="46.16268" lon="-1.34802">
        <ele>9.27</ele>
        <time>2016-09-02T08:11:31Z</time>
      </trkpt>
      <trkpt lat="46.16266" lon="-1.34795">
        <ele>9.75</ele>
        <time>2016-09-02T08:11:32Z</time>
      </trkpt>
      <trkpt lat="46.16255" lon="-1.3474">
        <ele>9.27</ele>
        <time>2016-09-02T08:11:39Z</time>
      </trkpt>
      <trkpt lat="46.16252" lon="-1.34732">
        <ele>8.79</ele>
        <time>2016-09-02T08:11:40Z</time>
      </trkpt>
      <trkpt lat="46.1625" lon="-1.34725">
        <ele>9.27</ele>
        <time>2016-09-02T08:11:41Z</time>
      </trkpt>
      <trkpt lat="46.16248" lon="-1.34718">
        <ele>9.27</ele>
        <time>2016-09-02T08:11:42Z</time>
      </trkpt>
      <trkpt lat="46.16245" lon="-1.34711">
        <ele>9.27</ele>
        <time>2016-09-02T08:11:43Z</time>
      </trkpt>
      <trkpt lat="46.16242" lon="-1.34706">
        <ele>9.27</ele>
        <time>2016-09-02T08:11:44Z</time>
      </trkpt>
      <trkpt lat="46.16238" lon="-1.34701">
        <ele>8.79</ele>
        <time>2016-09-02T08:11:45Z</time>
      </trkpt>
      <trkpt lat="46.16233" lon="-1.34695">
        <ele>8.31</ele>
        <time>2016-09-02T08:11:46Z</time>
      </trkpt>
      <trkpt lat="46.16228" lon="-1.34689">
        <ele>8.79</ele>
        <time>2016-09-02T08:11:47Z</time>
      </trkpt>
      <trkpt lat="46.16215" lon="-1.34669">
        <ele>7.83</ele>
        <time>2016-09-02T08:11:50Z</time>
      </trkpt>
      <trkpt lat="46.16211" lon="-1.34661">
        <ele>7.35</ele>
        <time>2016-09-02T08:11:51Z</time>
      </trkpt>
      <trkpt lat="46.16191" lon="-1.34627">
        <ele>7.35</ele>
        <time>2016-09-02T08:11:56Z</time>
      </trkpt>
      <trkpt lat="46.16188" lon="-1.34619">
        <ele>7.83</ele>
        <time>2016-09-02T08:11:57Z</time>
      </trkpt>
      <trkpt lat="46.16157" lon="-1.34519">
        <ele>7.83</ele>
        <time>2016-09-02T08:12:10Z</time>
      </trkpt>
      <trkpt lat="46.16137" lon="-1.34441">
        <ele>7.83</ele>
        <time>2016-09-02T08:12:20Z</time>
      </trkpt>
      <trkpt lat="46.16117" lon="-1.34347">
        <ele>8.31</ele>
        <time>2016-09-02T08:12:32Z</time>
      </trkpt>
      <trkpt lat="46.16086" lon="-1.34268">
        <ele>7.35</ele>
        <time>2016-09-02T08:12:43Z</time>
      </trkpt>
      <trkpt lat="46.16049" lon="-1.34161">
        <ele>7.35</ele>
        <time>2016-09-02T08:12:57Z</time>
      </trkpt>
      <trkpt lat="46.16029" lon="-1.34043">
        <ele>7.35</ele>
        <time>2016-09-02T08:13:12Z</time>
      </trkpt>
      <trkpt lat="46.16012" lon="-1.33917">
        <ele>6.87</ele>
        <time>2016-09-02T08:13:28Z</time>
      </trkpt>
      <trkpt lat="46.15995" lon="-1.33781">
        <ele>7.35</ele>
        <time>2016-09-02T08:13:45Z</time>
      </trkpt>
      <trkpt lat="46.15977" lon="-1.33651">
        <ele>5.91</ele>
        <time>2016-09-02T08:14:01Z</time>
      </trkpt>
      <trkpt lat="46.1596" lon="-1.33514">
        <ele>5.42</ele>
        <time>2016-09-02T08:14:17Z</time>
      </trkpt>
      <trkpt lat="46.15952" lon="-1.33377">
        <ele>3.5</ele>
        <time>2016-09-02T08:14:32Z</time>
      </trkpt>
      <trkpt lat="46.15967" lon="-1.33269">
        <ele>2.54</ele>
        <time>2016-09-02T08:14:44Z</time>
      </trkpt>
      <trkpt lat="46.15983" lon="-1.33211">
        <ele>1.58</ele>
        <time>2016-09-02T08:14:51Z</time>
      </trkpt>
      <trkpt lat="46.15987" lon="-1.33205">
        <ele>1.58</ele>
        <time>2016-09-02T08:14:52Z</time>
      </trkpt>
      <trkpt lat="46.15992" lon="-1.33201">
        <ele>1.58</ele>
        <time>2016-09-02T08:14:53Z</time>
      </trkpt>
      <trkpt lat="46.16" lon="-1.33193">
        <ele>1.1</ele>
        <time>2016-09-02T08:14:55Z</time>
      </trkpt>
      <trkpt lat="46.16003" lon="-1.33187">
        <ele>1.58</ele>
        <time>2016-09-02T08:14:56Z</time>
      </trkpt>
      <trkpt lat="46.16003" lon="-1.3318">
        <ele>2.06</ele>
        <time>2016-09-02T08:14:57Z</time>
      </trkpt>
      <trkpt lat="46.16004" lon="-1.3316">
        <ele>2.06</ele>
        <time>2016-09-02T08:15:00Z</time>
      </trkpt>
      <trkpt lat="46.16003" lon="-1.33154">
        <ele>2.06</ele>
        <time>2016-09-02T08:15:01Z</time>
      </trkpt>
      <trkpt lat="46.15999" lon="-1.3315">
        <ele>2.06</ele>
        <time>2016-09-02T08:15:02Z</time>
      </trkpt>
      <trkpt lat="46.15996" lon="-1.33147">
        <ele>2.06</ele>
        <time>2016-09-02T08:15:03Z</time>
      </trkpt>
      <trkpt lat="46.15993" lon="-1.33141">
        <ele>2.06</ele>
        <time>2016-09-02T08:15:04Z</time>
      </trkpt>
      <trkpt lat="46.15993" lon="-1.33135">
        <ele>1.58</ele>
        <time>2016-09-02T08:15:05Z</time>
      </trkpt>
      <trkpt lat="46.15993" lon="-1.33128">
        <ele>1.58</ele>
        <time>2016-09-02T08:15:06Z</time>
      </trkpt>
      <trkpt lat="46.15999" lon="-1.33035">
        <ele>2.54</ele>
        <time>2016-09-02T08:15:19Z</time>
      </trkpt>
      <trkpt lat="46.15997" lon="-1.32925">
        <ele>3.5</ele>
        <time>2016-09-02T08:15:34Z</time>
      </trkpt>
      <trkpt lat="46.15982" lon="-1.32815">
        <ele>4.46</ele>
        <time>2016-09-02T08:15:49Z</time>
      </trkpt>
      <trkpt lat="46.15948" lon="-1.32687">
        <ele>5.42</ele>
        <time>2016-09-02T08:16:07Z</time>
      </trkpt>
      <trkpt lat="46.15902" lon="-1.32547">
        <ele>5.91</ele>
        <time>2016-09-02T08:16:27Z</time>
      </trkpt>
      <trkpt lat="46.15867" lon="-1.32437">
        <ele>5.91</ele>
        <time>2016-09-02T08:16:42Z</time>
      </trkpt>
      <trkpt lat="46.15829" lon="-1.32316">
        <ele>2.06</ele>
        <time>2016-09-02T08:16:58Z</time>
      </trkpt>
      <trkpt lat="46.15827" lon="-1.32309">
        <ele>5.91</ele>
        <time>2016-09-02T08:16:59Z</time>
      </trkpt>
      <trkpt lat="46.15792" lon="-1.32198">
        <ele>6.39</ele>
        <time>2016-09-02T08:17:14Z</time>
      </trkpt>
      <trkpt lat="46.15771" lon="-1.32122">
        <ele>6.39</ele>
        <time>2016-09-02T08:17:24Z</time>
      </trkpt>
      <trkpt lat="46.15765" lon="-1.32108">
        <ele>6.39</ele>
        <time>2016-09-02T08:17:26Z</time>
      </trkpt>
      <trkpt lat="46.15762" lon="-1.32102">
        <ele>6.39</ele>
        <time>2016-09-02T08:17:27Z</time>
      </trkpt>
      <trkpt lat="46.15759" lon="-1.32095">
        <ele>6.87</ele>
        <time>2016-09-02T08:17:28Z</time>
      </trkpt>
      <trkpt lat="46.15756" lon="-1.32088">
        <ele>6.39</ele>
        <time>2016-09-02T08:17:29Z</time>
      </trkpt>
      <trkpt lat="46.15753" lon="-1.32081">
        <ele>6.39</ele>
        <time>2016-09-02T08:17:30Z</time>
      </trkpt>
      <trkpt lat="46.15713" lon="-1.31954">
        <ele>5.91</ele>
        <time>2016-09-02T08:17:47Z</time>
      </trkpt>
      <trkpt lat="46.15673" lon="-1.3183">
        <ele>5.91</ele>
        <time>2016-09-02T08:18:03Z</time>
      </trkpt>
      <trkpt lat="46.15638" lon="-1.31723">
        <ele>7.83</ele>
        <time>2016-09-02T08:18:18Z</time>
      </trkpt>
      <trkpt lat="46.15599" lon="-1.31625">
        <ele>7.83</ele>
        <time>2016-09-02T08:18:32Z</time>
      </trkpt>
      <trkpt lat="46.15572" lon="-1.31565">
        <ele>8.31</ele>
        <time>2016-09-02T08:18:41Z</time>
      </trkpt>
      <trkpt lat="46.15563" lon="-1.31547">
        <ele>7.83</ele>
        <time>2016-09-02T08:18:44Z</time>
      </trkpt>
      <trkpt lat="46.15561" lon="-1.31541">
        <ele>8.31</ele>
        <time>2016-09-02T08:18:45Z</time>
      </trkpt>
      <trkpt lat="46.15561" lon="-1.31534">
        <ele>8.31</ele>
        <time>2016-09-02T08:18:46Z</time>
      </trkpt>
      <trkpt lat="46.15563" lon="-1.31528">
        <ele>7.83</ele>
        <time>2016-09-02T08:18:47Z</time>
      </trkpt>
      <trkpt lat="46.15566" lon="-1.31524">
        <ele>8.31</ele>
        <time>2016-09-02T08:18:48Z</time>
      </trkpt>
      <trkpt lat="46.15568" lon="-1.31521">
        <ele>8.31</ele>
        <time>2016-09-02T08:18:49Z</time>
      </trkpt>
      <trkpt lat="46.15569" lon="-1.3152">
        <ele>8.31</ele>
        <time>2016-09-02T08:18:50Z</time>
      </trkpt>
      <trkpt lat="46.1557" lon="-1.3152">
        <ele>8.79</ele>
        <time>2016-09-02T08:18:51Z</time>
      </trkpt>
      <trkpt lat="46.15572" lon="-1.31519">
        <ele>8.31</ele>
        <time>2016-09-02T08:18:52Z</time>
      </trkpt>
      <trkpt lat="46.15575" lon="-1.31518">
        <ele>8.31</ele>
        <time>2016-09-02T08:18:55Z</time>
      </trkpt>
      <trkpt lat="46.15575" lon="-1.31515">
        <ele>8.79</ele>
        <time>2016-09-02T08:18:56Z</time>
      </trkpt>
      <trkpt lat="46.15575" lon="-1.31512">
        <ele>8.31</ele>
        <time>2016-09-02T08:18:57Z</time>
      </trkpt>
      <trkpt lat="46.15574" lon="-1.31508">
        <ele>8.79</ele>
        <time>2016-09-02T08:18:58Z</time>
      </trkpt>
      <trkpt lat="46.15573" lon="-1.31504">
        <ele>8.31</ele>
        <time>2016-09-02T08:18:59Z</time>
      </trkpt>
      <trkpt lat="46.15571" lon="-1.31499">
        <ele>8.31</ele>
        <time>2016-09-02T08:19:00Z</time>
      </trkpt>
      <trkpt lat="46.15567" lon="-1.31496">
        <ele>8.79</ele>
        <time>2016-09-02T08:19:01Z</time>
      </trkpt>
      <trkpt lat="46.15563" lon="-1.31496">
        <ele>8.31</ele>
        <time>2016-09-02T08:19:02Z</time>
      </trkpt>
      <trkpt lat="46.15559" lon="-1.31496">
        <ele>8.31</ele>
        <time>2016-09-02T08:19:03Z</time>
      </trkpt>
      <trkpt lat="46.15545" lon="-1.31495">
        <ele>8.31</ele>
        <time>2016-09-02T08:19:06Z</time>
      </trkpt>
      <trkpt lat="46.15541" lon="-1.31493">
        <ele>8.31</ele>
        <time>2016-09-02T08:19:07Z</time>
      </trkpt>
      <trkpt lat="46.15538" lon="-1.31489">
        <ele>8.31</ele>
        <time>2016-09-02T08:19:08Z</time>
      </trkpt>
      <trkpt lat="46.15535" lon="-1.31484">
        <ele>8.79</ele>
        <time>2016-09-02T08:19:09Z</time>
      </trkpt>
      <trkpt lat="46.15532" lon="-1.31478">
        <ele>8.79</ele>
        <time>2016-09-02T08:19:10Z</time>
      </trkpt>
      <trkpt lat="46.15529" lon="-1.31471">
        <ele>8.31</ele>
        <time>2016-09-02T08:19:11Z</time>
      </trkpt>
      <trkpt lat="46.15492" lon="-1.31387">
        <ele>8.31</ele>
        <time>2016-09-02T08:19:23Z</time>
      </trkpt>
      <trkpt lat="46.15488" lon="-1.31381">
        <ele>7.83</ele>
        <time>2016-09-02T08:19:24Z</time>
      </trkpt>
      <trkpt lat="46.15484" lon="-1.31375">
        <ele>7.83</ele>
        <time>2016-09-02T08:19:25Z</time>
      </trkpt>
      <trkpt lat="46.15481" lon="-1.31368">
        <ele>7.83</ele>
        <time>2016-09-02T08:19:26Z</time>
      </trkpt>
      <trkpt lat="46.15477" lon="-1.31361">
        <ele>7.83</ele>
        <time>2016-09-02T08:19:27Z</time>
      </trkpt>
      <trkpt lat="46.15448" lon="-1.31274">
        <ele>7.83</ele>
        <time>2016-09-02T08:19:39Z</time>
      </trkpt>
      <trkpt lat="46.15448" lon="-1.31267">
        <ele>7.83</ele>
        <time>2016-09-02T08:19:40Z</time>
      </trkpt>
      <trkpt lat="46.15447" lon="-1.3126">
        <ele>8.31</ele>
        <time>2016-09-02T08:19:41Z</time>
      </trkpt>
      <trkpt lat="46.15446" lon="-1.31245">
        <ele>8.31</ele>
        <time>2016-09-02T08:19:43Z</time>
      </trkpt>
      <trkpt lat="46.15445" lon="-1.31237">
        <ele>7.83</ele>
        <time>2016-09-02T08:19:44Z</time>
      </trkpt>
      <trkpt lat="46.15444" lon="-1.31229">
        <ele>8.31</ele>
        <time>2016-09-02T08:19:45Z</time>
      </trkpt>
      <trkpt lat="46.15437" lon="-1.31206">
        <ele>7.83</ele>
        <time>2016-09-02T08:19:48Z</time>
      </trkpt>
      <trkpt lat="46.15434" lon="-1.31199">
        <ele>8.31</ele>
        <time>2016-09-02T08:19:49Z</time>
      </trkpt>
      <trkpt lat="46.15428" lon="-1.31185">
        <ele>8.79</ele>
        <time>2016-09-02T08:19:51Z</time>
      </trkpt>
      <trkpt lat="46.15426" lon="-1.31177">
        <ele>8.31</ele>
        <time>2016-09-02T08:19:52Z</time>
      </trkpt>
      <trkpt lat="46.15393" lon="-1.31024">
        <ele>8.31</ele>
        <time>2016-09-02T08:20:11Z</time>
      </trkpt>
      <trkpt lat="46.15369" lon="-1.30917">
        <ele>12.15</ele>
        <time>2016-09-02T08:20:24Z</time>
      </trkpt>
      <trkpt lat="46.15368" lon="-1.30909">
        <ele>8.31</ele>
        <time>2016-09-02T08:20:25Z</time>
      </trkpt>
      <trkpt lat="46.15351" lon="-1.30782">
        <ele>8.79</ele>
        <time>2016-09-02T08:20:40Z</time>
      </trkpt>
      <trkpt lat="46.15354" lon="-1.30664">
        <ele>8.79</ele>
        <time>2016-09-02T08:20:54Z</time>
      </trkpt>
      <trkpt lat="46.15355" lon="-1.30656">
        <ele>8.31</ele>
        <time>2016-09-02T08:20:55Z</time>
      </trkpt>
      <trkpt lat="46.15357" lon="-1.30649">
        <ele>8.79</ele>
        <time>2016-09-02T08:20:56Z</time>
      </trkpt>
      <trkpt lat="46.15359" lon="-1.30643">
        <ele>8.31</ele>
        <time>2016-09-02T08:20:57Z</time>
      </trkpt>
      <trkpt lat="46.1536" lon="-1.30636">
        <ele>8.31</ele>
        <time>2016-09-02T08:20:58Z</time>
      </trkpt>
      <trkpt lat="46.1536" lon="-1.30629">
        <ele>8.79</ele>
        <time>2016-09-02T08:20:59Z</time>
      </trkpt>
      <trkpt lat="46.15361" lon="-1.30623">
        <ele>8.79</ele>
        <time>2016-09-02T08:21:00Z</time>
      </trkpt>
      <trkpt lat="46.15362" lon="-1.30618">
        <ele>8.79</ele>
        <time>2016-09-02T08:21:01Z</time>
      </trkpt>
      <trkpt lat="46.1536" lon="-1.30615">
        <ele>9.27</ele>
        <time>2016-09-02T08:21:02Z</time>
      </trkpt>
      <trkpt lat="46.15356" lon="-1.30615">
        <ele>8.79</ele>
        <time>2016-09-02T08:21:03Z</time>
      </trkpt>
      <trkpt lat="46.15354" lon="-1.30614">
        <ele>8.79</ele>
        <time>2016-09-02T08:21:04Z</time>
      </trkpt>
      <trkpt lat="46.15351" lon="-1.3061">
        <ele>8.79</ele>
        <time>2016-09-02T08:21:05Z</time>
      </trkpt>
      <trkpt lat="46.15343" lon="-1.30599">
        <ele>8.79</ele>
        <time>2016-09-02T08:21:07Z</time>
      </trkpt>
      <trkpt lat="46.15341" lon="-1.30592">
        <ele>8.79</ele>
        <time>2016-09-02T08:21:08Z</time>
      </trkpt>
      <trkpt lat="46.15332" lon="-1.3048">
        <ele>8.31</ele>
        <time>2016-09-02T08:21:21Z</time>
      </trkpt>
      <trkpt lat="46.15319" lon="-1.30354">
        <ele>8.31</ele>
        <time>2016-09-02T08:21:36Z</time>
      </trkpt>
      <trkpt lat="46.15328" lon="-1.30236">
        <ele>8.79</ele>
        <time>2016-09-02T08:21:50Z</time>
      </trkpt>
      <trkpt lat="46.15348" lon="-1.30114">
        <ele>9.75</ele>
        <time>2016-09-02T08:22:05Z</time>
      </trkpt>
      <trkpt lat="46.1536" lon="-1.2999">
        <ele>8.79</ele>
        <time>2016-09-02T08:22:20Z</time>
      </trkpt>
      <trkpt lat="46.15368" lon="-1.29859">
        <ele>8.79</ele>
        <time>2016-09-02T08:22:36Z</time>
      </trkpt>
      <trkpt lat="46.1538" lon="-1.29693">
        <ele>8.79</ele>
        <time>2016-09-02T08:22:56Z</time>
      </trkpt>
      <trkpt lat="46.15383" lon="-1.29553">
        <ele>7.35</ele>
        <time>2016-09-02T08:23:12Z</time>
      </trkpt>
      <trkpt lat="46.1538" lon="-1.29418">
        <ele>5.91</ele>
        <time>2016-09-02T08:23:26Z</time>
      </trkpt>
      <trkpt lat="46.15401" lon="-1.29318">
        <ele>5.42</ele>
        <time>2016-09-02T08:23:37Z</time>
      </trkpt>
      <trkpt lat="46.15418" lon="-1.29263">
        <ele>5.42</ele>
        <time>2016-09-02T08:23:44Z</time>
      </trkpt>
      <trkpt lat="46.15421" lon="-1.29257">
        <ele>5.42</ele>
        <time>2016-09-02T08:23:45Z</time>
      </trkpt>
      <trkpt lat="46.15425" lon="-1.29252">
        <ele>4.94</ele>
        <time>2016-09-02T08:23:46Z</time>
      </trkpt>
      <trkpt lat="46.15439" lon="-1.29233">
        <ele>5.42</ele>
        <time>2016-09-02T08:23:50Z</time>
      </trkpt>
      <trkpt lat="46.15441" lon="-1.29227">
        <ele>5.42</ele>
        <time>2016-09-02T08:23:51Z</time>
      </trkpt>
      <trkpt lat="46.15443" lon="-1.29222">
        <ele>6.39</ele>
        <time>2016-09-02T08:23:52Z</time>
      </trkpt>
      <trkpt lat="46.15446" lon="-1.2921">
        <ele>5.91</ele>
        <time>2016-09-02T08:23:54Z</time>
      </trkpt>
      <trkpt lat="46.15449" lon="-1.29204">
        <ele>5.91</ele>
        <time>2016-09-02T08:23:55Z</time>
      </trkpt>
      <trkpt lat="46.15452" lon="-1.29198">
        <ele>6.39</ele>
        <time>2016-09-02T08:23:56Z</time>
      </trkpt>
      <trkpt lat="46.15489" lon="-1.29138">
        <ele>7.83</ele>
        <time>2016-09-02T08:24:08Z</time>
      </trkpt>
      <trkpt lat="46.15526" lon="-1.29048">
        <ele>8.79</ele>
        <time>2016-09-02T08:24:23Z</time>
      </trkpt>
      <trkpt lat="46.1556" lon="-1.28949">
        <ele>9.27</ele>
        <time>2016-09-02T08:24:38Z</time>
      </trkpt>
      <trkpt lat="46.15578" lon="-1.28845">
        <ele>9.27</ele>
        <time>2016-09-02T08:24:53Z</time>
      </trkpt>
      <trkpt lat="46.15598" lon="-1.28742">
        <ele>9.75</ele>
        <time>2016-09-02T08:25:07Z</time>
      </trkpt>
      <trkpt lat="46.15634" lon="-1.28654">
        <ele>8.79</ele>
        <time>2016-09-02T08:25:20Z</time>
      </trkpt>
      <trkpt lat="46.15672" lon="-1.28567">
        <ele>9.27</ele>
        <time>2016-09-02T08:25:33Z</time>
      </trkpt>
      <trkpt lat="46.15682" lon="-1.2854">
        <ele>8.79</ele>
        <time>2016-09-02T08:25:37Z</time>
      </trkpt>
      <trkpt lat="46.15723" lon="-1.28447">
        <ele>9.27</ele>
        <time>2016-09-02T08:25:51Z</time>
      </trkpt>
      <trkpt lat="46.15729" lon="-1.28433">
        <ele>9.27</ele>
        <time>2016-09-02T08:25:53Z</time>
      </trkpt>
      <trkpt lat="46.15733" lon="-1.28426">
        <ele>9.75</ele>
        <time>2016-09-02T08:25:54Z</time>
      </trkpt>
      <trkpt lat="46.15757" lon="-1.28335">
        <ele>9.27</ele>
        <time>2016-09-02T08:26:06Z</time>
      </trkpt>
      <trkpt lat="46.15777" lon="-1.28277">
        <ele>8.79</ele>
        <time>2016-09-02T08:26:14Z</time>
      </trkpt>
      <trkpt lat="46.1578" lon="-1.2827">
        <ele>9.27</ele>
        <time>2016-09-02T08:26:15Z</time>
      </trkpt>
      <trkpt lat="46.15825" lon="-1.28159">
        <ele>8.31</ele>
        <time>2016-09-02T08:26:30Z</time>
      </trkpt>
      <trkpt lat="46.15873" lon="-1.28043">
        <ele>5.91</ele>
        <time>2016-09-02T08:26:46Z</time>
      </trkpt>
      <trkpt lat="46.15907" lon="-1.27943">
        <ele>4.94</ele>
        <time>2016-09-02T08:26:59Z</time>
      </trkpt>
      <trkpt lat="46.15919" lon="-1.27862">
        <ele>4.46</ele>
        <time>2016-09-02T08:27:09Z</time>
      </trkpt>
      <trkpt lat="46.1592" lon="-1.27854">
        <ele>4.94</ele>
        <time>2016-09-02T08:27:10Z</time>
      </trkpt>
      <trkpt lat="46.15934" lon="-1.27749">
        <ele>3.5</ele>
        <time>2016-09-02T08:27:23Z</time>
      </trkpt>
      <trkpt lat="46.15946" lon="-1.27658">
        <ele>2.06</ele>
        <time>2016-09-02T08:27:36Z</time>
      </trkpt>
      <trkpt lat="46.15946" lon="-1.27651">
        <ele>2.54</ele>
        <time>2016-09-02T08:27:43Z</time>
      </trkpt>
      <trkpt lat="46.15946" lon="-1.2765">
        <ele>2.06</ele>
        <time>2016-09-02T08:27:45Z</time>
      </trkpt>
      <trkpt lat="46.15947" lon="-1.27648">
        <ele>2.06</ele>
        <time>2016-09-02T08:27:46Z</time>
      </trkpt>
      <trkpt lat="46.15948" lon="-1.27647">
        <ele>2.06</ele>
        <time>2016-09-02T08:27:47Z</time>
      </trkpt>
      <trkpt lat="46.15949" lon="-1.27646">
        <ele>1.58</ele>
        <time>2016-09-02T08:27:48Z</time>
      </trkpt>
      <trkpt lat="46.15951" lon="-1.27646">
        <ele>2.06</ele>
        <time>2016-09-02T08:27:49Z</time>
      </trkpt>
      <trkpt lat="46.15953" lon="-1.27646">
        <ele>2.06</ele>
        <time>2016-09-02T08:27:50Z</time>
      </trkpt>
      <trkpt lat="46.15979" lon="-1.27651">
        <ele>1.58</ele>
        <time>2016-09-02T08:27:58Z</time>
      </trkpt>
      <trkpt lat="46.15999" lon="-1.2764">
        <ele>1.58</ele>
        <time>2016-09-02T08:28:06Z</time>
      </trkpt>
      <trkpt lat="46.16" lon="-1.27621">
        <ele>2.06</ele>
        <time>2016-09-02T08:28:10Z</time>
      </trkpt>
      <trkpt lat="46.15999" lon="-1.27614">
        <ele>1.58</ele>
        <time>2016-09-02T08:28:11Z</time>
      </trkpt>
      <trkpt lat="46.1599" lon="-1.27576">
        <ele>1.1</ele>
        <time>2016-09-02T08:28:19Z</time>
      </trkpt>
      <trkpt lat="46.15987" lon="-1.27559">
        <ele>1.58</ele>
        <time>2016-09-02T08:28:27Z</time>
      </trkpt>
      <trkpt lat="46.15977" lon="-1.27526">
        <ele>1.1</ele>
        <time>2016-09-02T08:28:35Z</time>
      </trkpt>
      <trkpt lat="46.15962" lon="-1.27491">
        <ele>0.62</ele>
        <time>2016-09-02T08:28:43Z</time>
      </trkpt>
      <trkpt lat="46.15939" lon="-1.27442">
        <ele>1.1</ele>
        <time>2016-09-02T08:28:51Z</time>
      </trkpt>
      <trkpt lat="46.15908" lon="-1.27354">
        <ele>1.58</ele>
        <time>2016-09-02T08:29:04Z</time>
      </trkpt>
      <trkpt lat="46.15907" lon="-1.27347">
        <ele>2.06</ele>
        <time>2016-09-02T08:29:05Z</time>
      </trkpt>
      <trkpt lat="46.15907" lon="-1.27339">
        <ele>2.06</ele>
        <time>2016-09-02T08:29:06Z</time>
      </trkpt>
      <trkpt lat="46.15903" lon="-1.27299">
        <ele>2.06</ele>
        <time>2016-09-02T08:29:14Z</time>
      </trkpt>
      <trkpt lat="46.15897" lon="-1.2729">
        <ele>2.54</ele>
        <time>2016-09-02T08:29:16Z</time>
      </trkpt>
      <trkpt lat="46.1587" lon="-1.27232">
        <ele>2.54</ele>
        <time>2016-09-02T08:29:26Z</time>
      </trkpt>
      <trkpt lat="46.15852" lon="-1.27134">
        <ele>4.94</ele>
        <time>2016-09-02T08:29:41Z</time>
      </trkpt>
      <trkpt lat="46.15846" lon="-1.2711">
        <ele>4.94</ele>
        <time>2016-09-02T08:29:47Z</time>
      </trkpt>
      <trkpt lat="46.15846" lon="-1.27107">
        <ele>4.94</ele>
        <time>2016-09-02T08:29:48Z</time>
      </trkpt>
      <trkpt lat="46.15847" lon="-1.27104">
        <ele>4.94</ele>
        <time>2016-09-02T08:29:49Z</time>
      </trkpt>
      <trkpt lat="46.15848" lon="-1.271">
        <ele>5.42</ele>
        <time>2016-09-02T08:29:50Z</time>
      </trkpt>
      <trkpt lat="46.15851" lon="-1.27097">
        <ele>4.94</ele>
        <time>2016-09-02T08:29:51Z</time>
      </trkpt>
      <trkpt lat="46.15854" lon="-1.27093">
        <ele>4.94</ele>
        <time>2016-09-02T08:29:52Z</time>
      </trkpt>
      <trkpt lat="46.15858" lon="-1.27091">
        <ele>4.94</ele>
        <time>2016-09-02T08:29:53Z</time>
      </trkpt>
      <trkpt lat="46.15862" lon="-1.27089">
        <ele>4.94</ele>
        <time>2016-09-02T08:29:54Z</time>
      </trkpt>
      <trkpt lat="46.15865" lon="-1.27088">
        <ele>4.94</ele>
        <time>2016-09-02T08:29:55Z</time>
      </trkpt>
      <trkpt lat="46.15873" lon="-1.27086">
        <ele>5.42</ele>
        <time>2016-09-02T08:29:57Z</time>
      </trkpt>
      <trkpt lat="46.15877" lon="-1.27083">
        <ele>5.42</ele>
        <time>2016-09-02T08:29:58Z</time>
      </trkpt>
      <trkpt lat="46.15879" lon="-1.27078">
        <ele>5.91</ele>
        <time>2016-09-02T08:29:59Z</time>
      </trkpt>
      <trkpt lat="46.1588" lon="-1.27073">
        <ele>5.91</ele>
        <time>2016-09-02T08:30:00Z</time>
      </trkpt>
      <trkpt lat="46.1588" lon="-1.27067">
        <ele>5.91</ele>
        <time>2016-09-02T08:30:01Z</time>
      </trkpt>
      <trkpt lat="46.1588" lon="-1.2706">
        <ele>6.39</ele>
        <time>2016-09-02T08:30:02Z</time>
      </trkpt>
      <trkpt lat="46.15877" lon="-1.26968">
        <ele>5.91</ele>
        <time>2016-09-02T08:30:15Z</time>
      </trkpt>
      <trkpt lat="46.15883" lon="-1.26844">
        <ele>5.42</ele>
        <time>2016-09-02T08:30:31Z</time>
      </trkpt>
      <trkpt lat="46.15907" lon="-1.26695">
        <ele>4.94</ele>
        <time>2016-09-02T08:30:50Z</time>
      </trkpt>
      <trkpt lat="46.15916" lon="-1.26657">
        <ele>4.94</ele>
        <time>2016-09-02T08:30:55Z</time>
      </trkpt>
      <trkpt lat="46.15937" lon="-1.26602">
        <ele>3.98</ele>
        <time>2016-09-02T08:31:03Z</time>
      </trkpt>
      <trkpt lat="46.15939" lon="-1.26594">
        <ele>3.5</ele>
        <time>2016-09-02T08:31:04Z</time>
      </trkpt>
      <trkpt lat="46.15939" lon="-1.26587">
        <ele>3.98</ele>
        <time>2016-09-02T08:31:05Z</time>
      </trkpt>
      <trkpt lat="46.15938" lon="-1.26579">
        <ele>3.98</ele>
        <time>2016-09-02T08:31:06Z</time>
      </trkpt>
      <trkpt lat="46.15938" lon="-1.26572">
        <ele>3.98</ele>
        <time>2016-09-02T08:31:07Z</time>
      </trkpt>
      <trkpt lat="46.1594" lon="-1.26566">
        <ele>4.46</ele>
        <time>2016-09-02T08:31:08Z</time>
      </trkpt>
      <trkpt lat="46.15943" lon="-1.26561">
        <ele>3.98</ele>
        <time>2016-09-02T08:31:09Z</time>
      </trkpt>
      <trkpt lat="46.15948" lon="-1.26558">
        <ele>3.98</ele>
        <time>2016-09-02T08:31:10Z</time>
      </trkpt>
      <trkpt lat="46.15952" lon="-1.26556">
        <ele>3.98</ele>
        <time>2016-09-02T08:31:11Z</time>
      </trkpt>
      <trkpt lat="46.15957" lon="-1.26558">
        <ele>3.5</ele>
        <time>2016-09-02T08:31:12Z</time>
      </trkpt>
      <trkpt lat="46.15962" lon="-1.26561">
        <ele>3.5</ele>
        <time>2016-09-02T08:31:13Z</time>
      </trkpt>
      <trkpt lat="46.15966" lon="-1.26566">
        <ele>3.5</ele>
        <time>2016-09-02T08:31:14Z</time>
      </trkpt>
      <trkpt lat="46.1597" lon="-1.26571">
        <ele>3.5</ele>
        <time>2016-09-02T08:31:15Z</time>
      </trkpt>
      <trkpt lat="46.15975" lon="-1.26576">
        <ele>3.5</ele>
        <time>2016-09-02T08:31:16Z</time>
      </trkpt>
      <trkpt lat="46.15979" lon="-1.26578">
        <ele>2.54</ele>
        <time>2016-09-02T08:31:17Z</time>
      </trkpt>
      <trkpt lat="46.15984" lon="-1.26578">
        <ele>3.5</ele>
        <time>2016-09-02T08:31:18Z</time>
      </trkpt>
      <trkpt lat="46.15987" lon="-1.26575">
        <ele>3.02</ele>
        <time>2016-09-02T08:31:19Z</time>
      </trkpt>
      <trkpt lat="46.15989" lon="-1.26571">
        <ele>3.98</ele>
        <time>2016-09-02T08:31:20Z</time>
      </trkpt>
      <trkpt lat="46.15989" lon="-1.26569">
        <ele>3.98</ele>
        <time>2016-09-02T08:31:21Z</time>
      </trkpt>
      <trkpt lat="46.15988" lon="-1.26565">
        <ele>3.5</ele>
        <time>2016-09-02T08:31:22Z</time>
      </trkpt>
      <trkpt lat="46.15985" lon="-1.26551">
        <ele>3.02</ele>
        <time>2016-09-02T08:31:25Z</time>
      </trkpt>
      <trkpt lat="46.15984" lon="-1.26538">
        <ele>2.54</ele>
        <time>2016-09-02T08:31:27Z</time>
      </trkpt>
      <trkpt lat="46.15983" lon="-1.26531">
        <ele>3.02</ele>
        <time>2016-09-02T08:31:28Z</time>
      </trkpt>
      <trkpt lat="46.15984" lon="-1.26524">
        <ele>3.02</ele>
        <time>2016-09-02T08:31:29Z</time>
      </trkpt>
      <trkpt lat="46.15985" lon="-1.26517">
        <ele>3.02</ele>
        <time>2016-09-02T08:31:30Z</time>
      </trkpt>
      <trkpt lat="46.15987" lon="-1.26509">
        <ele>3.02</ele>
        <time>2016-09-02T08:31:31Z</time>
      </trkpt>
      <trkpt lat="46.16009" lon="-1.26439">
        <ele>3.02</ele>
        <time>2016-09-02T08:31:41Z</time>
      </trkpt>
      <trkpt lat="46.16017" lon="-1.26421">
        <ele>3.5</ele>
        <time>2016-09-02T08:31:45Z</time>
      </trkpt>
      <trkpt lat="46.1602" lon="-1.26419">
        <ele>3.5</ele>
        <time>2016-09-02T08:31:46Z</time>
      </trkpt>
      <trkpt lat="46.16031" lon="-1.26421">
        <ele>4.46</ele>
        <time>2016-09-02T08:31:52Z</time>
      </trkpt>
      <trkpt lat="46.16032" lon="-1.2642">
        <ele>4.46</ele>
        <time>2016-09-02T08:32:08Z</time>
      </trkpt>
      <trkpt lat="46.16032" lon="-1.26421">
        <ele>4.94</ele>
        <time>2016-09-02T08:32:28Z</time>
      </trkpt>
      <trkpt lat="46.16032" lon="-1.26421">
        <ele>5.42</ele>
        <time>2016-09-02T08:32:50Z</time>
      </trkpt>
      <trkpt lat="46.16032" lon="-1.26421">
        <ele>4.94</ele>
        <time>2016-09-02T08:33:07Z</time>
      </trkpt>
      <trkpt lat="46.16032" lon="-1.26422">
        <ele>4.94</ele>
        <time>2016-09-02T08:33:28Z</time>
      </trkpt>
      <trkpt lat="46.16031" lon="-1.26421">
        <ele>4.46</ele>
        <time>2016-09-02T08:33:50Z</time>
      </trkpt>
      <trkpt lat="46.16031" lon="-1.26421">
        <ele>4.94</ele>
        <time>2016-09-02T08:34:13Z</time>
      </trkpt>
      <trkpt lat="46.16032" lon="-1.26422">
        <ele>4.46</ele>
        <time>2016-09-02T08:34:33Z</time>
      </trkpt>
      <trkpt lat="46.16032" lon="-1.26422">
        <ele>4.46</ele>
        <time>2016-09-02T08:34:46Z</time>
      </trkpt>
      <trkpt lat="46.16032" lon="-1.26421">
        <ele>4.46</ele>
        <time>2016-09-02T08:34:55Z</time>
      </trkpt>
      <trkpt lat="46.16032" lon="-1.26421">
        <ele>4.94</ele>
        <time>2016-09-02T08:34:57Z</time>
      </trkpt>
      <trkpt lat="46.16024" lon="-1.26408">
        <ele>3.5</ele>
        <time>2016-09-02T08:35:03Z</time>
      </trkpt>
      <trkpt lat="46.16028" lon="-1.26392">
        <ele>3.98</ele>
        <time>2016-09-02T08:35:07Z</time>
      </trkpt>
      <trkpt lat="46.16037" lon="-1.2634">
        <ele>3.98</ele>
        <time>2016-09-02T08:35:17Z</time>
      </trkpt>
      <trkpt lat="46.16051" lon="-1.26313">
        <ele>4.46</ele>
        <time>2016-09-02T08:35:23Z</time>
      </trkpt>
      <trkpt lat="46.16083" lon="-1.26254">
        <ele>3.5</ele>
        <time>2016-09-02T08:35:34Z</time>
      </trkpt>
      <trkpt lat="46.16085" lon="-1.26248">
        <ele>3.5</ele>
        <time>2016-09-02T08:35:35Z</time>
      </trkpt>
      <trkpt lat="46.16114" lon="-1.26166">
        <ele>3.02</ele>
        <time>2016-09-02T08:35:47Z</time>
      </trkpt>
      <trkpt lat="46.16123" lon="-1.26145">
        <ele>3.02</ele>
        <time>2016-09-02T08:35:50Z</time>
      </trkpt>
      <trkpt lat="46.16127" lon="-1.26139">
        <ele>2.54</ele>
        <time>2016-09-02T08:35:51Z</time>
      </trkpt>
      <trkpt lat="46.16131" lon="-1.26134">
        <ele>2.54</ele>
        <time>2016-09-02T08:35:52Z</time>
      </trkpt>
      <trkpt lat="46.16135" lon="-1.26128">
        <ele>2.54</ele>
        <time>2016-09-02T08:35:53Z</time>
      </trkpt>
      <trkpt lat="46.16138" lon="-1.26122">
        <ele>2.54</ele>
        <time>2016-09-02T08:35:54Z</time>
      </trkpt>
      <trkpt lat="46.1614" lon="-1.26114">
        <ele>3.02</ele>
        <time>2016-09-02T08:35:55Z</time>
      </trkpt>
      <trkpt lat="46.16142" lon="-1.26108">
        <ele>3.02</ele>
        <time>2016-09-02T08:35:56Z</time>
      </trkpt>
      <trkpt lat="46.16144" lon="-1.26102">
        <ele>3.02</ele>
        <time>2016-09-02T08:35:57Z</time>
      </trkpt>
      <trkpt lat="46.16148" lon="-1.26096">
        <ele>3.02</ele>
        <time>2016-09-02T08:35:58Z</time>
      </trkpt>
      <trkpt lat="46.16152" lon="-1.26091">
        <ele>3.02</ele>
        <time>2016-09-02T08:35:59Z</time>
      </trkpt>
      <trkpt lat="46.16156" lon="-1.26086">
        <ele>2.54</ele>
        <time>2016-09-02T08:36:00Z</time>
      </trkpt>
      <trkpt lat="46.1616" lon="-1.26081">
        <ele>2.06</ele>
        <time>2016-09-02T08:36:01Z</time>
      </trkpt>
      <trkpt lat="46.16194" lon="-1.26037">
        <ele>2.54</ele>
        <time>2016-09-02T08:36:09Z</time>
      </trkpt>
      <trkpt lat="46.16201" lon="-1.26025">
        <ele>2.54</ele>
        <time>2016-09-02T08:36:11Z</time>
      </trkpt>
      <trkpt lat="46.16208" lon="-1.26012">
        <ele>2.54</ele>
        <time>2016-09-02T08:36:13Z</time>
      </trkpt>
      <trkpt lat="46.16238" lon="-1.25936">
        <ele>2.54</ele>
        <time>2016-09-02T08:36:25Z</time>
      </trkpt>
      <trkpt lat="46.16243" lon="-1.25918">
        <ele>2.54</ele>
        <time>2016-09-02T08:36:29Z</time>
      </trkpt>
      <trkpt lat="46.16243" lon="-1.25914">
        <ele>2.54</ele>
        <time>2016-09-02T08:36:30Z</time>
      </trkpt>
      <trkpt lat="46.16244" lon="-1.25909">
        <ele>2.54</ele>
        <time>2016-09-02T08:36:31Z</time>
      </trkpt>
      <trkpt lat="46.16245" lon="-1.25904">
        <ele>2.06</ele>
        <time>2016-09-02T08:36:32Z</time>
      </trkpt>
      <trkpt lat="46.16247" lon="-1.25898">
        <ele>2.54</ele>
        <time>2016-09-02T08:36:33Z</time>
      </trkpt>
      <trkpt lat="46.1625" lon="-1.25892">
        <ele>2.54</ele>
        <time>2016-09-02T08:36:34Z</time>
      </trkpt>
      <trkpt lat="46.1627" lon="-1.2585">
        <ele>2.54</ele>
        <time>2016-09-02T08:36:42Z</time>
      </trkpt>
      <trkpt lat="46.16282" lon="-1.25831">
        <ele>2.54</ele>
        <time>2016-09-02T08:36:45Z</time>
      </trkpt>
      <trkpt lat="46.16291" lon="-1.25812">
        <ele>2.54</ele>
        <time>2016-09-02T08:36:48Z</time>
      </trkpt>
      <trkpt lat="46.16317" lon="-1.25743">
        <ele>4.94</ele>
        <time>2016-09-02T08:36:59Z</time>
      </trkpt>
      <trkpt lat="46.16328" lon="-1.2571">
        <ele>4.94</ele>
        <time>2016-09-02T08:37:05Z</time>
      </trkpt>
      <trkpt lat="46.1633" lon="-1.25706">
        <ele>4.94</ele>
        <time>2016-09-02T08:37:06Z</time>
      </trkpt>
      <trkpt lat="46.16333" lon="-1.25701">
        <ele>5.42</ele>
        <time>2016-09-02T08:37:07Z</time>
      </trkpt>
      <trkpt lat="46.16375" lon="-1.25648">
        <ele>6.87</ele>
        <time>2016-09-02T08:37:21Z</time>
      </trkpt>
      <trkpt lat="46.16418" lon="-1.25581">
        <ele>8.31</ele>
        <time>2016-09-02T08:37:37Z</time>
      </trkpt>
      <trkpt lat="46.16462" lon="-1.25511">
        <ele>10.71</ele>
        <time>2016-09-02T08:37:54Z</time>
      </trkpt>
      <trkpt lat="46.16501" lon="-1.25448">
        <ele>12.63</ele>
        <time>2016-09-02T08:38:09Z</time>
      </trkpt>
      <trkpt lat="46.16543" lon="-1.25378">
        <ele>15.52</ele>
        <time>2016-09-02T08:38:26Z</time>
      </trkpt>
      <trkpt lat="46.16585" lon="-1.25308">
        <ele>17.92</ele>
        <time>2016-09-02T08:38:43Z</time>
      </trkpt>
      <trkpt lat="46.16623" lon="-1.25242">
        <ele>20.81</ele>
        <time>2016-09-02T08:38:59Z</time>
      </trkpt>
      <trkpt lat="46.16656" lon="-1.25183">
        <ele>23.21</ele>
        <time>2016-09-02T08:39:13Z</time>
      </trkpt>
      <trkpt lat="46.1669" lon="-1.25119">
        <ele>25.61</ele>
        <time>2016-09-02T08:39:28Z</time>
      </trkpt>
      <trkpt lat="46.16732" lon="-1.25041">
        <ele>28.5</ele>
        <time>2016-09-02T08:39:46Z</time>
      </trkpt>
      <trkpt lat="46.16766" lon="-1.24975">
        <ele>30.42</ele>
        <time>2016-09-02T08:40:01Z</time>
      </trkpt>
      <trkpt lat="46.16802" lon="-1.24902">
        <ele>32.34</ele>
        <time>2016-09-02T08:40:17Z</time>
      </trkpt>
      <trkpt lat="46.16841" lon="-1.24823">
        <ele>34.26</ele>
        <time>2016-09-02T08:40:34Z</time>
      </trkpt>
      <trkpt lat="46.16885" lon="-1.24729">
        <ele>36.19</ele>
        <time>2016-09-02T08:40:53Z</time>
      </trkpt>
      <trkpt lat="46.16928" lon="-1.24634">
        <ele>38.11</ele>
        <time>2016-09-02T08:41:12Z</time>
      </trkpt>
      <trkpt lat="46.16967" lon="-1.24545">
        <ele>38.11</ele>
        <time>2016-09-02T08:41:29Z</time>
      </trkpt>
      <trkpt lat="46.17006" lon="-1.2445">
        <ele>39.07</ele>
        <time>2016-09-02T08:41:46Z</time>
      </trkpt>
      <trkpt lat="46.17044" lon="-1.24354">
        <ele>39.07</ele>
        <time>2016-09-02T08:42:02Z</time>
      </trkpt>
      <trkpt lat="46.17083" lon="-1.24256">
        <ele>39.07</ele>
        <time>2016-09-02T08:42:17Z</time>
      </trkpt>
      <trkpt lat="46.17132" lon="-1.24125">
        <ele>37.63</ele>
        <time>2016-09-02T08:42:35Z</time>
      </trkpt>
      <trkpt lat="46.17181" lon="-1.23984">
        <ele>35.71</ele>
        <time>2016-09-02T08:42:53Z</time>
      </trkpt>
      <trkpt lat="46.17222" lon="-1.23856">
        <ele>34.74</ele>
        <time>2016-09-02T08:43:09Z</time>
      </trkpt>
      <trkpt lat="46.17258" lon="-1.23739">
        <ele>32.82</ele>
        <time>2016-09-02T08:43:23Z</time>
      </trkpt>
      <trkpt lat="46.17295" lon="-1.23615">
        <ele>30.9</ele>
        <time>2016-09-02T08:43:37Z</time>
      </trkpt>
      <trkpt lat="46.1733" lon="-1.23493">
        <ele>27.53</ele>
        <time>2016-09-02T08:43:50Z</time>
      </trkpt>
      <trkpt lat="46.17369" lon="-1.23342">
        <ele>24.17</ele>
        <time>2016-09-02T08:44:05Z</time>
      </trkpt>
      <trkpt lat="46.17409" lon="-1.2317">
        <ele>22.25</ele>
        <time>2016-09-02T08:44:21Z</time>
      </trkpt>
      <trkpt lat="46.17447" lon="-1.22997">
        <ele>19.84</ele>
        <time>2016-09-02T08:44:37Z</time>
      </trkpt>
      <trkpt lat="46.17486" lon="-1.22793">
        <ele>16.96</ele>
        <time>2016-09-02T08:44:55Z</time>
      </trkpt>
      <trkpt lat="46.17516" lon="-1.22616">
        <ele>13.6</ele>
        <time>2016-09-02T08:45:11Z</time>
      </trkpt>
      <trkpt lat="46.17544" lon="-1.22436">
        <ele>7.35</ele>
        <time>2016-09-02T08:45:27Z</time>
      </trkpt>
      <trkpt lat="46.17545" lon="-1.22425">
        <ele>11.67</ele>
        <time>2016-09-02T08:45:28Z</time>
      </trkpt>
      <trkpt lat="46.17567" lon="-1.22257">
        <ele>9.27</ele>
        <time>2016-09-02T08:45:44Z</time>
      </trkpt>
      <trkpt lat="46.17575" lon="-1.222">
        <ele>8.79</ele>
        <time>2016-09-02T08:45:52Z</time>
      </trkpt>
      <trkpt lat="46.17582" lon="-1.22149">
        <ele>7.83</ele>
        <time>2016-09-02T08:46:00Z</time>
      </trkpt>
      <trkpt lat="46.17594" lon="-1.22064">
        <ele>6.87</ele>
        <time>2016-09-02T08:46:10Z</time>
      </trkpt>
      <trkpt lat="46.17611" lon="-1.21969">
        <ele>6.39</ele>
        <time>2016-09-02T08:46:21Z</time>
      </trkpt>
      <trkpt lat="46.17614" lon="-1.21926">
        <ele>6.39</ele>
        <time>2016-09-02T08:46:28Z</time>
      </trkpt>
      <trkpt lat="46.17616" lon="-1.21924">
        <ele>6.87</ele>
        <time>2016-09-02T08:46:29Z</time>
      </trkpt>
      <trkpt lat="46.17618" lon="-1.21923">
        <ele>6.39</ele>
        <time>2016-09-02T08:46:30Z</time>
      </trkpt>
      <trkpt lat="46.17621" lon="-1.21923">
        <ele>5.91</ele>
        <time>2016-09-02T08:46:31Z</time>
      </trkpt>
      <trkpt lat="46.17625" lon="-1.21923">
        <ele>5.42</ele>
        <time>2016-09-02T08:46:32Z</time>
      </trkpt>
      <trkpt lat="46.17652" lon="-1.21922">
        <ele>5.91</ele>
        <time>2016-09-02T08:46:39Z</time>
      </trkpt>
      <trkpt lat="46.17682" lon="-1.21916">
        <ele>8.79</ele>
        <time>2016-09-02T08:46:47Z</time>
      </trkpt>
      <trkpt lat="46.17707" lon="-1.21888">
        <ele>11.67</ele>
        <time>2016-09-02T08:46:56Z</time>
      </trkpt>
      <trkpt lat="46.17708" lon="-1.21875">
        <ele>12.15</ele>
        <time>2016-09-02T08:46:59Z</time>
      </trkpt>
      <trkpt lat="46.17694" lon="-1.21825">
        <ele>13.6</ele>
        <time>2016-09-02T08:47:09Z</time>
      </trkpt>
      <trkpt lat="46.17679" lon="-1.21774">
        <ele>13.12</ele>
        <time>2016-09-02T08:47:18Z</time>
      </trkpt>
      <trkpt lat="46.17663" lon="-1.2174">
        <ele>13.6</ele>
        <time>2016-09-02T08:47:24Z</time>
      </trkpt>
      <trkpt lat="46.17661" lon="-1.21735">
        <ele>14.08</ele>
        <time>2016-09-02T08:47:25Z</time>
      </trkpt>
      <trkpt lat="46.1766" lon="-1.21729">
        <ele>14.08</ele>
        <time>2016-09-02T08:47:26Z</time>
      </trkpt>
      <trkpt lat="46.17635" lon="-1.21645">
        <ele>14.56</ele>
        <time>2016-09-02T08:47:40Z</time>
      </trkpt>
      <trkpt lat="46.17609" lon="-1.21557">
        <ele>15.04</ele>
        <time>2016-09-02T08:47:53Z</time>
      </trkpt>
      <trkpt lat="46.17608" lon="-1.21549">
        <ele>15.04</ele>
        <time>2016-09-02T08:47:54Z</time>
      </trkpt>
      <trkpt lat="46.17608" lon="-1.21542">
        <ele>14.56</ele>
        <time>2016-09-02T08:47:55Z</time>
      </trkpt>
      <trkpt lat="46.17613" lon="-1.21445">
        <ele>15.04</ele>
        <time>2016-09-02T08:48:07Z</time>
      </trkpt>
      <trkpt lat="46.17629" lon="-1.21308">
        <ele>16</ele>
        <time>2016-09-02T08:48:24Z</time>
      </trkpt>
      <trkpt lat="46.1763" lon="-1.213">
        <ele>15.52</ele>
        <time>2016-09-02T08:48:25Z</time>
      </trkpt>
      <trkpt lat="46.17637" lon="-1.21228">
        <ele>14.56</ele>
        <time>2016-09-02T08:48:34Z</time>
      </trkpt>
      <trkpt lat="46.1764" lon="-1.21221">
        <ele>14.56</ele>
        <time>2016-09-02T08:48:35Z</time>
      </trkpt>
      <trkpt lat="46.17643" lon="-1.21213">
        <ele>14.56</ele>
        <time>2016-09-02T08:48:36Z</time>
      </trkpt>
      <trkpt lat="46.17649" lon="-1.21199">
        <ele>14.56</ele>
        <time>2016-09-02T08:48:38Z</time>
      </trkpt>
      <trkpt lat="46.17654" lon="-1.21184">
        <ele>13.6</ele>
        <time>2016-09-02T08:48:40Z</time>
      </trkpt>
      <trkpt lat="46.17658" lon="-1.21179">
        <ele>14.08</ele>
        <time>2016-09-02T08:48:41Z</time>
      </trkpt>
      <trkpt lat="46.17661" lon="-1.21176">
        <ele>14.56</ele>
        <time>2016-09-02T08:48:42Z</time>
      </trkpt>
      <trkpt lat="46.17688" lon="-1.21173">
        <ele>14.08</ele>
        <time>2016-09-02T08:48:50Z</time>
      </trkpt>
      <trkpt lat="46.17728" lon="-1.21183">
        <ele>13.6</ele>
        <time>2016-09-02T08:48:59Z</time>
      </trkpt>
      <trkpt lat="46.17739" lon="-1.21187">
        <ele>14.08</ele>
        <time>2016-09-02T08:49:02Z</time>
      </trkpt>
      <trkpt lat="46.17741" lon="-1.21184">
        <ele>14.08</ele>
        <time>2016-09-02T08:49:03Z</time>
      </trkpt>
      <trkpt lat="46.17742" lon="-1.2118">
        <ele>14.08</ele>
        <time>2016-09-02T08:49:04Z</time>
      </trkpt>
      <trkpt lat="46.17743" lon="-1.21175">
        <ele>14.56</ele>
        <time>2016-09-02T08:49:05Z</time>
      </trkpt>
      <trkpt lat="46.17745" lon="-1.21172">
        <ele>14.56</ele>
        <time>2016-09-02T08:49:06Z</time>
      </trkpt>
      <trkpt lat="46.17746" lon="-1.2117">
        <ele>14.56</ele>
        <time>2016-09-02T08:49:13Z</time>
      </trkpt>
      <trkpt lat="46.17746" lon="-1.2117">
        <ele>14.56</ele>
        <time>2016-09-02T08:49:26Z</time>
      </trkpt>
      <trkpt lat="46.17747" lon="-1.2117">
        <ele>16</ele>
        <time>2016-09-02T08:49:27Z</time>
      </trkpt>
      <trkpt lat="46.17748" lon="-1.2117">
        <ele>6.87</ele>
        <time>2016-09-02T08:49:33Z</time>
      </trkpt>
      <trkpt lat="46.17748" lon="-1.2117">
        <ele>8.31</ele>
        <time>2016-09-02T08:49:34Z</time>
      </trkpt>
      <trkpt lat="46.17747" lon="-1.2117">
        <ele>17.92</ele>
        <time>2016-09-02T08:49:35Z</time>
      </trkpt>
      <trkpt lat="46.17747" lon="-1.2117">
        <ele>15.04</ele>
        <time>2016-09-02T08:49:36Z</time>
      </trkpt>
      <trkpt lat="46.17747" lon="-1.2117">
        <ele>10.71</ele>
        <time>2016-09-02T08:49:38Z</time>
      </trkpt>
      <trkpt lat="46.17747" lon="-1.2117">
        <ele>16.96</ele>
        <time>2016-09-02T08:49:39Z</time>
      </trkpt>
      <trkpt lat="46.17747" lon="-1.2117">
        <ele>29.46</ele>
        <time>2016-09-02T08:49:43Z</time>
      </trkpt>
      <trkpt lat="46.17747" lon="-1.2117">
        <ele>-9.96</ele>
        <time>2016-09-02T08:49:44Z</time>
      </trkpt>
      <trkpt lat="46.17747" lon="-1.2117">
        <ele>17.92</ele>
        <time>2016-09-02T08:49:45Z</time>
      </trkpt>
      <trkpt lat="46.17747" lon="-1.2117">
        <ele>-21.01</ele>
        <time>2016-09-02T08:49:47Z</time>
      </trkpt>
      <trkpt lat="46.17747" lon="-1.2117">
        <ele>18.88</ele>
        <time>2016-09-02T08:49:48Z</time>
      </trkpt>
      <trkpt lat="46.17747" lon="-1.2117">
        <ele>29.46</ele>
        <time>2016-09-02T08:49:49Z</time>
      </trkpt>
      <trkpt lat="46.17747" lon="-1.2117">
        <ele>15.52</ele>
        <time>2016-09-02T08:49:50Z</time>
      </trkpt>
      <trkpt lat="46.17747" lon="-1.2117">
        <ele>14.08</ele>
        <time>2016-09-02T08:50:06Z</time>
      </trkpt>
      <trkpt lat="46.17747" lon="-1.21169">
        <ele>14.08</ele>
        <time>2016-09-02T08:50:33Z</time>
      </trkpt>
      <trkpt lat="46.17747" lon="-1.21169">
        <ele>14.56</ele>
        <time>2016-09-02T08:51:02Z</time>
      </trkpt>
      <trkpt lat="46.17746" lon="-1.21169">
        <ele>14.08</ele>
        <time>2016-09-02T08:51:33Z</time>
      </trkpt>
      <trkpt lat="46.17746" lon="-1.21169">
        <ele>14.08</ele>
        <time>2016-09-02T08:52:05Z</time>
      </trkpt>
      <trkpt lat="46.17746" lon="-1.2117">
        <ele>14.56</ele>
        <time>2016-09-02T08:52:31Z</time>
      </trkpt>
      <trkpt lat="46.17747" lon="-1.21171">
        <ele>14.56</ele>
        <time>2016-09-02T08:52:43Z</time>
      </trkpt>
      <trkpt lat="46.17748" lon="-1.21172">
        <ele>14.56</ele>
        <time>2016-09-02T08:52:44Z</time>
      </trkpt>
      <trkpt lat="46.17749" lon="-1.21173">
        <ele>15.04</ele>
        <time>2016-09-02T08:52:45Z</time>
      </trkpt>
      <trkpt lat="46.17766" lon="-1.21176">
        <ele>15.04</ele>
        <time>2016-09-02T08:52:52Z</time>
      </trkpt>
      <trkpt lat="46.17767" lon="-1.21173">
        <ele>14.56</ele>
        <time>2016-09-02T08:52:53Z</time>
      </trkpt>
      <trkpt lat="46.17766" lon="-1.2117">
        <ele>14.56</ele>
        <time>2016-09-02T08:52:54Z</time>
      </trkpt>
      <trkpt lat="46.17765" lon="-1.21167">
        <ele>15.04</ele>
        <time>2016-09-02T08:52:55Z</time>
      </trkpt>
      <trkpt lat="46.17763" lon="-1.21163">
        <ele>14.56</ele>
        <time>2016-09-02T08:52:56Z</time>
      </trkpt>
      <trkpt lat="46.17761" lon="-1.21158">
        <ele>14.56</ele>
        <time>2016-09-02T08:52:57Z</time>
      </trkpt>
      <trkpt lat="46.17758" lon="-1.21153">
        <ele>15.04</ele>
        <time>2016-09-02T08:52:58Z</time>
      </trkpt>
      <trkpt lat="46.17755" lon="-1.21148">
        <ele>15.04</ele>
        <time>2016-09-02T08:52:59Z</time>
      </trkpt>
      <trkpt lat="46.17752" lon="-1.21142">
        <ele>14.56</ele>
        <time>2016-09-02T08:53:00Z</time>
      </trkpt>
      <trkpt lat="46.17749" lon="-1.21137">
        <ele>14.56</ele>
        <time>2016-09-02T08:53:01Z</time>
      </trkpt>
      <trkpt lat="46.1772" lon="-1.21093">
        <ele>15.04</ele>
        <time>2016-09-02T08:53:09Z</time>
      </trkpt>
      <trkpt lat="46.17673" lon="-1.2101">
        <ele>15.04</ele>
        <time>2016-09-02T08:53:23Z</time>
      </trkpt>
      <trkpt lat="46.17669" lon="-1.21005">
        <ele>18.88</ele>
        <time>2016-09-02T08:53:24Z</time>
      </trkpt>
      <trkpt lat="46.17666" lon="-1.20999">
        <ele>15.04</ele>
        <time>2016-09-02T08:53:25Z</time>
      </trkpt>
      <trkpt lat="46.17615" lon="-1.20916">
        <ele>14.56</ele>
        <time>2016-09-02T08:53:39Z</time>
      </trkpt>
      <trkpt lat="46.17575" lon="-1.20823">
        <ele>14.08</ele>
        <time>2016-09-02T08:53:53Z</time>
      </trkpt>
      <trkpt lat="46.17572" lon="-1.20816">
        <ele>14.08</ele>
        <time>2016-09-02T08:53:54Z</time>
      </trkpt>
      <trkpt lat="46.1757" lon="-1.20808">
        <ele>13.6</ele>
        <time>2016-09-02T08:53:55Z</time>
      </trkpt>
      <trkpt lat="46.17568" lon="-1.20799">
        <ele>13.12</ele>
        <time>2016-09-02T08:53:56Z</time>
      </trkpt>
      <trkpt lat="46.17567" lon="-1.20791">
        <ele>13.6</ele>
        <time>2016-09-02T08:53:57Z</time>
      </trkpt>
      <trkpt lat="46.17554" lon="-1.20706">
        <ele>12.63</ele>
        <time>2016-09-02T08:54:06Z</time>
      </trkpt>
      <trkpt lat="46.17551" lon="-1.20698">
        <ele>12.15</ele>
        <time>2016-09-02T08:54:07Z</time>
      </trkpt>
      <trkpt lat="46.17547" lon="-1.2069">
        <ele>12.15</ele>
        <time>2016-09-02T08:54:08Z</time>
      </trkpt>
      <trkpt lat="46.17522" lon="-1.20617">
        <ele>11.67</ele>
        <time>2016-09-02T08:54:17Z</time>
      </trkpt>
      <trkpt lat="46.17521" lon="-1.20608">
        <ele>11.19</ele>
        <time>2016-09-02T08:54:18Z</time>
      </trkpt>
      <trkpt lat="46.17521" lon="-1.20599">
        <ele>11.67</ele>
        <time>2016-09-02T08:54:19Z</time>
      </trkpt>
      <trkpt lat="46.1752" lon="-1.2059">
        <ele>11.19</ele>
        <time>2016-09-02T08:54:20Z</time>
      </trkpt>
      <trkpt lat="46.17519" lon="-1.20582">
        <ele>11.19</ele>
        <time>2016-09-02T08:54:21Z</time>
      </trkpt>
      <trkpt lat="46.17517" lon="-1.20574">
        <ele>10.71</ele>
        <time>2016-09-02T08:54:22Z</time>
      </trkpt>
      <trkpt lat="46.17493" lon="-1.20487">
        <ele>10.23</ele>
        <time>2016-09-02T08:54:32Z</time>
      </trkpt>
      <trkpt lat="46.17469" lon="-1.20401">
        <ele>8.31</ele>
        <time>2016-09-02T08:54:42Z</time>
      </trkpt>
      <trkpt lat="46.17437" lon="-1.20279">
        <ele>6.87</ele>
        <time>2016-09-02T08:54:56Z</time>
      </trkpt>
      <trkpt lat="46.17431" lon="-1.20253">
        <ele>6.87</ele>
        <time>2016-09-02T08:54:59Z</time>
      </trkpt>
      <trkpt lat="46.17416" lon="-1.20166">
        <ele>6.39</ele>
        <time>2016-09-02T08:55:09Z</time>
      </trkpt>
      <trkpt lat="46.17386" lon="-1.20064">
        <ele>6.39</ele>
        <time>2016-09-02T08:55:22Z</time>
      </trkpt>
      <trkpt lat="46.17385" lon="-1.20055">
        <ele>6.39</ele>
        <time>2016-09-02T08:55:23Z</time>
      </trkpt>
      <trkpt lat="46.17386" lon="-1.20048">
        <ele>6.87</ele>
        <time>2016-09-02T08:55:24Z</time>
      </trkpt>
      <trkpt lat="46.17387" lon="-1.20041">
        <ele>6.87</ele>
        <time>2016-09-02T08:55:25Z</time>
      </trkpt>
      <trkpt lat="46.17393" lon="-1.20013">
        <ele>7.35</ele>
        <time>2016-09-02T08:55:29Z</time>
      </trkpt>
      <trkpt lat="46.17394" lon="-1.20006">
        <ele>7.35</ele>
        <time>2016-09-02T08:55:30Z</time>
      </trkpt>
      <trkpt lat="46.17393" lon="-1.19999">
        <ele>7.35</ele>
        <time>2016-09-02T08:55:31Z</time>
      </trkpt>
      <trkpt lat="46.17392" lon="-1.19993">
        <ele>7.83</ele>
        <time>2016-09-02T08:55:32Z</time>
      </trkpt>
      <trkpt lat="46.17392" lon="-1.19988">
        <ele>7.35</ele>
        <time>2016-09-02T08:55:33Z</time>
      </trkpt>
      <trkpt lat="46.17388" lon="-1.19968">
        <ele>7.83</ele>
        <time>2016-09-02T08:55:40Z</time>
      </trkpt>
      <trkpt lat="46.17385" lon="-1.19947">
        <ele>7.83</ele>
        <time>2016-09-02T08:55:47Z</time>
      </trkpt>
      <trkpt lat="46.17387" lon="-1.19941">
        <ele>7.83</ele>
        <time>2016-09-02T08:55:48Z</time>
      </trkpt>
      <trkpt lat="46.17389" lon="-1.19935">
        <ele>7.83</ele>
        <time>2016-09-02T08:55:49Z</time>
      </trkpt>
      <trkpt lat="46.17391" lon="-1.19929">
        <ele>7.83</ele>
        <time>2016-09-02T08:55:50Z</time>
      </trkpt>
      <trkpt lat="46.17394" lon="-1.19924">
        <ele>7.83</ele>
        <time>2016-09-02T08:55:51Z</time>
      </trkpt>
      <trkpt lat="46.17427" lon="-1.19842">
        <ele>9.27</ele>
        <time>2016-09-02T08:56:05Z</time>
      </trkpt>
      <trkpt lat="46.17429" lon="-1.19836">
        <ele>9.75</ele>
        <time>2016-09-02T08:56:06Z</time>
      </trkpt>
      <trkpt lat="46.17429" lon="-1.1983">
        <ele>9.75</ele>
        <time>2016-09-02T08:56:07Z</time>
      </trkpt>
      <trkpt lat="46.17427" lon="-1.19826">
        <ele>9.75</ele>
        <time>2016-09-02T08:56:08Z</time>
      </trkpt>
      <trkpt lat="46.17422" lon="-1.19821">
        <ele>10.23</ele>
        <time>2016-09-02T08:56:14Z</time>
      </trkpt>
      <trkpt lat="46.17421" lon="-1.1982">
        <ele>10.23</ele>
        <time>2016-09-02T08:56:15Z</time>
      </trkpt>
      <trkpt lat="46.17419" lon="-1.19818">
        <ele>10.23</ele>
        <time>2016-09-02T08:56:16Z</time>
      </trkpt>
      <trkpt lat="46.17418" lon="-1.19814">
        <ele>10.23</ele>
        <time>2016-09-02T08:56:17Z</time>
      </trkpt>
      <trkpt lat="46.17416" lon="-1.1981">
        <ele>9.75</ele>
        <time>2016-09-02T08:56:18Z</time>
      </trkpt>
      <trkpt lat="46.17414" lon="-1.19806">
        <ele>9.27</ele>
        <time>2016-09-02T08:56:19Z</time>
      </trkpt>
      <trkpt lat="46.17412" lon="-1.19802">
        <ele>9.75</ele>
        <time>2016-09-02T08:56:20Z</time>
      </trkpt>
      <trkpt lat="46.17411" lon="-1.19797">
        <ele>9.75</ele>
        <time>2016-09-02T08:56:21Z</time>
      </trkpt>
      <trkpt lat="46.174" lon="-1.19775">
        <ele>9.27</ele>
        <time>2016-09-02T08:56:25Z</time>
      </trkpt>
      <trkpt lat="46.17395" lon="-1.19771">
        <ele>9.75</ele>
        <time>2016-09-02T08:56:26Z</time>
      </trkpt>
      <trkpt lat="46.1739" lon="-1.1977">
        <ele>9.75</ele>
        <time>2016-09-02T08:56:27Z</time>
      </trkpt>
      <trkpt lat="46.17378" lon="-1.19769">
        <ele>9.27</ele>
        <time>2016-09-02T08:56:29Z</time>
      </trkpt>
      <trkpt lat="46.17332" lon="-1.19751">
        <ele>9.27</ele>
        <time>2016-09-02T08:56:37Z</time>
      </trkpt>
      <trkpt lat="46.17327" lon="-1.19747">
        <ele>9.75</ele>
        <time>2016-09-02T08:56:38Z</time>
      </trkpt>
      <trkpt lat="46.17323" lon="-1.19743">
        <ele>10.23</ele>
        <time>2016-09-02T08:56:39Z</time>
      </trkpt>
      <trkpt lat="46.17319" lon="-1.19737">
        <ele>10.71</ele>
        <time>2016-09-02T08:56:40Z</time>
      </trkpt>
      <trkpt lat="46.17315" lon="-1.19731">
        <ele>10.71</ele>
        <time>2016-09-02T08:56:41Z</time>
      </trkpt>
      <trkpt lat="46.17312" lon="-1.19725">
        <ele>10.71</ele>
        <time>2016-09-02T08:56:42Z</time>
      </trkpt>
      <trkpt lat="46.17281" lon="-1.19676">
        <ele>12.63</ele>
        <time>2016-09-02T08:56:51Z</time>
      </trkpt>
      <trkpt lat="46.17279" lon="-1.19669">
        <ele>12.63</ele>
        <time>2016-09-02T08:56:52Z</time>
      </trkpt>
      <trkpt lat="46.17276" lon="-1.19648">
        <ele>13.12</ele>
        <time>2016-09-02T08:56:55Z</time>
      </trkpt>
      <trkpt lat="46.17275" lon="-1.19641">
        <ele>13.12</ele>
        <time>2016-09-02T08:56:56Z</time>
      </trkpt>
      <trkpt lat="46.17273" lon="-1.19636">
        <ele>13.12</ele>
        <time>2016-09-02T08:56:57Z</time>
      </trkpt>
      <trkpt lat="46.1727" lon="-1.19633">
        <ele>13.12</ele>
        <time>2016-09-02T08:56:58Z</time>
      </trkpt>
      <trkpt lat="46.17266" lon="-1.19632">
        <ele>13.12</ele>
        <time>2016-09-02T08:56:59Z</time>
      </trkpt>
      <trkpt lat="46.17253" lon="-1.19626">
        <ele>13.12</ele>
        <time>2016-09-02T08:57:02Z</time>
      </trkpt>
      <trkpt lat="46.17235" lon="-1.19594">
        <ele>13.12</ele>
        <time>2016-09-02T08:57:09Z</time>
      </trkpt>
      <trkpt lat="46.17227" lon="-1.19567">
        <ele>13.6</ele>
        <time>2016-09-02T08:57:13Z</time>
      </trkpt>
      <trkpt lat="46.17202" lon="-1.19488">
        <ele>15.04</ele>
        <time>2016-09-02T08:57:25Z</time>
      </trkpt>
      <trkpt lat="46.17167" lon="-1.19375">
        <ele>15.52</ele>
        <time>2016-09-02T08:57:41Z</time>
      </trkpt>
      <trkpt lat="46.17142" lon="-1.19251">
        <ele>14.08</ele>
        <time>2016-09-02T08:57:57Z</time>
      </trkpt>
      <trkpt lat="46.17133" lon="-1.19153">
        <ele>12.63</ele>
        <time>2016-09-02T08:58:09Z</time>
      </trkpt>
      <trkpt lat="46.1713" lon="-1.19027">
        <ele>11.19</ele>
        <time>2016-09-02T08:58:23Z</time>
      </trkpt>
      <trkpt lat="46.17132" lon="-1.19008">
        <ele>11.19</ele>
        <time>2016-09-02T08:58:25Z</time>
      </trkpt>
      <trkpt lat="46.17135" lon="-1.18999">
        <ele>10.23</ele>
        <time>2016-09-02T08:58:26Z</time>
      </trkpt>
      <trkpt lat="46.17139" lon="-1.18993">
        <ele>10.71</ele>
        <time>2016-09-02T08:58:27Z</time>
      </trkpt>
      <trkpt lat="46.17144" lon="-1.18987">
        <ele>10.23</ele>
        <time>2016-09-02T08:58:28Z</time>
      </trkpt>
      <trkpt lat="46.17149" lon="-1.18981">
        <ele>11.19</ele>
        <time>2016-09-02T08:58:29Z</time>
      </trkpt>
      <trkpt lat="46.17204" lon="-1.18895">
        <ele>10.71</ele>
        <time>2016-09-02T08:58:42Z</time>
      </trkpt>
      <trkpt lat="46.17244" lon="-1.18779">
        <ele>9.27</ele>
        <time>2016-09-02T08:58:57Z</time>
      </trkpt>
      <trkpt lat="46.17253" lon="-1.1871">
        <ele>9.27</ele>
        <time>2016-09-02T08:59:05Z</time>
      </trkpt>
      <trkpt lat="46.17253" lon="-1.18701">
        <ele>9.27</ele>
        <time>2016-09-02T08:59:06Z</time>
      </trkpt>
      <trkpt lat="46.17257" lon="-1.18594">
        <ele>11.19</ele>
        <time>2016-09-02T08:59:19Z</time>
      </trkpt>
      <trkpt lat="46.1726" lon="-1.18479">
        <ele>12.15</ele>
        <time>2016-09-02T08:59:34Z</time>
      </trkpt>
      <trkpt lat="46.17261" lon="-1.18449">
        <ele>12.63</ele>
        <time>2016-09-02T08:59:38Z</time>
      </trkpt>
      <trkpt lat="46.17264" lon="-1.18443">
        <ele>13.12</ele>
        <time>2016-09-02T08:59:39Z</time>
      </trkpt>
      <trkpt lat="46.17268" lon="-1.18439">
        <ele>12.63</ele>
        <time>2016-09-02T08:59:40Z</time>
      </trkpt>
      <trkpt lat="46.17272" lon="-1.18436">
        <ele>13.12</ele>
        <time>2016-09-02T08:59:41Z</time>
      </trkpt>
      <trkpt lat="46.17277" lon="-1.18434">
        <ele>13.12</ele>
        <time>2016-09-02T08:59:42Z</time>
      </trkpt>
      <trkpt lat="46.17337" lon="-1.18402">
        <ele>13.6</ele>
        <time>2016-09-02T08:59:54Z</time>
      </trkpt>
      <trkpt lat="46.17415" lon="-1.18356">
        <ele>13.12</ele>
        <time>2016-09-02T09:00:09Z</time>
      </trkpt>
      <trkpt lat="46.17434" lon="-1.18342">
        <ele>13.12</ele>
        <time>2016-09-02T09:00:13Z</time>
      </trkpt>
      <trkpt lat="46.17439" lon="-1.18337">
        <ele>15.52</ele>
        <time>2016-09-02T09:00:14Z</time>
      </trkpt>
      <trkpt lat="46.17443" lon="-1.18332">
        <ele>14.56</ele>
        <time>2016-09-02T09:00:15Z</time>
      </trkpt>
      <trkpt lat="46.17451" lon="-1.18321">
        <ele>13.6</ele>
        <time>2016-09-02T09:00:17Z</time>
      </trkpt>
      <trkpt lat="46.17463" lon="-1.18306">
        <ele>12.63</ele>
        <time>2016-09-02T09:00:20Z</time>
      </trkpt>
      <trkpt lat="46.17468" lon="-1.18304">
        <ele>13.12</ele>
        <time>2016-09-02T09:00:21Z</time>
      </trkpt>
      <trkpt lat="46.17473" lon="-1.18303">
        <ele>13.12</ele>
        <time>2016-09-02T09:00:22Z</time>
      </trkpt>
      <trkpt lat="46.17478" lon="-1.18306">
        <ele>13.12</ele>
        <time>2016-09-02T09:00:23Z</time>
      </trkpt>
      <trkpt lat="46.17483" lon="-1.1831">
        <ele>13.12</ele>
        <time>2016-09-02T09:00:24Z</time>
      </trkpt>
      <trkpt lat="46.17487" lon="-1.18315">
        <ele>13.12</ele>
        <time>2016-09-02T09:00:25Z</time>
      </trkpt>
      <trkpt lat="46.17491" lon="-1.18321">
        <ele>13.12</ele>
        <time>2016-09-02T09:00:26Z</time>
      </trkpt>
      <trkpt lat="46.17499" lon="-1.18332">
        <ele>12.63</ele>
        <time>2016-09-02T09:00:28Z</time>
      </trkpt>
      <trkpt lat="46.17503" lon="-1.18337">
        <ele>12.63</ele>
        <time>2016-09-02T09:00:29Z</time>
      </trkpt>
      <trkpt lat="46.17508" lon="-1.18341">
        <ele>12.63</ele>
        <time>2016-09-02T09:00:30Z</time>
      </trkpt>
      <trkpt lat="46.17513" lon="-1.18344">
        <ele>13.12</ele>
        <time>2016-09-02T09:00:31Z</time>
      </trkpt>
      <trkpt lat="46.17519" lon="-1.18345">
        <ele>12.63</ele>
        <time>2016-09-02T09:00:32Z</time>
      </trkpt>
      <trkpt lat="46.17524" lon="-1.18344">
        <ele>12.63</ele>
        <time>2016-09-02T09:00:33Z</time>
      </trkpt>
      <trkpt lat="46.17529" lon="-1.18342">
        <ele>13.6</ele>
        <time>2016-09-02T09:00:34Z</time>
      </trkpt>
      <trkpt lat="46.17534" lon="-1.18339">
        <ele>13.6</ele>
        <time>2016-09-02T09:00:35Z</time>
      </trkpt>
      <trkpt lat="46.17567" lon="-1.18318">
        <ele>15.04</ele>
        <time>2016-09-02T09:00:45Z</time>
      </trkpt>
      <trkpt lat="46.17568" lon="-1.18316">
        <ele>15.52</ele>
        <time>2016-09-02T09:00:46Z</time>
      </trkpt>
      <trkpt lat="46.17568" lon="-1.18314">
        <ele>15.04</ele>
        <time>2016-09-02T09:00:47Z</time>
      </trkpt>
      <trkpt lat="46.17567" lon="-1.18311">
        <ele>15.52</ele>
        <time>2016-09-02T09:00:48Z</time>
      </trkpt>
      <trkpt lat="46.17566" lon="-1.18307">
        <ele>15.04</ele>
        <time>2016-09-02T09:00:49Z</time>
      </trkpt>
      <trkpt lat="46.17564" lon="-1.18303">
        <ele>15.04</ele>
        <time>2016-09-02T09:00:50Z</time>
      </trkpt>
      <trkpt lat="46.1754" lon="-1.18235">
        <ele>14.56</ele>
        <time>2016-09-02T09:01:01Z</time>
      </trkpt>
      <trkpt lat="46.17512" lon="-1.18155">
        <ele>14.56</ele>
        <time>2016-09-02T09:01:13Z</time>
      </trkpt>
      <trkpt lat="46.17507" lon="-1.18143">
        <ele>14.56</ele>
        <time>2016-09-02T09:01:15Z</time>
      </trkpt>
      <trkpt lat="46.17478" lon="-1.18061">
        <ele>16.48</ele>
        <time>2016-09-02T09:01:28Z</time>
      </trkpt>
      <trkpt lat="46.1746" lon="-1.18001">
        <ele>16.96</ele>
        <time>2016-09-02T09:01:38Z</time>
      </trkpt>
      <trkpt lat="46.17459" lon="-1.17995">
        <ele>17.44</ele>
        <time>2016-09-02T09:01:39Z</time>
      </trkpt>
      <trkpt lat="46.17459" lon="-1.17988">
        <ele>16.48</ele>
        <time>2016-09-02T09:01:40Z</time>
      </trkpt>
      <trkpt lat="46.17459" lon="-1.17982">
        <ele>17.92</ele>
        <time>2016-09-02T09:01:41Z</time>
      </trkpt>
      <trkpt lat="46.17459" lon="-1.17976">
        <ele>17.44</ele>
        <time>2016-09-02T09:01:42Z</time>
      </trkpt>
      <trkpt lat="46.17459" lon="-1.17971">
        <ele>17.44</ele>
        <time>2016-09-02T09:01:43Z</time>
      </trkpt>
      <trkpt lat="46.1746" lon="-1.17965">
        <ele>17.92</ele>
        <time>2016-09-02T09:01:44Z</time>
      </trkpt>
      <trkpt lat="46.1746" lon="-1.17959">
        <ele>17.44</ele>
        <time>2016-09-02T09:01:45Z</time>
      </trkpt>
      <trkpt lat="46.17458" lon="-1.17933">
        <ele>17.92</ele>
        <time>2016-09-02T09:01:50Z</time>
      </trkpt>
      <trkpt lat="46.17455" lon="-1.1793">
        <ele>17.92</ele>
        <time>2016-09-02T09:01:51Z</time>
      </trkpt>
      <trkpt lat="46.17452" lon="-1.1793">
        <ele>17.92</ele>
        <time>2016-09-02T09:01:52Z</time>
      </trkpt>
      <trkpt lat="46.17449" lon="-1.17931">
        <ele>17.92</ele>
        <time>2016-09-02T09:01:53Z</time>
      </trkpt>
      <trkpt lat="46.17446" lon="-1.17934">
        <ele>17.44</ele>
        <time>2016-09-02T09:01:54Z</time>
      </trkpt>
      <trkpt lat="46.17443" lon="-1.17937">
        <ele>17.44</ele>
        <time>2016-09-02T09:01:55Z</time>
      </trkpt>
      <trkpt lat="46.1744" lon="-1.17941">
        <ele>17.92</ele>
        <time>2016-09-02T09:01:56Z</time>
      </trkpt>
      <trkpt lat="46.17409" lon="-1.17966">
        <ele>17.44</ele>
        <time>2016-09-02T09:02:06Z</time>
      </trkpt>
      <trkpt lat="46.1739" lon="-1.17954">
        <ele>17.44</ele>
        <time>2016-09-02T09:02:13Z</time>
      </trkpt>
      <trkpt lat="46.17389" lon="-1.17948">
        <ele>17.44</ele>
        <time>2016-09-02T09:02:14Z</time>
      </trkpt>
      <trkpt lat="46.17388" lon="-1.17943">
        <ele>16.96</ele>
        <time>2016-09-02T09:02:15Z</time>
      </trkpt>
      <trkpt lat="46.17386" lon="-1.17938">
        <ele>17.44</ele>
        <time>2016-09-02T09:02:16Z</time>
      </trkpt>
      <trkpt lat="46.17384" lon="-1.17935">
        <ele>17.44</ele>
        <time>2016-09-02T09:02:17Z</time>
      </trkpt>
      <trkpt lat="46.17381" lon="-1.17933">
        <ele>17.44</ele>
        <time>2016-09-02T09:02:18Z</time>
      </trkpt>
      <trkpt lat="46.17379" lon="-1.17933">
        <ele>17.44</ele>
        <time>2016-09-02T09:02:19Z</time>
      </trkpt>
      <trkpt lat="46.17377" lon="-1.17933">
        <ele>17.92</ele>
        <time>2016-09-02T09:02:20Z</time>
      </trkpt>
      <trkpt lat="46.17375" lon="-1.17933">
        <ele>17.44</ele>
        <time>2016-09-02T09:02:21Z</time>
      </trkpt>
      <trkpt lat="46.17372" lon="-1.17933">
        <ele>17.92</ele>
        <time>2016-09-02T09:02:22Z</time>
      </trkpt>
      <trkpt lat="46.17369" lon="-1.17934">
        <ele>17.92</ele>
        <time>2016-09-02T09:02:23Z</time>
      </trkpt>
      <trkpt lat="46.17328" lon="-1.17942">
        <ele>16.48</ele>
        <time>2016-09-02T09:02:33Z</time>
      </trkpt>
      <trkpt lat="46.17261" lon="-1.17955">
        <ele>16</ele>
        <time>2016-09-02T09:02:46Z</time>
      </trkpt>
      <trkpt lat="46.17193" lon="-1.17969">
        <ele>14.56</ele>
        <time>2016-09-02T09:02:59Z</time>
      </trkpt>
      <trkpt lat="46.17179" lon="-1.17973">
        <ele>15.04</ele>
        <time>2016-09-02T09:03:05Z</time>
      </trkpt>
      <trkpt lat="46.17177" lon="-1.17974">
        <ele>14.56</ele>
        <time>2016-09-02T09:03:06Z</time>
      </trkpt>
      <trkpt lat="46.17176" lon="-1.17975">
        <ele>15.04</ele>
        <time>2016-09-02T09:03:07Z</time>
      </trkpt>
      <trkpt lat="46.17163" lon="-1.17978">
        <ele>14.56</ele>
        <time>2016-09-02T09:03:12Z</time>
      </trkpt>
      <trkpt lat="46.17109" lon="-1.1799">
        <ele>13.12</ele>
        <time>2016-09-02T09:03:22Z</time>
      </trkpt>
      <trkpt lat="46.17052" lon="-1.18004">
        <ele>12.63</ele>
        <time>2016-09-02T09:03:32Z</time>
      </trkpt>
      <trkpt lat="46.16989" lon="-1.18021">
        <ele>12.15</ele>
        <time>2016-09-02T09:03:43Z</time>
      </trkpt>
      <trkpt lat="46.16949" lon="-1.18029">
        <ele>12.15</ele>
        <time>2016-09-02T09:03:51Z</time>
      </trkpt>
      <trkpt lat="46.16945" lon="-1.18029">
        <ele>12.63</ele>
        <time>2016-09-02T09:03:52Z</time>
      </trkpt>
      <trkpt lat="46.1694" lon="-1.18026">
        <ele>12.15</ele>
        <time>2016-09-02T09:03:53Z</time>
      </trkpt>
      <trkpt lat="46.16938" lon="-1.18021">
        <ele>12.15</ele>
        <time>2016-09-02T09:03:54Z</time>
      </trkpt>
      <trkpt lat="46.16936" lon="-1.18015">
        <ele>12.15</ele>
        <time>2016-09-02T09:03:55Z</time>
      </trkpt>
      <trkpt lat="46.16934" lon="-1.18008">
        <ele>12.63</ele>
        <time>2016-09-02T09:03:56Z</time>
      </trkpt>
      <trkpt lat="46.16933" lon="-1.18001">
        <ele>12.63</ele>
        <time>2016-09-02T09:03:57Z</time>
      </trkpt>
      <trkpt lat="46.1693" lon="-1.17987">
        <ele>12.15</ele>
        <time>2016-09-02T09:03:59Z</time>
      </trkpt>
      <trkpt lat="46.16927" lon="-1.17981">
        <ele>12.63</ele>
        <time>2016-09-02T09:04:00Z</time>
      </trkpt>
      <trkpt lat="46.16923" lon="-1.17977">
        <ele>12.63</ele>
        <time>2016-09-02T09:04:01Z</time>
      </trkpt>
      <trkpt lat="46.16919" lon="-1.17974">
        <ele>13.12</ele>
        <time>2016-09-02T09:04:02Z</time>
      </trkpt>
      <trkpt lat="46.16914" lon="-1.17973">
        <ele>13.12</ele>
        <time>2016-09-02T09:04:03Z</time>
      </trkpt>
      <trkpt lat="46.1691" lon="-1.17972">
        <ele>13.6</ele>
        <time>2016-09-02T09:04:04Z</time>
      </trkpt>
      <trkpt lat="46.16905" lon="-1.17972">
        <ele>13.12</ele>
        <time>2016-09-02T09:04:05Z</time>
      </trkpt>
      <trkpt lat="46.16901" lon="-1.17972">
        <ele>13.12</ele>
        <time>2016-09-02T09:04:06Z</time>
      </trkpt>
      <trkpt lat="46.16849" lon="-1.17963">
        <ele>16.96</ele>
        <time>2016-09-02T09:04:16Z</time>
      </trkpt>
      <trkpt lat="46.16797" lon="-1.17956">
        <ele>16</ele>
        <time>2016-09-02T09:04:27Z</time>
      </trkpt>
      <trkpt lat="46.16764" lon="-1.17956">
        <ele>16.96</ele>
        <time>2016-09-02T09:04:35Z</time>
      </trkpt>
      <trkpt lat="46.1676" lon="-1.17959">
        <ele>16.96</ele>
        <time>2016-09-02T09:04:36Z</time>
      </trkpt>
      <trkpt lat="46.16758" lon="-1.17962">
        <ele>17.44</ele>
        <time>2016-09-02T09:04:37Z</time>
      </trkpt>
      <trkpt lat="46.16755" lon="-1.17965">
        <ele>16.96</ele>
        <time>2016-09-02T09:04:38Z</time>
      </trkpt>
      <trkpt lat="46.16751" lon="-1.17966">
        <ele>16.96</ele>
        <time>2016-09-02T09:04:39Z</time>
      </trkpt>
      <trkpt lat="46.16747" lon="-1.17964">
        <ele>17.44</ele>
        <time>2016-09-02T09:04:40Z</time>
      </trkpt>
      <trkpt lat="46.16744" lon="-1.1796">
        <ele>17.92</ele>
        <time>2016-09-02T09:04:41Z</time>
      </trkpt>
      <trkpt lat="46.16742" lon="-1.17954">
        <ele>17.44</ele>
        <time>2016-09-02T09:04:42Z</time>
      </trkpt>
      <trkpt lat="46.16742" lon="-1.17947">
        <ele>17.92</ele>
        <time>2016-09-02T09:04:43Z</time>
      </trkpt>
      <trkpt lat="46.16742" lon="-1.1794">
        <ele>17.44</ele>
        <time>2016-09-02T09:04:44Z</time>
      </trkpt>
      <trkpt lat="46.1674" lon="-1.17933">
        <ele>17.92</ele>
        <time>2016-09-02T09:04:45Z</time>
      </trkpt>
      <trkpt lat="46.16729" lon="-1.17835">
        <ele>18.4</ele>
        <time>2016-09-02T09:04:59Z</time>
      </trkpt>
      <trkpt lat="46.16723" lon="-1.17777">
        <ele>18.88</ele>
        <time>2016-09-02T09:05:08Z</time>
      </trkpt>
      <trkpt lat="46.16721" lon="-1.17751">
        <ele>19.36</ele>
        <time>2016-09-02T09:05:12Z</time>
      </trkpt>
      <trkpt lat="46.16722" lon="-1.17745">
        <ele>19.36</ele>
        <time>2016-09-02T09:05:13Z</time>
      </trkpt>
      <trkpt lat="46.16745" lon="-1.1767">
        <ele>19.36</ele>
        <time>2016-09-02T09:05:25Z</time>
      </trkpt>
      <trkpt lat="46.16763" lon="-1.17608">
        <ele>19.84</ele>
        <time>2016-09-02T09:05:36Z</time>
      </trkpt>
      <trkpt lat="46.16763" lon="-1.17606">
        <ele>15.52</ele>
        <time>2016-09-02T09:05:40Z</time>
      </trkpt>
      <trkpt lat="46.16763" lon="-1.17606">
        <ele>20.32</ele>
        <time>2016-09-02T09:05:41Z</time>
      </trkpt>
      <trkpt lat="46.16763" lon="-1.17606">
        <ele>15.04</ele>
        <time>2016-09-02T09:05:42Z</time>
      </trkpt>
      <trkpt lat="46.16763" lon="-1.17606">
        <ele>20.81</ele>
        <time>2016-09-02T09:05:43Z</time>
      </trkpt>
      <trkpt lat="46.16763" lon="-1.17606">
        <ele>14.08</ele>
        <time>2016-09-02T09:05:44Z</time>
      </trkpt>
      <trkpt lat="46.16763" lon="-1.17607">
        <ele>20.81</ele>
        <time>2016-09-02T09:05:45Z</time>
      </trkpt>
      <trkpt lat="46.16763" lon="-1.17607">
        <ele>24.17</ele>
        <time>2016-09-02T09:05:46Z</time>
      </trkpt>
      <trkpt lat="46.16763" lon="-1.17607">
        <ele>40.03</ele>
        <time>2016-09-02T09:05:47Z</time>
      </trkpt>
      <trkpt lat="46.16763" lon="-1.17607">
        <ele>0.14</ele>
        <time>2016-09-02T09:05:48Z</time>
      </trkpt>
      <trkpt lat="46.16763" lon="-1.17606">
        <ele>22.25</ele>
        <time>2016-09-02T09:05:49Z</time>
      </trkpt>
      <trkpt lat="46.16763" lon="-1.17606">
        <ele>30.42</ele>
        <time>2016-09-02T09:05:50Z</time>
      </trkpt>
      <trkpt lat="46.16764" lon="-1.17606">
        <ele>20.32</ele>
        <time>2016-09-02T09:05:51Z</time>
      </trkpt>
      <trkpt lat="46.16764" lon="-1.17606">
        <ele>20.32</ele>
        <time>2016-09-02T09:05:52Z</time>
      </trkpt>
      <trkpt lat="46.16764" lon="-1.17606">
        <ele>28.02</ele>
        <time>2016-09-02T09:05:55Z</time>
      </trkpt>
      <trkpt lat="46.16764" lon="-1.17606">
        <ele>20.81</ele>
        <time>2016-09-02T09:05:56Z</time>
      </trkpt>
      <trkpt lat="46.16764" lon="-1.17606">
        <ele>10.23</ele>
        <time>2016-09-02T09:06:02Z</time>
      </trkpt>
      <trkpt lat="46.16764" lon="-1.17606">
        <ele>39.07</ele>
        <time>2016-09-02T09:06:03Z</time>
      </trkpt>
      <trkpt lat="46.16763" lon="-1.17606">
        <ele>-5.63</ele>
        <time>2016-09-02T09:06:04Z</time>
      </trkpt>
      <trkpt lat="46.16763" lon="-1.17606">
        <ele>22.73</ele>
        <time>2016-09-02T09:06:05Z</time>
      </trkpt>
      <trkpt lat="46.16763" lon="-1.17606">
        <ele>42.92</ele>
        <time>2016-09-02T09:06:06Z</time>
      </trkpt>
      <trkpt lat="46.16763" lon="-1.17606">
        <ele>20.81</ele>
        <time>2016-09-02T09:06:07Z</time>
      </trkpt>
      <trkpt lat="46.16763" lon="-1.17606">
        <ele>4.94</ele>
        <time>2016-09-02T09:06:08Z</time>
      </trkpt>
      <trkpt lat="46.16763" lon="-1.17606">
        <ele>21.77</ele>
        <time>2016-09-02T09:06:09Z</time>
      </trkpt>
      <trkpt lat="46.16763" lon="-1.17606">
        <ele>27.05</ele>
        <time>2016-09-02T09:06:10Z</time>
      </trkpt>
      <trkpt lat="46.16763" lon="-1.17606">
        <ele>20.81</ele>
        <time>2016-09-02T09:06:11Z</time>
      </trkpt>
      <trkpt lat="46.16763" lon="-1.17606">
        <ele>27.05</ele>
        <time>2016-09-02T09:06:15Z</time>
      </trkpt>
      <trkpt lat="46.16763" lon="-1.17606">
        <ele>20.81</ele>
        <time>2016-09-02T09:06:16Z</time>
      </trkpt>
      <trkpt lat="46.16763" lon="-1.17606">
        <ele>19.84</ele>
        <time>2016-09-02T09:06:18Z</time>
      </trkpt>
      <trkpt lat="46.16763" lon="-1.17606">
        <ele>20.81</ele>
        <time>2016-09-02T09:06:24Z</time>
      </trkpt>
      <trkpt lat="46.16764" lon="-1.17605">
        <ele>19.84</ele>
        <time>2016-09-02T09:06:28Z</time>
      </trkpt>
      <trkpt lat="46.16765" lon="-1.17603">
        <ele>19.36</ele>
        <time>2016-09-02T09:06:29Z</time>
      </trkpt>
      <trkpt lat="46.16765" lon="-1.17601">
        <ele>19.84</ele>
        <time>2016-09-02T09:06:30Z</time>
      </trkpt>
      <trkpt lat="46.16767" lon="-1.17598">
        <ele>19.36</ele>
        <time>2016-09-02T09:06:31Z</time>
      </trkpt>
      <trkpt lat="46.16769" lon="-1.17594">
        <ele>19.84</ele>
        <time>2016-09-02T09:06:32Z</time>
      </trkpt>
      <trkpt lat="46.16771" lon="-1.17589">
        <ele>19.84</ele>
        <time>2016-09-02T09:06:33Z</time>
      </trkpt>
      <trkpt lat="46.16797" lon="-1.17507">
        <ele>19.84</ele>
        <time>2016-09-02T09:06:46Z</time>
      </trkpt>
      <trkpt lat="46.16828" lon="-1.17413">
        <ele>20.32</ele>
        <time>2016-09-02T09:07:00Z</time>
      </trkpt>
      <trkpt lat="46.16861" lon="-1.17307">
        <ele>20.81</ele>
        <time>2016-09-02T09:07:16Z</time>
      </trkpt>
      <trkpt lat="46.16889" lon="-1.17213">
        <ele>19.84</ele>
        <time>2016-09-02T09:07:30Z</time>
      </trkpt>
      <trkpt lat="46.16889" lon="-1.17207">
        <ele>19.84</ele>
        <time>2016-09-02T09:07:31Z</time>
      </trkpt>
      <trkpt lat="46.16888" lon="-1.17201">
        <ele>19.36</ele>
        <time>2016-09-02T09:07:32Z</time>
      </trkpt>
      <trkpt lat="46.16886" lon="-1.17196">
        <ele>19.84</ele>
        <time>2016-09-02T09:07:33Z</time>
      </trkpt>
      <trkpt lat="46.16884" lon="-1.17191">
        <ele>19.84</ele>
        <time>2016-09-02T09:07:34Z</time>
      </trkpt>
      <trkpt lat="46.16881" lon="-1.17187">
        <ele>19.84</ele>
        <time>2016-09-02T09:07:35Z</time>
      </trkpt>
      <trkpt lat="46.16878" lon="-1.17184">
        <ele>19.84</ele>
        <time>2016-09-02T09:07:36Z</time>
      </trkpt>
      <trkpt lat="46.16875" lon="-1.17181">
        <ele>16.48</ele>
        <time>2016-09-02T09:07:37Z</time>
      </trkpt>
      <trkpt lat="46.16872" lon="-1.17179">
        <ele>20.81</ele>
        <time>2016-09-02T09:07:38Z</time>
      </trkpt>
      <trkpt lat="46.16835" lon="-1.17155">
        <ele>18.88</ele>
        <time>2016-09-02T09:07:48Z</time>
      </trkpt>
      <trkpt lat="46.16824" lon="-1.17142">
        <ele>18.88</ele>
        <time>2016-09-02T09:07:52Z</time>
      </trkpt>
      <trkpt lat="46.16824" lon="-1.17137">
        <ele>18.4</ele>
        <time>2016-09-02T09:07:53Z</time>
      </trkpt>
      <trkpt lat="46.16825" lon="-1.17132">
        <ele>18.88</ele>
        <time>2016-09-02T09:07:54Z</time>
      </trkpt>
      <trkpt lat="46.1685" lon="-1.17059">
        <ele>18.4</ele>
        <time>2016-09-02T09:08:05Z</time>
      </trkpt>
      <trkpt lat="46.16872" lon="-1.16983">
        <ele>17.44</ele>
        <time>2016-09-02T09:08:17Z</time>
      </trkpt>
      <trkpt lat="46.16871" lon="-1.16981">
        <ele>17.92</ele>
        <time>2016-09-02T09:08:18Z</time>
      </trkpt>
      <trkpt lat="46.16869" lon="-1.16979">
        <ele>17.92</ele>
        <time>2016-09-02T09:08:19Z</time>
      </trkpt>
      <trkpt lat="46.1685" lon="-1.1697">
        <ele>17.92</ele>
        <time>2016-09-02T09:08:24Z</time>
      </trkpt>
      <trkpt lat="46.16847" lon="-1.16967">
        <ele>17.92</ele>
        <time>2016-09-02T09:08:25Z</time>
      </trkpt>
      <trkpt lat="46.16845" lon="-1.16963">
        <ele>17.44</ele>
        <time>2016-09-02T09:08:26Z</time>
      </trkpt>
      <trkpt lat="46.16844" lon="-1.16958">
        <ele>17.44</ele>
        <time>2016-09-02T09:08:27Z</time>
      </trkpt>
      <trkpt lat="46.16845" lon="-1.16951">
        <ele>17.44</ele>
        <time>2016-09-02T09:08:28Z</time>
      </trkpt>
      <trkpt lat="46.16844" lon="-1.16944">
        <ele>17.44</ele>
        <time>2016-09-02T09:08:29Z</time>
      </trkpt>
      <trkpt lat="46.16842" lon="-1.16937">
        <ele>16.96</ele>
        <time>2016-09-02T09:08:30Z</time>
      </trkpt>
      <trkpt lat="46.1684" lon="-1.1693">
        <ele>16.96</ele>
        <time>2016-09-02T09:08:31Z</time>
      </trkpt>
      <trkpt lat="46.1681" lon="-1.16835">
        <ele>16</ele>
        <time>2016-09-02T09:08:43Z</time>
      </trkpt>
      <trkpt lat="46.16776" lon="-1.16728">
        <ele>16</ele>
        <time>2016-09-02T09:08:56Z</time>
      </trkpt>
      <trkpt lat="46.16769" lon="-1.16703">
        <ele>11.67</ele>
        <time>2016-09-02T09:08:59Z</time>
      </trkpt>
      <trkpt lat="46.16766" lon="-1.16695">
        <ele>16</ele>
        <time>2016-09-02T09:09:00Z</time>
      </trkpt>
      <trkpt lat="46.16758" lon="-1.16671">
        <ele>15.52</ele>
        <time>2016-09-02T09:09:03Z</time>
      </trkpt>
      <trkpt lat="46.16754" lon="-1.16664">
        <ele>15.52</ele>
        <time>2016-09-02T09:09:04Z</time>
      </trkpt>
      <trkpt lat="46.16728" lon="-1.16623">
        <ele>14.56</ele>
        <time>2016-09-02T09:09:10Z</time>
      </trkpt>
      <trkpt lat="46.16725" lon="-1.16615">
        <ele>14.08</ele>
        <time>2016-09-02T09:09:11Z</time>
      </trkpt>
      <trkpt lat="46.16722" lon="-1.16607">
        <ele>14.56</ele>
        <time>2016-09-02T09:09:12Z</time>
      </trkpt>
      <trkpt lat="46.16704" lon="-1.16513">
        <ele>13.12</ele>
        <time>2016-09-02T09:09:22Z</time>
      </trkpt>
      <trkpt lat="46.16686" lon="-1.16409">
        <ele>12.63</ele>
        <time>2016-09-02T09:09:34Z</time>
      </trkpt>
      <trkpt lat="46.16682" lon="-1.16406">
        <ele>12.63</ele>
        <time>2016-09-02T09:09:35Z</time>
      </trkpt>
      <trkpt lat="46.16678" lon="-1.16406">
        <ele>12.63</ele>
        <time>2016-09-02T09:09:36Z</time>
      </trkpt>
      <trkpt lat="46.16673" lon="-1.16407">
        <ele>12.63</ele>
        <time>2016-09-02T09:09:37Z</time>
      </trkpt>
      <trkpt lat="46.16668" lon="-1.1641">
        <ele>12.15</ele>
        <time>2016-09-02T09:09:38Z</time>
      </trkpt>
      <trkpt lat="46.16663" lon="-1.16411">
        <ele>12.15</ele>
        <time>2016-09-02T09:09:39Z</time>
      </trkpt>
      <trkpt lat="46.16593" lon="-1.16435">
        <ele>12.15</ele>
        <time>2016-09-02T09:09:51Z</time>
      </trkpt>
      <trkpt lat="46.1653" lon="-1.16455">
        <ele>12.63</ele>
        <time>2016-09-02T09:10:02Z</time>
      </trkpt>
      <trkpt lat="46.16464" lon="-1.16477">
        <ele>11.19</ele>
        <time>2016-09-02T09:10:13Z</time>
      </trkpt>
      <trkpt lat="46.16438" lon="-1.16486">
        <ele>9.75</ele>
        <time>2016-09-02T09:10:17Z</time>
      </trkpt>
      <trkpt lat="46.16361" lon="-1.16511">
        <ele>7.35</ele>
        <time>2016-09-02T09:10:30Z</time>
      </trkpt>
      <trkpt lat="46.16345" lon="-1.16517">
        <ele>7.35</ele>
        <time>2016-09-02T09:10:38Z</time>
      </trkpt>
      <trkpt lat="46.16345" lon="-1.16517">
        <ele>12.63</ele>
        <time>2016-09-02T09:10:39Z</time>
      </trkpt>
      <trkpt lat="46.16345" lon="-1.16517">
        <ele>7.35</ele>
        <time>2016-09-02T09:10:40Z</time>
      </trkpt>
      <trkpt lat="46.16343" lon="-1.16516">
        <ele>7.35</ele>
        <time>2016-09-02T09:10:51Z</time>
      </trkpt>
      <trkpt lat="46.16326" lon="-1.16518">
        <ele>6.39</ele>
        <time>2016-09-02T09:10:59Z</time>
      </trkpt>
      <trkpt lat="46.16303" lon="-1.16523">
        <ele>5.91</ele>
        <time>2016-09-02T09:11:03Z</time>
      </trkpt>
      <trkpt lat="46.16297" lon="-1.16524">
        <ele>5.91</ele>
        <time>2016-09-02T09:11:04Z</time>
      </trkpt>
      <trkpt lat="46.16236" lon="-1.16534">
        <ele>3.5</ele>
        <time>2016-09-02T09:11:13Z</time>
      </trkpt>
      <trkpt lat="46.16159" lon="-1.16546">
        <ele>1.58</ele>
        <time>2016-09-02T09:11:24Z</time>
      </trkpt>
      <trkpt lat="46.16095" lon="-1.16561">
        <ele>1.1</ele>
        <time>2016-09-02T09:11:34Z</time>
      </trkpt>
      <trkpt lat="46.16036" lon="-1.16571">
        <ele>1.1</ele>
        <time>2016-09-02T09:11:43Z</time>
      </trkpt>
      <trkpt lat="46.1599" lon="-1.16577">
        <ele>2.06</ele>
        <time>2016-09-02T09:11:51Z</time>
      </trkpt>
      <trkpt lat="46.1598" lon="-1.16577">
        <ele>2.06</ele>
        <time>2016-09-02T09:11:57Z</time>
      </trkpt>
      <trkpt lat="46.1598" lon="-1.16576">
        <ele>8.31</ele>
        <time>2016-09-02T09:11:59Z</time>
      </trkpt>
      <trkpt lat="46.1598" lon="-1.16576">
        <ele>2.06</ele>
        <time>2016-09-02T09:12:00Z</time>
      </trkpt>
      <trkpt lat="46.1598" lon="-1.16575">
        <ele>-9.96</ele>
        <time>2016-09-02T09:12:03Z</time>
      </trkpt>
      <trkpt lat="46.1598" lon="-1.16575">
        <ele>1.58</ele>
        <time>2016-09-02T09:12:04Z</time>
      </trkpt>
      <trkpt lat="46.1598" lon="-1.16575">
        <ele>2.06</ele>
        <time>2016-09-02T09:12:06Z</time>
      </trkpt>
      <trkpt lat="46.1598" lon="-1.16575">
        <ele>-2.27</ele>
        <time>2016-09-02T09:12:07Z</time>
      </trkpt>
      <trkpt lat="46.1598" lon="-1.16575">
        <ele>3.98</ele>
        <time>2016-09-02T09:12:08Z</time>
      </trkpt>
      <trkpt lat="46.1598" lon="-1.16575">
        <ele>-2.75</ele>
        <time>2016-09-02T09:12:09Z</time>
      </trkpt>
      <trkpt lat="46.1598" lon="-1.16574">
        <ele>2.06</ele>
        <time>2016-09-02T09:12:10Z</time>
      </trkpt>
      <trkpt lat="46.15978" lon="-1.16575">
        <ele>2.06</ele>
        <time>2016-09-02T09:12:17Z</time>
      </trkpt>
      <trkpt lat="46.15975" lon="-1.16576">
        <ele>2.06</ele>
        <time>2016-09-02T09:12:18Z</time>
      </trkpt>
      <trkpt lat="46.15972" lon="-1.16576">
        <ele>2.06</ele>
        <time>2016-09-02T09:12:19Z</time>
      </trkpt>
      <trkpt lat="46.15969" lon="-1.16576">
        <ele>1.58</ele>
        <time>2016-09-02T09:12:20Z</time>
      </trkpt>
      <trkpt lat="46.15965" lon="-1.16577">
        <ele>1.58</ele>
        <time>2016-09-02T09:12:21Z</time>
      </trkpt>
      <trkpt lat="46.15924" lon="-1.16584">
        <ele>2.06</ele>
        <time>2016-09-02T09:12:30Z</time>
      </trkpt>
      <trkpt lat="46.15866" lon="-1.16594">
        <ele>3.02</ele>
        <time>2016-09-02T09:12:42Z</time>
      </trkpt>
      <trkpt lat="46.15805" lon="-1.16606">
        <ele>4.46</ele>
        <time>2016-09-02T09:12:55Z</time>
      </trkpt>
      <trkpt lat="46.15744" lon="-1.16617">
        <ele>5.91</ele>
        <time>2016-09-02T09:13:08Z</time>
      </trkpt>
      <trkpt lat="46.15685" lon="-1.16627">
        <ele>5.91</ele>
        <time>2016-09-02T09:13:20Z</time>
      </trkpt>
      <trkpt lat="46.15631" lon="-1.16637">
        <ele>5.91</ele>
        <time>2016-09-02T09:13:31Z</time>
      </trkpt>
      <trkpt lat="46.15621" lon="-1.16638">
        <ele>5.42</ele>
        <time>2016-09-02T09:13:33Z</time>
      </trkpt>
      <trkpt lat="46.15591" lon="-1.16635">
        <ele>6.87</ele>
        <time>2016-09-02T09:13:41Z</time>
      </trkpt>
      <trkpt lat="46.15574" lon="-1.16634">
        <ele>7.35</ele>
        <time>2016-09-02T09:13:49Z</time>
      </trkpt>
      <trkpt lat="46.15572" lon="-1.16634">
        <ele>7.83</ele>
        <time>2016-09-02T09:13:55Z</time>
      </trkpt>
      <trkpt lat="46.15571" lon="-1.16633">
        <ele>6.87</ele>
        <time>2016-09-02T09:13:56Z</time>
      </trkpt>
      <trkpt lat="46.1557" lon="-1.1663">
        <ele>7.35</ele>
        <time>2016-09-02T09:13:57Z</time>
      </trkpt>
      <trkpt lat="46.1557" lon="-1.16627">
        <ele>7.35</ele>
        <time>2016-09-02T09:13:58Z</time>
      </trkpt>
      <trkpt lat="46.15569" lon="-1.16622">
        <ele>6.87</ele>
        <time>2016-09-02T09:13:59Z</time>
      </trkpt>
      <trkpt lat="46.15568" lon="-1.16615">
        <ele>6.87</ele>
        <time>2016-09-02T09:14:00Z</time>
      </trkpt>
      <trkpt lat="46.15569" lon="-1.16608">
        <ele>6.87</ele>
        <time>2016-09-02T09:14:01Z</time>
      </trkpt>
      <trkpt lat="46.15571" lon="-1.16579">
        <ele>5.91</ele>
        <time>2016-09-02T09:14:05Z</time>
      </trkpt>
      <trkpt lat="46.15572" lon="-1.16572">
        <ele>5.91</ele>
        <time>2016-09-02T09:14:06Z</time>
      </trkpt>
      <trkpt lat="46.15573" lon="-1.16551">
        <ele>5.91</ele>
        <time>2016-09-02T09:14:09Z</time>
      </trkpt>
      <trkpt lat="46.15575" lon="-1.16537">
        <ele>4.94</ele>
        <time>2016-09-02T09:14:11Z</time>
      </trkpt>
      <trkpt lat="46.15576" lon="-1.16527">
        <ele>4.46</ele>
        <time>2016-09-02T09:14:12Z</time>
      </trkpt>
      <trkpt lat="46.15577" lon="-1.16476">
        <ele>3.98</ele>
        <time>2016-09-02T09:14:17Z</time>
      </trkpt>
      <trkpt lat="46.15578" lon="-1.16447">
        <ele>3.5</ele>
        <time>2016-09-02T09:14:20Z</time>
      </trkpt>
      <trkpt lat="46.15578" lon="-1.16437">
        <ele>3.5</ele>
        <time>2016-09-02T09:14:21Z</time>
      </trkpt>
      <trkpt lat="46.15582" lon="-1.16336">
        <ele>2.06</ele>
        <time>2016-09-02T09:14:31Z</time>
      </trkpt>
      <trkpt lat="46.15583" lon="-1.16307">
        <ele>2.54</ele>
        <time>2016-09-02T09:14:34Z</time>
      </trkpt>
      <trkpt lat="46.1559" lon="-1.1619">
        <ele>2.06</ele>
        <time>2016-09-02T09:14:47Z</time>
      </trkpt>
      <trkpt lat="46.15594" lon="-1.16105">
        <ele>1.58</ele>
        <time>2016-09-02T09:14:57Z</time>
      </trkpt>
      <trkpt lat="46.15596" lon="-1.16096">
        <ele>2.06</ele>
        <time>2016-09-02T09:14:58Z</time>
      </trkpt>
      <trkpt lat="46.15599" lon="-1.16089">
        <ele>2.06</ele>
        <time>2016-09-02T09:14:59Z</time>
      </trkpt>
      <trkpt lat="46.15602" lon="-1.16082">
        <ele>2.06</ele>
        <time>2016-09-02T09:15:00Z</time>
      </trkpt>
      <trkpt lat="46.15604" lon="-1.16074">
        <ele>1.58</ele>
        <time>2016-09-02T09:15:01Z</time>
      </trkpt>
      <trkpt lat="46.15605" lon="-1.16066">
        <ele>1.58</ele>
        <time>2016-09-02T09:15:02Z</time>
      </trkpt>
      <trkpt lat="46.15606" lon="-1.16059">
        <ele>2.06</ele>
        <time>2016-09-02T09:15:03Z</time>
      </trkpt>
      <trkpt lat="46.15607" lon="-1.16051">
        <ele>2.54</ele>
        <time>2016-09-02T09:15:04Z</time>
      </trkpt>
      <trkpt lat="46.15612" lon="-1.15955">
        <ele>3.02</ele>
        <time>2016-09-02T09:15:16Z</time>
      </trkpt>
      <trkpt lat="46.1562" lon="-1.15872">
        <ele>3.5</ele>
        <time>2016-09-02T09:15:27Z</time>
      </trkpt>
      <trkpt lat="46.15628" lon="-1.1578">
        <ele>3.02</ele>
        <time>2016-09-02T09:15:39Z</time>
      </trkpt>
      <trkpt lat="46.15634" lon="-1.15721">
        <ele>2.54</ele>
        <time>2016-09-02T09:15:49Z</time>
      </trkpt>
      <trkpt lat="46.15633" lon="-1.15715">
        <ele>2.54</ele>
        <time>2016-09-02T09:15:50Z</time>
      </trkpt>
      <trkpt lat="46.15625" lon="-1.15643">
        <ele>2.54</ele>
        <time>2016-09-02T09:16:03Z</time>
      </trkpt>
      <trkpt lat="46.15619" lon="-1.1558">
        <ele>3.02</ele>
        <time>2016-09-02T09:16:15Z</time>
      </trkpt>
      <trkpt lat="46.15631" lon="-1.15532">
        <ele>2.54</ele>
        <time>2016-09-02T09:16:24Z</time>
      </trkpt>
      <trkpt lat="46.15647" lon="-1.15493">
        <ele>3.02</ele>
        <time>2016-09-02T09:16:33Z</time>
      </trkpt>
      <trkpt lat="46.15669" lon="-1.15449">
        <ele>3.02</ele>
        <time>2016-09-02T09:16:44Z</time>
      </trkpt>
      <trkpt lat="46.15665" lon="-1.1542">
        <ele>2.54</ele>
        <time>2016-09-02T09:16:53Z</time>
      </trkpt>
      <trkpt lat="46.15651" lon="-1.15412">
        <ele>1.58</ele>
        <time>2016-09-02T09:17:02Z</time>
      </trkpt>
      <trkpt lat="46.1565" lon="-1.15411">
        <ele>2.06</ele>
        <time>2016-09-02T09:17:16Z</time>
      </trkpt>
      <trkpt lat="46.15651" lon="-1.15411">
        <ele>1.58</ele>
        <time>2016-09-02T09:17:28Z</time>
      </trkpt>
      <trkpt lat="46.15651" lon="-1.15411">
        <ele>5.91</ele>
        <time>2016-09-02T09:17:33Z</time>
      </trkpt>
      <trkpt lat="46.15651" lon="-1.15411">
        <ele>3.98</ele>
        <time>2016-09-02T09:17:34Z</time>
      </trkpt>
      <trkpt lat="46.15651" lon="-1.15411">
        <ele>-33.99</ele>
        <time>2016-09-02T09:17:36Z</time>
      </trkpt>
      <trkpt lat="46.15651" lon="-1.15411">
        <ele>7.35</ele>
        <time>2016-09-02T09:17:37Z</time>
      </trkpt>
      <trkpt lat="46.15651" lon="-1.15411">
        <ele>2.54</ele>
        <time>2016-09-02T09:17:38Z</time>
      </trkpt>
      <trkpt lat="46.15651" lon="-1.15411">
        <ele>-8.03</ele>
        <time>2016-09-02T09:17:39Z</time>
      </trkpt>
      <trkpt lat="46.15651" lon="-1.15411">
        <ele>18.4</ele>
        <time>2016-09-02T09:17:40Z</time>
      </trkpt>
      <trkpt lat="46.15651" lon="-1.15411">
        <ele>2.06</ele>
        <time>2016-09-02T09:17:41Z</time>
      </trkpt>
      <trkpt lat="46.15651" lon="-1.15411">
        <ele>16.48</ele>
        <time>2016-09-02T09:17:42Z</time>
      </trkpt>
      <trkpt lat="46.15651" lon="-1.15411">
        <ele>-4.67</ele>
        <time>2016-09-02T09:17:43Z</time>
      </trkpt>
      <trkpt lat="46.15651" lon="-1.15411">
        <ele>14.08</ele>
        <time>2016-09-02T09:17:44Z</time>
      </trkpt>
      <trkpt lat="46.15651" lon="-1.15411">
        <ele>2.54</ele>
        <time>2016-09-02T09:17:45Z</time>
      </trkpt>
      <trkpt lat="46.15651" lon="-1.15411">
        <ele>16.96</ele>
        <time>2016-09-02T09:17:46Z</time>
      </trkpt>
      <trkpt lat="46.15651" lon="-1.15411">
        <ele>2.54</ele>
        <time>2016-09-02T09:17:47Z</time>
      </trkpt>
      <trkpt lat="46.15651" lon="-1.15413">
        <ele>1.58</ele>
        <time>2016-09-02T09:18:03Z</time>
      </trkpt>
      <trkpt lat="46.15651" lon="-1.15413">
        <ele>2.54</ele>
        <time>2016-09-02T09:18:22Z</time>
      </trkpt>
      <trkpt lat="46.15652" lon="-1.15413">
        <ele>2.06</ele>
        <time>2016-09-02T09:18:43Z</time>
      </trkpt>
      <trkpt lat="46.1565" lon="-1.15412">
        <ele>1.58</ele>
        <time>2016-09-02T09:18:56Z</time>
      </trkpt>
      <trkpt lat="46.15646" lon="-1.15407">
        <ele>2.06</ele>
        <time>2016-09-02T09:19:05Z</time>
      </trkpt>
      <trkpt lat="46.15646" lon="-1.15406">
        <ele>2.06</ele>
        <time>2016-09-02T09:19:19Z</time>
      </trkpt>
      <trkpt lat="46.15645" lon="-1.15406">
        <ele>1.58</ele>
        <time>2016-09-02T09:19:38Z</time>
      </trkpt>
      <trkpt lat="46.15645" lon="-1.15406">
        <ele>1.58</ele>
        <time>2016-09-02T09:19:59Z</time>
      </trkpt>
      <trkpt lat="46.15645" lon="-1.15406">
        <ele>1.58</ele>
        <time>2016-09-02T09:20:10Z</time>
      </trkpt>
      <trkpt lat="46.15646" lon="-1.15405">
        <ele>1.58</ele>
        <time>2016-09-02T09:20:11Z</time>
      </trkpt>
      <trkpt lat="46.15647" lon="-1.15404">
        <ele>1.58</ele>
        <time>2016-09-02T09:20:12Z</time>
      </trkpt>
      <trkpt lat="46.15649" lon="-1.15403">
        <ele>1.58</ele>
        <time>2016-09-02T09:20:13Z</time>
      </trkpt>
      <trkpt lat="46.15651" lon="-1.15402">
        <ele>1.58</ele>
        <time>2016-09-02T09:20:14Z</time>
      </trkpt>
      <trkpt lat="46.15653" lon="-1.15401">
        <ele>2.06</ele>
        <time>2016-09-02T09:20:15Z</time>
      </trkpt>
      <trkpt lat="46.15673" lon="-1.15397">
        <ele>2.06</ele>
        <time>2016-09-02T09:20:25Z</time>
      </trkpt>
      <trkpt lat="46.15677" lon="-1.15394">
        <ele>2.06</ele>
        <time>2016-09-02T09:20:28Z</time>
      </trkpt>
      <trkpt lat="46.15679" lon="-1.15395">
        <ele>2.06</ele>
        <time>2016-09-02T09:20:29Z</time>
      </trkpt>
      <trkpt lat="46.1568" lon="-1.15395">
        <ele>2.06</ele>
        <time>2016-09-02T09:20:30Z</time>
      </trkpt>
      <trkpt lat="46.15679" lon="-1.15396">
        <ele>2.54</ele>
        <time>2016-09-02T09:20:40Z</time>
      </trkpt>
      <trkpt lat="46.15684" lon="-1.15396">
        <ele>2.06</ele>
        <time>2016-09-02T09:20:59Z</time>
      </trkpt>
      <trkpt lat="46.15683" lon="-1.15398">
        <ele>1.58</ele>
        <time>2016-09-02T09:21:15Z</time>
      </trkpt>
      <trkpt lat="46.15683" lon="-1.15398">
        <ele>1.1</ele>
        <time>2016-09-02T09:21:36Z</time>
      </trkpt>
      <trkpt lat="46.15683" lon="-1.15397">
        <ele>1.58</ele>
        <time>2016-09-02T09:21:54Z</time>
      </trkpt>
      <trkpt lat="46.15683" lon="-1.15397">
        <ele>1.58</ele>
        <time>2016-09-02T09:22:14Z</time>
      </trkpt>
      <trkpt lat="46.15682" lon="-1.15396">
        <ele>1.58</ele>
        <time>2016-09-02T09:22:35Z</time>
      </trkpt>
      <trkpt lat="46.15682" lon="-1.15395">
        <ele>1.1</ele>
        <time>2016-09-02T09:22:50Z</time>
      </trkpt>
      <trkpt lat="46.15682" lon="-1.15395">
        <ele>1.58</ele>
        <time>2016-09-02T09:23:05Z</time>
      </trkpt>
      <trkpt lat="46.15682" lon="-1.15395">
        <ele>1.58</ele>
        <time>2016-09-02T09:23:06Z</time>
      </trkpt>
      <trkpt lat="46.15682" lon="-1.15395">
        <ele>-3.23</ele>
        <time>2016-09-02T09:23:09Z</time>
      </trkpt>
      <trkpt lat="46.15682" lon="-1.15395">
        <ele>2.06</ele>
        <time>2016-09-02T09:23:10Z</time>
      </trkpt>
      <trkpt lat="46.15682" lon="-1.15396">
        <ele>2.54</ele>
        <time>2016-09-02T09:23:29Z</time>
      </trkpt>
      <trkpt lat="46.15682" lon="-1.15393">
        <ele>2.06</ele>
        <time>2016-09-02T09:23:40Z</time>
      </trkpt>
      <trkpt lat="46.15683" lon="-1.15392">
        <ele>2.54</ele>
        <time>2016-09-02T09:23:59Z</time>
      </trkpt>
      <trkpt lat="46.15682" lon="-1.15386">
        <ele>3.02</ele>
        <time>2016-09-02T09:24:08Z</time>
      </trkpt>
      <trkpt lat="46.15673" lon="-1.15385">
        <ele>2.54</ele>
        <time>2016-09-02T09:24:20Z</time>
      </trkpt>
      <trkpt lat="46.15671" lon="-1.15381">
        <ele>2.06</ele>
        <time>2016-09-02T09:24:27Z</time>
      </trkpt>
      <trkpt lat="46.15669" lon="-1.1538">
        <ele>1.58</ele>
        <time>2016-09-02T09:24:37Z</time>
      </trkpt>
      <trkpt lat="46.15667" lon="-1.1538">
        <ele>1.1</ele>
        <time>2016-09-02T09:24:51Z</time>
      </trkpt>
      <trkpt lat="46.15662" lon="-1.15382">
        <ele>1.58</ele>
        <time>2016-09-02T09:25:00Z</time>
      </trkpt>
      <trkpt lat="46.15657" lon="-1.15385">
        <ele>1.58</ele>
        <time>2016-09-02T09:25:09Z</time>
      </trkpt>
      <trkpt lat="46.15654" lon="-1.15386">
        <ele>1.58</ele>
        <time>2016-09-02T09:25:25Z</time>
      </trkpt>
      <trkpt lat="46.15653" lon="-1.15387">
        <ele>1.58</ele>
        <time>2016-09-02T09:25:38Z</time>
      </trkpt>
      <trkpt lat="46.15653" lon="-1.15388">
        <ele>2.06</ele>
        <time>2016-09-02T09:25:54Z</time>
      </trkpt>
      <trkpt lat="46.1565" lon="-1.15391">
        <ele>2.54</ele>
        <time>2016-09-02T09:26:08Z</time>
      </trkpt>
      <trkpt lat="46.15649" lon="-1.15391">
        <ele>2.06</ele>
        <time>2016-09-02T09:26:09Z</time>
      </trkpt>
      <trkpt lat="46.15646" lon="-1.15392">
        <ele>2.54</ele>
        <time>2016-09-02T09:26:19Z</time>
      </trkpt>
      <trkpt lat="46.15644" lon="-1.15394">
        <ele>3.02</ele>
        <time>2016-09-02T09:26:31Z</time>
      </trkpt>
      <trkpt lat="46.15636" lon="-1.154">
        <ele>3.02</ele>
        <time>2016-09-02T09:26:41Z</time>
      </trkpt>
      <trkpt lat="46.15635" lon="-1.15404">
        <ele>3.02</ele>
        <time>2016-09-02T09:26:52Z</time>
      </trkpt>
      <trkpt lat="46.15631" lon="-1.15406">
        <ele>2.54</ele>
        <time>2016-09-02T09:27:02Z</time>
      </trkpt>
      <trkpt lat="46.15629" lon="-1.15406">
        <ele>3.02</ele>
        <time>2016-09-02T09:27:19Z</time>
      </trkpt>
      <trkpt lat="46.15629" lon="-1.15408">
        <ele>2.54</ele>
        <time>2016-09-02T09:27:33Z</time>
      </trkpt>
      <trkpt lat="46.15629" lon="-1.15409">
        <ele>2.54</ele>
        <time>2016-09-02T09:27:46Z</time>
      </trkpt>
      <trkpt lat="46.15628" lon="-1.1541">
        <ele>2.54</ele>
        <time>2016-09-02T09:27:59Z</time>
      </trkpt>
      <trkpt lat="46.15627" lon="-1.15412">
        <ele>3.02</ele>
        <time>2016-09-02T09:28:13Z</time>
      </trkpt>
      <trkpt lat="46.15625" lon="-1.15412">
        <ele>2.54</ele>
        <time>2016-09-02T09:28:24Z</time>
      </trkpt>
      <trkpt lat="46.15619" lon="-1.15413">
        <ele>3.02</ele>
        <time>2016-09-02T09:28:33Z</time>
      </trkpt>
      <trkpt lat="46.15616" lon="-1.15412">
        <ele>2.54</ele>
        <time>2016-09-02T09:28:36Z</time>
      </trkpt>
      <trkpt lat="46.15609" lon="-1.15411">
        <ele>3.5</ele>
        <time>2016-09-02T09:28:46Z</time>
      </trkpt>
      <trkpt lat="46.15608" lon="-1.15411">
        <ele>2.54</ele>
        <time>2016-09-02T09:28:57Z</time>
      </trkpt>
      <trkpt lat="46.15604" lon="-1.15413">
        <ele>3.02</ele>
        <time>2016-09-02T09:29:03Z</time>
      </trkpt>
      <trkpt lat="46.15598" lon="-1.15414">
        <ele>3.5</ele>
        <time>2016-09-02T09:29:12Z</time>
      </trkpt>
      <trkpt lat="46.15599" lon="-1.15413">
        <ele>3.5</ele>
        <time>2016-09-02T09:29:31Z</time>
      </trkpt>
      <trkpt lat="46.15598" lon="-1.15412">
        <ele>3.5</ele>
        <time>2016-09-02T09:29:49Z</time>
      </trkpt>
      <trkpt lat="46.15598" lon="-1.15412">
        <ele>3.5</ele>
        <time>2016-09-02T09:30:10Z</time>
      </trkpt>
      <trkpt lat="46.15599" lon="-1.15412">
        <ele>3.5</ele>
        <time>2016-09-02T09:30:21Z</time>
      </trkpt>
      <trkpt lat="46.15601" lon="-1.15413">
        <ele>3.5</ele>
        <time>2016-09-02T09:30:33Z</time>
      </trkpt>
      <trkpt lat="46.15601" lon="-1.15414">
        <ele>4.46</ele>
        <time>2016-09-02T09:30:44Z</time>
      </trkpt>
      <trkpt lat="46.156" lon="-1.15416">
        <ele>4.46</ele>
        <time>2016-09-02T09:30:49Z</time>
      </trkpt>
      <trkpt lat="46.15598" lon="-1.15417">
        <ele>4.46</ele>
        <time>2016-09-02T09:30:50Z</time>
      </trkpt>
      <trkpt lat="46.15597" lon="-1.15418">
        <ele>4.94</ele>
        <time>2016-09-02T09:30:51Z</time>
      </trkpt>
      <trkpt lat="46.15595" lon="-1.15418">
        <ele>4.46</ele>
        <time>2016-09-02T09:30:52Z</time>
      </trkpt>
      <trkpt lat="46.15593" lon="-1.15419">
        <ele>4.46</ele>
        <time>2016-09-02T09:30:53Z</time>
      </trkpt>
      <trkpt lat="46.15591" lon="-1.15419">
        <ele>3.98</ele>
        <time>2016-09-02T09:30:54Z</time>
      </trkpt>
      <trkpt lat="46.1559" lon="-1.15419">
        <ele>3.98</ele>
        <time>2016-09-02T09:30:55Z</time>
      </trkpt>
      <trkpt lat="46.15584" lon="-1.15419">
        <ele>3.98</ele>
        <time>2016-09-02T09:31:02Z</time>
      </trkpt>
      <trkpt lat="46.15583" lon="-1.15421">
        <ele>3.98</ele>
        <time>2016-09-02T09:31:12Z</time>
      </trkpt>
      <trkpt lat="46.15578" lon="-1.1542">
        <ele>3.5</ele>
        <time>2016-09-02T09:31:17Z</time>
      </trkpt>
      <trkpt lat="46.15568" lon="-1.15424">
        <ele>3.5</ele>
        <time>2016-09-02T09:31:27Z</time>
      </trkpt>
      <trkpt lat="46.15566" lon="-1.15425">
        <ele>3.5</ele>
        <time>2016-09-02T09:31:29Z</time>
      </trkpt>
      <trkpt lat="46.15565" lon="-1.15425">
        <ele>3.5</ele>
        <time>2016-09-02T09:31:30Z</time>
      </trkpt>
      <trkpt lat="46.15563" lon="-1.15426">
        <ele>3.02</ele>
        <time>2016-09-02T09:31:31Z</time>
      </trkpt>
      <trkpt lat="46.15558" lon="-1.15423">
        <ele>3.02</ele>
        <time>2016-09-02T09:31:38Z</time>
      </trkpt>
      <trkpt lat="46.15555" lon="-1.15423">
        <ele>2.06</ele>
        <time>2016-09-02T09:31:49Z</time>
      </trkpt>
      <trkpt lat="46.15553" lon="-1.15425">
        <ele>2.54</ele>
        <time>2016-09-02T09:32:07Z</time>
      </trkpt>
      <trkpt lat="46.15552" lon="-1.15428">
        <ele>3.02</ele>
        <time>2016-09-02T09:32:09Z</time>
      </trkpt>
      <trkpt lat="46.1555" lon="-1.15438">
        <ele>3.5</ele>
        <time>2016-09-02T09:32:15Z</time>
      </trkpt>
      <trkpt lat="46.15549" lon="-1.15439">
        <ele>3.98</ele>
        <time>2016-09-02T09:32:16Z</time>
      </trkpt>
      <trkpt lat="46.15542" lon="-1.15445">
        <ele>3.98</ele>
        <time>2016-09-02T09:32:26Z</time>
      </trkpt>
      <trkpt lat="46.15539" lon="-1.15446">
        <ele>3.98</ele>
        <time>2016-09-02T09:32:30Z</time>
      </trkpt>
      <trkpt lat="46.15535" lon="-1.15448">
        <ele>3.5</ele>
        <time>2016-09-02T09:32:40Z</time>
      </trkpt>
      <trkpt lat="46.15535" lon="-1.15449">
        <ele>3.5</ele>
        <time>2016-09-02T09:32:57Z</time>
      </trkpt>
      <trkpt lat="46.15534" lon="-1.15448">
        <ele>3.5</ele>
        <time>2016-09-02T09:33:07Z</time>
      </trkpt>
      <trkpt lat="46.15535" lon="-1.15449">
        <ele>3.02</ele>
        <time>2016-09-02T09:33:29Z</time>
      </trkpt>
      <trkpt lat="46.15534" lon="-1.15449">
        <ele>3.02</ele>
        <time>2016-09-02T09:33:44Z</time>
      </trkpt>
      <trkpt lat="46.15534" lon="-1.15449">
        <ele>3.5</ele>
        <time>2016-09-02T09:33:57Z</time>
      </trkpt>
      <trkpt lat="46.15534" lon="-1.15448">
        <ele>3.02</ele>
        <time>2016-09-02T09:34:18Z</time>
      </trkpt>
      <trkpt lat="46.15534" lon="-1.15449">
        <ele>3.5</ele>
        <time>2016-09-02T09:34:35Z</time>
      </trkpt>
      <trkpt lat="46.15539" lon="-1.15453">
        <ele>3.5</ele>
        <time>2016-09-02T09:34:45Z</time>
      </trkpt>
      <trkpt lat="46.15543" lon="-1.15453">
        <ele>3.5</ele>
        <time>2016-09-02T09:34:54Z</time>
      </trkpt>
      <trkpt lat="46.15547" lon="-1.15454">
        <ele>3.98</ele>
        <time>2016-09-02T09:35:01Z</time>
      </trkpt>
      <trkpt lat="46.15547" lon="-1.15456">
        <ele>4.46</ele>
        <time>2016-09-02T09:35:11Z</time>
      </trkpt>
      <trkpt lat="46.15548" lon="-1.15455">
        <ele>3.5</ele>
        <time>2016-09-02T09:35:28Z</time>
      </trkpt>
      <trkpt lat="46.1555" lon="-1.15451">
        <ele>3.5</ele>
        <time>2016-09-02T09:35:38Z</time>
      </trkpt>
      <trkpt lat="46.15552" lon="-1.15451">
        <ele>3.02</ele>
        <time>2016-09-02T09:36:00Z</time>
      </trkpt>
      <trkpt lat="46.15552" lon="-1.1545">
        <ele>4.46</ele>
        <time>2016-09-02T09:36:24Z</time>
      </trkpt>
      <trkpt lat="46.15553" lon="-1.15448">
        <ele>3.5</ele>
        <time>2016-09-02T09:36:29Z</time>
      </trkpt>
      <trkpt lat="46.15559" lon="-1.1544">
        <ele>3.02</ele>
        <time>2016-09-02T09:36:38Z</time>
      </trkpt>
      <trkpt lat="46.15559" lon="-1.15439">
        <ele>2.54</ele>
        <time>2016-09-02T09:36:48Z</time>
      </trkpt>
      <trkpt lat="46.15562" lon="-1.15439">
        <ele>2.54</ele>
        <time>2016-09-02T09:36:55Z</time>
      </trkpt>
      <trkpt lat="46.15562" lon="-1.15438">
        <ele>2.54</ele>
        <time>2016-09-02T09:37:07Z</time>
      </trkpt>
      <trkpt lat="46.15556" lon="-1.1544">
        <ele>3.02</ele>
        <time>2016-09-02T09:37:16Z</time>
      </trkpt>
      <trkpt lat="46.15554" lon="-1.1544">
        <ele>3.02</ele>
        <time>2016-09-02T09:37:19Z</time>
      </trkpt>
      <trkpt lat="46.15553" lon="-1.1544">
        <ele>2.54</ele>
        <time>2016-09-02T09:37:31Z</time>
      </trkpt>
      <trkpt lat="46.15554" lon="-1.15439">
        <ele>3.02</ele>
        <time>2016-09-02T09:37:45Z</time>
      </trkpt>
      <trkpt lat="46.15558" lon="-1.15437">
        <ele>2.54</ele>
        <time>2016-09-02T09:37:50Z</time>
      </trkpt>
      <trkpt lat="46.15566" lon="-1.15435">
        <ele>2.54</ele>
        <time>2016-09-02T09:38:00Z</time>
      </trkpt>
      <trkpt lat="46.15574" lon="-1.15435">
        <ele>2.54</ele>
        <time>2016-09-02T09:38:11Z</time>
      </trkpt>
      <trkpt lat="46.15575" lon="-1.15435">
        <ele>3.02</ele>
        <time>2016-09-02T09:38:25Z</time>
      </trkpt>
      <trkpt lat="46.1558" lon="-1.15434">
        <ele>3.02</ele>
        <time>2016-09-02T09:38:34Z</time>
      </trkpt>
      <trkpt lat="46.1558" lon="-1.15434">
        <ele>5.42</ele>
        <time>2016-09-02T09:38:45Z</time>
      </trkpt>
      <trkpt lat="46.1558" lon="-1.15435">
        <ele>6.87</ele>
        <time>2016-09-02T09:38:56Z</time>
      </trkpt>
      <trkpt lat="46.15581" lon="-1.15438">
        <ele>7.83</ele>
        <time>2016-09-02T09:39:09Z</time>
      </trkpt>
      <trkpt lat="46.15583" lon="-1.15442">
        <ele>7.83</ele>
        <time>2016-09-02T09:39:33Z</time>
      </trkpt>
      <trkpt lat="46.15583" lon="-1.15443">
        <ele>7.35</ele>
        <time>2016-09-02T09:39:52Z</time>
      </trkpt>
      <trkpt lat="46.15582" lon="-1.15447">
        <ele>7.83</ele>
        <time>2016-09-02T09:40:08Z</time>
      </trkpt>
      <trkpt lat="46.15582" lon="-1.1546">
        <ele>7.35</ele>
        <time>2016-09-02T09:40:18Z</time>
      </trkpt>
      <trkpt lat="46.15582" lon="-1.15467">
        <ele>7.35</ele>
        <time>2016-09-02T09:40:29Z</time>
      </trkpt>
      <trkpt lat="46.1558" lon="-1.15479">
        <ele>7.35</ele>
        <time>2016-09-02T09:40:40Z</time>
      </trkpt>
      <trkpt lat="46.1558" lon="-1.15481">
        <ele>7.35</ele>
        <time>2016-09-02T09:40:44Z</time>
      </trkpt>
      <trkpt lat="46.1558" lon="-1.15487">
        <ele>7.83</ele>
        <time>2016-09-02T09:40:48Z</time>
      </trkpt>
      <trkpt lat="46.1558" lon="-1.15489">
        <ele>7.35</ele>
        <time>2016-09-02T09:40:49Z</time>
      </trkpt>
      <trkpt lat="46.1558" lon="-1.15492">
        <ele>7.83</ele>
        <time>2016-09-02T09:40:51Z</time>
      </trkpt>
      <trkpt lat="46.1558" lon="-1.15495">
        <ele>7.35</ele>
        <time>2016-09-02T09:40:53Z</time>
      </trkpt>
      <trkpt lat="46.1558" lon="-1.15497">
        <ele>7.35</ele>
        <time>2016-09-02T09:40:54Z</time>
      </trkpt>
      <trkpt lat="46.15577" lon="-1.15508">
        <ele>7.35</ele>
        <time>2016-09-02T09:41:04Z</time>
      </trkpt>
      <trkpt lat="46.15578" lon="-1.15509">
        <ele>7.35</ele>
        <time>2016-09-02T09:41:07Z</time>
      </trkpt>
      <trkpt lat="46.15578" lon="-1.15508">
        <ele>7.83</ele>
        <time>2016-09-02T09:41:08Z</time>
      </trkpt>
      <trkpt lat="46.15578" lon="-1.15505">
        <ele>7.35</ele>
        <time>2016-09-02T09:41:18Z</time>
      </trkpt>
      <trkpt lat="46.15577" lon="-1.1551">
        <ele>7.83</ele>
        <time>2016-09-02T09:41:27Z</time>
      </trkpt>
      <trkpt lat="46.15576" lon="-1.15512">
        <ele>7.83</ele>
        <time>2016-09-02T09:41:29Z</time>
      </trkpt>
      <trkpt lat="46.15578" lon="-1.15523">
        <ele>7.35</ele>
        <time>2016-09-02T09:41:39Z</time>
      </trkpt>
      <trkpt lat="46.15578" lon="-1.15524">
        <ele>7.83</ele>
        <time>2016-09-02T09:41:41Z</time>
      </trkpt>
      <trkpt lat="46.15579" lon="-1.15532">
        <ele>7.35</ele>
        <time>2016-09-02T09:41:52Z</time>
      </trkpt>
      <trkpt lat="46.1558" lon="-1.15535">
        <ele>7.83</ele>
        <time>2016-09-02T09:42:04Z</time>
      </trkpt>
      <trkpt lat="46.1558" lon="-1.15543">
        <ele>7.83</ele>
        <time>2016-09-02T09:42:15Z</time>
      </trkpt>
      <trkpt lat="46.1558" lon="-1.15546">
        <ele>7.83</ele>
        <time>2016-09-02T09:42:19Z</time>
      </trkpt>
      <trkpt lat="46.15579" lon="-1.15551">
        <ele>7.83</ele>
        <time>2016-09-02T09:42:31Z</time>
      </trkpt>
      <trkpt lat="46.15577" lon="-1.15549">
        <ele>7.83</ele>
        <time>2016-09-02T09:42:52Z</time>
      </trkpt>
      <trkpt lat="46.15576" lon="-1.15555">
        <ele>8.31</ele>
        <time>2016-09-02T09:43:08Z</time>
      </trkpt>
      <trkpt lat="46.15577" lon="-1.15559">
        <ele>7.83</ele>
        <time>2016-09-02T09:43:11Z</time>
      </trkpt>
      <trkpt lat="46.15577" lon="-1.15565">
        <ele>7.83</ele>
        <time>2016-09-02T09:43:14Z</time>
      </trkpt>
      <trkpt lat="46.1558" lon="-1.15578">
        <ele>7.83</ele>
        <time>2016-09-02T09:43:22Z</time>
      </trkpt>
      <trkpt lat="46.15582" lon="-1.15578">
        <ele>7.83</ele>
        <time>2016-09-02T09:43:32Z</time>
      </trkpt>
      <trkpt lat="46.15581" lon="-1.1559">
        <ele>8.31</ele>
        <time>2016-09-02T09:43:47Z</time>
      </trkpt>
      <trkpt lat="46.15581" lon="-1.15598">
        <ele>7.83</ele>
        <time>2016-09-02T09:43:57Z</time>
      </trkpt>
      <trkpt lat="46.15582" lon="-1.15599">
        <ele>7.83</ele>
        <time>2016-09-02T09:44:13Z</time>
      </trkpt>
      <trkpt lat="46.15582" lon="-1.156">
        <ele>7.83</ele>
        <time>2016-09-02T09:44:29Z</time>
      </trkpt>
      <trkpt lat="46.15582" lon="-1.15601">
        <ele>7.83</ele>
        <time>2016-09-02T09:44:30Z</time>
      </trkpt>
      <trkpt lat="46.15582" lon="-1.15603">
        <ele>7.83</ele>
        <time>2016-09-02T09:44:31Z</time>
      </trkpt>
      <trkpt lat="46.15582" lon="-1.15605">
        <ele>8.31</ele>
        <time>2016-09-02T09:44:32Z</time>
      </trkpt>
      <trkpt lat="46.15582" lon="-1.15607">
        <ele>8.79</ele>
        <time>2016-09-02T09:44:33Z</time>
      </trkpt>
      <trkpt lat="46.15583" lon="-1.15609">
        <ele>7.35</ele>
        <time>2016-09-02T09:44:34Z</time>
      </trkpt>
      <trkpt lat="46.15583" lon="-1.15612">
        <ele>7.83</ele>
        <time>2016-09-02T09:44:35Z</time>
      </trkpt>
      <trkpt lat="46.15583" lon="-1.15614">
        <ele>7.35</ele>
        <time>2016-09-02T09:44:36Z</time>
      </trkpt>
      <trkpt lat="46.15584" lon="-1.15615">
        <ele>7.35</ele>
        <time>2016-09-02T09:44:37Z</time>
      </trkpt>
      <trkpt lat="46.15584" lon="-1.15617">
        <ele>7.83</ele>
        <time>2016-09-02T09:44:38Z</time>
      </trkpt>
      <trkpt lat="46.15585" lon="-1.15619">
        <ele>7.35</ele>
        <time>2016-09-02T09:44:39Z</time>
      </trkpt>
      <trkpt lat="46.15585" lon="-1.1562">
        <ele>7.35</ele>
        <time>2016-09-02T09:44:40Z</time>
      </trkpt>
      <trkpt lat="46.15585" lon="-1.15621">
        <ele>7.83</ele>
        <time>2016-09-02T09:44:41Z</time>
      </trkpt>
      <trkpt lat="46.15585" lon="-1.15623">
        <ele>7.35</ele>
        <time>2016-09-02T09:44:42Z</time>
      </trkpt>
      <trkpt lat="46.15586" lon="-1.15628">
        <ele>7.35</ele>
        <time>2016-09-02T09:44:51Z</time>
      </trkpt>
      <trkpt lat="46.15586" lon="-1.15631">
        <ele>7.35</ele>
        <time>2016-09-02T09:45:11Z</time>
      </trkpt>
      <trkpt lat="46.15587" lon="-1.15633">
        <ele>7.35</ele>
        <time>2016-09-02T09:45:12Z</time>
      </trkpt>
      <trkpt lat="46.15587" lon="-1.15634">
        <ele>7.35</ele>
        <time>2016-09-02T09:45:13Z</time>
      </trkpt>
      <trkpt lat="46.15587" lon="-1.15636">
        <ele>7.83</ele>
        <time>2016-09-02T09:45:14Z</time>
      </trkpt>
      <trkpt lat="46.15587" lon="-1.15638">
        <ele>7.35</ele>
        <time>2016-09-02T09:45:15Z</time>
      </trkpt>
      <trkpt lat="46.15586" lon="-1.15647">
        <ele>7.35</ele>
        <time>2016-09-02T09:45:21Z</time>
      </trkpt>
      <trkpt lat="46.15585" lon="-1.1565">
        <ele>7.35</ele>
        <time>2016-09-02T09:45:23Z</time>
      </trkpt>
      <trkpt lat="46.15586" lon="-1.15652">
        <ele>7.83</ele>
        <time>2016-09-02T09:45:24Z</time>
      </trkpt>
      <trkpt lat="46.15587" lon="-1.15662">
        <ele>6.87</ele>
        <time>2016-09-02T09:45:33Z</time>
      </trkpt>
      <trkpt lat="46.15586" lon="-1.15664">
        <ele>7.35</ele>
        <time>2016-09-02T09:45:40Z</time>
      </trkpt>
      <trkpt lat="46.15585" lon="-1.15669">
        <ele>8.31</ele>
        <time>2016-09-02T09:45:48Z</time>
      </trkpt>
      <trkpt lat="46.15584" lon="-1.15668">
        <ele>8.79</ele>
        <time>2016-09-02T09:46:08Z</time>
      </trkpt>
      <trkpt lat="46.15584" lon="-1.15667">
        <ele>7.83</ele>
        <time>2016-09-02T09:46:27Z</time>
      </trkpt>
      <trkpt lat="46.15584" lon="-1.15673">
        <ele>8.31</ele>
        <time>2016-09-02T09:46:38Z</time>
      </trkpt>
      <trkpt lat="46.15583" lon="-1.15681">
        <ele>8.31</ele>
        <time>2016-09-02T09:46:53Z</time>
      </trkpt>
      <trkpt lat="46.15583" lon="-1.15684">
        <ele>7.83</ele>
        <time>2016-09-02T09:46:56Z</time>
      </trkpt>
      <trkpt lat="46.15585" lon="-1.15697">
        <ele>8.31</ele>
        <time>2016-09-02T09:47:06Z</time>
      </trkpt>
      <trkpt lat="46.15585" lon="-1.15697">
        <ele>7.83</ele>
        <time>2016-09-02T09:47:19Z</time>
      </trkpt>
      <trkpt lat="46.15586" lon="-1.15697">
        <ele>7.83</ele>
        <time>2016-09-02T09:47:39Z</time>
      </trkpt>
      <trkpt lat="46.15586" lon="-1.15697">
        <ele>7.83</ele>
        <time>2016-09-02T09:47:54Z</time>
      </trkpt>
      <trkpt lat="46.15584" lon="-1.15698">
        <ele>7.83</ele>
        <time>2016-09-02T09:48:08Z</time>
      </trkpt>
      <trkpt lat="46.15584" lon="-1.15699">
        <ele>8.31</ele>
        <time>2016-09-02T09:48:21Z</time>
      </trkpt>
      <trkpt lat="46.15584" lon="-1.15699">
        <ele>8.31</ele>
        <time>2016-09-02T09:48:36Z</time>
      </trkpt>
      <trkpt lat="46.15583" lon="-1.15698">
        <ele>7.83</ele>
        <time>2016-09-02T09:48:46Z</time>
      </trkpt>
      <trkpt lat="46.15586" lon="-1.15696">
        <ele>5.91</ele>
        <time>2016-09-02T09:48:55Z</time>
      </trkpt>
      <trkpt lat="46.15591" lon="-1.15697">
        <ele>4.94</ele>
        <time>2016-09-02T09:49:05Z</time>
      </trkpt>
      <trkpt lat="46.15594" lon="-1.15699">
        <ele>4.94</ele>
        <time>2016-09-02T09:49:13Z</time>
      </trkpt>
      <trkpt lat="46.15591" lon="-1.15706">
        <ele>3.98</ele>
        <time>2016-09-02T09:49:21Z</time>
      </trkpt>
      <trkpt lat="46.1559" lon="-1.15711">
        <ele>3.5</ele>
        <time>2016-09-02T09:49:34Z</time>
      </trkpt>
      <trkpt lat="46.15591" lon="-1.15712">
        <ele>4.46</ele>
        <time>2016-09-02T09:49:53Z</time>
      </trkpt>
      <trkpt lat="46.15591" lon="-1.15712">
        <ele>3.98</ele>
        <time>2016-09-02T09:50:07Z</time>
      </trkpt>
      <trkpt lat="46.15592" lon="-1.15713">
        <ele>3.98</ele>
        <time>2016-09-02T09:50:29Z</time>
      </trkpt>
      <trkpt lat="46.15593" lon="-1.15719">
        <ele>3.5</ele>
        <time>2016-09-02T09:50:35Z</time>
      </trkpt>
      <trkpt lat="46.15602" lon="-1.15724">
        <ele>3.02</ele>
        <time>2016-09-02T09:50:44Z</time>
      </trkpt>
      <trkpt lat="46.15611" lon="-1.1573">
        <ele>3.02</ele>
        <time>2016-09-02T09:50:54Z</time>
      </trkpt>
      <trkpt lat="46.15615" lon="-1.15731">
        <ele>3.02</ele>
        <time>2016-09-02T09:50:57Z</time>
      </trkpt>
      <trkpt lat="46.15626" lon="-1.15727">
        <ele>3.5</ele>
        <time>2016-09-02T09:51:05Z</time>
      </trkpt>
      <trkpt lat="46.15629" lon="-1.15722">
        <ele>3.02</ele>
        <time>2016-09-02T09:51:12Z</time>
      </trkpt>
      <trkpt lat="46.15627" lon="-1.15713">
        <ele>3.5</ele>
        <time>2016-09-02T09:51:23Z</time>
      </trkpt>
      <trkpt lat="46.15627" lon="-1.15705">
        <ele>3.02</ele>
        <time>2016-09-02T09:51:34Z</time>
      </trkpt>
      <trkpt lat="46.15628" lon="-1.15689">
        <ele>3.5</ele>
        <time>2016-09-02T09:51:45Z</time>
      </trkpt>
      <trkpt lat="46.15628" lon="-1.1568">
        <ele>3.98</ele>
        <time>2016-09-02T09:51:52Z</time>
      </trkpt>
      <trkpt lat="46.15627" lon="-1.15669">
        <ele>4.46</ele>
        <time>2016-09-02T09:52:01Z</time>
      </trkpt>
      <trkpt lat="46.15622" lon="-1.15658">
        <ele>4.46</ele>
        <time>2016-09-02T09:52:11Z</time>
      </trkpt>
      <trkpt lat="46.15619" lon="-1.15651">
        <ele>3.98</ele>
        <time>2016-09-02T09:52:22Z</time>
      </trkpt>
      <trkpt lat="46.15617" lon="-1.15646">
        <ele>4.94</ele>
        <time>2016-09-02T09:52:31Z</time>
      </trkpt>
      <trkpt lat="46.15616" lon="-1.15638">
        <ele>4.94</ele>
        <time>2016-09-02T09:52:43Z</time>
      </trkpt>
      <trkpt lat="46.15614" lon="-1.15633">
        <ele>5.42</ele>
        <time>2016-09-02T09:52:54Z</time>
      </trkpt>
      <trkpt lat="46.15615" lon="-1.1563">
        <ele>5.91</ele>
        <time>2016-09-02T09:53:09Z</time>
      </trkpt>
      <trkpt lat="46.15615" lon="-1.15619">
        <ele>6.39</ele>
        <time>2016-09-02T09:53:19Z</time>
      </trkpt>
      <trkpt lat="46.15616" lon="-1.1561">
        <ele>6.39</ele>
        <time>2016-09-02T09:53:22Z</time>
      </trkpt>
      <trkpt lat="46.15618" lon="-1.15594">
        <ele>6.39</ele>
        <time>2016-09-02T09:53:31Z</time>
      </trkpt>
      <trkpt lat="46.1562" lon="-1.15584">
        <ele>6.39</ele>
        <time>2016-09-02T09:53:39Z</time>
      </trkpt>
      <trkpt lat="46.15621" lon="-1.15583">
        <ele>6.39</ele>
        <time>2016-09-02T09:53:46Z</time>
      </trkpt>
      <trkpt lat="46.15621" lon="-1.15581">
        <ele>6.87</ele>
        <time>2016-09-02T09:53:47Z</time>
      </trkpt>
      <trkpt lat="46.15623" lon="-1.15576">
        <ele>6.87</ele>
        <time>2016-09-02T09:53:51Z</time>
      </trkpt>
      <trkpt lat="46.15624" lon="-1.15559">
        <ele>6.87</ele>
        <time>2016-09-02T09:54:00Z</time>
      </trkpt>
      <trkpt lat="46.15628" lon="-1.15554">
        <ele>7.35</ele>
        <time>2016-09-02T09:54:07Z</time>
      </trkpt>
      <trkpt lat="46.15638" lon="-1.15552">
        <ele>6.87</ele>
        <time>2016-09-02T09:54:16Z</time>
      </trkpt>
      <trkpt lat="46.15641" lon="-1.15552">
        <ele>7.35</ele>
        <time>2016-09-02T09:54:30Z</time>
      </trkpt>
      <trkpt lat="46.15646" lon="-1.15553">
        <ele>7.83</ele>
        <time>2016-09-02T09:54:43Z</time>
      </trkpt>
      <trkpt lat="46.15655" lon="-1.15558">
        <ele>8.31</ele>
        <time>2016-09-02T09:54:52Z</time>
      </trkpt>
      <trkpt lat="46.1566" lon="-1.15562">
        <ele>8.31</ele>
        <time>2016-09-02T09:55:05Z</time>
      </trkpt>
      <trkpt lat="46.15661" lon="-1.1556">
        <ele>8.31</ele>
        <time>2016-09-02T09:55:17Z</time>
      </trkpt>
      <trkpt lat="46.1566" lon="-1.15561">
        <ele>8.31</ele>
        <time>2016-09-02T09:55:32Z</time>
      </trkpt>
      <trkpt lat="46.1566" lon="-1.15562">
        <ele>8.31</ele>
        <time>2016-09-02T09:55:43Z</time>
      </trkpt>
      <trkpt lat="46.15667" lon="-1.15573">
        <ele>8.31</ele>
        <time>2016-09-02T09:55:56Z</time>
      </trkpt>
      <trkpt lat="46.15667" lon="-1.15576">
        <ele>8.31</ele>
        <time>2016-09-02T09:55:58Z</time>
      </trkpt>
      <trkpt lat="46.15666" lon="-1.15585">
        <ele>8.31</ele>
        <time>2016-09-02T09:56:03Z</time>
      </trkpt>
      <trkpt lat="46.15678" lon="-1.15604">
        <ele>8.31</ele>
        <time>2016-09-02T09:56:06Z</time>
      </trkpt>
      <trkpt lat="46.15683" lon="-1.15605">
        <ele>8.31</ele>
        <time>2016-09-02T09:56:08Z</time>
      </trkpt>
      <trkpt lat="46.15688" lon="-1.15601">
        <ele>8.31</ele>
        <time>2016-09-02T09:56:13Z</time>
      </trkpt>
      <trkpt lat="46.15688" lon="-1.15599">
        <ele>8.79</ele>
        <time>2016-09-02T09:56:14Z</time>
      </trkpt>
      <trkpt lat="46.15692" lon="-1.1559">
        <ele>9.27</ele>
        <time>2016-09-02T09:56:23Z</time>
      </trkpt>
      <trkpt lat="46.15692" lon="-1.15589">
        <ele>8.79</ele>
        <time>2016-09-02T09:56:25Z</time>
      </trkpt>
      <trkpt lat="46.15692" lon="-1.1558">
        <ele>9.27</ele>
        <time>2016-09-02T09:56:33Z</time>
      </trkpt>
      <trkpt lat="46.15691" lon="-1.15574">
        <ele>9.27</ele>
        <time>2016-09-02T09:56:38Z</time>
      </trkpt>
      <trkpt lat="46.15699" lon="-1.15565">
        <ele>8.79</ele>
        <time>2016-09-02T09:56:48Z</time>
      </trkpt>
      <trkpt lat="46.15704" lon="-1.15563">
        <ele>9.75</ele>
        <time>2016-09-02T09:56:58Z</time>
      </trkpt>
      <trkpt lat="46.15714" lon="-1.15551">
        <ele>9.27</ele>
        <time>2016-09-02T09:57:09Z</time>
      </trkpt>
      <trkpt lat="46.15721" lon="-1.15534">
        <ele>8.79</ele>
        <time>2016-09-02T09:57:19Z</time>
      </trkpt>
      <trkpt lat="46.15733" lon="-1.15532">
        <ele>9.27</ele>
        <time>2016-09-02T09:57:31Z</time>
      </trkpt>
      <trkpt lat="46.15739" lon="-1.15532">
        <ele>9.75</ele>
        <time>2016-09-02T09:57:41Z</time>
      </trkpt>
      <trkpt lat="46.15743" lon="-1.15529">
        <ele>9.27</ele>
        <time>2016-09-02T09:57:47Z</time>
      </trkpt>
      <trkpt lat="46.15749" lon="-1.15511">
        <ele>9.27</ele>
        <time>2016-09-02T09:57:57Z</time>
      </trkpt>
      <trkpt lat="46.15757" lon="-1.1551">
        <ele>9.75</ele>
        <time>2016-09-02T09:58:06Z</time>
      </trkpt>
      <trkpt lat="46.1576" lon="-1.15502">
        <ele>9.75</ele>
        <time>2016-09-02T09:58:26Z</time>
      </trkpt>
      <trkpt lat="46.15773" lon="-1.15485">
        <ele>10.23</ele>
        <time>2016-09-02T09:58:44Z</time>
      </trkpt>
      <trkpt lat="46.15777" lon="-1.15484">
        <ele>10.23</ele>
        <time>2016-09-02T09:59:01Z</time>
      </trkpt>
      <trkpt lat="46.15776" lon="-1.15485">
        <ele>10.23</ele>
        <time>2016-09-02T09:59:10Z</time>
      </trkpt>
      <trkpt lat="46.15778" lon="-1.15481">
        <ele>10.23</ele>
        <time>2016-09-02T09:59:20Z</time>
      </trkpt>
      <trkpt lat="46.15782" lon="-1.15477">
        <ele>9.75</ele>
        <time>2016-09-02T09:59:30Z</time>
      </trkpt>
      <trkpt lat="46.15781" lon="-1.1547">
        <ele>10.71</ele>
        <time>2016-09-02T09:59:39Z</time>
      </trkpt>
      <trkpt lat="46.15782" lon="-1.15466">
        <ele>10.23</ele>
        <time>2016-09-02T09:59:43Z</time>
      </trkpt>
      <trkpt lat="46.15784" lon="-1.15455">
        <ele>10.23</ele>
        <time>2016-09-02T09:59:52Z</time>
      </trkpt>
      <trkpt lat="46.15786" lon="-1.15445">
        <ele>10.71</ele>
        <time>2016-09-02T10:00:01Z</time>
      </trkpt>
      <trkpt lat="46.15786" lon="-1.15443">
        <ele>10.23</ele>
        <time>2016-09-02T10:00:02Z</time>
      </trkpt>
      <trkpt lat="46.1579" lon="-1.1543">
        <ele>10.23</ele>
        <time>2016-09-02T10:00:12Z</time>
      </trkpt>
      <trkpt lat="46.15792" lon="-1.15424">
        <ele>10.71</ele>
        <time>2016-09-02T10:00:17Z</time>
      </trkpt>
      <trkpt lat="46.15795" lon="-1.15408">
        <ele>11.19</ele>
        <time>2016-09-02T10:00:29Z</time>
      </trkpt>
      <trkpt lat="46.15794" lon="-1.15407">
        <ele>11.19</ele>
        <time>2016-09-02T10:00:37Z</time>
      </trkpt>
      <trkpt lat="46.15795" lon="-1.15403">
        <ele>11.67</ele>
        <time>2016-09-02T10:00:50Z</time>
      </trkpt>
      <trkpt lat="46.15794" lon="-1.154">
        <ele>11.67</ele>
        <time>2016-09-02T10:01:02Z</time>
      </trkpt>
      <trkpt lat="46.15795" lon="-1.15387">
        <ele>11.67</ele>
        <time>2016-09-02T10:01:16Z</time>
      </trkpt>
      <trkpt lat="46.15798" lon="-1.15368">
        <ele>11.67</ele>
        <time>2016-09-02T10:01:29Z</time>
      </trkpt>
      <trkpt lat="46.15802" lon="-1.15359">
        <ele>11.67</ele>
        <time>2016-09-02T10:01:45Z</time>
      </trkpt>
      <trkpt lat="46.15802" lon="-1.1536">
        <ele>11.67</ele>
        <time>2016-09-02T10:01:50Z</time>
      </trkpt>
      <trkpt lat="46.15805" lon="-1.15361">
        <ele>11.67</ele>
        <time>2016-09-02T10:02:02Z</time>
      </trkpt>
      <trkpt lat="46.15809" lon="-1.15363">
        <ele>12.15</ele>
        <time>2016-09-02T10:02:18Z</time>
      </trkpt>
      <trkpt lat="46.15809" lon="-1.15363">
        <ele>11.67</ele>
        <time>2016-09-02T10:02:31Z</time>
      </trkpt>
      <trkpt lat="46.15808" lon="-1.15362">
        <ele>12.15</ele>
        <time>2016-09-02T10:02:41Z</time>
      </trkpt>
      <trkpt lat="46.15813" lon="-1.15362">
        <ele>11.67</ele>
        <time>2016-09-02T10:02:50Z</time>
      </trkpt>
      <trkpt lat="46.15814" lon="-1.15363">
        <ele>11.67</ele>
        <time>2016-09-02T10:02:58Z</time>
      </trkpt>
      <trkpt lat="46.1582" lon="-1.1537">
        <ele>11.67</ele>
        <time>2016-09-02T10:03:10Z</time>
      </trkpt>
      <trkpt lat="46.15821" lon="-1.15374">
        <ele>12.15</ele>
        <time>2016-09-02T10:03:22Z</time>
      </trkpt>
      <trkpt lat="46.15821" lon="-1.15384">
        <ele>11.67</ele>
        <time>2016-09-02T10:03:24Z</time>
      </trkpt>
      <trkpt lat="46.15824" lon="-1.15388">
        <ele>12.15</ele>
        <time>2016-09-02T10:03:26Z</time>
      </trkpt>
      <trkpt lat="46.1583" lon="-1.15388">
        <ele>11.67</ele>
        <time>2016-09-02T10:03:29Z</time>
      </trkpt>
      <trkpt lat="46.15836" lon="-1.15385">
        <ele>12.15</ele>
        <time>2016-09-02T10:03:32Z</time>
      </trkpt>
      <trkpt lat="46.15849" lon="-1.15383">
        <ele>12.63</ele>
        <time>2016-09-02T10:03:40Z</time>
      </trkpt>
      <trkpt lat="46.15853" lon="-1.15387">
        <ele>12.15</ele>
        <time>2016-09-02T10:03:51Z</time>
      </trkpt>
      <trkpt lat="46.15856" lon="-1.15388">
        <ele>13.12</ele>
        <time>2016-09-02T10:03:58Z</time>
      </trkpt>
      <trkpt lat="46.15864" lon="-1.1539">
        <ele>12.63</ele>
        <time>2016-09-02T10:04:09Z</time>
      </trkpt>
      <trkpt lat="46.15873" lon="-1.15394">
        <ele>13.12</ele>
        <time>2016-09-02T10:04:19Z</time>
      </trkpt>
      <trkpt lat="46.1588" lon="-1.15398">
        <ele>13.6</ele>
        <time>2016-09-02T10:04:33Z</time>
      </trkpt>
      <trkpt lat="46.15886" lon="-1.15399">
        <ele>13.12</ele>
        <time>2016-09-02T10:04:45Z</time>
      </trkpt>
      <trkpt lat="46.15901" lon="-1.15399">
        <ele>14.08</ele>
        <time>2016-09-02T10:04:59Z</time>
      </trkpt>
      <trkpt lat="46.15915" lon="-1.15412">
        <ele>14.56</ele>
        <time>2016-09-02T10:05:17Z</time>
      </trkpt>
      <trkpt lat="46.15937" lon="-1.15406">
        <ele>15.52</ele>
        <time>2016-09-02T10:05:33Z</time>
      </trkpt>
      <trkpt lat="46.15945" lon="-1.15389">
        <ele>16</ele>
        <time>2016-09-02T10:05:48Z</time>
      </trkpt>
      <trkpt lat="46.15947" lon="-1.15367">
        <ele>16</ele>
        <time>2016-09-02T10:06:03Z</time>
      </trkpt>
      <trkpt lat="46.15959" lon="-1.15363">
        <ele>16.48</ele>
        <time>2016-09-02T10:06:18Z</time>
      </trkpt>
      <trkpt lat="46.15968" lon="-1.15369">
        <ele>16.96</ele>
        <time>2016-09-02T10:06:32Z</time>
      </trkpt>
      <trkpt lat="46.15974" lon="-1.15367">
        <ele>17.92</ele>
        <time>2016-09-02T10:06:46Z</time>
      </trkpt>
      <trkpt lat="46.15982" lon="-1.1536">
        <ele>17.92</ele>
        <time>2016-09-02T10:07:00Z</time>
      </trkpt>
      <trkpt lat="46.1599" lon="-1.15357">
        <ele>17.92</ele>
        <time>2016-09-02T10:07:16Z</time>
      </trkpt>
      <trkpt lat="46.16008" lon="-1.15352">
        <ele>17.92</ele>
        <time>2016-09-02T10:07:27Z</time>
      </trkpt>
      <trkpt lat="46.16009" lon="-1.15349">
        <ele>18.4</ele>
        <time>2016-09-02T10:07:41Z</time>
      </trkpt>
      <trkpt lat="46.16016" lon="-1.15348">
        <ele>17.92</ele>
        <time>2016-09-02T10:07:54Z</time>
      </trkpt>
      <trkpt lat="46.1602" lon="-1.15344">
        <ele>18.4</ele>
        <time>2016-09-02T10:08:02Z</time>
      </trkpt>
      <trkpt lat="46.16026" lon="-1.15346">
        <ele>17.92</ele>
        <time>2016-09-02T10:08:11Z</time>
      </trkpt>
      <trkpt lat="46.16033" lon="-1.1535">
        <ele>18.88</ele>
        <time>2016-09-02T10:08:21Z</time>
      </trkpt>
      <trkpt lat="46.16034" lon="-1.1535">
        <ele>18.88</ele>
        <time>2016-09-02T10:08:23Z</time>
      </trkpt>
      <trkpt lat="46.16041" lon="-1.1535">
        <ele>18.88</ele>
        <time>2016-09-02T10:08:29Z</time>
      </trkpt>
      <trkpt lat="46.16052" lon="-1.15348">
        <ele>18.88</ele>
        <time>2016-09-02T10:08:40Z</time>
      </trkpt>
      <trkpt lat="46.16057" lon="-1.15345">
        <ele>19.36</ele>
        <time>2016-09-02T10:08:51Z</time>
      </trkpt>
      <trkpt lat="46.16058" lon="-1.15337">
        <ele>19.36</ele>
        <time>2016-09-02T10:09:06Z</time>
      </trkpt>
      <trkpt lat="46.16059" lon="-1.15334">
        <ele>19.36</ele>
        <time>2016-09-02T10:09:12Z</time>
      </trkpt>
      <trkpt lat="46.1607" lon="-1.15331">
        <ele>18.88</ele>
        <time>2016-09-02T10:09:22Z</time>
      </trkpt>
      <trkpt lat="46.16082" lon="-1.1533">
        <ele>19.36</ele>
        <time>2016-09-02T10:09:33Z</time>
      </trkpt>
      <trkpt lat="46.16091" lon="-1.15328">
        <ele>19.36</ele>
        <time>2016-09-02T10:09:42Z</time>
      </trkpt>
      <trkpt lat="46.16096" lon="-1.15328">
        <ele>19.36</ele>
        <time>2016-09-02T10:09:46Z</time>
      </trkpt>
      <trkpt lat="46.16107" lon="-1.15323">
        <ele>19.84</ele>
        <time>2016-09-02T10:09:56Z</time>
      </trkpt>
      <trkpt lat="46.16114" lon="-1.15315">
        <ele>19.84</ele>
        <time>2016-09-02T10:10:10Z</time>
      </trkpt>
      <trkpt lat="46.16125" lon="-1.15305">
        <ele>19.84</ele>
        <time>2016-09-02T10:10:20Z</time>
      </trkpt>
      <trkpt lat="46.16142" lon="-1.15302">
        <ele>20.32</ele>
        <time>2016-09-02T10:10:33Z</time>
      </trkpt>
      <trkpt lat="46.16154" lon="-1.15298">
        <ele>20.81</ele>
        <time>2016-09-02T10:10:44Z</time>
      </trkpt>
      <trkpt lat="46.16158" lon="-1.15299">
        <ele>20.81</ele>
        <time>2016-09-02T10:10:49Z</time>
      </trkpt>
      <trkpt lat="46.16166" lon="-1.15299">
        <ele>20.32</ele>
        <time>2016-09-02T10:11:00Z</time>
      </trkpt>
      <trkpt lat="46.16171" lon="-1.15295">
        <ele>20.32</ele>
        <time>2016-09-02T10:11:09Z</time>
      </trkpt>
      <trkpt lat="46.16177" lon="-1.15292">
        <ele>20.32</ele>
        <time>2016-09-02T10:11:18Z</time>
      </trkpt>
      <trkpt lat="46.16176" lon="-1.1529">
        <ele>21.29</ele>
        <time>2016-09-02T10:11:28Z</time>
      </trkpt>
      <trkpt lat="46.16176" lon="-1.15289">
        <ele>21.29</ele>
        <time>2016-09-02T10:11:34Z</time>
      </trkpt>
      <trkpt lat="46.16172" lon="-1.15285">
        <ele>21.29</ele>
        <time>2016-09-02T10:11:44Z</time>
      </trkpt>
      <trkpt lat="46.16176" lon="-1.15289">
        <ele>21.29</ele>
        <time>2016-09-02T10:11:57Z</time>
      </trkpt>
      <trkpt lat="46.16177" lon="-1.1529">
        <ele>20.81</ele>
        <time>2016-09-02T10:12:05Z</time>
      </trkpt>
      <trkpt lat="46.16178" lon="-1.15292">
        <ele>20.81</ele>
        <time>2016-09-02T10:12:12Z</time>
      </trkpt>
      <trkpt lat="46.1618" lon="-1.15292">
        <ele>21.29</ele>
        <time>2016-09-02T10:12:26Z</time>
      </trkpt>
      <trkpt lat="46.16181" lon="-1.15292">
        <ele>21.29</ele>
        <time>2016-09-02T10:12:27Z</time>
      </trkpt>
      <trkpt lat="46.16182" lon="-1.1529">
        <ele>21.29</ele>
        <time>2016-09-02T10:12:36Z</time>
      </trkpt>
      <trkpt lat="46.16183" lon="-1.1529">
        <ele>21.77</ele>
        <time>2016-09-02T10:12:46Z</time>
      </trkpt>
      <trkpt lat="46.16185" lon="-1.15293">
        <ele>21.29</ele>
        <time>2016-09-02T10:12:56Z</time>
      </trkpt>
      <trkpt lat="46.16187" lon="-1.15291">
        <ele>21.29</ele>
        <time>2016-09-02T10:13:05Z</time>
      </trkpt>
      <trkpt lat="46.1619" lon="-1.1529">
        <ele>21.29</ele>
        <time>2016-09-02T10:13:08Z</time>
      </trkpt>
      <trkpt lat="46.16196" lon="-1.15291">
        <ele>21.29</ele>
        <time>2016-09-02T10:13:13Z</time>
      </trkpt>
      <trkpt lat="46.16207" lon="-1.15284">
        <ele>21.29</ele>
        <time>2016-09-02T10:13:25Z</time>
      </trkpt>
      <trkpt lat="46.1621" lon="-1.15282">
        <ele>21.29</ele>
        <time>2016-09-02T10:13:35Z</time>
      </trkpt>
      <trkpt lat="46.1621" lon="-1.15281">
        <ele>21.29</ele>
        <time>2016-09-02T10:13:47Z</time>
      </trkpt>
      <trkpt lat="46.1621" lon="-1.15279">
        <ele>20.81</ele>
        <time>2016-09-02T10:13:49Z</time>
      </trkpt>
      <trkpt lat="46.16205" lon="-1.15273">
        <ele>20.81</ele>
        <time>2016-09-02T10:13:59Z</time>
      </trkpt>
      <trkpt lat="46.16205" lon="-1.15272">
        <ele>21.29</ele>
        <time>2016-09-02T10:14:16Z</time>
      </trkpt>
      <trkpt lat="46.16206" lon="-1.1527">
        <ele>21.29</ele>
        <time>2016-09-02T10:14:31Z</time>
      </trkpt>
      <trkpt lat="46.16205" lon="-1.15267">
        <ele>21.29</ele>
        <time>2016-09-02T10:14:51Z</time>
      </trkpt>
      <trkpt lat="46.16205" lon="-1.15266">
        <ele>21.29</ele>
        <time>2016-09-02T10:15:05Z</time>
      </trkpt>
      <trkpt lat="46.16203" lon="-1.15266">
        <ele>21.29</ele>
        <time>2016-09-02T10:15:10Z</time>
      </trkpt>
      <trkpt lat="46.16199" lon="-1.15258">
        <ele>21.77</ele>
        <time>2016-09-02T10:15:22Z</time>
      </trkpt>
      <trkpt lat="46.162" lon="-1.15243">
        <ele>21.29</ele>
        <time>2016-09-02T10:15:34Z</time>
      </trkpt>
      <trkpt lat="46.16199" lon="-1.1523">
        <ele>21.77</ele>
        <time>2016-09-02T10:15:43Z</time>
      </trkpt>
      <trkpt lat="46.162" lon="-1.15222">
        <ele>21.29</ele>
        <time>2016-09-02T10:15:51Z</time>
      </trkpt>
      <trkpt lat="46.162" lon="-1.15221">
        <ele>21.29</ele>
        <time>2016-09-02T10:15:54Z</time>
      </trkpt>
      <trkpt lat="46.16196" lon="-1.15204">
        <ele>21.77</ele>
        <time>2016-09-02T10:16:04Z</time>
      </trkpt>
      <trkpt lat="46.16189" lon="-1.152">
        <ele>22.25</ele>
        <time>2016-09-02T10:16:16Z</time>
      </trkpt>
      <trkpt lat="46.16185" lon="-1.15199">
        <ele>21.77</ele>
        <time>2016-09-02T10:16:38Z</time>
      </trkpt>
      <trkpt lat="46.16184" lon="-1.15201">
        <ele>21.77</ele>
        <time>2016-09-02T10:16:44Z</time>
      </trkpt>
      <trkpt lat="46.16182" lon="-1.15198">
        <ele>21.77</ele>
        <time>2016-09-02T10:16:55Z</time>
      </trkpt>
      <trkpt lat="46.16191" lon="-1.15186">
        <ele>21.77</ele>
        <time>2016-09-02T10:17:05Z</time>
      </trkpt>
      <trkpt lat="46.16191" lon="-1.15181">
        <ele>21.77</ele>
        <time>2016-09-02T10:17:08Z</time>
      </trkpt>
      <trkpt lat="46.16195" lon="-1.15166">
        <ele>21.77</ele>
        <time>2016-09-02T10:17:19Z</time>
      </trkpt>
      <trkpt lat="46.16193" lon="-1.15151">
        <ele>21.77</ele>
        <time>2016-09-02T10:17:30Z</time>
      </trkpt>
      <trkpt lat="46.16194" lon="-1.15149">
        <ele>21.77</ele>
        <time>2016-09-02T10:17:44Z</time>
      </trkpt>
      <trkpt lat="46.16194" lon="-1.1515">
        <ele>21.77</ele>
        <time>2016-09-02T10:17:57Z</time>
      </trkpt>
      <trkpt lat="46.16194" lon="-1.15149">
        <ele>21.77</ele>
        <time>2016-09-02T10:18:13Z</time>
      </trkpt>
      <trkpt lat="46.16196" lon="-1.1514">
        <ele>21.29</ele>
        <time>2016-09-02T10:18:23Z</time>
      </trkpt>
      <trkpt lat="46.16196" lon="-1.15128">
        <ele>21.77</ele>
        <time>2016-09-02T10:18:34Z</time>
      </trkpt>
      <trkpt lat="46.16195" lon="-1.15124">
        <ele>21.29</ele>
        <time>2016-09-02T10:18:40Z</time>
      </trkpt>
      <trkpt lat="46.16191" lon="-1.15106">
        <ele>21.29</ele>
        <time>2016-09-02T10:18:51Z</time>
      </trkpt>
      <trkpt lat="46.16193" lon="-1.15095">
        <ele>21.29</ele>
        <time>2016-09-02T10:18:57Z</time>
      </trkpt>
      <trkpt lat="46.16195" lon="-1.15083">
        <ele>20.81</ele>
        <time>2016-09-02T10:19:07Z</time>
      </trkpt>
      <trkpt lat="46.16191" lon="-1.15073">
        <ele>21.29</ele>
        <time>2016-09-02T10:19:16Z</time>
      </trkpt>
      <trkpt lat="46.16191" lon="-1.15068">
        <ele>20.81</ele>
        <time>2016-09-02T10:19:21Z</time>
      </trkpt>
      <trkpt lat="46.1619" lon="-1.15065">
        <ele>20.81</ele>
        <time>2016-09-02T10:19:23Z</time>
      </trkpt>
      <trkpt lat="46.16184" lon="-1.15052">
        <ele>20.81</ele>
        <time>2016-09-02T10:19:35Z</time>
      </trkpt>
      <trkpt lat="46.16181" lon="-1.15045">
        <ele>20.81</ele>
        <time>2016-09-02T10:19:44Z</time>
      </trkpt>
      <trkpt lat="46.16177" lon="-1.15033">
        <ele>20.32</ele>
        <time>2016-09-02T10:19:53Z</time>
      </trkpt>
      <trkpt lat="46.16168" lon="-1.15018">
        <ele>20.32</ele>
        <time>2016-09-02T10:20:02Z</time>
      </trkpt>
      <trkpt lat="46.16168" lon="-1.15008">
        <ele>20.32</ele>
        <time>2016-09-02T10:20:13Z</time>
      </trkpt>
      <trkpt lat="46.16173" lon="-1.14999">
        <ele>19.84</ele>
        <time>2016-09-02T10:20:25Z</time>
      </trkpt>
      <trkpt lat="46.16176" lon="-1.14993">
        <ele>19.84</ele>
        <time>2016-09-02T10:20:34Z</time>
      </trkpt>
      <trkpt lat="46.1618" lon="-1.14989">
        <ele>20.32</ele>
        <time>2016-09-02T10:20:46Z</time>
      </trkpt>
      <trkpt lat="46.16182" lon="-1.14987">
        <ele>20.81</ele>
        <time>2016-09-02T10:20:56Z</time>
      </trkpt>
      <trkpt lat="46.16182" lon="-1.14986">
        <ele>19.84</ele>
        <time>2016-09-02T10:21:04Z</time>
      </trkpt>
      <trkpt lat="46.16183" lon="-1.14987">
        <ele>20.32</ele>
        <time>2016-09-02T10:21:13Z</time>
      </trkpt>
      <trkpt lat="46.16183" lon="-1.14986">
        <ele>19.84</ele>
        <time>2016-09-02T10:21:23Z</time>
      </trkpt>
      <trkpt lat="46.16182" lon="-1.14985">
        <ele>20.32</ele>
        <time>2016-09-02T10:21:36Z</time>
      </trkpt>
      <trkpt lat="46.16181" lon="-1.14985">
        <ele>19.84</ele>
        <time>2016-09-02T10:21:50Z</time>
      </trkpt>
      <trkpt lat="46.16178" lon="-1.14983">
        <ele>19.36</ele>
        <time>2016-09-02T10:22:03Z</time>
      </trkpt>
      <trkpt lat="46.16174" lon="-1.14983">
        <ele>18.88</ele>
        <time>2016-09-02T10:22:15Z</time>
      </trkpt>
      <trkpt lat="46.16158" lon="-1.14985">
        <ele>19.36</ele>
        <time>2016-09-02T10:22:30Z</time>
      </trkpt>
      <trkpt lat="46.16145" lon="-1.14987">
        <ele>19.36</ele>
        <time>2016-09-02T10:22:42Z</time>
      </trkpt>
      <trkpt lat="46.16133" lon="-1.14989">
        <ele>18.88</ele>
        <time>2016-09-02T10:22:57Z</time>
      </trkpt>
      <trkpt lat="46.16123" lon="-1.14993">
        <ele>19.36</ele>
        <time>2016-09-02T10:23:09Z</time>
      </trkpt>
      <trkpt lat="46.16124" lon="-1.14993">
        <ele>19.36</ele>
        <time>2016-09-02T10:23:23Z</time>
      </trkpt>
      <trkpt lat="46.16123" lon="-1.14993">
        <ele>19.36</ele>
        <time>2016-09-02T10:23:41Z</time>
      </trkpt>
      <trkpt lat="46.1612" lon="-1.14994">
        <ele>19.36</ele>
        <time>2016-09-02T10:23:58Z</time>
      </trkpt>
      <trkpt lat="46.1612" lon="-1.14995">
        <ele>19.36</ele>
        <time>2016-09-02T10:24:18Z</time>
      </trkpt>
      <trkpt lat="46.16115" lon="-1.14997">
        <ele>18.88</ele>
        <time>2016-09-02T10:24:28Z</time>
      </trkpt>
      <trkpt lat="46.16109" lon="-1.14997">
        <ele>18.88</ele>
        <time>2016-09-02T10:24:40Z</time>
      </trkpt>
      <trkpt lat="46.16106" lon="-1.14998">
        <ele>18.88</ele>
        <time>2016-09-02T10:24:57Z</time>
      </trkpt>
      <trkpt lat="46.1609" lon="-1.14993">
        <ele>18.88</ele>
        <time>2016-09-02T10:25:11Z</time>
      </trkpt>
      <trkpt lat="46.16083" lon="-1.15001">
        <ele>19.36</ele>
        <time>2016-09-02T10:25:22Z</time>
      </trkpt>
      <trkpt lat="46.16082" lon="-1.15005">
        <ele>18.88</ele>
        <time>2016-09-02T10:25:34Z</time>
      </trkpt>
      <trkpt lat="46.16084" lon="-1.15007">
        <ele>19.36</ele>
        <time>2016-09-02T10:25:41Z</time>
      </trkpt>
      <trkpt lat="46.16087" lon="-1.15018">
        <ele>18.88</ele>
        <time>2016-09-02T10:25:50Z</time>
      </trkpt>
      <trkpt lat="46.16082" lon="-1.15018">
        <ele>19.36</ele>
        <time>2016-09-02T10:26:07Z</time>
      </trkpt>
      <trkpt lat="46.16076" lon="-1.15019">
        <ele>18.88</ele>
        <time>2016-09-02T10:26:27Z</time>
      </trkpt>
      <trkpt lat="46.16066" lon="-1.15017">
        <ele>19.84</ele>
        <time>2016-09-02T10:26:35Z</time>
      </trkpt>
      <trkpt lat="46.16061" lon="-1.15016">
        <ele>19.36</ele>
        <time>2016-09-02T10:26:52Z</time>
      </trkpt>
      <trkpt lat="46.1606" lon="-1.15017">
        <ele>19.36</ele>
        <time>2016-09-02T10:26:57Z</time>
      </trkpt>
      <trkpt lat="46.16056" lon="-1.15022">
        <ele>19.84</ele>
        <time>2016-09-02T10:27:09Z</time>
      </trkpt>
      <trkpt lat="46.16049" lon="-1.15029">
        <ele>19.84</ele>
        <time>2016-09-02T10:27:22Z</time>
      </trkpt>
      <trkpt lat="46.16049" lon="-1.15032">
        <ele>19.36</ele>
        <time>2016-09-02T10:27:38Z</time>
      </trkpt>
      <trkpt lat="46.16046" lon="-1.15031">
        <ele>19.36</ele>
        <time>2016-09-02T10:27:57Z</time>
      </trkpt>
      <trkpt lat="46.16043" lon="-1.1503">
        <ele>19.84</ele>
        <time>2016-09-02T10:28:12Z</time>
      </trkpt>
      <trkpt lat="46.16026" lon="-1.15039">
        <ele>19.84</ele>
        <time>2016-09-02T10:28:22Z</time>
      </trkpt>
      <trkpt lat="46.16015" lon="-1.15043">
        <ele>20.32</ele>
        <time>2016-09-02T10:28:35Z</time>
      </trkpt>
      <trkpt lat="46.16013" lon="-1.15044">
        <ele>20.81</ele>
        <time>2016-09-02T10:28:52Z</time>
      </trkpt>
      <trkpt lat="46.16011" lon="-1.15047">
        <ele>20.81</ele>
        <time>2016-09-02T10:29:09Z</time>
      </trkpt>
      <trkpt lat="46.16015" lon="-1.15055">
        <ele>20.81</ele>
        <time>2016-09-02T10:29:20Z</time>
      </trkpt>
      <trkpt lat="46.16009" lon="-1.15053">
        <ele>21.29</ele>
        <time>2016-09-02T10:29:36Z</time>
      </trkpt>
      <trkpt lat="46.16004" lon="-1.15063">
        <ele>20.32</ele>
        <time>2016-09-02T10:29:47Z</time>
      </trkpt>
      <trkpt lat="46.16006" lon="-1.15065">
        <ele>21.29</ele>
        <time>2016-09-02T10:30:05Z</time>
      </trkpt>
      <trkpt lat="46.15967" lon="-1.15062">
        <ele>21.77</ele>
        <time>2016-09-02T10:30:18Z</time>
      </trkpt>
      <trkpt lat="46.15956" lon="-1.15062">
        <ele>21.77</ele>
        <time>2016-09-02T10:30:24Z</time>
      </trkpt>
      <trkpt lat="46.1596" lon="-1.15071">
        <ele>22.25</ele>
        <time>2016-09-02T10:30:36Z</time>
      </trkpt>
      <trkpt lat="46.15956" lon="-1.15084">
        <ele>22.25</ele>
        <time>2016-09-02T10:30:49Z</time>
      </trkpt>
      <trkpt lat="46.15949" lon="-1.15087">
        <ele>22.73</ele>
        <time>2016-09-02T10:31:05Z</time>
      </trkpt>
      <trkpt lat="46.15943" lon="-1.15114">
        <ele>23.21</ele>
        <time>2016-09-02T10:31:18Z</time>
      </trkpt>
      <trkpt lat="46.15937" lon="-1.15131">
        <ele>22.73</ele>
        <time>2016-09-02T10:31:31Z</time>
      </trkpt>
      <trkpt lat="46.15929" lon="-1.15134">
        <ele>22.73</ele>
        <time>2016-09-02T10:31:40Z</time>
      </trkpt>
      <trkpt lat="46.15924" lon="-1.15147">
        <ele>23.21</ele>
        <time>2016-09-02T10:31:50Z</time>
      </trkpt>
      <trkpt lat="46.15925" lon="-1.15157">
        <ele>23.21</ele>
        <time>2016-09-02T10:32:05Z</time>
      </trkpt>
      <trkpt lat="46.1592" lon="-1.15157">
        <ele>23.21</ele>
        <time>2016-09-02T10:32:14Z</time>
      </trkpt>
      <trkpt lat="46.15916" lon="-1.15156">
        <ele>23.21</ele>
        <time>2016-09-02T10:32:24Z</time>
      </trkpt>
      <trkpt lat="46.15915" lon="-1.15159">
        <ele>23.69</ele>
        <time>2016-09-02T10:32:35Z</time>
      </trkpt>
      <trkpt lat="46.15905" lon="-1.15173">
        <ele>23.69</ele>
        <time>2016-09-02T10:32:47Z</time>
      </trkpt>
      <trkpt lat="46.15898" lon="-1.1518">
        <ele>23.69</ele>
        <time>2016-09-02T10:32:53Z</time>
      </trkpt>
      <trkpt lat="46.15887" lon="-1.15202">
        <ele>23.69</ele>
        <time>2016-09-02T10:33:05Z</time>
      </trkpt>
      <trkpt lat="46.15882" lon="-1.15236">
        <ele>22.73</ele>
        <time>2016-09-02T10:33:19Z</time>
      </trkpt>
      <trkpt lat="46.15877" lon="-1.15242">
        <ele>24.17</ele>
        <time>2016-09-02T10:33:29Z</time>
      </trkpt>
      <trkpt lat="46.15869" lon="-1.15251">
        <ele>24.17</ele>
        <time>2016-09-02T10:33:39Z</time>
      </trkpt>
      <trkpt lat="46.15867" lon="-1.15281">
        <ele>24.17</ele>
        <time>2016-09-02T10:33:53Z</time>
      </trkpt>
      <trkpt lat="46.15866" lon="-1.15305">
        <ele>23.69</ele>
        <time>2016-09-02T10:34:08Z</time>
      </trkpt>
      <trkpt lat="46.15864" lon="-1.15318">
        <ele>23.21</ele>
        <time>2016-09-02T10:34:20Z</time>
      </trkpt>
      <trkpt lat="46.15861" lon="-1.15336">
        <ele>23.21</ele>
        <time>2016-09-02T10:34:31Z</time>
      </trkpt>
      <trkpt lat="46.15859" lon="-1.15349">
        <ele>23.21</ele>
        <time>2016-09-02T10:34:41Z</time>
      </trkpt>
      <trkpt lat="46.15865" lon="-1.1536">
        <ele>23.21</ele>
        <time>2016-09-02T10:34:51Z</time>
      </trkpt>
      <trkpt lat="46.15869" lon="-1.15371">
        <ele>23.21</ele>
        <time>2016-09-02T10:35:07Z</time>
      </trkpt>
      <trkpt lat="46.1587" lon="-1.15377">
        <ele>23.21</ele>
        <time>2016-09-02T10:35:17Z</time>
      </trkpt>
      <trkpt lat="46.15868" lon="-1.15379">
        <ele>23.21</ele>
        <time>2016-09-02T10:35:29Z</time>
      </trkpt>
      <trkpt lat="46.15865" lon="-1.1538">
        <ele>22.73</ele>
        <time>2016-09-02T10:35:34Z</time>
      </trkpt>
      <trkpt lat="46.15851" lon="-1.15375">
        <ele>22.73</ele>
        <time>2016-09-02T10:35:47Z</time>
      </trkpt>
      <trkpt lat="46.15846" lon="-1.15376">
        <ele>23.21</ele>
        <time>2016-09-02T10:36:03Z</time>
      </trkpt>
      <trkpt lat="46.15844" lon="-1.15374">
        <ele>22.73</ele>
        <time>2016-09-02T10:36:16Z</time>
      </trkpt>
      <trkpt lat="46.15842" lon="-1.15371">
        <ele>22.73</ele>
        <time>2016-09-02T10:36:21Z</time>
      </trkpt>
      <trkpt lat="46.15836" lon="-1.15356">
        <ele>22.73</ele>
        <time>2016-09-02T10:36:28Z</time>
      </trkpt>
      <trkpt lat="46.15834" lon="-1.15351">
        <ele>22.73</ele>
        <time>2016-09-02T10:36:31Z</time>
      </trkpt>
      <trkpt lat="46.15832" lon="-1.15347">
        <ele>22.73</ele>
        <time>2016-09-02T10:36:34Z</time>
      </trkpt>
      <trkpt lat="46.15817" lon="-1.15334">
        <ele>22.73</ele>
        <time>2016-09-02T10:36:43Z</time>
      </trkpt>
      <trkpt lat="46.15819" lon="-1.15312">
        <ele>22.25</ele>
        <time>2016-09-02T10:36:55Z</time>
      </trkpt>
      <trkpt lat="46.15816" lon="-1.153">
        <ele>21.77</ele>
        <time>2016-09-02T10:37:05Z</time>
      </trkpt>
      <trkpt lat="46.15804" lon="-1.15289">
        <ele>22.25</ele>
        <time>2016-09-02T10:37:16Z</time>
      </trkpt>
      <trkpt lat="46.15798" lon="-1.15288">
        <ele>22.25</ele>
        <time>2016-09-02T10:37:25Z</time>
      </trkpt>
      <trkpt lat="46.15798" lon="-1.15288">
        <ele>21.77</ele>
        <time>2016-09-02T10:37:26Z</time>
      </trkpt>
      <trkpt lat="46.15799" lon="-1.15279">
        <ele>21.77</ele>
        <time>2016-09-02T10:37:38Z</time>
      </trkpt>
      <trkpt lat="46.15803" lon="-1.15273">
        <ele>21.77</ele>
        <time>2016-09-02T10:37:49Z</time>
      </trkpt>
      <trkpt lat="46.15802" lon="-1.15273">
        <ele>21.77</ele>
        <time>2016-09-02T10:38:07Z</time>
      </trkpt>
      <trkpt lat="46.15802" lon="-1.15274">
        <ele>21.29</ele>
        <time>2016-09-02T10:38:16Z</time>
      </trkpt>
      <trkpt lat="46.15801" lon="-1.15277">
        <ele>21.77</ele>
        <time>2016-09-02T10:38:43Z</time>
      </trkpt>
      <trkpt lat="46.15801" lon="-1.15277">
        <ele>20.81</ele>
        <time>2016-09-02T10:38:53Z</time>
      </trkpt>
      <trkpt lat="46.15801" lon="-1.15277">
        <ele>20.81</ele>
        <time>2016-09-02T10:39:02Z</time>
      </trkpt>
      <trkpt lat="46.15801" lon="-1.15277">
        <ele>20.81</ele>
        <time>2016-09-02T10:39:14Z</time>
      </trkpt>
      <trkpt lat="46.158" lon="-1.15281">
        <ele>20.32</ele>
        <time>2016-09-02T10:39:23Z</time>
      </trkpt>
      <trkpt lat="46.158" lon="-1.15283">
        <ele>19.36</ele>
        <time>2016-09-02T10:39:34Z</time>
      </trkpt>
      <trkpt lat="46.158" lon="-1.15282">
        <ele>19.36</ele>
        <time>2016-09-02T10:39:55Z</time>
      </trkpt>
      <trkpt lat="46.15801" lon="-1.15282">
        <ele>19.36</ele>
        <time>2016-09-02T10:40:09Z</time>
      </trkpt>
      <trkpt lat="46.15801" lon="-1.15282">
        <ele>18.4</ele>
        <time>2016-09-02T10:40:35Z</time>
      </trkpt>
      <trkpt lat="46.15802" lon="-1.15282">
        <ele>18.88</ele>
        <time>2016-09-02T10:40:58Z</time>
      </trkpt>
      <trkpt lat="46.15805" lon="-1.15281">
        <ele>18.88</ele>
        <time>2016-09-02T10:41:23Z</time>
      </trkpt>
      <trkpt lat="46.15805" lon="-1.15281">
        <ele>18.4</ele>
        <time>2016-09-02T10:41:43Z</time>
      </trkpt>
      <trkpt lat="46.15805" lon="-1.15282">
        <ele>17.92</ele>
        <time>2016-09-02T10:42:03Z</time>
      </trkpt>
      <trkpt lat="46.15805" lon="-1.15283">
        <ele>17.92</ele>
        <time>2016-09-02T10:42:28Z</time>
      </trkpt>
      <trkpt lat="46.15803" lon="-1.15283">
        <ele>17.92</ele>
        <time>2016-09-02T10:42:45Z</time>
      </trkpt>
      <trkpt lat="46.15802" lon="-1.15284">
        <ele>17.92</ele>
        <time>2016-09-02T10:42:56Z</time>
      </trkpt>
      <trkpt lat="46.15799" lon="-1.15291">
        <ele>18.4</ele>
        <time>2016-09-02T10:43:04Z</time>
      </trkpt>
      <trkpt lat="46.15791" lon="-1.15296">
        <ele>18.4</ele>
        <time>2016-09-02T10:43:15Z</time>
      </trkpt>
      <trkpt lat="46.15786" lon="-1.15298">
        <ele>17.92</ele>
        <time>2016-09-02T10:43:26Z</time>
      </trkpt>
      <trkpt lat="46.15786" lon="-1.15299">
        <ele>17.92</ele>
        <time>2016-09-02T10:43:36Z</time>
      </trkpt>
      <trkpt lat="46.15784" lon="-1.15301">
        <ele>17.44</ele>
        <time>2016-09-02T10:43:41Z</time>
      </trkpt>
      <trkpt lat="46.15779" lon="-1.15303">
        <ele>17.92</ele>
        <time>2016-09-02T10:43:49Z</time>
      </trkpt>
      <trkpt lat="46.15779" lon="-1.1531">
        <ele>18.4</ele>
        <time>2016-09-02T10:43:55Z</time>
      </trkpt>
      <trkpt lat="46.15778" lon="-1.15323">
        <ele>18.4</ele>
        <time>2016-09-02T10:44:06Z</time>
      </trkpt>
      <trkpt lat="46.15778" lon="-1.15323">
        <ele>17.92</ele>
        <time>2016-09-02T10:44:08Z</time>
      </trkpt>
      <trkpt lat="46.15772" lon="-1.15331">
        <ele>18.4</ele>
        <time>2016-09-02T10:44:19Z</time>
      </trkpt>
      <trkpt lat="46.15766" lon="-1.15332">
        <ele>18.4</ele>
        <time>2016-09-02T10:44:29Z</time>
      </trkpt>
      <trkpt lat="46.15759" lon="-1.15338">
        <ele>18.4</ele>
        <time>2016-09-02T10:44:39Z</time>
      </trkpt>
      <trkpt lat="46.15754" lon="-1.15343">
        <ele>18.4</ele>
        <time>2016-09-02T10:44:44Z</time>
      </trkpt>
      <trkpt lat="46.15744" lon="-1.15348">
        <ele>17.92</ele>
        <time>2016-09-02T10:44:54Z</time>
      </trkpt>
      <trkpt lat="46.15736" lon="-1.15354">
        <ele>17.44</ele>
        <time>2016-09-02T10:45:04Z</time>
      </trkpt>
      <trkpt lat="46.15733" lon="-1.15356">
        <ele>17.44</ele>
        <time>2016-09-02T10:45:09Z</time>
      </trkpt>
      <trkpt lat="46.15726" lon="-1.15359">
        <ele>17.44</ele>
        <time>2016-09-02T10:45:19Z</time>
      </trkpt>
      <trkpt lat="46.15721" lon="-1.15362">
        <ele>17.44</ele>
        <time>2016-09-02T10:45:29Z</time>
      </trkpt>
      <trkpt lat="46.15721" lon="-1.15363">
        <ele>17.44</ele>
        <time>2016-09-02T10:45:46Z</time>
      </trkpt>
      <trkpt lat="46.15718" lon="-1.15366">
        <ele>17.44</ele>
        <time>2016-09-02T10:45:59Z</time>
      </trkpt>
      <trkpt lat="46.15711" lon="-1.15373">
        <ele>17.92</ele>
        <time>2016-09-02T10:46:09Z</time>
      </trkpt>
      <trkpt lat="46.15702" lon="-1.15381">
        <ele>17.92</ele>
        <time>2016-09-02T10:46:19Z</time>
      </trkpt>
      <trkpt lat="46.15693" lon="-1.15392">
        <ele>17.44</ele>
        <time>2016-09-02T10:46:31Z</time>
      </trkpt>
      <trkpt lat="46.15685" lon="-1.15401">
        <ele>17.44</ele>
        <time>2016-09-02T10:46:44Z</time>
      </trkpt>
      <trkpt lat="46.15683" lon="-1.15404">
        <ele>16.96</ele>
        <time>2016-09-02T10:46:53Z</time>
      </trkpt>
      <trkpt lat="46.15681" lon="-1.15407">
        <ele>16.96</ele>
        <time>2016-09-02T10:47:04Z</time>
      </trkpt>
      <trkpt lat="46.15682" lon="-1.15408">
        <ele>16.96</ele>
        <time>2016-09-02T10:47:19Z</time>
      </trkpt>
      <trkpt lat="46.1568" lon="-1.1541">
        <ele>16.96</ele>
        <time>2016-09-02T10:47:38Z</time>
      </trkpt>
      <trkpt lat="46.15679" lon="-1.15411">
        <ele>16.48</ele>
        <time>2016-09-02T10:47:51Z</time>
      </trkpt>
      <trkpt lat="46.15679" lon="-1.15411">
        <ele>16.48</ele>
        <time>2016-09-02T10:48:07Z</time>
      </trkpt>
      <trkpt lat="46.15677" lon="-1.15413">
        <ele>16.96</ele>
        <time>2016-09-02T10:48:12Z</time>
      </trkpt>
      <trkpt lat="46.15669" lon="-1.15417">
        <ele>16.48</ele>
        <time>2016-09-02T10:48:22Z</time>
      </trkpt>
      <trkpt lat="46.15667" lon="-1.15419">
        <ele>16.96</ele>
        <time>2016-09-02T10:48:24Z</time>
      </trkpt>
      <trkpt lat="46.15652" lon="-1.15414">
        <ele>15.04</ele>
        <time>2016-09-02T10:48:36Z</time>
      </trkpt>
      <trkpt lat="46.15648" lon="-1.15414">
        <ele>15.52</ele>
        <time>2016-09-02T10:48:40Z</time>
      </trkpt>
      <trkpt lat="46.15639" lon="-1.15419">
        <ele>16</ele>
        <time>2016-09-02T10:48:48Z</time>
      </trkpt>
      <trkpt lat="46.15627" lon="-1.15426">
        <ele>15.04</ele>
        <time>2016-09-02T10:49:00Z</time>
      </trkpt>
      <trkpt lat="46.15627" lon="-1.15426">
        <ele>15.04</ele>
        <time>2016-09-02T10:49:01Z</time>
      </trkpt>
      <trkpt lat="46.15626" lon="-1.15431">
        <ele>15.52</ele>
        <time>2016-09-02T10:49:09Z</time>
      </trkpt>
      <trkpt lat="46.15626" lon="-1.15433">
        <ele>15.04</ele>
        <time>2016-09-02T10:49:28Z</time>
      </trkpt>
      <trkpt lat="46.15624" lon="-1.15433">
        <ele>15.04</ele>
        <time>2016-09-02T10:49:35Z</time>
      </trkpt>
      <trkpt lat="46.15622" lon="-1.15433">
        <ele>15.04</ele>
        <time>2016-09-02T10:49:41Z</time>
      </trkpt>
      <trkpt lat="46.15619" lon="-1.15434">
        <ele>15.52</ele>
        <time>2016-09-02T10:49:44Z</time>
      </trkpt>
      <trkpt lat="46.15618" lon="-1.15438">
        <ele>15.52</ele>
        <time>2016-09-02T10:49:47Z</time>
      </trkpt>
      <trkpt lat="46.15619" lon="-1.15442">
        <ele>15.52</ele>
        <time>2016-09-02T10:50:00Z</time>
      </trkpt>
      <trkpt lat="46.15618" lon="-1.15441">
        <ele>15.04</ele>
        <time>2016-09-02T10:50:14Z</time>
      </trkpt>
      <trkpt lat="46.15614" lon="-1.15443">
        <ele>15.04</ele>
        <time>2016-09-02T10:50:24Z</time>
      </trkpt>
      <trkpt lat="46.15611" lon="-1.15441">
        <ele>15.04</ele>
        <time>2016-09-02T10:50:32Z</time>
      </trkpt>
      <trkpt lat="46.15609" lon="-1.15439">
        <ele>14.56</ele>
        <time>2016-09-02T10:50:41Z</time>
      </trkpt>
      <trkpt lat="46.15612" lon="-1.15437">
        <ele>14.56</ele>
        <time>2016-09-02T10:50:50Z</time>
      </trkpt>
      <trkpt lat="46.15617" lon="-1.15435">
        <ele>14.56</ele>
        <time>2016-09-02T10:51:00Z</time>
      </trkpt>
      <trkpt lat="46.15618" lon="-1.15434">
        <ele>14.08</ele>
        <time>2016-09-02T10:51:13Z</time>
      </trkpt>
      <trkpt lat="46.15619" lon="-1.15433">
        <ele>14.08</ele>
        <time>2016-09-02T10:51:30Z</time>
      </trkpt>
      <trkpt lat="46.1562" lon="-1.15433">
        <ele>14.08</ele>
        <time>2016-09-02T10:51:45Z</time>
      </trkpt>
      <trkpt lat="46.1562" lon="-1.15433">
        <ele>12.63</ele>
        <time>2016-09-02T10:51:55Z</time>
      </trkpt>
      <trkpt lat="46.1562" lon="-1.15433">
        <ele>9.27</ele>
        <time>2016-09-02T10:52:02Z</time>
      </trkpt>
      <trkpt lat="46.1562" lon="-1.15433">
        <ele>11.19</ele>
        <time>2016-09-02T10:52:03Z</time>
      </trkpt>
      <trkpt lat="46.1562" lon="-1.15434">
        <ele>14.08</ele>
        <time>2016-09-02T10:52:04Z</time>
      </trkpt>
      <trkpt lat="46.15621" lon="-1.15435">
        <ele>13.12</ele>
        <time>2016-09-02T10:52:30Z</time>
      </trkpt>
      <trkpt lat="46.15621" lon="-1.15436">
        <ele>12.63</ele>
        <time>2016-09-02T10:52:54Z</time>
      </trkpt>
      <trkpt lat="46.15622" lon="-1.15436">
        <ele>12.63</ele>
        <time>2016-09-02T10:53:20Z</time>
      </trkpt>
      <trkpt lat="46.15622" lon="-1.15436">
        <ele>12.63</ele>
        <time>2016-09-02T10:53:45Z</time>
      </trkpt>
      <trkpt lat="46.15623" lon="-1.15437">
        <ele>12.63</ele>
        <time>2016-09-02T10:54:09Z</time>
      </trkpt>
      <trkpt lat="46.15623" lon="-1.15437">
        <ele>12.15</ele>
        <time>2016-09-02T10:54:35Z</time>
      </trkpt>
      <trkpt lat="46.15623" lon="-1.15438">
        <ele>12.15</ele>
        <time>2016-09-02T10:55:01Z</time>
      </trkpt>
      <trkpt lat="46.15622" lon="-1.15438">
        <ele>12.15</ele>
        <time>2016-09-02T10:55:28Z</time>
      </trkpt>
      <trkpt lat="46.15622" lon="-1.15438">
        <ele>12.15</ele>
        <time>2016-09-02T10:55:54Z</time>
      </trkpt>
      <trkpt lat="46.15622" lon="-1.15438">
        <ele>12.15</ele>
        <time>2016-09-02T10:56:18Z</time>
      </trkpt>
      <trkpt lat="46.15622" lon="-1.15438">
        <ele>11.67</ele>
        <time>2016-09-02T10:56:43Z</time>
      </trkpt>
      <trkpt lat="46.15622" lon="-1.15439">
        <ele>11.67</ele>
        <time>2016-09-02T10:57:09Z</time>
      </trkpt>
      <trkpt lat="46.15622" lon="-1.15439">
        <ele>11.19</ele>
        <time>2016-09-02T10:57:38Z</time>
      </trkpt>
      <trkpt lat="46.15622" lon="-1.15439">
        <ele>11.19</ele>
        <time>2016-09-02T10:58:01Z</time>
      </trkpt>
      <trkpt lat="46.15622" lon="-1.1544">
        <ele>10.71</ele>
        <time>2016-09-02T10:58:27Z</time>
      </trkpt>
      <trkpt lat="46.15622" lon="-1.15442">
        <ele>11.19</ele>
        <time>2016-09-02T10:58:50Z</time>
      </trkpt>
      <trkpt lat="46.15621" lon="-1.15444">
        <ele>10.71</ele>
        <time>2016-09-02T10:59:10Z</time>
      </trkpt>
      <trkpt lat="46.15621" lon="-1.15444">
        <ele>10.71</ele>
        <time>2016-09-02T10:59:34Z</time>
      </trkpt>
      <trkpt lat="46.15622" lon="-1.15444">
        <ele>10.23</ele>
        <time>2016-09-02T11:00:00Z</time>
      </trkpt>
      <trkpt lat="46.15622" lon="-1.15443">
        <ele>10.71</ele>
        <time>2016-09-02T11:00:25Z</time>
      </trkpt>
      <trkpt lat="46.15622" lon="-1.15442">
        <ele>10.23</ele>
        <time>2016-09-02T11:00:49Z</time>
      </trkpt>
      <trkpt lat="46.15622" lon="-1.15442">
        <ele>10.71</ele>
        <time>2016-09-02T11:01:16Z</time>
      </trkpt>
      <trkpt lat="46.15622" lon="-1.15443">
        <ele>9.75</ele>
        <time>2016-09-02T11:01:41Z</time>
      </trkpt>
      <trkpt lat="46.15623" lon="-1.15442">
        <ele>9.75</ele>
        <time>2016-09-02T11:02:05Z</time>
      </trkpt>
      <trkpt lat="46.15624" lon="-1.15442">
        <ele>9.75</ele>
        <time>2016-09-02T11:02:32Z</time>
      </trkpt>
      <trkpt lat="46.15623" lon="-1.15442">
        <ele>9.75</ele>
        <time>2016-09-02T11:02:54Z</time>
      </trkpt>
      <trkpt lat="46.15623" lon="-1.15442">
        <ele>9.75</ele>
        <time>2016-09-02T11:03:16Z</time>
      </trkpt>
      <trkpt lat="46.15622" lon="-1.15442">
        <ele>9.75</ele>
        <time>2016-09-02T11:03:39Z</time>
      </trkpt>
      <trkpt lat="46.15622" lon="-1.15442">
        <ele>9.27</ele>
        <time>2016-09-02T11:04:11Z</time>
      </trkpt>
      <trkpt lat="46.15622" lon="-1.15443">
        <ele>9.27</ele>
        <time>2016-09-02T11:04:36Z</time>
      </trkpt>
      <trkpt lat="46.15623" lon="-1.15443">
        <ele>9.27</ele>
        <time>2016-09-02T11:05:03Z</time>
      </trkpt>
      <trkpt lat="46.15623" lon="-1.15443">
        <ele>9.27</ele>
        <time>2016-09-02T11:05:32Z</time>
      </trkpt>
      <trkpt lat="46.15623" lon="-1.15443">
        <ele>8.79</ele>
        <time>2016-09-02T11:05:59Z</time>
      </trkpt>
      <trkpt lat="46.15624" lon="-1.15442">
        <ele>8.79</ele>
        <time>2016-09-02T11:06:26Z</time>
      </trkpt>
      <trkpt lat="46.15625" lon="-1.15442">
        <ele>8.79</ele>
        <time>2016-09-02T11:06:50Z</time>
      </trkpt>
      <trkpt lat="46.15624" lon="-1.15441">
        <ele>8.79</ele>
        <time>2016-09-02T11:07:12Z</time>
      </trkpt>
      <trkpt lat="46.15624" lon="-1.1544">
        <ele>8.31</ele>
        <time>2016-09-02T11:07:32Z</time>
      </trkpt>
      <trkpt lat="46.15625" lon="-1.1544">
        <ele>8.31</ele>
        <time>2016-09-02T11:07:54Z</time>
      </trkpt>
      <trkpt lat="46.15625" lon="-1.15439">
        <ele>8.31</ele>
        <time>2016-09-02T11:08:20Z</time>
      </trkpt>
      <trkpt lat="46.15624" lon="-1.15437">
        <ele>8.31</ele>
        <time>2016-09-02T11:08:43Z</time>
      </trkpt>
      <trkpt lat="46.15625" lon="-1.15436">
        <ele>8.31</ele>
        <time>2016-09-02T11:09:09Z</time>
      </trkpt>
      <trkpt lat="46.15625" lon="-1.15435">
        <ele>8.31</ele>
        <time>2016-09-02T11:09:35Z</time>
      </trkpt>
      <trkpt lat="46.15624" lon="-1.15434">
        <ele>8.31</ele>
        <time>2016-09-02T11:09:59Z</time>
      </trkpt>
      <trkpt lat="46.15623" lon="-1.15434">
        <ele>8.31</ele>
        <time>2016-09-02T11:10:24Z</time>
      </trkpt>
      <trkpt lat="46.15624" lon="-1.15435">
        <ele>7.83</ele>
        <time>2016-09-02T11:10:48Z</time>
      </trkpt>
      <trkpt lat="46.15623" lon="-1.15435">
        <ele>8.31</ele>
        <time>2016-09-02T11:11:12Z</time>
      </trkpt>
      <trkpt lat="46.15623" lon="-1.15434">
        <ele>8.31</ele>
        <time>2016-09-02T11:11:35Z</time>
      </trkpt>
      <trkpt lat="46.15624" lon="-1.15434">
        <ele>8.31</ele>
        <time>2016-09-02T11:11:57Z</time>
      </trkpt>
      <trkpt lat="46.15624" lon="-1.15434">
        <ele>7.83</ele>
        <time>2016-09-02T11:12:21Z</time>
      </trkpt>
      <trkpt lat="46.15623" lon="-1.15434">
        <ele>8.31</ele>
        <time>2016-09-02T11:12:43Z</time>
      </trkpt>
      <trkpt lat="46.15623" lon="-1.15434">
        <ele>8.31</ele>
        <time>2016-09-02T11:13:06Z</time>
      </trkpt>
      <trkpt lat="46.15623" lon="-1.15434">
        <ele>7.83</ele>
        <time>2016-09-02T11:13:28Z</time>
      </trkpt>
      <trkpt lat="46.15623" lon="-1.15433">
        <ele>7.83</ele>
        <time>2016-09-02T11:13:50Z</time>
      </trkpt>
      <trkpt lat="46.15622" lon="-1.15433">
        <ele>8.31</ele>
        <time>2016-09-02T11:14:11Z</time>
      </trkpt>
      <trkpt lat="46.15622" lon="-1.15433">
        <ele>8.31</ele>
        <time>2016-09-02T11:14:33Z</time>
      </trkpt>
      <trkpt lat="46.15622" lon="-1.15433">
        <ele>7.35</ele>
        <time>2016-09-02T11:14:56Z</time>
      </trkpt>
      <trkpt lat="46.15622" lon="-1.15433">
        <ele>7.83</ele>
        <time>2016-09-02T11:15:20Z</time>
      </trkpt>
      <trkpt lat="46.15622" lon="-1.15433">
        <ele>7.83</ele>
        <time>2016-09-02T11:15:42Z</time>
      </trkpt>
      <trkpt lat="46.15623" lon="-1.15431">
        <ele>7.83</ele>
        <time>2016-09-02T11:16:08Z</time>
      </trkpt>
      <trkpt lat="46.15624" lon="-1.1543">
        <ele>7.35</ele>
        <time>2016-09-02T11:16:32Z</time>
      </trkpt>
      <trkpt lat="46.15625" lon="-1.1543">
        <ele>7.35</ele>
        <time>2016-09-02T11:16:51Z</time>
      </trkpt>
      <trkpt lat="46.15625" lon="-1.1543">
        <ele>7.35</ele>
        <time>2016-09-02T11:17:18Z</time>
      </trkpt>
      <trkpt lat="46.15625" lon="-1.15431">
        <ele>7.83</ele>
        <time>2016-09-02T11:17:39Z</time>
      </trkpt>
      <trkpt lat="46.15625" lon="-1.15431">
        <ele>7.83</ele>
        <time>2016-09-02T11:18:05Z</time>
      </trkpt>
      <trkpt lat="46.15625" lon="-1.15432">
        <ele>7.83</ele>
        <time>2016-09-02T11:18:31Z</time>
      </trkpt>
      <trkpt lat="46.15625" lon="-1.15432">
        <ele>6.87</ele>
        <time>2016-09-02T11:18:41Z</time>
      </trkpt>
      <trkpt lat="46.15625" lon="-1.15432">
        <ele>7.83</ele>
        <time>2016-09-02T11:19:01Z</time>
      </trkpt>
      <trkpt lat="46.15625" lon="-1.15431">
        <ele>7.35</ele>
        <time>2016-09-02T11:19:20Z</time>
      </trkpt>
      <trkpt lat="46.15625" lon="-1.15431">
        <ele>8.31</ele>
        <time>2016-09-02T11:19:42Z</time>
      </trkpt>
      <trkpt lat="46.15624" lon="-1.15431">
        <ele>7.83</ele>
        <time>2016-09-02T11:20:04Z</time>
      </trkpt>
      <trkpt lat="46.15624" lon="-1.15431">
        <ele>8.31</ele>
        <time>2016-09-02T11:20:26Z</time>
      </trkpt>
      <trkpt lat="46.15624" lon="-1.15431">
        <ele>8.31</ele>
        <time>2016-09-02T11:20:48Z</time>
      </trkpt>
      <trkpt lat="46.15623" lon="-1.15432">
        <ele>8.31</ele>
        <time>2016-09-02T11:21:15Z</time>
      </trkpt>
      <trkpt lat="46.15623" lon="-1.15432">
        <ele>8.79</ele>
        <time>2016-09-02T11:21:36Z</time>
      </trkpt>
      <trkpt lat="46.15622" lon="-1.15432">
        <ele>8.79</ele>
        <time>2016-09-02T11:22:01Z</time>
      </trkpt>
      <trkpt lat="46.15622" lon="-1.15432">
        <ele>8.79</ele>
        <time>2016-09-02T11:22:23Z</time>
      </trkpt>
      <trkpt lat="46.15622" lon="-1.15432">
        <ele>8.79</ele>
        <time>2016-09-02T11:22:44Z</time>
      </trkpt>
      <trkpt lat="46.15622" lon="-1.15432">
        <ele>8.79</ele>
        <time>2016-09-02T11:23:06Z</time>
      </trkpt>
      <trkpt lat="46.15622" lon="-1.15433">
        <ele>8.79</ele>
        <time>2016-09-02T11:23:29Z</time>
      </trkpt>
      <trkpt lat="46.15622" lon="-1.15433">
        <ele>8.79</ele>
        <time>2016-09-02T11:23:53Z</time>
      </trkpt>
      <trkpt lat="46.15622" lon="-1.15433">
        <ele>8.79</ele>
        <time>2016-09-02T11:24:15Z</time>
      </trkpt>
      <trkpt lat="46.15622" lon="-1.15434">
        <ele>9.27</ele>
        <time>2016-09-02T11:24:44Z</time>
      </trkpt>
      <trkpt lat="46.15622" lon="-1.15435">
        <ele>8.79</ele>
        <time>2016-09-02T11:25:09Z</time>
      </trkpt>
      <trkpt lat="46.15622" lon="-1.15436">
        <ele>8.79</ele>
        <time>2016-09-02T11:25:35Z</time>
      </trkpt>
      <trkpt lat="46.15622" lon="-1.15438">
        <ele>8.31</ele>
        <time>2016-09-02T11:25:58Z</time>
      </trkpt>
      <trkpt lat="46.15623" lon="-1.15438">
        <ele>8.31</ele>
        <time>2016-09-02T11:26:26Z</time>
      </trkpt>
      <trkpt lat="46.15624" lon="-1.15438">
        <ele>8.31</ele>
        <time>2016-09-02T11:26:49Z</time>
      </trkpt>
      <trkpt lat="46.15624" lon="-1.15438">
        <ele>8.31</ele>
        <time>2016-09-02T11:27:10Z</time>
      </trkpt>
      <trkpt lat="46.15625" lon="-1.15439">
        <ele>7.83</ele>
        <time>2016-09-02T11:27:33Z</time>
      </trkpt>
      <trkpt lat="46.15625" lon="-1.15439">
        <ele>8.31</ele>
        <time>2016-09-02T11:27:55Z</time>
      </trkpt>
      <trkpt lat="46.15625" lon="-1.15439">
        <ele>8.31</ele>
        <time>2016-09-02T11:28:19Z</time>
      </trkpt>
      <trkpt lat="46.15625" lon="-1.15439">
        <ele>8.31</ele>
        <time>2016-09-02T11:28:42Z</time>
      </trkpt>
      <trkpt lat="46.15625" lon="-1.15439">
        <ele>8.31</ele>
        <time>2016-09-02T11:29:04Z</time>
      </trkpt>
      <trkpt lat="46.15625" lon="-1.15439">
        <ele>8.31</ele>
        <time>2016-09-02T11:29:28Z</time>
      </trkpt>
      <trkpt lat="46.15624" lon="-1.15438">
        <ele>8.31</ele>
        <time>2016-09-02T11:29:53Z</time>
      </trkpt>
      <trkpt lat="46.15624" lon="-1.15437">
        <ele>8.31</ele>
        <time>2016-09-02T11:30:22Z</time>
      </trkpt>
      <trkpt lat="46.15624" lon="-1.15437">
        <ele>8.31</ele>
        <time>2016-09-02T11:30:46Z</time>
      </trkpt>
      <trkpt lat="46.15624" lon="-1.15437">
        <ele>8.31</ele>
        <time>2016-09-02T11:31:07Z</time>
      </trkpt>
      <trkpt lat="46.15623" lon="-1.15437">
        <ele>8.79</ele>
        <time>2016-09-02T11:31:33Z</time>
      </trkpt>
      <trkpt lat="46.15622" lon="-1.15437">
        <ele>8.31</ele>
        <time>2016-09-02T11:32:01Z</time>
      </trkpt>
      <trkpt lat="46.15622" lon="-1.15438">
        <ele>8.31</ele>
        <time>2016-09-02T11:32:30Z</time>
      </trkpt>
      <trkpt lat="46.15622" lon="-1.15439">
        <ele>8.31</ele>
        <time>2016-09-02T11:33:02Z</time>
      </trkpt>
      <trkpt lat="46.15623" lon="-1.15438">
        <ele>7.83</ele>
        <time>2016-09-02T11:33:34Z</time>
      </trkpt>
      <trkpt lat="46.15624" lon="-1.15437">
        <ele>8.31</ele>
        <time>2016-09-02T11:34:05Z</time>
      </trkpt>
      <trkpt lat="46.15624" lon="-1.15437">
        <ele>7.83</ele>
        <time>2016-09-02T11:34:39Z</time>
      </trkpt>
      <trkpt lat="46.15623" lon="-1.15437">
        <ele>7.83</ele>
        <time>2016-09-02T11:35:07Z</time>
      </trkpt>
      <trkpt lat="46.15622" lon="-1.15437">
        <ele>8.31</ele>
        <time>2016-09-02T11:35:32Z</time>
      </trkpt>
      <trkpt lat="46.15623" lon="-1.15437">
        <ele>8.31</ele>
        <time>2016-09-02T11:36:02Z</time>
      </trkpt>
      <trkpt lat="46.15622" lon="-1.15437">
        <ele>7.83</ele>
        <time>2016-09-02T11:36:27Z</time>
      </trkpt>
      <trkpt lat="46.15622" lon="-1.15437">
        <ele>8.31</ele>
        <time>2016-09-02T11:36:55Z</time>
      </trkpt>
      <trkpt lat="46.15621" lon="-1.15436">
        <ele>7.83</ele>
        <time>2016-09-02T11:37:20Z</time>
      </trkpt>
      <trkpt lat="46.1562" lon="-1.15434">
        <ele>7.83</ele>
        <time>2016-09-02T11:37:47Z</time>
      </trkpt>
      <trkpt lat="46.1562" lon="-1.15434">
        <ele>7.83</ele>
        <time>2016-09-02T11:38:16Z</time>
      </trkpt>
      <trkpt lat="46.1562" lon="-1.15434">
        <ele>7.83</ele>
        <time>2016-09-02T11:38:42Z</time>
      </trkpt>
      <trkpt lat="46.15621" lon="-1.15434">
        <ele>7.83</ele>
        <time>2016-09-02T11:39:10Z</time>
      </trkpt>
      <trkpt lat="46.15621" lon="-1.15436">
        <ele>7.83</ele>
        <time>2016-09-02T11:39:35Z</time>
      </trkpt>
      <trkpt lat="46.15621" lon="-1.15437">
        <ele>7.83</ele>
        <time>2016-09-02T11:39:57Z</time>
      </trkpt>
      <trkpt lat="46.15621" lon="-1.15438">
        <ele>7.83</ele>
        <time>2016-09-02T11:40:24Z</time>
      </trkpt>
      <trkpt lat="46.15622" lon="-1.15438">
        <ele>7.83</ele>
        <time>2016-09-02T11:40:50Z</time>
      </trkpt>
      <trkpt lat="46.15623" lon="-1.15437">
        <ele>8.31</ele>
        <time>2016-09-02T11:41:17Z</time>
      </trkpt>
      <trkpt lat="46.15622" lon="-1.15437">
        <ele>8.31</ele>
        <time>2016-09-02T11:41:42Z</time>
      </trkpt>
      <trkpt lat="46.15622" lon="-1.15437">
        <ele>7.35</ele>
        <time>2016-09-02T11:42:08Z</time>
      </trkpt>
      <trkpt lat="46.15622" lon="-1.15438">
        <ele>7.83</ele>
        <time>2016-09-02T11:42:31Z</time>
      </trkpt>
      <trkpt lat="46.15623" lon="-1.15437">
        <ele>7.83</ele>
        <time>2016-09-02T11:42:56Z</time>
      </trkpt>
      <trkpt lat="46.15624" lon="-1.15437">
        <ele>7.83</ele>
        <time>2016-09-02T11:43:16Z</time>
      </trkpt>
      <trkpt lat="46.15625" lon="-1.15435">
        <ele>7.83</ele>
        <time>2016-09-02T11:43:38Z</time>
      </trkpt>
      <trkpt lat="46.15625" lon="-1.15435">
        <ele>7.83</ele>
        <time>2016-09-02T11:44:00Z</time>
      </trkpt>
      <trkpt lat="46.15626" lon="-1.15434">
        <ele>7.83</ele>
        <time>2016-09-02T11:44:23Z</time>
      </trkpt>
      <trkpt lat="46.15626" lon="-1.15434">
        <ele>7.83</ele>
        <time>2016-09-02T11:44:47Z</time>
      </trkpt>
      <trkpt lat="46.15625" lon="-1.15435">
        <ele>7.83</ele>
        <time>2016-09-02T11:45:09Z</time>
      </trkpt>
      <trkpt lat="46.15624" lon="-1.15435">
        <ele>7.35</ele>
        <time>2016-09-02T11:45:32Z</time>
      </trkpt>
      <trkpt lat="46.15624" lon="-1.15436">
        <ele>7.83</ele>
        <time>2016-09-02T11:45:52Z</time>
      </trkpt>
      <trkpt lat="46.15623" lon="-1.15436">
        <ele>7.35</ele>
        <time>2016-09-02T11:46:19Z</time>
      </trkpt>
      <trkpt lat="46.15623" lon="-1.15436">
        <ele>7.35</ele>
        <time>2016-09-02T11:46:45Z</time>
      </trkpt>
      <trkpt lat="46.15623" lon="-1.15435">
        <ele>7.35</ele>
        <time>2016-09-02T11:47:08Z</time>
      </trkpt>
      <trkpt lat="46.15623" lon="-1.15435">
        <ele>7.35</ele>
        <time>2016-09-02T11:47:28Z</time>
      </trkpt>
      <trkpt lat="46.15623" lon="-1.15435">
        <ele>6.87</ele>
        <time>2016-09-02T11:47:55Z</time>
      </trkpt>
      <trkpt lat="46.15623" lon="-1.15435">
        <ele>6.87</ele>
        <time>2016-09-02T11:48:24Z</time>
      </trkpt>
      <trkpt lat="46.15623" lon="-1.15435">
        <ele>6.87</ele>
        <time>2016-09-02T11:48:45Z</time>
      </trkpt>
      <trkpt lat="46.15623" lon="-1.15435">
        <ele>6.87</ele>
        <time>2016-09-02T11:49:05Z</time>
      </trkpt>
      <trkpt lat="46.15623" lon="-1.15436">
        <ele>6.39</ele>
        <time>2016-09-02T11:49:31Z</time>
      </trkpt>
      <trkpt lat="46.15622" lon="-1.15438">
        <ele>6.39</ele>
        <time>2016-09-02T11:49:56Z</time>
      </trkpt>
      <trkpt lat="46.15621" lon="-1.15438">
        <ele>6.39</ele>
        <time>2016-09-02T11:50:17Z</time>
      </trkpt>
      <trkpt lat="46.15621" lon="-1.15439">
        <ele>5.91</ele>
        <time>2016-09-02T11:50:43Z</time>
      </trkpt>
      <trkpt lat="46.15621" lon="-1.15439">
        <ele>5.91</ele>
        <time>2016-09-02T11:51:04Z</time>
      </trkpt>
      <trkpt lat="46.15622" lon="-1.15439">
        <ele>5.42</ele>
        <time>2016-09-02T11:51:28Z</time>
      </trkpt>
      <trkpt lat="46.15623" lon="-1.15438">
        <ele>5.42</ele>
        <time>2016-09-02T11:51:49Z</time>
      </trkpt>
      <trkpt lat="46.15624" lon="-1.15437">
        <ele>5.42</ele>
        <time>2016-09-02T11:52:20Z</time>
      </trkpt>
      <trkpt lat="46.15624" lon="-1.15438">
        <ele>5.42</ele>
        <time>2016-09-02T11:52:47Z</time>
      </trkpt>
      <trkpt lat="46.15625" lon="-1.15438">
        <ele>5.42</ele>
        <time>2016-09-02T11:53:09Z</time>
      </trkpt>
      <trkpt lat="46.15625" lon="-1.15439">
        <ele>5.42</ele>
        <time>2016-09-02T11:53:36Z</time>
      </trkpt>
      <trkpt lat="46.15625" lon="-1.1544">
        <ele>4.94</ele>
        <time>2016-09-02T11:54:01Z</time>
      </trkpt>
      <trkpt lat="46.15625" lon="-1.1544">
        <ele>4.94</ele>
        <time>2016-09-02T11:54:25Z</time>
      </trkpt>
      <trkpt lat="46.15625" lon="-1.1544">
        <ele>4.46</ele>
        <time>2016-09-02T11:54:51Z</time>
      </trkpt>
      <trkpt lat="46.15625" lon="-1.15441">
        <ele>4.46</ele>
        <time>2016-09-02T11:55:19Z</time>
      </trkpt>
      <trkpt lat="46.15625" lon="-1.15442">
        <ele>3.98</ele>
        <time>2016-09-02T11:55:46Z</time>
      </trkpt>
      <trkpt lat="46.15625" lon="-1.15444">
        <ele>3.98</ele>
        <time>2016-09-02T11:56:11Z</time>
      </trkpt>
      <trkpt lat="46.15626" lon="-1.15446">
        <ele>3.98</ele>
        <time>2016-09-02T11:56:37Z</time>
      </trkpt>
      <trkpt lat="46.15626" lon="-1.15446">
        <ele>3.5</ele>
        <time>2016-09-02T11:57:03Z</time>
      </trkpt>
      <trkpt lat="46.15626" lon="-1.15447">
        <ele>3.98</ele>
        <time>2016-09-02T11:57:24Z</time>
      </trkpt>
      <trkpt lat="46.15625" lon="-1.15447">
        <ele>3.5</ele>
        <time>2016-09-02T11:57:46Z</time>
      </trkpt>
      <trkpt lat="46.15625" lon="-1.15448">
        <ele>3.02</ele>
        <time>2016-09-02T11:58:12Z</time>
      </trkpt>
      <trkpt lat="46.15624" lon="-1.15449">
        <ele>3.02</ele>
        <time>2016-09-02T11:58:35Z</time>
      </trkpt>
      <trkpt lat="46.15624" lon="-1.15449">
        <ele>3.02</ele>
        <time>2016-09-02T11:59:01Z</time>
      </trkpt>
      <trkpt lat="46.15625" lon="-1.15449">
        <ele>3.02</ele>
        <time>2016-09-02T11:59:27Z</time>
      </trkpt>
      <trkpt lat="46.15625" lon="-1.15449">
        <ele>3.02</ele>
        <time>2016-09-02T11:59:52Z</time>
      </trkpt>
      <trkpt lat="46.15625" lon="-1.15448">
        <ele>2.54</ele>
        <time>2016-09-02T12:00:17Z</time>
      </trkpt>
      <trkpt lat="46.15625" lon="-1.15447">
        <ele>3.02</ele>
        <time>2016-09-02T12:00:40Z</time>
      </trkpt>
      <trkpt lat="46.15626" lon="-1.15446">
        <ele>2.54</ele>
        <time>2016-09-02T12:01:02Z</time>
      </trkpt>
      <trkpt lat="46.15626" lon="-1.15446">
        <ele>2.54</ele>
        <time>2016-09-02T12:01:27Z</time>
      </trkpt>
      <trkpt lat="46.15626" lon="-1.15446">
        <ele>2.54</ele>
        <time>2016-09-02T12:01:52Z</time>
      </trkpt>
      <trkpt lat="46.15626" lon="-1.15446">
        <ele>2.54</ele>
        <time>2016-09-02T12:02:22Z</time>
      </trkpt>
      <trkpt lat="46.15626" lon="-1.15446">
        <ele>2.06</ele>
        <time>2016-09-02T12:02:44Z</time>
      </trkpt>
      <trkpt lat="46.15626" lon="-1.15447">
        <ele>2.06</ele>
        <time>2016-09-02T12:03:11Z</time>
      </trkpt>
      <trkpt lat="46.15626" lon="-1.15448">
        <ele>2.06</ele>
        <time>2016-09-02T12:03:34Z</time>
      </trkpt>
      <trkpt lat="46.15626" lon="-1.15448">
        <ele>2.06</ele>
        <time>2016-09-02T12:03:56Z</time>
      </trkpt>
      <trkpt lat="46.15626" lon="-1.15447">
        <ele>2.06</ele>
        <time>2016-09-02T12:04:23Z</time>
      </trkpt>
      <trkpt lat="46.15626" lon="-1.15447">
        <ele>1.58</ele>
        <time>2016-09-02T12:04:47Z</time>
      </trkpt>
      <trkpt lat="46.15626" lon="-1.15446">
        <ele>2.06</ele>
        <time>2016-09-02T12:05:08Z</time>
      </trkpt>
      <trkpt lat="46.15626" lon="-1.15446">
        <ele>2.06</ele>
        <time>2016-09-02T12:05:34Z</time>
      </trkpt>
      <trkpt lat="46.15625" lon="-1.15446">
        <ele>1.58</ele>
        <time>2016-09-02T12:06:01Z</time>
      </trkpt>
      <trkpt lat="46.15625" lon="-1.15445">
        <ele>1.58</ele>
        <time>2016-09-02T12:06:27Z</time>
      </trkpt>
      <trkpt lat="46.15626" lon="-1.15445">
        <ele>1.58</ele>
        <time>2016-09-02T12:06:49Z</time>
      </trkpt>
      <trkpt lat="46.15626" lon="-1.15445">
        <ele>1.58</ele>
        <time>2016-09-02T12:07:12Z</time>
      </trkpt>
      <trkpt lat="46.15626" lon="-1.15445">
        <ele>0.62</ele>
        <time>2016-09-02T12:07:33Z</time>
      </trkpt>
      <trkpt lat="46.15626" lon="-1.15445">
        <ele>1.1</ele>
        <time>2016-09-02T12:07:51Z</time>
      </trkpt>
      <trkpt lat="46.15626" lon="-1.15445">
        <ele>1.58</ele>
        <time>2016-09-02T12:08:12Z</time>
      </trkpt>
      <trkpt lat="46.15626" lon="-1.15445">
        <ele>0.62</ele>
        <time>2016-09-02T12:08:29Z</time>
      </trkpt>
      <trkpt lat="46.15626" lon="-1.15445">
        <ele>0.14</ele>
        <time>2016-09-02T12:08:45Z</time>
      </trkpt>
      <trkpt lat="46.15626" lon="-1.15445">
        <ele>4.94</ele>
        <time>2016-09-02T12:08:47Z</time>
      </trkpt>
      <trkpt lat="46.15626" lon="-1.15445">
        <ele>0.62</ele>
        <time>2016-09-02T12:08:48Z</time>
      </trkpt>
      <trkpt lat="46.15626" lon="-1.15445">
        <ele>9.75</ele>
        <time>2016-09-02T12:08:50Z</time>
      </trkpt>
      <trkpt lat="46.15626" lon="-1.15445">
        <ele>1.58</ele>
        <time>2016-09-02T12:08:51Z</time>
      </trkpt>
      <trkpt lat="46.15626" lon="-1.15445">
        <ele>0.62</ele>
        <time>2016-09-02T12:08:53Z</time>
      </trkpt>
      <trkpt lat="46.15626" lon="-1.15444">
        <ele>-2.75</ele>
        <time>2016-09-02T12:09:05Z</time>
      </trkpt>
      <trkpt lat="46.15626" lon="-1.15444">
        <ele>2.06</ele>
        <time>2016-09-02T12:09:06Z</time>
      </trkpt>
      <trkpt lat="46.15626" lon="-1.15444">
        <ele>1.58</ele>
        <time>2016-09-02T12:09:21Z</time>
      </trkpt>
      <trkpt lat="46.15625" lon="-1.15444">
        <ele>5.42</ele>
        <time>2016-09-02T12:09:30Z</time>
      </trkpt>
      <trkpt lat="46.15625" lon="-1.15444">
        <ele>1.58</ele>
        <time>2016-09-02T12:09:31Z</time>
      </trkpt>
      <trkpt lat="46.15625" lon="-1.15444">
        <ele>1.1</ele>
        <time>2016-09-02T12:09:33Z</time>
      </trkpt>
      <trkpt lat="46.15625" lon="-1.15444">
        <ele>1.58</ele>
        <time>2016-09-02T12:09:46Z</time>
      </trkpt>
      <trkpt lat="46.15626" lon="-1.15444">
        <ele>1.1</ele>
        <time>2016-09-02T12:10:02Z</time>
      </trkpt>
      <trkpt lat="46.15625" lon="-1.15446">
        <ele>0.62</ele>
        <time>2016-09-02T12:10:21Z</time>
      </trkpt>
      <trkpt lat="46.15625" lon="-1.15446">
        <ele>4.46</ele>
        <time>2016-09-02T12:10:23Z</time>
      </trkpt>
      <trkpt lat="46.15625" lon="-1.15446">
        <ele>1.1</ele>
        <time>2016-09-02T12:10:25Z</time>
      </trkpt>
      <trkpt lat="46.15624" lon="-1.15446">
        <ele>1.58</ele>
        <time>2016-09-02T12:10:34Z</time>
      </trkpt>
      <trkpt lat="46.15624" lon="-1.15445">
        <ele>1.58</ele>
        <time>2016-09-02T12:10:42Z</time>
      </trkpt>
      <trkpt lat="46.15625" lon="-1.15438">
        <ele>1.58</ele>
        <time>2016-09-02T12:10:49Z</time>
      </trkpt>
      <trkpt lat="46.15628" lon="-1.15426">
        <ele>1.58</ele>
        <time>2016-09-02T12:11:01Z</time>
      </trkpt>
      <trkpt lat="46.1563" lon="-1.15423">
        <ele>0.14</ele>
        <time>2016-09-02T12:11:09Z</time>
      </trkpt>
      <trkpt lat="46.1564" lon="-1.15416">
        <ele>2.06</ele>
        <time>2016-09-02T12:11:19Z</time>
      </trkpt>
      <trkpt lat="46.15651" lon="-1.15409">
        <ele>2.06</ele>
        <time>2016-09-02T12:11:29Z</time>
      </trkpt>
      <trkpt lat="46.15663" lon="-1.15404">
        <ele>2.06</ele>
        <time>2016-09-02T12:11:40Z</time>
      </trkpt>
      <trkpt lat="46.15667" lon="-1.15403">
        <ele>2.06</ele>
        <time>2016-09-02T12:11:44Z</time>
      </trkpt>
      <trkpt lat="46.15672" lon="-1.15399">
        <ele>2.06</ele>
        <time>2016-09-02T12:11:50Z</time>
      </trkpt>
      <trkpt lat="46.15678" lon="-1.15394">
        <ele>1.1</ele>
        <time>2016-09-02T12:11:59Z</time>
      </trkpt>
      <trkpt lat="46.15679" lon="-1.15391">
        <ele>1.58</ele>
        <time>2016-09-02T12:12:14Z</time>
      </trkpt>
      <trkpt lat="46.1568" lon="-1.1539">
        <ele>1.58</ele>
        <time>2016-09-02T12:12:37Z</time>
      </trkpt>
      <trkpt lat="46.15679" lon="-1.15389">
        <ele>1.58</ele>
        <time>2016-09-02T12:13:02Z</time>
      </trkpt>
      <trkpt lat="46.15679" lon="-1.1539">
        <ele>0.14</ele>
        <time>2016-09-02T12:13:23Z</time>
      </trkpt>
      <trkpt lat="46.1568" lon="-1.15388">
        <ele>2.54</ele>
        <time>2016-09-02T12:13:27Z</time>
      </trkpt>
      <trkpt lat="46.1568" lon="-1.15389">
        <ele>2.54</ele>
        <time>2016-09-02T12:13:36Z</time>
      </trkpt>
      <trkpt lat="46.1568" lon="-1.15389">
        <ele>2.54</ele>
        <time>2016-09-02T12:13:45Z</time>
      </trkpt>
      <trkpt lat="46.15681" lon="-1.15389">
        <ele>3.02</ele>
        <time>2016-09-02T12:13:53Z</time>
      </trkpt>
      <trkpt lat="46.15681" lon="-1.1539">
        <ele>3.02</ele>
        <time>2016-09-02T12:14:09Z</time>
      </trkpt>
      <trkpt lat="46.15681" lon="-1.1539">
        <ele>3.02</ele>
        <time>2016-09-02T12:14:10Z</time>
      </trkpt>
      <trkpt lat="46.15681" lon="-1.15385">
        <ele>3.5</ele>
        <time>2016-09-02T12:14:13Z</time>
      </trkpt>
      <trkpt lat="46.15701" lon="-1.15369">
        <ele>3.5</ele>
        <time>2016-09-02T12:14:22Z</time>
      </trkpt>
      <trkpt lat="46.15729" lon="-1.15347">
        <ele>3.98</ele>
        <time>2016-09-02T12:14:32Z</time>
      </trkpt>
      <trkpt lat="46.15771" lon="-1.15319">
        <ele>3.98</ele>
        <time>2016-09-02T12:14:45Z</time>
      </trkpt>
      <trkpt lat="46.15803" lon="-1.1529">
        <ele>3.5</ele>
        <time>2016-09-02T12:14:56Z</time>
      </trkpt>
      <trkpt lat="46.1581" lon="-1.15251">
        <ele>3.5</ele>
        <time>2016-09-02T12:15:04Z</time>
      </trkpt>
      <trkpt lat="46.15815" lon="-1.15218">
        <ele>3.5</ele>
        <time>2016-09-02T12:15:11Z</time>
      </trkpt>
      <trkpt lat="46.15816" lon="-1.15148">
        <ele>3.02</ele>
        <time>2016-09-02T12:15:25Z</time>
      </trkpt>
      <trkpt lat="46.15812" lon="-1.15086">
        <ele>3.5</ele>
        <time>2016-09-02T12:15:38Z</time>
      </trkpt>
      <trkpt lat="46.15787" lon="-1.15073">
        <ele>3.02</ele>
        <time>2016-09-02T12:15:46Z</time>
      </trkpt>
      <trkpt lat="46.15748" lon="-1.15104">
        <ele>3.5</ele>
        <time>2016-09-02T12:15:59Z</time>
      </trkpt>
      <trkpt lat="46.15718" lon="-1.15127">
        <ele>3.5</ele>
        <time>2016-09-02T12:16:10Z</time>
      </trkpt>
      <trkpt lat="46.15696" lon="-1.15142">
        <ele>2.54</ele>
        <time>2016-09-02T12:16:21Z</time>
      </trkpt>
      <trkpt lat="46.15697" lon="-1.15142">
        <ele>2.54</ele>
        <time>2016-09-02T12:16:33Z</time>
      </trkpt>
      <trkpt lat="46.15696" lon="-1.15142">
        <ele>2.06</ele>
        <time>2016-09-02T12:16:51Z</time>
      </trkpt>
      <trkpt lat="46.15696" lon="-1.15143">
        <ele>2.54</ele>
        <time>2016-09-02T12:17:07Z</time>
      </trkpt>
      <trkpt lat="46.1569" lon="-1.15149">
        <ele>3.02</ele>
        <time>2016-09-02T12:17:12Z</time>
      </trkpt>
      <trkpt lat="46.15684" lon="-1.15157">
        <ele>3.02</ele>
        <time>2016-09-02T12:17:16Z</time>
      </trkpt>
      <trkpt lat="46.1568" lon="-1.15179">
        <ele>2.06</ele>
        <time>2016-09-02T12:17:24Z</time>
      </trkpt>
      <trkpt lat="46.15676" lon="-1.15184">
        <ele>2.06</ele>
        <time>2016-09-02T12:17:32Z</time>
      </trkpt>
      <trkpt lat="46.15676" lon="-1.15185">
        <ele>2.06</ele>
        <time>2016-09-02T12:17:53Z</time>
      </trkpt>
      <trkpt lat="46.15675" lon="-1.15186">
        <ele>2.54</ele>
        <time>2016-09-02T12:18:05Z</time>
      </trkpt>
      <trkpt lat="46.15669" lon="-1.15187">
        <ele>2.54</ele>
        <time>2016-09-02T12:18:09Z</time>
      </trkpt>
      <trkpt lat="46.1566" lon="-1.15185">
        <ele>2.54</ele>
        <time>2016-09-02T12:18:14Z</time>
      </trkpt>
      <trkpt lat="46.15652" lon="-1.15182">
        <ele>2.06</ele>
        <time>2016-09-02T12:18:22Z</time>
      </trkpt>
      <trkpt lat="46.15638" lon="-1.15181">
        <ele>2.06</ele>
        <time>2016-09-02T12:18:35Z</time>
      </trkpt>
      <trkpt lat="46.1563" lon="-1.15182">
        <ele>2.06</ele>
        <time>2016-09-02T12:18:45Z</time>
      </trkpt>
      <trkpt lat="46.15628" lon="-1.15186">
        <ele>2.54</ele>
        <time>2016-09-02T12:18:47Z</time>
      </trkpt>
      <trkpt lat="46.15622" lon="-1.15227">
        <ele>2.06</ele>
        <time>2016-09-02T12:18:59Z</time>
      </trkpt>
      <trkpt lat="46.15615" lon="-1.15241">
        <ele>1.58</ele>
        <time>2016-09-02T12:19:09Z</time>
      </trkpt>
      <trkpt lat="46.15614" lon="-1.15241">
        <ele>1.58</ele>
        <time>2016-09-02T12:19:30Z</time>
      </trkpt>
      <trkpt lat="46.15605" lon="-1.1525">
        <ele>2.06</ele>
        <time>2016-09-02T12:19:37Z</time>
      </trkpt>
      <trkpt lat="46.15583" lon="-1.1527">
        <ele>2.54</ele>
        <time>2016-09-02T12:19:48Z</time>
      </trkpt>
      <trkpt lat="46.15566" lon="-1.15283">
        <ele>2.54</ele>
        <time>2016-09-02T12:19:57Z</time>
      </trkpt>
      <trkpt lat="46.15565" lon="-1.15285">
        <ele>2.54</ele>
        <time>2016-09-02T12:19:58Z</time>
      </trkpt>
      <trkpt lat="46.15562" lon="-1.15289">
        <ele>3.02</ele>
        <time>2016-09-02T12:20:00Z</time>
      </trkpt>
      <trkpt lat="46.15551" lon="-1.15311">
        <ele>2.54</ele>
        <time>2016-09-02T12:20:11Z</time>
      </trkpt>
      <trkpt lat="46.15549" lon="-1.15311">
        <ele>2.54</ele>
        <time>2016-09-02T12:20:22Z</time>
      </trkpt>
      <trkpt lat="46.15549" lon="-1.1531">
        <ele>2.54</ele>
        <time>2016-09-02T12:20:41Z</time>
      </trkpt>
      <trkpt lat="46.15549" lon="-1.1531">
        <ele>2.54</ele>
        <time>2016-09-02T12:20:43Z</time>
      </trkpt>
      <trkpt lat="46.15545" lon="-1.15302">
        <ele>3.02</ele>
        <time>2016-09-02T12:20:53Z</time>
      </trkpt>
      <trkpt lat="46.15545" lon="-1.15299">
        <ele>2.54</ele>
        <time>2016-09-02T12:21:09Z</time>
      </trkpt>
      <trkpt lat="46.15545" lon="-1.15297">
        <ele>2.54</ele>
        <time>2016-09-02T12:21:17Z</time>
      </trkpt>
      <trkpt lat="46.15544" lon="-1.15295">
        <ele>2.54</ele>
        <time>2016-09-02T12:21:40Z</time>
      </trkpt>
      <trkpt lat="46.15545" lon="-1.15294">
        <ele>2.54</ele>
        <time>2016-09-02T12:21:57Z</time>
      </trkpt>
      <trkpt lat="46.15545" lon="-1.15293">
        <ele>2.54</ele>
        <time>2016-09-02T12:22:20Z</time>
      </trkpt>
      <trkpt lat="46.15544" lon="-1.15294">
        <ele>3.5</ele>
        <time>2016-09-02T12:22:39Z</time>
      </trkpt>
      <trkpt lat="46.15543" lon="-1.15297">
        <ele>3.02</ele>
        <time>2016-09-02T12:22:42Z</time>
      </trkpt>
      <trkpt lat="46.15541" lon="-1.15299">
        <ele>2.06</ele>
        <time>2016-09-02T12:22:51Z</time>
      </trkpt>
      <trkpt lat="46.15538" lon="-1.15302">
        <ele>2.06</ele>
        <time>2016-09-02T12:23:00Z</time>
      </trkpt>
      <trkpt lat="46.15529" lon="-1.15306">
        <ele>2.54</ele>
        <time>2016-09-02T12:23:09Z</time>
      </trkpt>
      <trkpt lat="46.15522" lon="-1.15312">
        <ele>2.54</ele>
        <time>2016-09-02T12:23:21Z</time>
      </trkpt>
      <trkpt lat="46.15519" lon="-1.15318">
        <ele>2.54</ele>
        <time>2016-09-02T12:23:35Z</time>
      </trkpt>
      <trkpt lat="46.15516" lon="-1.15322">
        <ele>2.06</ele>
        <time>2016-09-02T12:23:38Z</time>
      </trkpt>
      <trkpt lat="46.15511" lon="-1.1533">
        <ele>1.58</ele>
        <time>2016-09-02T12:23:50Z</time>
      </trkpt>
      <trkpt lat="46.1551" lon="-1.1533">
        <ele>2.06</ele>
        <time>2016-09-02T12:24:13Z</time>
      </trkpt>
      <trkpt lat="46.15509" lon="-1.15331">
        <ele>1.58</ele>
        <time>2016-09-02T12:24:34Z</time>
      </trkpt>
      <trkpt lat="46.15509" lon="-1.1533">
        <ele>1.58</ele>
        <time>2016-09-02T12:24:44Z</time>
      </trkpt>
      <trkpt lat="46.15513" lon="-1.15323">
        <ele>2.54</ele>
        <time>2016-09-02T12:24:53Z</time>
      </trkpt>
      <trkpt lat="46.15518" lon="-1.15325">
        <ele>2.06</ele>
        <time>2016-09-02T12:25:03Z</time>
      </trkpt>
      <trkpt lat="46.15521" lon="-1.15325">
        <ele>2.06</ele>
        <time>2016-09-02T12:25:23Z</time>
      </trkpt>
      <trkpt lat="46.15522" lon="-1.15321">
        <ele>1.58</ele>
        <time>2016-09-02T12:25:39Z</time>
      </trkpt>
      <trkpt lat="46.15528" lon="-1.15318">
        <ele>2.06</ele>
        <time>2016-09-02T12:25:50Z</time>
      </trkpt>
      <trkpt lat="46.15529" lon="-1.15318">
        <ele>2.06</ele>
        <time>2016-09-02T12:26:09Z</time>
      </trkpt>
      <trkpt lat="46.1553" lon="-1.15317">
        <ele>2.06</ele>
        <time>2016-09-02T12:26:27Z</time>
      </trkpt>
      <trkpt lat="46.15531" lon="-1.15317">
        <ele>2.06</ele>
        <time>2016-09-02T12:26:41Z</time>
      </trkpt>
      <trkpt lat="46.15535" lon="-1.15312">
        <ele>2.06</ele>
        <time>2016-09-02T12:26:54Z</time>
      </trkpt>
      <trkpt lat="46.15536" lon="-1.15311">
        <ele>2.06</ele>
        <time>2016-09-02T12:27:07Z</time>
      </trkpt>
      <trkpt lat="46.15536" lon="-1.15311">
        <ele>2.54</ele>
        <time>2016-09-02T12:27:26Z</time>
      </trkpt>
      <trkpt lat="46.15537" lon="-1.1531">
        <ele>2.06</ele>
        <time>2016-09-02T12:27:50Z</time>
      </trkpt>
      <trkpt lat="46.15537" lon="-1.15311">
        <ele>2.06</ele>
        <time>2016-09-02T12:28:12Z</time>
      </trkpt>
      <trkpt lat="46.15537" lon="-1.15311">
        <ele>2.06</ele>
        <time>2016-09-02T12:28:32Z</time>
      </trkpt>
      <trkpt lat="46.15538" lon="-1.15312">
        <ele>1.58</ele>
        <time>2016-09-02T12:28:59Z</time>
      </trkpt>
      <trkpt lat="46.15538" lon="-1.15312">
        <ele>2.06</ele>
        <time>2016-09-02T12:29:19Z</time>
      </trkpt>
      <trkpt lat="46.15538" lon="-1.15311">
        <ele>2.06</ele>
        <time>2016-09-02T12:29:37Z</time>
      </trkpt>
      <trkpt lat="46.15538" lon="-1.15311">
        <ele>1.58</ele>
        <time>2016-09-02T12:30:04Z</time>
      </trkpt>
      <trkpt lat="46.15539" lon="-1.15312">
        <ele>1.58</ele>
        <time>2016-09-02T12:30:25Z</time>
      </trkpt>
      <trkpt lat="46.15539" lon="-1.15312">
        <ele>1.58</ele>
        <time>2016-09-02T12:30:39Z</time>
      </trkpt>
      <trkpt lat="46.1554" lon="-1.15303">
        <ele>2.54</ele>
        <time>2016-09-02T12:30:52Z</time>
      </trkpt>
      <trkpt lat="46.1554" lon="-1.15301">
        <ele>2.06</ele>
        <time>2016-09-02T12:31:10Z</time>
      </trkpt>
      <trkpt lat="46.1554" lon="-1.15294">
        <ele>2.06</ele>
        <time>2016-09-02T12:31:20Z</time>
      </trkpt>
      <trkpt lat="46.1554" lon="-1.15292">
        <ele>2.06</ele>
        <time>2016-09-02T12:31:31Z</time>
      </trkpt>
      <trkpt lat="46.1554" lon="-1.15292">
        <ele>1.58</ele>
        <time>2016-09-02T12:31:33Z</time>
      </trkpt>
      <trkpt lat="46.15535" lon="-1.15289">
        <ele>2.06</ele>
        <time>2016-09-02T12:31:37Z</time>
      </trkpt>
      <trkpt lat="46.1551" lon="-1.15274">
        <ele>1.58</ele>
        <time>2016-09-02T12:31:47Z</time>
      </trkpt>
      <trkpt lat="46.15489" lon="-1.15264">
        <ele>2.06</ele>
        <time>2016-09-02T12:31:57Z</time>
      </trkpt>
      <trkpt lat="46.15486" lon="-1.15259">
        <ele>2.06</ele>
        <time>2016-09-02T12:31:59Z</time>
      </trkpt>
      <trkpt lat="46.15466" lon="-1.15267">
        <ele>3.5</ele>
        <time>2016-09-02T12:32:07Z</time>
      </trkpt>
      <trkpt lat="46.15436" lon="-1.15263">
        <ele>3.02</ele>
        <time>2016-09-02T12:32:16Z</time>
      </trkpt>
      <trkpt lat="46.15391" lon="-1.15253">
        <ele>2.54</ele>
        <time>2016-09-02T12:32:28Z</time>
      </trkpt>
      <trkpt lat="46.15352" lon="-1.15245">
        <ele>2.54</ele>
        <time>2016-09-02T12:32:38Z</time>
      </trkpt>
      <trkpt lat="46.15309" lon="-1.15246">
        <ele>3.02</ele>
        <time>2016-09-02T12:32:49Z</time>
      </trkpt>
      <trkpt lat="46.15256" lon="-1.15247">
        <ele>3.5</ele>
        <time>2016-09-02T12:33:03Z</time>
      </trkpt>
      <trkpt lat="46.15245" lon="-1.15246">
        <ele>3.02</ele>
        <time>2016-09-02T12:33:06Z</time>
      </trkpt>
      <trkpt lat="46.15241" lon="-1.15245">
        <ele>3.02</ele>
        <time>2016-09-02T12:33:07Z</time>
      </trkpt>
      <trkpt lat="46.15237" lon="-1.15245">
        <ele>3.5</ele>
        <time>2016-09-02T12:33:08Z</time>
      </trkpt>
      <trkpt lat="46.15183" lon="-1.15244">
        <ele>3.5</ele>
        <time>2016-09-02T12:33:22Z</time>
      </trkpt>
      <trkpt lat="46.15143" lon="-1.15244">
        <ele>3.5</ele>
        <time>2016-09-02T12:33:33Z</time>
      </trkpt>
      <trkpt lat="46.15086" lon="-1.15241">
        <ele>3.02</ele>
        <time>2016-09-02T12:33:48Z</time>
      </trkpt>
      <trkpt lat="46.15038" lon="-1.15244">
        <ele>3.5</ele>
        <time>2016-09-02T12:34:00Z</time>
      </trkpt>
      <trkpt lat="46.14979" lon="-1.15248">
        <ele>3.5</ele>
        <time>2016-09-02T12:34:14Z</time>
      </trkpt>
      <trkpt lat="46.14946" lon="-1.15248">
        <ele>3.02</ele>
        <time>2016-09-02T12:34:22Z</time>
      </trkpt>
      <trkpt lat="46.14908" lon="-1.15243">
        <ele>3.02</ele>
        <time>2016-09-02T12:34:33Z</time>
      </trkpt>
      <trkpt lat="46.14893" lon="-1.15225">
        <ele>3.5</ele>
        <time>2016-09-02T12:34:42Z</time>
      </trkpt>
      <trkpt lat="46.14898" lon="-1.15181">
        <ele>2.54</ele>
        <time>2016-09-02T12:34:52Z</time>
      </trkpt>
      <trkpt lat="46.14896" lon="-1.15132">
        <ele>3.02</ele>
        <time>2016-09-02T12:35:01Z</time>
      </trkpt>
      <trkpt lat="46.14905" lon="-1.15098">
        <ele>3.02</ele>
        <time>2016-09-02T12:35:10Z</time>
      </trkpt>
      <trkpt lat="46.14929" lon="-1.15077">
        <ele>2.54</ele>
        <time>2016-09-02T12:35:21Z</time>
      </trkpt>
      <trkpt lat="46.14947" lon="-1.15072">
        <ele>2.54</ele>
        <time>2016-09-02T12:35:31Z</time>
      </trkpt>
      <trkpt lat="46.14947" lon="-1.15071">
        <ele>2.54</ele>
        <time>2016-09-02T12:35:37Z</time>
      </trkpt>
      <trkpt lat="46.14948" lon="-1.15072">
        <ele>3.02</ele>
        <time>2016-09-02T12:35:49Z</time>
      </trkpt>
      <trkpt lat="46.14948" lon="-1.15073">
        <ele>2.54</ele>
        <time>2016-09-02T12:36:04Z</time>
      </trkpt>
      <trkpt lat="46.14948" lon="-1.15072">
        <ele>2.54</ele>
        <time>2016-09-02T12:36:17Z</time>
      </trkpt>
      <trkpt lat="46.14947" lon="-1.15071">
        <ele>2.54</ele>
        <time>2016-09-02T12:36:27Z</time>
      </trkpt>
      <trkpt lat="46.14948" lon="-1.1507">
        <ele>2.54</ele>
        <time>2016-09-02T12:36:37Z</time>
      </trkpt>
      <trkpt lat="46.14948" lon="-1.1507">
        <ele>2.54</ele>
        <time>2016-09-02T12:36:48Z</time>
      </trkpt>
      <trkpt lat="46.1495" lon="-1.15066">
        <ele>2.54</ele>
        <time>2016-09-02T12:36:56Z</time>
      </trkpt>
      <trkpt lat="46.1495" lon="-1.15066">
        <ele>2.54</ele>
        <time>2016-09-02T12:37:07Z</time>
      </trkpt>
      <trkpt lat="46.14951" lon="-1.15066">
        <ele>2.06</ele>
        <time>2016-09-02T12:37:16Z</time>
      </trkpt>
      <trkpt lat="46.14952" lon="-1.15067">
        <ele>3.5</ele>
        <time>2016-09-02T12:37:18Z</time>
      </trkpt>
      <trkpt lat="46.14952" lon="-1.15069">
        <ele>3.02</ele>
        <time>2016-09-02T12:37:19Z</time>
      </trkpt>
      <trkpt lat="46.14952" lon="-1.15071">
        <ele>3.02</ele>
        <time>2016-09-02T12:37:20Z</time>
      </trkpt>
      <trkpt lat="46.14952" lon="-1.15073">
        <ele>3.5</ele>
        <time>2016-09-02T12:37:21Z</time>
      </trkpt>
      <trkpt lat="46.14953" lon="-1.15075">
        <ele>3.02</ele>
        <time>2016-09-02T12:37:22Z</time>
      </trkpt>
      <trkpt lat="46.14948" lon="-1.15098">
        <ele>2.54</ele>
        <time>2016-09-02T12:37:34Z</time>
      </trkpt>
      <trkpt lat="46.1494" lon="-1.15104">
        <ele>2.54</ele>
        <time>2016-09-02T12:37:42Z</time>
      </trkpt>
      <trkpt lat="46.14938" lon="-1.15104">
        <ele>2.54</ele>
        <time>2016-09-02T12:37:43Z</time>
      </trkpt>
      <trkpt lat="46.14937" lon="-1.15105">
        <ele>2.06</ele>
        <time>2016-09-02T12:37:44Z</time>
      </trkpt>
      <trkpt lat="46.14936" lon="-1.15105">
        <ele>3.02</ele>
        <time>2016-09-02T12:37:45Z</time>
      </trkpt>
      <trkpt lat="46.14934" lon="-1.15106">
        <ele>2.54</ele>
        <time>2016-09-02T12:37:46Z</time>
      </trkpt>
      <trkpt lat="46.14917" lon="-1.15114">
        <ele>3.02</ele>
        <time>2016-09-02T12:38:01Z</time>
      </trkpt>
      <trkpt lat="46.14904" lon="-1.15127">
        <ele>3.02</ele>
        <time>2016-09-02T12:38:12Z</time>
      </trkpt>
      <trkpt lat="46.14901" lon="-1.15142">
        <ele>3.02</ele>
        <time>2016-09-02T12:38:21Z</time>
      </trkpt>
      <trkpt lat="46.14901" lon="-1.15144">
        <ele>3.02</ele>
        <time>2016-09-02T12:38:22Z</time>
      </trkpt>
      <trkpt lat="46.14901" lon="-1.15145">
        <ele>3.02</ele>
        <time>2016-09-02T12:38:23Z</time>
      </trkpt>
      <trkpt lat="46.14901" lon="-1.15147">
        <ele>2.54</ele>
        <time>2016-09-02T12:38:24Z</time>
      </trkpt>
      <trkpt lat="46.14901" lon="-1.15149">
        <ele>3.02</ele>
        <time>2016-09-02T12:38:25Z</time>
      </trkpt>
      <trkpt lat="46.14901" lon="-1.15151">
        <ele>2.54</ele>
        <time>2016-09-02T12:38:26Z</time>
      </trkpt>
      <trkpt lat="46.14901" lon="-1.15153">
        <ele>2.54</ele>
        <time>2016-09-02T12:38:27Z</time>
      </trkpt>
      <trkpt lat="46.14901" lon="-1.15155">
        <ele>3.02</ele>
        <time>2016-09-02T12:38:28Z</time>
      </trkpt>
      <trkpt lat="46.14901" lon="-1.15157">
        <ele>2.54</ele>
        <time>2016-09-02T12:38:29Z</time>
      </trkpt>
      <trkpt lat="46.14901" lon="-1.15159">
        <ele>3.02</ele>
        <time>2016-09-02T12:38:30Z</time>
      </trkpt>
      <trkpt lat="46.14898" lon="-1.15177">
        <ele>3.02</ele>
        <time>2016-09-02T12:38:41Z</time>
      </trkpt>
      <trkpt lat="46.149" lon="-1.15196">
        <ele>2.54</ele>
        <time>2016-09-02T12:38:52Z</time>
      </trkpt>
      <trkpt lat="46.1491" lon="-1.15216">
        <ele>2.06</ele>
        <time>2016-09-02T12:39:04Z</time>
      </trkpt>
      <trkpt lat="46.1492" lon="-1.15235">
        <ele>3.02</ele>
        <time>2016-09-02T12:39:16Z</time>
      </trkpt>
      <trkpt lat="46.14924" lon="-1.15238">
        <ele>3.02</ele>
        <time>2016-09-02T12:39:21Z</time>
      </trkpt>
      <trkpt lat="46.14931" lon="-1.15238">
        <ele>3.5</ele>
        <time>2016-09-02T12:39:24Z</time>
      </trkpt>
      <trkpt lat="46.14933" lon="-1.15239">
        <ele>3.02</ele>
        <time>2016-09-02T12:39:25Z</time>
      </trkpt>
      <trkpt lat="46.14955" lon="-1.15242">
        <ele>3.98</ele>
        <time>2016-09-02T12:39:35Z</time>
      </trkpt>
      <trkpt lat="46.15002" lon="-1.15245">
        <ele>3.02</ele>
        <time>2016-09-02T12:39:49Z</time>
      </trkpt>
      <trkpt lat="46.15051" lon="-1.15243">
        <ele>3.02</ele>
        <time>2016-09-02T12:40:03Z</time>
      </trkpt>
      <trkpt lat="46.15096" lon="-1.15246">
        <ele>3.98</ele>
        <time>2016-09-02T12:40:17Z</time>
      </trkpt>
      <trkpt lat="46.15134" lon="-1.15252">
        <ele>3.02</ele>
        <time>2016-09-02T12:40:30Z</time>
      </trkpt>
      <trkpt lat="46.15151" lon="-1.15247">
        <ele>3.5</ele>
        <time>2016-09-02T12:40:39Z</time>
      </trkpt>
      <trkpt lat="46.15175" lon="-1.15242">
        <ele>3.02</ele>
        <time>2016-09-02T12:40:49Z</time>
      </trkpt>
      <trkpt lat="46.15211" lon="-1.15244">
        <ele>3.02</ele>
        <time>2016-09-02T12:41:02Z</time>
      </trkpt>
      <trkpt lat="46.15213" lon="-1.15245">
        <ele>3.02</ele>
        <time>2016-09-02T12:41:03Z</time>
      </trkpt>
      <trkpt lat="46.15218" lon="-1.15249">
        <ele>3.5</ele>
        <time>2016-09-02T12:41:05Z</time>
      </trkpt>
      <trkpt lat="46.15249" lon="-1.15251">
        <ele>3.02</ele>
        <time>2016-09-02T12:41:17Z</time>
      </trkpt>
      <trkpt lat="46.15279" lon="-1.15249">
        <ele>3.02</ele>
        <time>2016-09-02T12:41:29Z</time>
      </trkpt>
      <trkpt lat="46.15304" lon="-1.15249">
        <ele>3.02</ele>
        <time>2016-09-02T12:41:42Z</time>
      </trkpt>
      <trkpt lat="46.15307" lon="-1.15249">
        <ele>3.02</ele>
        <time>2016-09-02T12:41:50Z</time>
      </trkpt>
      <trkpt lat="46.15308" lon="-1.15249">
        <ele>2.54</ele>
        <time>2016-09-02T12:41:51Z</time>
      </trkpt>
      <trkpt lat="46.15319" lon="-1.15251">
        <ele>2.54</ele>
        <time>2016-09-02T12:42:03Z</time>
      </trkpt>
      <trkpt lat="46.15319" lon="-1.15251">
        <ele>3.02</ele>
        <time>2016-09-02T12:42:04Z</time>
      </trkpt>
      <trkpt lat="46.15318" lon="-1.15251">
        <ele>3.02</ele>
        <time>2016-09-02T12:42:05Z</time>
      </trkpt>
      <trkpt lat="46.15317" lon="-1.15251">
        <ele>3.02</ele>
        <time>2016-09-02T12:42:06Z</time>
      </trkpt>
      <trkpt lat="46.15315" lon="-1.15251">
        <ele>3.02</ele>
        <time>2016-09-02T12:42:07Z</time>
      </trkpt>
      <trkpt lat="46.15314" lon="-1.15251">
        <ele>3.5</ele>
        <time>2016-09-02T12:42:08Z</time>
      </trkpt>
      <trkpt lat="46.15313" lon="-1.1525">
        <ele>3.02</ele>
        <time>2016-09-02T12:42:09Z</time>
      </trkpt>
      <trkpt lat="46.15311" lon="-1.1525">
        <ele>3.02</ele>
        <time>2016-09-02T12:42:10Z</time>
      </trkpt>
      <trkpt lat="46.15309" lon="-1.15249">
        <ele>2.54</ele>
        <time>2016-09-02T12:42:11Z</time>
      </trkpt>
      <trkpt lat="46.15308" lon="-1.15249">
        <ele>3.02</ele>
        <time>2016-09-02T12:42:12Z</time>
      </trkpt>
      <trkpt lat="46.15307" lon="-1.15248">
        <ele>2.54</ele>
        <time>2016-09-02T12:42:13Z</time>
      </trkpt>
      <trkpt lat="46.15302" lon="-1.15247">
        <ele>3.02</ele>
        <time>2016-09-02T12:42:20Z</time>
      </trkpt>
      <trkpt lat="46.15302" lon="-1.15247">
        <ele>3.02</ele>
        <time>2016-09-02T12:42:34Z</time>
      </trkpt>
      <trkpt lat="46.15302" lon="-1.15246">
        <ele>3.02</ele>
        <time>2016-09-02T12:42:55Z</time>
      </trkpt>
      <trkpt lat="46.15302" lon="-1.15246">
        <ele>3.02</ele>
        <time>2016-09-02T12:43:13Z</time>
      </trkpt>
      <trkpt lat="46.15304" lon="-1.15246">
        <ele>3.02</ele>
        <time>2016-09-02T12:43:33Z</time>
      </trkpt>
      <trkpt lat="46.15305" lon="-1.15241">
        <ele>3.02</ele>
        <time>2016-09-02T12:43:46Z</time>
      </trkpt>
      <trkpt lat="46.15307" lon="-1.15244">
        <ele>3.5</ele>
        <time>2016-09-02T12:44:01Z</time>
      </trkpt>
      <trkpt lat="46.15308" lon="-1.15245">
        <ele>3.02</ele>
        <time>2016-09-02T12:44:02Z</time>
      </trkpt>
      <trkpt lat="46.15312" lon="-1.15256">
        <ele>3.5</ele>
        <time>2016-09-02T12:44:18Z</time>
      </trkpt>
      <trkpt lat="46.15313" lon="-1.15262">
        <ele>3.5</ele>
        <time>2016-09-02T12:44:30Z</time>
      </trkpt>
      <trkpt lat="46.15318" lon="-1.15252">
        <ele>3.5</ele>
        <time>2016-09-02T12:44:46Z</time>
      </trkpt>
      <trkpt lat="46.15311" lon="-1.15243">
        <ele>3.5</ele>
        <time>2016-09-02T12:44:59Z</time>
      </trkpt>
      <trkpt lat="46.15338" lon="-1.15253">
        <ele>3.5</ele>
        <time>2016-09-02T12:45:18Z</time>
      </trkpt>
      <trkpt lat="46.15311" lon="-1.15243">
        <ele>3.5</ele>
        <time>2016-09-02T12:45:35Z</time>
      </trkpt>
      <trkpt lat="46.15329" lon="-1.15243">
        <ele>3.5</ele>
        <time>2016-09-02T12:45:48Z</time>
      </trkpt>
      <trkpt lat="46.15321" lon="-1.15242">
        <ele>3.02</ele>
        <time>2016-09-02T12:46:04Z</time>
      </trkpt>
      <trkpt lat="46.15315" lon="-1.15235">
        <ele>3.02</ele>
        <time>2016-09-02T12:46:20Z</time>
      </trkpt>
      <trkpt lat="46.15302" lon="-1.15236">
        <ele>3.5</ele>
        <time>2016-09-02T12:46:33Z</time>
      </trkpt>
      <trkpt lat="46.15301" lon="-1.15243">
        <ele>3.02</ele>
        <time>2016-09-02T12:46:42Z</time>
      </trkpt>
      <trkpt lat="46.15305" lon="-1.15251">
        <ele>3.02</ele>
        <time>2016-09-02T12:46:57Z</time>
      </trkpt>
      <trkpt lat="46.15306" lon="-1.15252">
        <ele>3.02</ele>
        <time>2016-09-02T12:47:13Z</time>
      </trkpt>
      <trkpt lat="46.15306" lon="-1.15251">
        <ele>2.06</ele>
        <time>2016-09-02T12:47:21Z</time>
      </trkpt>
      <trkpt lat="46.15306" lon="-1.15252">
        <ele>3.5</ele>
        <time>2016-09-02T12:47:27Z</time>
      </trkpt>
      <trkpt lat="46.15306" lon="-1.15249">
        <ele>0.14</ele>
        <time>2016-09-02T12:47:29Z</time>
      </trkpt>
      <trkpt lat="46.15306" lon="-1.15249">
        <ele>3.5</ele>
        <time>2016-09-02T12:47:35Z</time>
      </trkpt>
      <trkpt lat="46.15306" lon="-1.1525">
        <ele>-4.19</ele>
        <time>2016-09-02T12:47:41Z</time>
      </trkpt>
      <trkpt lat="46.15306" lon="-1.1525">
        <ele>3.02</ele>
        <time>2016-09-02T12:47:42Z</time>
      </trkpt>
      <trkpt lat="46.15307" lon="-1.1525">
        <ele>2.54</ele>
        <time>2016-09-02T12:47:59Z</time>
      </trkpt>
      <trkpt lat="46.15308" lon="-1.15252">
        <ele>2.06</ele>
        <time>2016-09-02T12:48:23Z</time>
      </trkpt>
      <trkpt lat="46.15308" lon="-1.15254">
        <ele>2.54</ele>
        <time>2016-09-02T12:48:43Z</time>
      </trkpt>
      <trkpt lat="46.15309" lon="-1.15255">
        <ele>2.54</ele>
        <time>2016-09-02T12:49:07Z</time>
      </trkpt>
      <trkpt lat="46.15309" lon="-1.15256">
        <ele>2.54</ele>
        <time>2016-09-02T12:49:34Z</time>
      </trkpt>
      <trkpt lat="46.15309" lon="-1.15256">
        <ele>2.54</ele>
        <time>2016-09-02T12:50:03Z</time>
      </trkpt>
      <trkpt lat="46.15309" lon="-1.15253">
        <ele>2.54</ele>
        <time>2016-09-02T12:50:30Z</time>
      </trkpt>
      <trkpt lat="46.15309" lon="-1.15252">
        <ele>2.54</ele>
        <time>2016-09-02T12:50:57Z</time>
      </trkpt>
      <trkpt lat="46.15309" lon="-1.15252">
        <ele>2.54</ele>
        <time>2016-09-02T12:51:20Z</time>
      </trkpt>
      <trkpt lat="46.15309" lon="-1.15252">
        <ele>3.02</ele>
        <time>2016-09-02T12:51:48Z</time>
      </trkpt>
      <trkpt lat="46.15309" lon="-1.15252">
        <ele>3.02</ele>
        <time>2016-09-02T12:52:08Z</time>
      </trkpt>
      <trkpt lat="46.15309" lon="-1.15252">
        <ele>3.5</ele>
        <time>2016-09-02T12:52:19Z</time>
      </trkpt>
      <trkpt lat="46.15308" lon="-1.15251">
        <ele>3.5</ele>
        <time>2016-09-02T12:52:29Z</time>
      </trkpt>
      <trkpt lat="46.15308" lon="-1.1525">
        <ele>3.98</ele>
        <time>2016-09-02T12:52:36Z</time>
      </trkpt>
      <trkpt lat="46.15305" lon="-1.15242">
        <ele>3.98</ele>
        <time>2016-09-02T12:52:42Z</time>
      </trkpt>
      <trkpt lat="46.15304" lon="-1.1524">
        <ele>3.5</ele>
        <time>2016-09-02T12:52:43Z</time>
      </trkpt>
      <trkpt lat="46.15303" lon="-1.15239">
        <ele>3.98</ele>
        <time>2016-09-02T12:52:44Z</time>
      </trkpt>
      <trkpt lat="46.15293" lon="-1.15231">
        <ele>3.98</ele>
        <time>2016-09-02T12:52:53Z</time>
      </trkpt>
      <trkpt lat="46.15292" lon="-1.15229">
        <ele>3.5</ele>
        <time>2016-09-02T12:52:55Z</time>
      </trkpt>
      <trkpt lat="46.15289" lon="-1.15219">
        <ele>3.02</ele>
        <time>2016-09-02T12:53:01Z</time>
      </trkpt>
      <trkpt lat="46.15288" lon="-1.15218">
        <ele>3.5</ele>
        <time>2016-09-02T12:53:02Z</time>
      </trkpt>
      <trkpt lat="46.15284" lon="-1.15196">
        <ele>3.5</ele>
        <time>2016-09-02T12:53:15Z</time>
      </trkpt>
      <trkpt lat="46.15283" lon="-1.15174">
        <ele>3.98</ele>
        <time>2016-09-02T12:53:26Z</time>
      </trkpt>
      <trkpt lat="46.15283" lon="-1.15155">
        <ele>4.46</ele>
        <time>2016-09-02T12:53:36Z</time>
      </trkpt>
      <trkpt lat="46.15284" lon="-1.15128">
        <ele>3.5</ele>
        <time>2016-09-02T12:53:49Z</time>
      </trkpt>
      <trkpt lat="46.15284" lon="-1.15105">
        <ele>4.46</ele>
        <time>2016-09-02T12:54:00Z</time>
      </trkpt>
      <trkpt lat="46.15285" lon="-1.15095">
        <ele>4.46</ele>
        <time>2016-09-02T12:54:05Z</time>
      </trkpt>
      <trkpt lat="46.15285" lon="-1.15093">
        <ele>4.46</ele>
        <time>2016-09-02T12:54:06Z</time>
      </trkpt>
      <trkpt lat="46.15283" lon="-1.15068">
        <ele>4.46</ele>
        <time>2016-09-02T12:54:19Z</time>
      </trkpt>
      <trkpt lat="46.15282" lon="-1.15045">
        <ele>3.98</ele>
        <time>2016-09-02T12:54:31Z</time>
      </trkpt>
      <trkpt lat="46.15283" lon="-1.15037">
        <ele>3.98</ele>
        <time>2016-09-02T12:54:41Z</time>
      </trkpt>
      <trkpt lat="46.15284" lon="-1.15036">
        <ele>3.98</ele>
        <time>2016-09-02T12:54:56Z</time>
      </trkpt>
      <trkpt lat="46.15286" lon="-1.15035">
        <ele>4.94</ele>
        <time>2016-09-02T12:55:20Z</time>
      </trkpt>
      <trkpt lat="46.15286" lon="-1.15034">
        <ele>4.94</ele>
        <time>2016-09-02T12:55:36Z</time>
      </trkpt>
      <trkpt lat="46.15288" lon="-1.15032">
        <ele>4.94</ele>
        <time>2016-09-02T12:55:56Z</time>
      </trkpt>
      <trkpt lat="46.15289" lon="-1.15032">
        <ele>4.46</ele>
        <time>2016-09-02T12:56:18Z</time>
      </trkpt>
      <trkpt lat="46.15289" lon="-1.15031">
        <ele>4.94</ele>
        <time>2016-09-02T12:56:34Z</time>
      </trkpt>
      <trkpt lat="46.15291" lon="-1.15018">
        <ele>4.94</ele>
        <time>2016-09-02T12:56:45Z</time>
      </trkpt>
      <trkpt lat="46.15291" lon="-1.15016">
        <ele>5.42</ele>
        <time>2016-09-02T12:56:46Z</time>
      </trkpt>
      <trkpt lat="46.15291" lon="-1.15013">
        <ele>4.94</ele>
        <time>2016-09-02T12:56:47Z</time>
      </trkpt>
      <trkpt lat="46.15291" lon="-1.15011">
        <ele>4.94</ele>
        <time>2016-09-02T12:56:48Z</time>
      </trkpt>
      <trkpt lat="46.15292" lon="-1.15009">
        <ele>4.94</ele>
        <time>2016-09-02T12:56:49Z</time>
      </trkpt>
      <trkpt lat="46.15291" lon="-1.15007">
        <ele>4.94</ele>
        <time>2016-09-02T12:56:50Z</time>
      </trkpt>
      <trkpt lat="46.15294" lon="-1.14976">
        <ele>5.42</ele>
        <time>2016-09-02T12:57:03Z</time>
      </trkpt>
      <trkpt lat="46.1529" lon="-1.14954">
        <ele>6.39</ele>
        <time>2016-09-02T12:57:13Z</time>
      </trkpt>
      <trkpt lat="46.1529" lon="-1.14945">
        <ele>5.91</ele>
        <time>2016-09-02T12:57:17Z</time>
      </trkpt>
      <trkpt lat="46.15293" lon="-1.14917">
        <ele>6.39</ele>
        <time>2016-09-02T12:57:29Z</time>
      </trkpt>
      <trkpt lat="46.15294" lon="-1.14888">
        <ele>6.87</ele>
        <time>2016-09-02T12:57:43Z</time>
      </trkpt>
      <trkpt lat="46.15293" lon="-1.14887">
        <ele>6.87</ele>
        <time>2016-09-02T12:57:47Z</time>
      </trkpt>
      <trkpt lat="46.15293" lon="-1.14885">
        <ele>7.35</ele>
        <time>2016-09-02T12:57:48Z</time>
      </trkpt>
      <trkpt lat="46.15293" lon="-1.1488">
        <ele>7.35</ele>
        <time>2016-09-02T12:57:50Z</time>
      </trkpt>
      <trkpt lat="46.15293" lon="-1.14877">
        <ele>6.87</ele>
        <time>2016-09-02T12:57:51Z</time>
      </trkpt>
      <trkpt lat="46.15292" lon="-1.14875">
        <ele>7.83</ele>
        <time>2016-09-02T12:57:52Z</time>
      </trkpt>
      <trkpt lat="46.15292" lon="-1.14872">
        <ele>7.35</ele>
        <time>2016-09-02T12:57:53Z</time>
      </trkpt>
      <trkpt lat="46.15292" lon="-1.1487">
        <ele>7.35</ele>
        <time>2016-09-02T12:57:54Z</time>
      </trkpt>
      <trkpt lat="46.15293" lon="-1.14867">
        <ele>7.35</ele>
        <time>2016-09-02T12:57:55Z</time>
      </trkpt>
      <trkpt lat="46.15292" lon="-1.14865">
        <ele>6.87</ele>
        <time>2016-09-02T12:57:56Z</time>
      </trkpt>
      <trkpt lat="46.1529" lon="-1.14837">
        <ele>6.39</ele>
        <time>2016-09-02T12:58:08Z</time>
      </trkpt>
      <trkpt lat="46.1529" lon="-1.14835">
        <ele>5.91</ele>
        <time>2016-09-02T12:58:09Z</time>
      </trkpt>
      <trkpt lat="46.1529" lon="-1.1481">
        <ele>6.39</ele>
        <time>2016-09-02T12:58:19Z</time>
      </trkpt>
      <trkpt lat="46.1529" lon="-1.14808">
        <ele>6.39</ele>
        <time>2016-09-02T12:58:20Z</time>
      </trkpt>
      <trkpt lat="46.1529" lon="-1.14805">
        <ele>6.87</ele>
        <time>2016-09-02T12:58:21Z</time>
      </trkpt>
      <trkpt lat="46.1529" lon="-1.14782">
        <ele>6.87</ele>
        <time>2016-09-02T12:58:32Z</time>
      </trkpt>
      <trkpt lat="46.1529" lon="-1.1478">
        <ele>6.39</ele>
        <time>2016-09-02T12:58:33Z</time>
      </trkpt>
      <trkpt lat="46.1529" lon="-1.14778">
        <ele>6.39</ele>
        <time>2016-09-02T12:58:34Z</time>
      </trkpt>
      <trkpt lat="46.1529" lon="-1.14776">
        <ele>6.87</ele>
        <time>2016-09-02T12:58:35Z</time>
      </trkpt>
      <trkpt lat="46.15289" lon="-1.14758">
        <ele>6.39</ele>
        <time>2016-09-02T12:58:45Z</time>
      </trkpt>
      <trkpt lat="46.15292" lon="-1.14737">
        <ele>7.35</ele>
        <time>2016-09-02T12:58:54Z</time>
      </trkpt>
      <trkpt lat="46.15293" lon="-1.14735">
        <ele>7.35</ele>
        <time>2016-09-02T12:58:55Z</time>
      </trkpt>
      <trkpt lat="46.15293" lon="-1.14732">
        <ele>7.35</ele>
        <time>2016-09-02T12:58:56Z</time>
      </trkpt>
      <trkpt lat="46.15292" lon="-1.14725">
        <ele>7.35</ele>
        <time>2016-09-02T12:58:59Z</time>
      </trkpt>
      <trkpt lat="46.15291" lon="-1.14724">
        <ele>7.35</ele>
        <time>2016-09-02T12:59:00Z</time>
      </trkpt>
      <trkpt lat="46.1529" lon="-1.14722">
        <ele>7.35</ele>
        <time>2016-09-02T12:59:01Z</time>
      </trkpt>
      <trkpt lat="46.15289" lon="-1.1472">
        <ele>7.83</ele>
        <time>2016-09-02T12:59:02Z</time>
      </trkpt>
      <trkpt lat="46.15288" lon="-1.14718">
        <ele>7.83</ele>
        <time>2016-09-02T12:59:03Z</time>
      </trkpt>
      <trkpt lat="46.15288" lon="-1.14715">
        <ele>7.35</ele>
        <time>2016-09-02T12:59:04Z</time>
      </trkpt>
      <trkpt lat="46.15289" lon="-1.1471">
        <ele>7.35</ele>
        <time>2016-09-02T12:59:07Z</time>
      </trkpt>
      <trkpt lat="46.15291" lon="-1.14703">
        <ele>6.87</ele>
        <time>2016-09-02T12:59:10Z</time>
      </trkpt>
      <trkpt lat="46.15302" lon="-1.14679">
        <ele>7.35</ele>
        <time>2016-09-02T12:59:20Z</time>
      </trkpt>
      <trkpt lat="46.15304" lon="-1.14677">
        <ele>6.87</ele>
        <time>2016-09-02T12:59:22Z</time>
      </trkpt>
      <trkpt lat="46.15305" lon="-1.14676">
        <ele>7.35</ele>
        <time>2016-09-02T12:59:23Z</time>
      </trkpt>
      <trkpt lat="46.15308" lon="-1.14671">
        <ele>7.35</ele>
        <time>2016-09-02T12:59:26Z</time>
      </trkpt>
      <trkpt lat="46.15315" lon="-1.14661">
        <ele>7.35</ele>
        <time>2016-09-02T12:59:33Z</time>
      </trkpt>
      <trkpt lat="46.15318" lon="-1.14656">
        <ele>7.35</ele>
        <time>2016-09-02T12:59:39Z</time>
      </trkpt>
      <trkpt lat="46.15318" lon="-1.14655">
        <ele>7.83</ele>
        <time>2016-09-02T12:59:42Z</time>
      </trkpt>
      <trkpt lat="46.15315" lon="-1.14641">
        <ele>7.83</ele>
        <time>2016-09-02T12:59:48Z</time>
      </trkpt>
      <trkpt lat="46.15313" lon="-1.14635">
        <ele>7.83</ele>
        <time>2016-09-02T12:59:51Z</time>
      </trkpt>
      <trkpt lat="46.15306" lon="-1.14629">
        <ele>7.35</ele>
        <time>2016-09-02T13:00:01Z</time>
      </trkpt>
      <trkpt lat="46.15305" lon="-1.14629">
        <ele>8.31</ele>
        <time>2016-09-02T13:00:02Z</time>
      </trkpt>
      <trkpt lat="46.15303" lon="-1.14629">
        <ele>8.31</ele>
        <time>2016-09-02T13:00:03Z</time>
      </trkpt>
      <trkpt lat="46.15302" lon="-1.14629">
        <ele>8.79</ele>
        <time>2016-09-02T13:00:04Z</time>
      </trkpt>
      <trkpt lat="46.15297" lon="-1.14629">
        <ele>8.79</ele>
        <time>2016-09-02T13:00:08Z</time>
      </trkpt>
      <trkpt lat="46.15293" lon="-1.14627">
        <ele>7.83</ele>
        <time>2016-09-02T13:00:13Z</time>
      </trkpt>
      <trkpt lat="46.15292" lon="-1.14626">
        <ele>8.31</ele>
        <time>2016-09-02T13:00:14Z</time>
      </trkpt>
      <trkpt lat="46.15292" lon="-1.14623">
        <ele>7.83</ele>
        <time>2016-09-02T13:00:16Z</time>
      </trkpt>
      <trkpt lat="46.15292" lon="-1.14622">
        <ele>8.31</ele>
        <time>2016-09-02T13:00:17Z</time>
      </trkpt>
      <trkpt lat="46.15292" lon="-1.1462">
        <ele>7.83</ele>
        <time>2016-09-02T13:00:18Z</time>
      </trkpt>
      <trkpt lat="46.15292" lon="-1.14618">
        <ele>7.83</ele>
        <time>2016-09-02T13:00:19Z</time>
      </trkpt>
      <trkpt lat="46.15292" lon="-1.14617">
        <ele>7.83</ele>
        <time>2016-09-02T13:00:20Z</time>
      </trkpt>
      <trkpt lat="46.15292" lon="-1.14615">
        <ele>7.35</ele>
        <time>2016-09-02T13:00:21Z</time>
      </trkpt>
      <trkpt lat="46.15291" lon="-1.14612">
        <ele>7.83</ele>
        <time>2016-09-02T13:00:23Z</time>
      </trkpt>
      <trkpt lat="46.1529" lon="-1.14609">
        <ele>7.83</ele>
        <time>2016-09-02T13:00:25Z</time>
      </trkpt>
      <trkpt lat="46.15289" lon="-1.14608">
        <ele>8.31</ele>
        <time>2016-09-02T13:00:26Z</time>
      </trkpt>
      <trkpt lat="46.15287" lon="-1.14601">
        <ele>7.83</ele>
        <time>2016-09-02T13:00:30Z</time>
      </trkpt>
      <trkpt lat="46.15287" lon="-1.14599">
        <ele>7.83</ele>
        <time>2016-09-02T13:00:31Z</time>
      </trkpt>
      <trkpt lat="46.15289" lon="-1.14584">
        <ele>7.83</ele>
        <time>2016-09-02T13:00:41Z</time>
      </trkpt>
      <trkpt lat="46.15287" lon="-1.14583">
        <ele>7.83</ele>
        <time>2016-09-02T13:00:47Z</time>
      </trkpt>
      <trkpt lat="46.15286" lon="-1.14584">
        <ele>7.35</ele>
        <time>2016-09-02T13:00:55Z</time>
      </trkpt>
      <trkpt lat="46.15284" lon="-1.14584">
        <ele>7.83</ele>
        <time>2016-09-02T13:01:04Z</time>
      </trkpt>
      <trkpt lat="46.15283" lon="-1.14585">
        <ele>8.31</ele>
        <time>2016-09-02T13:01:14Z</time>
      </trkpt>
      <trkpt lat="46.15279" lon="-1.14584">
        <ele>7.83</ele>
        <time>2016-09-02T13:01:22Z</time>
      </trkpt>
      <trkpt lat="46.15279" lon="-1.14584">
        <ele>8.31</ele>
        <time>2016-09-02T13:01:34Z</time>
      </trkpt>
      <trkpt lat="46.15279" lon="-1.14583">
        <ele>7.83</ele>
        <time>2016-09-02T13:01:49Z</time>
      </trkpt>
      <trkpt lat="46.15281" lon="-1.14585">
        <ele>7.83</ele>
        <time>2016-09-02T13:01:52Z</time>
      </trkpt>
      <trkpt lat="46.15282" lon="-1.14586">
        <ele>7.83</ele>
        <time>2016-09-02T13:01:53Z</time>
      </trkpt>
      <trkpt lat="46.15283" lon="-1.14587">
        <ele>7.83</ele>
        <time>2016-09-02T13:01:54Z</time>
      </trkpt>
      <trkpt lat="46.15283" lon="-1.14589">
        <ele>8.31</ele>
        <time>2016-09-02T13:01:55Z</time>
      </trkpt>
      <trkpt lat="46.15282" lon="-1.14591">
        <ele>7.83</ele>
        <time>2016-09-02T13:01:56Z</time>
      </trkpt>
      <trkpt lat="46.15282" lon="-1.14594">
        <ele>7.83</ele>
        <time>2016-09-02T13:01:58Z</time>
      </trkpt>
      <trkpt lat="46.15285" lon="-1.14599">
        <ele>8.31</ele>
        <time>2016-09-02T13:02:01Z</time>
      </trkpt>
      <trkpt lat="46.15291" lon="-1.1461">
        <ele>8.31</ele>
        <time>2016-09-02T13:02:06Z</time>
      </trkpt>
      <trkpt lat="46.15289" lon="-1.14634">
        <ele>8.31</ele>
        <time>2016-09-02T13:02:16Z</time>
      </trkpt>
      <trkpt lat="46.15289" lon="-1.14643">
        <ele>8.79</ele>
        <time>2016-09-02T13:02:20Z</time>
      </trkpt>
      <trkpt lat="46.15283" lon="-1.14649">
        <ele>8.79</ele>
        <time>2016-09-02T13:02:29Z</time>
      </trkpt>
      <trkpt lat="46.15282" lon="-1.14651">
        <ele>8.79</ele>
        <time>2016-09-02T13:02:30Z</time>
      </trkpt>
      <trkpt lat="46.15281" lon="-1.14652">
        <ele>8.79</ele>
        <time>2016-09-02T13:02:31Z</time>
      </trkpt>
      <trkpt lat="46.15275" lon="-1.14659">
        <ele>8.79</ele>
        <time>2016-09-02T13:02:35Z</time>
      </trkpt>
      <trkpt lat="46.15274" lon="-1.1466">
        <ele>8.79</ele>
        <time>2016-09-02T13:02:36Z</time>
      </trkpt>
      <trkpt lat="46.15273" lon="-1.14662">
        <ele>8.79</ele>
        <time>2016-09-02T13:02:37Z</time>
      </trkpt>
      <trkpt lat="46.15272" lon="-1.14663">
        <ele>9.27</ele>
        <time>2016-09-02T13:02:38Z</time>
      </trkpt>
      <trkpt lat="46.1527" lon="-1.14665">
        <ele>8.79</ele>
        <time>2016-09-02T13:02:39Z</time>
      </trkpt>
      <trkpt lat="46.15266" lon="-1.14666">
        <ele>8.79</ele>
        <time>2016-09-02T13:02:42Z</time>
      </trkpt>
      <trkpt lat="46.15265" lon="-1.14666">
        <ele>8.79</ele>
        <time>2016-09-02T13:02:43Z</time>
      </trkpt>
      <trkpt lat="46.15262" lon="-1.14665">
        <ele>9.27</ele>
        <time>2016-09-02T13:02:44Z</time>
      </trkpt>
      <trkpt lat="46.1526" lon="-1.14663">
        <ele>9.27</ele>
        <time>2016-09-02T13:02:45Z</time>
      </trkpt>
      <trkpt lat="46.15258" lon="-1.14662">
        <ele>9.27</ele>
        <time>2016-09-02T13:02:46Z</time>
      </trkpt>
      <trkpt lat="46.15257" lon="-1.14663">
        <ele>9.27</ele>
        <time>2016-09-02T13:02:47Z</time>
      </trkpt>
      <trkpt lat="46.15255" lon="-1.14664">
        <ele>9.27</ele>
        <time>2016-09-02T13:02:48Z</time>
      </trkpt>
      <trkpt lat="46.15241" lon="-1.14671">
        <ele>9.27</ele>
        <time>2016-09-02T13:02:57Z</time>
      </trkpt>
      <trkpt lat="46.15239" lon="-1.14673">
        <ele>9.75</ele>
        <time>2016-09-02T13:02:58Z</time>
      </trkpt>
      <trkpt lat="46.15236" lon="-1.14678">
        <ele>8.79</ele>
        <time>2016-09-02T13:03:04Z</time>
      </trkpt>
      <trkpt lat="46.15235" lon="-1.14678">
        <ele>9.75</ele>
        <time>2016-09-02T13:03:05Z</time>
      </trkpt>
      <trkpt lat="46.15233" lon="-1.14678">
        <ele>9.75</ele>
        <time>2016-09-02T13:03:07Z</time>
      </trkpt>
      <trkpt lat="46.15228" lon="-1.14674">
        <ele>9.75</ele>
        <time>2016-09-02T13:03:15Z</time>
      </trkpt>
      <trkpt lat="46.15227" lon="-1.1467">
        <ele>9.75</ele>
        <time>2016-09-02T13:03:21Z</time>
      </trkpt>
      <trkpt lat="46.15229" lon="-1.14669">
        <ele>9.75</ele>
        <time>2016-09-02T13:03:22Z</time>
      </trkpt>
      <trkpt lat="46.1523" lon="-1.14669">
        <ele>10.23</ele>
        <time>2016-09-02T13:03:23Z</time>
      </trkpt>
      <trkpt lat="46.15236" lon="-1.14665">
        <ele>9.75</ele>
        <time>2016-09-02T13:03:33Z</time>
      </trkpt>
      <trkpt lat="46.1524" lon="-1.14661">
        <ele>9.27</ele>
        <time>2016-09-02T13:03:37Z</time>
      </trkpt>
      <trkpt lat="46.15241" lon="-1.1466">
        <ele>9.75</ele>
        <time>2016-09-02T13:03:38Z</time>
      </trkpt>
      <trkpt lat="46.15248" lon="-1.14647">
        <ele>10.23</ele>
        <time>2016-09-02T13:03:47Z</time>
      </trkpt>
      <trkpt lat="46.15249" lon="-1.14646">
        <ele>10.23</ele>
        <time>2016-09-02T13:03:48Z</time>
      </trkpt>
      <trkpt lat="46.15251" lon="-1.14644">
        <ele>9.75</ele>
        <time>2016-09-02T13:03:50Z</time>
      </trkpt>
      <trkpt lat="46.15253" lon="-1.14644">
        <ele>10.23</ele>
        <time>2016-09-02T13:03:51Z</time>
      </trkpt>
      <trkpt lat="46.15254" lon="-1.14643">
        <ele>10.23</ele>
        <time>2016-09-02T13:03:52Z</time>
      </trkpt>
      <trkpt lat="46.15256" lon="-1.14643">
        <ele>10.23</ele>
        <time>2016-09-02T13:03:53Z</time>
      </trkpt>
      <trkpt lat="46.15257" lon="-1.14642">
        <ele>9.75</ele>
        <time>2016-09-02T13:03:54Z</time>
      </trkpt>
      <trkpt lat="46.15261" lon="-1.1464">
        <ele>10.23</ele>
        <time>2016-09-02T13:03:56Z</time>
      </trkpt>
      <trkpt lat="46.15262" lon="-1.1464">
        <ele>10.71</ele>
        <time>2016-09-02T13:03:57Z</time>
      </trkpt>
      <trkpt lat="46.15268" lon="-1.14636">
        <ele>10.23</ele>
        <time>2016-09-02T13:04:02Z</time>
      </trkpt>
      <trkpt lat="46.15275" lon="-1.14633">
        <ele>11.19</ele>
        <time>2016-09-02T13:04:10Z</time>
      </trkpt>
      <trkpt lat="46.15277" lon="-1.14631">
        <ele>11.67</ele>
        <time>2016-09-02T13:04:16Z</time>
      </trkpt>
      <trkpt lat="46.15278" lon="-1.14631">
        <ele>11.19</ele>
        <time>2016-09-02T13:04:17Z</time>
      </trkpt>
      <trkpt lat="46.15278" lon="-1.14631">
        <ele>10.71</ele>
        <time>2016-09-02T13:04:18Z</time>
      </trkpt>
      <trkpt lat="46.1528" lon="-1.14637">
        <ele>11.19</ele>
        <time>2016-09-02T13:04:26Z</time>
      </trkpt>
      <trkpt lat="46.1528" lon="-1.14639">
        <ele>11.19</ele>
        <time>2016-09-02T13:04:35Z</time>
      </trkpt>
      <trkpt lat="46.15281" lon="-1.1464">
        <ele>11.19</ele>
        <time>2016-09-02T13:04:50Z</time>
      </trkpt>
      <trkpt lat="46.15281" lon="-1.1464">
        <ele>11.19</ele>
        <time>2016-09-02T13:05:04Z</time>
      </trkpt>
      <trkpt lat="46.15281" lon="-1.14639">
        <ele>10.71</ele>
        <time>2016-09-02T13:05:05Z</time>
      </trkpt>
      <trkpt lat="46.15282" lon="-1.14637">
        <ele>11.67</ele>
        <time>2016-09-02T13:05:06Z</time>
      </trkpt>
      <trkpt lat="46.15282" lon="-1.14635">
        <ele>11.19</ele>
        <time>2016-09-02T13:05:07Z</time>
      </trkpt>
      <trkpt lat="46.15282" lon="-1.14633">
        <ele>11.19</ele>
        <time>2016-09-02T13:05:08Z</time>
      </trkpt>
      <trkpt lat="46.15281" lon="-1.14632">
        <ele>11.19</ele>
        <time>2016-09-02T13:05:09Z</time>
      </trkpt>
      <trkpt lat="46.15281" lon="-1.1463">
        <ele>11.67</ele>
        <time>2016-09-02T13:05:10Z</time>
      </trkpt>
      <trkpt lat="46.15281" lon="-1.14628">
        <ele>11.19</ele>
        <time>2016-09-02T13:05:11Z</time>
      </trkpt>
      <trkpt lat="46.1528" lon="-1.14626">
        <ele>11.19</ele>
        <time>2016-09-02T13:05:12Z</time>
      </trkpt>
      <trkpt lat="46.1528" lon="-1.14624">
        <ele>11.67</ele>
        <time>2016-09-02T13:05:13Z</time>
      </trkpt>
      <trkpt lat="46.1528" lon="-1.14621">
        <ele>11.67</ele>
        <time>2016-09-02T13:05:14Z</time>
      </trkpt>
      <trkpt lat="46.1528" lon="-1.14619">
        <ele>11.19</ele>
        <time>2016-09-02T13:05:15Z</time>
      </trkpt>
      <trkpt lat="46.15279" lon="-1.14617">
        <ele>11.19</ele>
        <time>2016-09-02T13:05:16Z</time>
      </trkpt>
      <trkpt lat="46.15279" lon="-1.14614">
        <ele>11.19</ele>
        <time>2016-09-02T13:05:17Z</time>
      </trkpt>
      <trkpt lat="46.15278" lon="-1.14612">
        <ele>11.19</ele>
        <time>2016-09-02T13:05:18Z</time>
      </trkpt>
      <trkpt lat="46.15277" lon="-1.1461">
        <ele>11.19</ele>
        <time>2016-09-02T13:05:19Z</time>
      </trkpt>
      <trkpt lat="46.15271" lon="-1.1459">
        <ele>10.71</ele>
        <time>2016-09-02T13:05:29Z</time>
      </trkpt>
      <trkpt lat="46.1527" lon="-1.14592">
        <ele>11.19</ele>
        <time>2016-09-02T13:05:39Z</time>
      </trkpt>
      <trkpt lat="46.15274" lon="-1.14593">
        <ele>10.71</ele>
        <time>2016-09-02T13:05:49Z</time>
      </trkpt>
      <trkpt lat="46.15275" lon="-1.14592">
        <ele>11.19</ele>
        <time>2016-09-02T13:06:01Z</time>
      </trkpt>
      <trkpt lat="46.15276" lon="-1.14593">
        <ele>11.19</ele>
        <time>2016-09-02T13:06:15Z</time>
      </trkpt>
      <trkpt lat="46.15274" lon="-1.14594">
        <ele>11.19</ele>
        <time>2016-09-02T13:06:28Z</time>
      </trkpt>
      <trkpt lat="46.15276" lon="-1.14593">
        <ele>11.19</ele>
        <time>2016-09-02T13:06:45Z</time>
      </trkpt>
      <trkpt lat="46.15277" lon="-1.14593">
        <ele>11.19</ele>
        <time>2016-09-02T13:06:56Z</time>
      </trkpt>
      <trkpt lat="46.15279" lon="-1.14593">
        <ele>11.19</ele>
        <time>2016-09-02T13:06:57Z</time>
      </trkpt>
      <trkpt lat="46.1528" lon="-1.14592">
        <ele>11.67</ele>
        <time>2016-09-02T13:06:58Z</time>
      </trkpt>
      <trkpt lat="46.15282" lon="-1.14591">
        <ele>11.67</ele>
        <time>2016-09-02T13:06:59Z</time>
      </trkpt>
      <trkpt lat="46.15288" lon="-1.14577">
        <ele>11.67</ele>
        <time>2016-09-02T13:07:12Z</time>
      </trkpt>
      <trkpt lat="46.15288" lon="-1.14571">
        <ele>11.67</ele>
        <time>2016-09-02T13:07:30Z</time>
      </trkpt>
      <trkpt lat="46.15284" lon="-1.14567">
        <ele>11.67</ele>
        <time>2016-09-02T13:07:50Z</time>
      </trkpt>
      <trkpt lat="46.15282" lon="-1.14573">
        <ele>11.67</ele>
        <time>2016-09-02T13:08:11Z</time>
      </trkpt>
      <trkpt lat="46.15281" lon="-1.14571">
        <ele>12.15</ele>
        <time>2016-09-02T13:08:28Z</time>
      </trkpt>
      <trkpt lat="46.1528" lon="-1.14572">
        <ele>11.67</ele>
        <time>2016-09-02T13:08:41Z</time>
      </trkpt>
      <trkpt lat="46.1528" lon="-1.14572">
        <ele>11.67</ele>
        <time>2016-09-02T13:08:55Z</time>
      </trkpt>
      <trkpt lat="46.15287" lon="-1.14592">
        <ele>11.19</ele>
        <time>2016-09-02T13:09:17Z</time>
      </trkpt>
      <trkpt lat="46.15282" lon="-1.1458">
        <ele>12.15</ele>
        <time>2016-09-02T13:09:35Z</time>
      </trkpt>
      <trkpt lat="46.15285" lon="-1.14591">
        <ele>12.15</ele>
        <time>2016-09-02T13:09:48Z</time>
      </trkpt>
      <trkpt lat="46.15279" lon="-1.14587">
        <ele>12.63</ele>
        <time>2016-09-02T13:10:03Z</time>
      </trkpt>
      <trkpt lat="46.15271" lon="-1.14594">
        <ele>12.15</ele>
        <time>2016-09-02T13:10:18Z</time>
      </trkpt>
      <trkpt lat="46.15262" lon="-1.14593">
        <ele>12.63</ele>
        <time>2016-09-02T13:10:36Z</time>
      </trkpt>
      <trkpt lat="46.1526" lon="-1.14589">
        <ele>12.15</ele>
        <time>2016-09-02T13:10:52Z</time>
      </trkpt>
      <trkpt lat="46.15259" lon="-1.1459">
        <ele>12.63</ele>
        <time>2016-09-02T13:10:53Z</time>
      </trkpt>
      <trkpt lat="46.15285" lon="-1.14606">
        <ele>12.63</ele>
        <time>2016-09-02T13:10:54Z</time>
      </trkpt>
      <trkpt lat="46.15285" lon="-1.14606">
        <ele>12.63</ele>
        <time>2016-09-02T13:10:55Z</time>
      </trkpt>
      <trkpt lat="46.15249" lon="-1.14595">
        <ele>12.63</ele>
        <time>2016-09-02T13:11:11Z</time>
      </trkpt>
      <trkpt lat="46.15271" lon="-1.1459">
        <ele>13.12</ele>
        <time>2016-09-02T13:18:21Z</time>
      </trkpt>
      <trkpt lat="46.15273" lon="-1.1459">
        <ele>13.12</ele>
        <time>2016-09-02T13:18:22Z</time>
      </trkpt>
      <trkpt lat="46.15282" lon="-1.14585">
        <ele>12.15</ele>
        <time>2016-09-02T13:18:31Z</time>
      </trkpt>
      <trkpt lat="46.15284" lon="-1.14587">
        <ele>12.63</ele>
        <time>2016-09-02T13:18:37Z</time>
      </trkpt>
      <trkpt lat="46.15299" lon="-1.14603">
        <ele>13.6</ele>
        <time>2016-09-02T13:18:49Z</time>
      </trkpt>
      <trkpt lat="46.15301" lon="-1.14616">
        <ele>13.12</ele>
        <time>2016-09-02T13:18:57Z</time>
      </trkpt>
      <trkpt lat="46.15286" lon="-1.14635">
        <ele>13.6</ele>
        <time>2016-09-02T13:19:07Z</time>
      </trkpt>
      <trkpt lat="46.15282" lon="-1.14643">
        <ele>13.6</ele>
        <time>2016-09-02T13:19:23Z</time>
      </trkpt>
      <trkpt lat="46.15282" lon="-1.14643">
        <ele>13.6</ele>
        <time>2016-09-02T13:19:40Z</time>
      </trkpt>
      <trkpt lat="46.1528" lon="-1.14645">
        <ele>14.08</ele>
        <time>2016-09-02T13:19:50Z</time>
      </trkpt>
      <trkpt lat="46.15279" lon="-1.14645">
        <ele>14.08</ele>
        <time>2016-09-02T13:19:54Z</time>
      </trkpt>
      <trkpt lat="46.15279" lon="-1.14646">
        <ele>14.08</ele>
        <time>2016-09-02T13:19:57Z</time>
      </trkpt>
      <trkpt lat="46.15277" lon="-1.14649">
        <ele>13.6</ele>
        <time>2016-09-02T13:20:03Z</time>
      </trkpt>
      <trkpt lat="46.15275" lon="-1.14652">
        <ele>13.6</ele>
        <time>2016-09-02T13:20:07Z</time>
      </trkpt>
      <trkpt lat="46.15274" lon="-1.14654">
        <ele>13.12</ele>
        <time>2016-09-02T13:20:10Z</time>
      </trkpt>
      <trkpt lat="46.15274" lon="-1.14657">
        <ele>13.6</ele>
        <time>2016-09-02T13:20:12Z</time>
      </trkpt>
      <trkpt lat="46.15275" lon="-1.14669">
        <ele>13.6</ele>
        <time>2016-09-02T13:20:24Z</time>
      </trkpt>
      <trkpt lat="46.15275" lon="-1.1467">
        <ele>13.6</ele>
        <time>2016-09-02T13:20:39Z</time>
      </trkpt>
      <trkpt lat="46.15276" lon="-1.14672">
        <ele>13.6</ele>
        <time>2016-09-02T13:20:49Z</time>
      </trkpt>
      <trkpt lat="46.15277" lon="-1.14673">
        <ele>13.6</ele>
        <time>2016-09-02T13:21:02Z</time>
      </trkpt>
      <trkpt lat="46.15279" lon="-1.1468">
        <ele>14.08</ele>
        <time>2016-09-02T13:21:24Z</time>
      </trkpt>
      <trkpt lat="46.15279" lon="-1.14681">
        <ele>13.6</ele>
        <time>2016-09-02T13:21:45Z</time>
      </trkpt>
      <trkpt lat="46.15279" lon="-1.14687">
        <ele>14.08</ele>
        <time>2016-09-02T13:21:55Z</time>
      </trkpt>
      <trkpt lat="46.15279" lon="-1.14694">
        <ele>13.6</ele>
        <time>2016-09-02T13:22:06Z</time>
      </trkpt>
      <trkpt lat="46.1528" lon="-1.14694">
        <ele>13.6</ele>
        <time>2016-09-02T13:22:18Z</time>
      </trkpt>
      <trkpt lat="46.15281" lon="-1.14695">
        <ele>14.08</ele>
        <time>2016-09-02T13:22:26Z</time>
      </trkpt>
      <trkpt lat="46.1528" lon="-1.14694">
        <ele>14.08</ele>
        <time>2016-09-02T13:22:35Z</time>
      </trkpt>
      <trkpt lat="46.15279" lon="-1.14693">
        <ele>14.08</ele>
        <time>2016-09-02T13:22:45Z</time>
      </trkpt>
      <trkpt lat="46.15279" lon="-1.14691">
        <ele>14.08</ele>
        <time>2016-09-02T13:23:04Z</time>
      </trkpt>
      <trkpt lat="46.15278" lon="-1.14689">
        <ele>13.6</ele>
        <time>2016-09-02T13:23:20Z</time>
      </trkpt>
      <trkpt lat="46.15278" lon="-1.14688">
        <ele>13.6</ele>
        <time>2016-09-02T13:23:30Z</time>
      </trkpt>
      <trkpt lat="46.15278" lon="-1.14688">
        <ele>14.08</ele>
        <time>2016-09-02T13:23:36Z</time>
      </trkpt>
      <trkpt lat="46.1528" lon="-1.1469">
        <ele>14.08</ele>
        <time>2016-09-02T13:23:39Z</time>
      </trkpt>
      <trkpt lat="46.15288" lon="-1.14698">
        <ele>13.6</ele>
        <time>2016-09-02T13:23:47Z</time>
      </trkpt>
      <trkpt lat="46.15293" lon="-1.14706">
        <ele>13.6</ele>
        <time>2016-09-02T13:23:57Z</time>
      </trkpt>
      <trkpt lat="46.15296" lon="-1.14717">
        <ele>13.6</ele>
        <time>2016-09-02T13:24:07Z</time>
      </trkpt>
      <trkpt lat="46.15297" lon="-1.14722">
        <ele>13.12</ele>
        <time>2016-09-02T13:24:15Z</time>
      </trkpt>
      <trkpt lat="46.15299" lon="-1.14723">
        <ele>13.12</ele>
        <time>2016-09-02T13:24:18Z</time>
      </trkpt>
      <trkpt lat="46.15304" lon="-1.14727">
        <ele>13.6</ele>
        <time>2016-09-02T13:24:25Z</time>
      </trkpt>
      <trkpt lat="46.15311" lon="-1.14731">
        <ele>13.12</ele>
        <time>2016-09-02T13:24:34Z</time>
      </trkpt>
      <trkpt lat="46.15313" lon="-1.14735">
        <ele>13.12</ele>
        <time>2016-09-02T13:24:48Z</time>
      </trkpt>
      <trkpt lat="46.15313" lon="-1.14736">
        <ele>13.6</ele>
        <time>2016-09-02T13:25:02Z</time>
      </trkpt>
      <trkpt lat="46.15315" lon="-1.14736">
        <ele>13.6</ele>
        <time>2016-09-02T13:25:11Z</time>
      </trkpt>
      <trkpt lat="46.15316" lon="-1.14737">
        <ele>12.63</ele>
        <time>2016-09-02T13:25:20Z</time>
      </trkpt>
      <trkpt lat="46.15316" lon="-1.14738">
        <ele>13.12</ele>
        <time>2016-09-02T13:25:44Z</time>
      </trkpt>
      <trkpt lat="46.15317" lon="-1.14739">
        <ele>13.12</ele>
        <time>2016-09-02T13:26:07Z</time>
      </trkpt>
      <trkpt lat="46.15316" lon="-1.1474">
        <ele>13.12</ele>
        <time>2016-09-02T13:26:37Z</time>
      </trkpt>
      <trkpt lat="46.15317" lon="-1.14741">
        <ele>13.12</ele>
        <time>2016-09-02T13:27:06Z</time>
      </trkpt>
      <trkpt lat="46.15316" lon="-1.14741">
        <ele>13.12</ele>
        <time>2016-09-02T13:27:32Z</time>
      </trkpt>
      <trkpt lat="46.15316" lon="-1.14742">
        <ele>13.12</ele>
        <time>2016-09-02T13:28:02Z</time>
      </trkpt>
      <trkpt lat="46.15317" lon="-1.14741">
        <ele>13.6</ele>
        <time>2016-09-02T13:28:23Z</time>
      </trkpt>
      <trkpt lat="46.15317" lon="-1.14741">
        <ele>14.08</ele>
        <time>2016-09-02T13:28:34Z</time>
      </trkpt>
      <trkpt lat="46.15317" lon="-1.14741">
        <ele>13.6</ele>
        <time>2016-09-02T13:28:44Z</time>
      </trkpt>
      <trkpt lat="46.15317" lon="-1.14741">
        <ele>14.08</ele>
        <time>2016-09-02T13:28:53Z</time>
      </trkpt>
      <trkpt lat="46.15313" lon="-1.1474">
        <ele>13.6</ele>
        <time>2016-09-02T13:29:00Z</time>
      </trkpt>
      <trkpt lat="46.15309" lon="-1.14732">
        <ele>13.6</ele>
        <time>2016-09-02T13:29:08Z</time>
      </trkpt>
      <trkpt lat="46.15309" lon="-1.14726">
        <ele>14.56</ele>
        <time>2016-09-02T13:29:19Z</time>
      </trkpt>
      <trkpt lat="46.15303" lon="-1.14718">
        <ele>14.08</ele>
        <time>2016-09-02T13:29:27Z</time>
      </trkpt>
      <trkpt lat="46.15303" lon="-1.14717">
        <ele>14.08</ele>
        <time>2016-09-02T13:29:28Z</time>
      </trkpt>
      <trkpt lat="46.15295" lon="-1.14699">
        <ele>14.08</ele>
        <time>2016-09-02T13:29:40Z</time>
      </trkpt>
      <trkpt lat="46.15299" lon="-1.14695">
        <ele>14.08</ele>
        <time>2016-09-02T13:29:44Z</time>
      </trkpt>
      <trkpt lat="46.15301" lon="-1.14702">
        <ele>14.08</ele>
        <time>2016-09-02T13:29:53Z</time>
      </trkpt>
      <trkpt lat="46.15302" lon="-1.14697">
        <ele>14.08</ele>
        <time>2016-09-02T13:30:04Z</time>
      </trkpt>
      <trkpt lat="46.15305" lon="-1.14697">
        <ele>14.56</ele>
        <time>2016-09-02T13:30:12Z</time>
      </trkpt>
      <trkpt lat="46.15306" lon="-1.14697">
        <ele>14.08</ele>
        <time>2016-09-02T13:30:21Z</time>
      </trkpt>
      <trkpt lat="46.15306" lon="-1.14696">
        <ele>14.56</ele>
        <time>2016-09-02T13:30:30Z</time>
      </trkpt>
      <trkpt lat="46.153" lon="-1.14685">
        <ele>14.08</ele>
        <time>2016-09-02T13:30:40Z</time>
      </trkpt>
      <trkpt lat="46.153" lon="-1.14671">
        <ele>14.08</ele>
        <time>2016-09-02T13:30:51Z</time>
      </trkpt>
      <trkpt lat="46.15301" lon="-1.14667">
        <ele>14.56</ele>
        <time>2016-09-02T13:30:55Z</time>
      </trkpt>
      <trkpt lat="46.15307" lon="-1.14656">
        <ele>14.56</ele>
        <time>2016-09-02T13:31:05Z</time>
      </trkpt>
      <trkpt lat="46.15313" lon="-1.1465">
        <ele>14.56</ele>
        <time>2016-09-02T13:31:13Z</time>
      </trkpt>
      <trkpt lat="46.15316" lon="-1.14646">
        <ele>15.04</ele>
        <time>2016-09-02T13:31:26Z</time>
      </trkpt>
      <trkpt lat="46.15313" lon="-1.14642">
        <ele>15.04</ele>
        <time>2016-09-02T13:31:31Z</time>
      </trkpt>
      <trkpt lat="46.15311" lon="-1.1464">
        <ele>14.56</ele>
        <time>2016-09-02T13:31:33Z</time>
      </trkpt>
      <trkpt lat="46.15301" lon="-1.1463">
        <ele>15.04</ele>
        <time>2016-09-02T13:31:42Z</time>
      </trkpt>
      <trkpt lat="46.15299" lon="-1.1463">
        <ele>15.04</ele>
        <time>2016-09-02T13:31:44Z</time>
      </trkpt>
      <trkpt lat="46.15296" lon="-1.14632">
        <ele>15.52</ele>
        <time>2016-09-02T13:31:48Z</time>
      </trkpt>
      <trkpt lat="46.1529" lon="-1.1464">
        <ele>15.04</ele>
        <time>2016-09-02T13:31:57Z</time>
      </trkpt>
      <trkpt lat="46.15286" lon="-1.14641">
        <ele>15.04</ele>
        <time>2016-09-02T13:32:07Z</time>
      </trkpt>
      <trkpt lat="46.15285" lon="-1.1464">
        <ele>14.56</ele>
        <time>2016-09-02T13:32:15Z</time>
      </trkpt>
      <trkpt lat="46.15286" lon="-1.14633">
        <ele>15.04</ele>
        <time>2016-09-02T13:32:24Z</time>
      </trkpt>
      <trkpt lat="46.15284" lon="-1.14631">
        <ele>15.04</ele>
        <time>2016-09-02T13:32:29Z</time>
      </trkpt>
      <trkpt lat="46.15282" lon="-1.14631">
        <ele>15.04</ele>
        <time>2016-09-02T13:32:34Z</time>
      </trkpt>
      <trkpt lat="46.15283" lon="-1.14635">
        <ele>14.56</ele>
        <time>2016-09-02T13:32:43Z</time>
      </trkpt>
      <trkpt lat="46.15282" lon="-1.14638">
        <ele>15.04</ele>
        <time>2016-09-02T13:32:49Z</time>
      </trkpt>
      <trkpt lat="46.15283" lon="-1.14636">
        <ele>15.04</ele>
        <time>2016-09-02T13:32:53Z</time>
      </trkpt>
      <trkpt lat="46.15283" lon="-1.14632">
        <ele>15.04</ele>
        <time>2016-09-02T13:32:56Z</time>
      </trkpt>
      <trkpt lat="46.15282" lon="-1.14629">
        <ele>15.52</ele>
        <time>2016-09-02T13:32:58Z</time>
      </trkpt>
      <trkpt lat="46.15279" lon="-1.14615">
        <ele>14.56</ele>
        <time>2016-09-02T13:33:06Z</time>
      </trkpt>
      <trkpt lat="46.1528" lon="-1.14607">
        <ele>14.08</ele>
        <time>2016-09-02T13:33:10Z</time>
      </trkpt>
      <trkpt lat="46.15283" lon="-1.14598">
        <ele>14.56</ele>
        <time>2016-09-02T13:33:16Z</time>
      </trkpt>
      <trkpt lat="46.15285" lon="-1.14591">
        <ele>14.08</ele>
        <time>2016-09-02T13:33:27Z</time>
      </trkpt>
      <trkpt lat="46.15289" lon="-1.14588">
        <ele>14.08</ele>
        <time>2016-09-02T13:33:39Z</time>
      </trkpt>
      <trkpt lat="46.15288" lon="-1.14588">
        <ele>14.08</ele>
        <time>2016-09-02T13:33:47Z</time>
      </trkpt>
      <trkpt lat="46.15289" lon="-1.14589">
        <ele>14.08</ele>
        <time>2016-09-02T13:34:01Z</time>
      </trkpt>
      <trkpt lat="46.15288" lon="-1.14589">
        <ele>14.56</ele>
        <time>2016-09-02T13:34:10Z</time>
      </trkpt>
      <trkpt lat="46.15288" lon="-1.14589">
        <ele>15.04</ele>
        <time>2016-09-02T13:34:14Z</time>
      </trkpt>
      <trkpt lat="46.15288" lon="-1.14594">
        <ele>15.04</ele>
        <time>2016-09-02T13:34:21Z</time>
      </trkpt>
      <trkpt lat="46.1529" lon="-1.14602">
        <ele>15.04</ele>
        <time>2016-09-02T13:34:29Z</time>
      </trkpt>
      <trkpt lat="46.15289" lon="-1.146">
        <ele>15.04</ele>
        <time>2016-09-02T13:34:33Z</time>
      </trkpt>
      <trkpt lat="46.15295" lon="-1.14614">
        <ele>15.04</ele>
        <time>2016-09-02T13:34:43Z</time>
      </trkpt>
      <trkpt lat="46.15295" lon="-1.14624">
        <ele>15.52</ele>
        <time>2016-09-02T13:34:52Z</time>
      </trkpt>
      <trkpt lat="46.15289" lon="-1.14627">
        <ele>15.52</ele>
        <time>2016-09-02T13:34:58Z</time>
      </trkpt>
      <trkpt lat="46.15287" lon="-1.14627">
        <ele>15.52</ele>
        <time>2016-09-02T13:35:00Z</time>
      </trkpt>
      <trkpt lat="46.1528" lon="-1.14622">
        <ele>15.52</ele>
        <time>2016-09-02T13:35:11Z</time>
      </trkpt>
      <trkpt lat="46.15281" lon="-1.14621">
        <ele>15.04</ele>
        <time>2016-09-02T13:35:28Z</time>
      </trkpt>
      <trkpt lat="46.15282" lon="-1.14622">
        <ele>15.52</ele>
        <time>2016-09-02T13:35:44Z</time>
      </trkpt>
      <trkpt lat="46.15282" lon="-1.14622">
        <ele>15.52</ele>
        <time>2016-09-02T13:35:57Z</time>
      </trkpt>
      <trkpt lat="46.15282" lon="-1.14622">
        <ele>15.04</ele>
        <time>2016-09-02T13:36:14Z</time>
      </trkpt>
      <trkpt lat="46.15282" lon="-1.14621">
        <ele>14.56</ele>
        <time>2016-09-02T13:36:33Z</time>
      </trkpt>
      <trkpt lat="46.15282" lon="-1.14621">
        <ele>15.04</ele>
        <time>2016-09-02T13:36:51Z</time>
      </trkpt>
      <trkpt lat="46.15282" lon="-1.14622">
        <ele>15.52</ele>
        <time>2016-09-02T13:37:10Z</time>
      </trkpt>
      <trkpt lat="46.15281" lon="-1.14622">
        <ele>15.52</ele>
        <time>2016-09-02T13:37:22Z</time>
      </trkpt>
      <trkpt lat="46.1528" lon="-1.14622">
        <ele>15.52</ele>
        <time>2016-09-02T13:37:43Z</time>
      </trkpt>
      <trkpt lat="46.1528" lon="-1.14622">
        <ele>15.52</ele>
        <time>2016-09-02T13:38:05Z</time>
      </trkpt>
      <trkpt lat="46.15281" lon="-1.14622">
        <ele>15.04</ele>
        <time>2016-09-02T13:38:30Z</time>
      </trkpt>
      <trkpt lat="46.15277" lon="-1.1462">
        <ele>15.52</ele>
        <time>2016-09-02T13:38:42Z</time>
      </trkpt>
      <trkpt lat="46.15277" lon="-1.14612">
        <ele>15.52</ele>
        <time>2016-09-02T13:38:50Z</time>
      </trkpt>
      <trkpt lat="46.1528" lon="-1.14608">
        <ele>15.52</ele>
        <time>2016-09-02T13:38:56Z</time>
      </trkpt>
      <trkpt lat="46.15285" lon="-1.1461">
        <ele>15.04</ele>
        <time>2016-09-02T13:39:01Z</time>
      </trkpt>
      <trkpt lat="46.15294" lon="-1.14615">
        <ele>16</ele>
        <time>2016-09-02T13:39:12Z</time>
      </trkpt>
      <trkpt lat="46.15294" lon="-1.14613">
        <ele>16</ele>
        <time>2016-09-02T13:39:24Z</time>
      </trkpt>
      <trkpt lat="46.15293" lon="-1.14612">
        <ele>16.48</ele>
        <time>2016-09-02T13:39:26Z</time>
      </trkpt>
      <trkpt lat="46.15291" lon="-1.14611">
        <ele>16</ele>
        <time>2016-09-02T13:39:28Z</time>
      </trkpt>
      <trkpt lat="46.15278" lon="-1.14609">
        <ele>15.04</ele>
        <time>2016-09-02T13:39:39Z</time>
      </trkpt>
      <trkpt lat="46.15271" lon="-1.14614">
        <ele>15.04</ele>
        <time>2016-09-02T13:39:51Z</time>
      </trkpt>
      <trkpt lat="46.15271" lon="-1.14613">
        <ele>15.04</ele>
        <time>2016-09-02T13:40:05Z</time>
      </trkpt>
      <trkpt lat="46.1527" lon="-1.14613">
        <ele>15.04</ele>
        <time>2016-09-02T13:40:19Z</time>
      </trkpt>
      <trkpt lat="46.1527" lon="-1.14613">
        <ele>15.04</ele>
        <time>2016-09-02T13:40:36Z</time>
      </trkpt>
      <trkpt lat="46.1527" lon="-1.14614">
        <ele>14.56</ele>
        <time>2016-09-02T13:40:53Z</time>
      </trkpt>
      <trkpt lat="46.15269" lon="-1.14615">
        <ele>14.08</ele>
        <time>2016-09-02T13:41:09Z</time>
      </trkpt>
      <trkpt lat="46.15269" lon="-1.14618">
        <ele>14.56</ele>
        <time>2016-09-02T13:41:18Z</time>
      </trkpt>
      <trkpt lat="46.15269" lon="-1.14627">
        <ele>15.52</ele>
        <time>2016-09-02T13:41:28Z</time>
      </trkpt>
      <trkpt lat="46.15271" lon="-1.14632">
        <ele>14.56</ele>
        <time>2016-09-02T13:41:43Z</time>
      </trkpt>
      <trkpt lat="46.15274" lon="-1.14636">
        <ele>14.56</ele>
        <time>2016-09-02T13:42:05Z</time>
      </trkpt>
      <trkpt lat="46.15274" lon="-1.14637">
        <ele>14.56</ele>
        <time>2016-09-02T13:42:17Z</time>
      </trkpt>
      <trkpt lat="46.15274" lon="-1.14638">
        <ele>14.56</ele>
        <time>2016-09-02T13:42:32Z</time>
      </trkpt>
      <trkpt lat="46.15274" lon="-1.14638">
        <ele>14.08</ele>
        <time>2016-09-02T13:42:48Z</time>
      </trkpt>
      <trkpt lat="46.15275" lon="-1.14641">
        <ele>13.6</ele>
        <time>2016-09-02T13:43:00Z</time>
      </trkpt>
      <trkpt lat="46.15275" lon="-1.14644">
        <ele>13.6</ele>
        <time>2016-09-02T13:43:17Z</time>
      </trkpt>
      <trkpt lat="46.15275" lon="-1.14645">
        <ele>13.6</ele>
        <time>2016-09-02T13:43:30Z</time>
      </trkpt>
      <trkpt lat="46.15275" lon="-1.14646">
        <ele>13.12</ele>
        <time>2016-09-02T13:43:41Z</time>
      </trkpt>
      <trkpt lat="46.15275" lon="-1.14646">
        <ele>13.6</ele>
        <time>2016-09-02T13:43:55Z</time>
      </trkpt>
      <trkpt lat="46.15275" lon="-1.14646">
        <ele>13.6</ele>
        <time>2016-09-02T13:44:07Z</time>
      </trkpt>
      <trkpt lat="46.15275" lon="-1.14646">
        <ele>13.12</ele>
        <time>2016-09-02T13:44:17Z</time>
      </trkpt>
      <trkpt lat="46.15275" lon="-1.14646">
        <ele>13.6</ele>
        <time>2016-09-02T13:44:26Z</time>
      </trkpt>
      <trkpt lat="46.15275" lon="-1.14646">
        <ele>12.15</ele>
        <time>2016-09-02T13:44:34Z</time>
      </trkpt>
      <trkpt lat="46.15275" lon="-1.14647">
        <ele>13.6</ele>
        <time>2016-09-02T13:44:49Z</time>
      </trkpt>
      <trkpt lat="46.15275" lon="-1.14647">
        <ele>13.6</ele>
        <time>2016-09-02T13:44:58Z</time>
      </trkpt>
      <trkpt lat="46.15274" lon="-1.14647">
        <ele>13.6</ele>
        <time>2016-09-02T13:45:02Z</time>
      </trkpt>
      <trkpt lat="46.15273" lon="-1.14647">
        <ele>12.63</ele>
        <time>2016-09-02T13:45:10Z</time>
      </trkpt>
      <trkpt lat="46.15273" lon="-1.14648">
        <ele>13.12</ele>
        <time>2016-09-02T13:45:21Z</time>
      </trkpt>
      <trkpt lat="46.15273" lon="-1.14647">
        <ele>13.6</ele>
        <time>2016-09-02T13:45:31Z</time>
      </trkpt>
      <trkpt lat="46.15274" lon="-1.14647">
        <ele>13.6</ele>
        <time>2016-09-02T13:45:42Z</time>
      </trkpt>
      <trkpt lat="46.15274" lon="-1.14647">
        <ele>13.6</ele>
        <time>2016-09-02T13:45:52Z</time>
      </trkpt>
      <trkpt lat="46.15273" lon="-1.14646">
        <ele>13.6</ele>
        <time>2016-09-02T13:46:02Z</time>
      </trkpt>
      <trkpt lat="46.15274" lon="-1.14646">
        <ele>13.12</ele>
        <time>2016-09-02T13:46:12Z</time>
      </trkpt>
      <trkpt lat="46.15274" lon="-1.14645">
        <ele>14.08</ele>
        <time>2016-09-02T13:46:15Z</time>
      </trkpt>
      <trkpt lat="46.15274" lon="-1.14643">
        <ele>13.12</ele>
        <time>2016-09-02T13:46:25Z</time>
      </trkpt>
      <trkpt lat="46.15274" lon="-1.14642">
        <ele>13.12</ele>
        <time>2016-09-02T13:46:35Z</time>
      </trkpt>
      <trkpt lat="46.15274" lon="-1.14641">
        <ele>12.63</ele>
        <time>2016-09-02T13:46:47Z</time>
      </trkpt>
      <trkpt lat="46.15275" lon="-1.1464">
        <ele>13.12</ele>
        <time>2016-09-02T13:46:59Z</time>
      </trkpt>
      <trkpt lat="46.15275" lon="-1.1464">
        <ele>13.12</ele>
        <time>2016-09-02T13:47:10Z</time>
      </trkpt>
      <trkpt lat="46.15275" lon="-1.14639">
        <ele>13.12</ele>
        <time>2016-09-02T13:47:20Z</time>
      </trkpt>
      <trkpt lat="46.15277" lon="-1.14639">
        <ele>14.08</ele>
        <time>2016-09-02T13:47:30Z</time>
      </trkpt>
      <trkpt lat="46.15277" lon="-1.14639">
        <ele>13.6</ele>
        <time>2016-09-02T13:47:46Z</time>
      </trkpt>
      <trkpt lat="46.15277" lon="-1.14638">
        <ele>13.6</ele>
        <time>2016-09-02T13:47:56Z</time>
      </trkpt>
      <trkpt lat="46.15277" lon="-1.14639">
        <ele>13.12</ele>
        <time>2016-09-02T13:48:11Z</time>
      </trkpt>
      <trkpt lat="46.15277" lon="-1.14639">
        <ele>13.12</ele>
        <time>2016-09-02T13:48:23Z</time>
      </trkpt>
      <trkpt lat="46.15278" lon="-1.14641">
        <ele>13.12</ele>
        <time>2016-09-02T13:48:49Z</time>
      </trkpt>
      <trkpt lat="46.15279" lon="-1.14643">
        <ele>13.12</ele>
        <time>2016-09-02T13:49:18Z</time>
      </trkpt>
      <trkpt lat="46.15279" lon="-1.14646">
        <ele>13.12</ele>
        <time>2016-09-02T13:49:45Z</time>
      </trkpt>
      <trkpt lat="46.15279" lon="-1.14647">
        <ele>13.12</ele>
        <time>2016-09-02T13:50:19Z</time>
      </trkpt>
      <trkpt lat="46.1528" lon="-1.14648">
        <ele>13.6</ele>
        <time>2016-09-02T13:50:53Z</time>
      </trkpt>
      <trkpt lat="46.1528" lon="-1.14649">
        <ele>12.63</ele>
        <time>2016-09-02T13:51:20Z</time>
      </trkpt>
      <trkpt lat="46.1528" lon="-1.14649">
        <ele>13.12</ele>
        <time>2016-09-02T13:51:46Z</time>
      </trkpt>
      <trkpt lat="46.15279" lon="-1.14648">
        <ele>12.63</ele>
        <time>2016-09-02T13:52:10Z</time>
      </trkpt>
      <trkpt lat="46.1528" lon="-1.14649">
        <ele>13.12</ele>
        <time>2016-09-02T13:52:36Z</time>
      </trkpt>
      <trkpt lat="46.15279" lon="-1.14661">
        <ele>12.63</ele>
        <time>2016-09-02T13:52:49Z</time>
      </trkpt>
      <trkpt lat="46.15286" lon="-1.14648">
        <ele>13.12</ele>
        <time>2016-09-02T13:52:58Z</time>
      </trkpt>
      <trkpt lat="46.15291" lon="-1.14647">
        <ele>13.12</ele>
        <time>2016-09-02T13:53:10Z</time>
      </trkpt>
      <trkpt lat="46.15307" lon="-1.14631">
        <ele>14.08</ele>
        <time>2016-09-02T13:53:18Z</time>
      </trkpt>
      <trkpt lat="46.15311" lon="-1.14628">
        <ele>13.12</ele>
        <time>2016-09-02T13:53:22Z</time>
      </trkpt>
      <trkpt lat="46.15311" lon="-1.14628">
        <ele>12.63</ele>
        <time>2016-09-02T13:53:23Z</time>
      </trkpt>
      <trkpt lat="46.15313" lon="-1.14624">
        <ele>12.15</ele>
        <time>2016-09-02T13:53:25Z</time>
      </trkpt>
      <trkpt lat="46.15332" lon="-1.14603">
        <ele>12.15</ele>
        <time>2016-09-02T13:53:34Z</time>
      </trkpt>
      <trkpt lat="46.15344" lon="-1.14615">
        <ele>13.12</ele>
        <time>2016-09-02T13:53:38Z</time>
      </trkpt>
      <trkpt lat="46.15346" lon="-1.14621">
        <ele>14.08</ele>
        <time>2016-09-02T13:53:39Z</time>
      </trkpt>
      <trkpt lat="46.15349" lon="-1.14628">
        <ele>14.56</ele>
        <time>2016-09-02T13:53:40Z</time>
      </trkpt>
      <trkpt lat="46.15356" lon="-1.14643">
        <ele>16</ele>
        <time>2016-09-02T13:53:42Z</time>
      </trkpt>
      <trkpt lat="46.15361" lon="-1.1465">
        <ele>16.96</ele>
        <time>2016-09-02T13:53:43Z</time>
      </trkpt>
      <trkpt lat="46.15366" lon="-1.14656">
        <ele>16</ele>
        <time>2016-09-02T13:53:44Z</time>
      </trkpt>
      <trkpt lat="46.15383" lon="-1.14675">
        <ele>12.15</ele>
        <time>2016-09-02T13:53:50Z</time>
      </trkpt>
      <trkpt lat="46.15384" lon="-1.14676">
        <ele>12.15</ele>
        <time>2016-09-02T13:53:51Z</time>
      </trkpt>
      <trkpt lat="46.15404" lon="-1.14702">
        <ele>13.12</ele>
        <time>2016-09-02T13:53:58Z</time>
      </trkpt>
      <trkpt lat="46.15425" lon="-1.14734">
        <ele>15.52</ele>
        <time>2016-09-02T13:54:02Z</time>
      </trkpt>
      <trkpt lat="46.15494" lon="-1.14821">
        <ele>15.52</ele>
        <time>2016-09-02T13:54:13Z</time>
      </trkpt>
      <trkpt lat="46.15541" lon="-1.14876">
        <ele>14.56</ele>
        <time>2016-09-02T13:54:23Z</time>
      </trkpt>
      <trkpt lat="46.15581" lon="-1.14925">
        <ele>12.63</ele>
        <time>2016-09-02T13:54:33Z</time>
      </trkpt>
      <trkpt lat="46.15593" lon="-1.14938">
        <ele>13.6</ele>
        <time>2016-09-02T13:54:36Z</time>
      </trkpt>
      <trkpt lat="46.15598" lon="-1.14941">
        <ele>13.6</ele>
        <time>2016-09-02T13:54:37Z</time>
      </trkpt>
      <trkpt lat="46.15604" lon="-1.14945">
        <ele>13.12</ele>
        <time>2016-09-02T13:54:38Z</time>
      </trkpt>
      <trkpt lat="46.15702" lon="-1.14993">
        <ele>14.08</ele>
        <time>2016-09-02T13:54:54Z</time>
      </trkpt>
      <trkpt lat="46.15783" lon="-1.15047">
        <ele>13.6</ele>
        <time>2016-09-02T13:55:08Z</time>
      </trkpt>
      <trkpt lat="46.15791" lon="-1.15051">
        <ele>12.63</ele>
        <time>2016-09-02T13:55:10Z</time>
      </trkpt>
      <trkpt lat="46.15802" lon="-1.15063">
        <ele>12.63</ele>
        <time>2016-09-02T13:55:13Z</time>
      </trkpt>
      <trkpt lat="46.15806" lon="-1.15068">
        <ele>12.15</ele>
        <time>2016-09-02T13:55:14Z</time>
      </trkpt>
      <trkpt lat="46.1581" lon="-1.15074">
        <ele>12.15</ele>
        <time>2016-09-02T13:55:15Z</time>
      </trkpt>
      <trkpt lat="46.15813" lon="-1.1508">
        <ele>13.12</ele>
        <time>2016-09-02T13:55:16Z</time>
      </trkpt>
      <trkpt lat="46.15815" lon="-1.15087">
        <ele>13.12</ele>
        <time>2016-09-02T13:55:17Z</time>
      </trkpt>
      <trkpt lat="46.15817" lon="-1.15093">
        <ele>12.63</ele>
        <time>2016-09-02T13:55:18Z</time>
      </trkpt>
      <trkpt lat="46.15818" lon="-1.15099">
        <ele>12.15</ele>
        <time>2016-09-02T13:55:19Z</time>
      </trkpt>
      <trkpt lat="46.15818" lon="-1.15105">
        <ele>12.15</ele>
        <time>2016-09-02T13:55:20Z</time>
      </trkpt>
      <trkpt lat="46.15818" lon="-1.15112">
        <ele>13.12</ele>
        <time>2016-09-02T13:55:21Z</time>
      </trkpt>
      <trkpt lat="46.15818" lon="-1.15204">
        <ele>13.12</ele>
        <time>2016-09-02T13:55:31Z</time>
      </trkpt>
      <trkpt lat="46.15808" lon="-1.15324">
        <ele>15.04</ele>
        <time>2016-09-02T13:55:44Z</time>
      </trkpt>
      <trkpt lat="46.15803" lon="-1.15378">
        <ele>13.6</ele>
        <time>2016-09-02T13:55:51Z</time>
      </trkpt>
      <trkpt lat="46.15802" lon="-1.15386">
        <ele>14.08</ele>
        <time>2016-09-02T13:55:52Z</time>
      </trkpt>
      <trkpt lat="46.15786" lon="-1.15461">
        <ele>15.52</ele>
        <time>2016-09-02T13:56:00Z</time>
      </trkpt>
      <trkpt lat="46.15785" lon="-1.15471">
        <ele>15.52</ele>
        <time>2016-09-02T13:56:01Z</time>
      </trkpt>
      <trkpt lat="46.15784" lon="-1.1549">
        <ele>15.04</ele>
        <time>2016-09-02T13:56:03Z</time>
      </trkpt>
      <trkpt lat="46.15785" lon="-1.15499">
        <ele>15.52</ele>
        <time>2016-09-02T13:56:04Z</time>
      </trkpt>
      <trkpt lat="46.15786" lon="-1.15509">
        <ele>15.52</ele>
        <time>2016-09-02T13:56:05Z</time>
      </trkpt>
      <trkpt lat="46.15799" lon="-1.1557">
        <ele>13.6</ele>
        <time>2016-09-02T13:56:14Z</time>
      </trkpt>
      <trkpt lat="46.15805" lon="-1.1559">
        <ele>15.52</ele>
        <time>2016-09-02T13:56:17Z</time>
      </trkpt>
      <trkpt lat="46.15811" lon="-1.15607">
        <ele>14.08</ele>
        <time>2016-09-02T13:56:22Z</time>
      </trkpt>
      <trkpt lat="46.15812" lon="-1.15614">
        <ele>14.08</ele>
        <time>2016-09-02T13:56:35Z</time>
      </trkpt>
      <trkpt lat="46.15812" lon="-1.15617">
        <ele>14.08</ele>
        <time>2016-09-02T13:56:58Z</time>
      </trkpt>
      <trkpt lat="46.15812" lon="-1.15619">
        <ele>13.12</ele>
        <time>2016-09-02T13:57:21Z</time>
      </trkpt>
      <trkpt lat="46.15814" lon="-1.15625">
        <ele>14.08</ele>
        <time>2016-09-02T13:57:23Z</time>
      </trkpt>
      <trkpt lat="46.15815" lon="-1.15629">
        <ele>14.56</ele>
        <time>2016-09-02T13:57:24Z</time>
      </trkpt>
      <trkpt lat="46.15816" lon="-1.15633">
        <ele>14.08</ele>
        <time>2016-09-02T13:57:25Z</time>
      </trkpt>
      <trkpt lat="46.15817" lon="-1.15637">
        <ele>14.56</ele>
        <time>2016-09-02T13:57:26Z</time>
      </trkpt>
      <trkpt lat="46.15818" lon="-1.15641">
        <ele>14.56</ele>
        <time>2016-09-02T13:57:27Z</time>
      </trkpt>
      <trkpt lat="46.15819" lon="-1.15646">
        <ele>15.52</ele>
        <time>2016-09-02T13:57:28Z</time>
      </trkpt>
      <trkpt lat="46.15822" lon="-1.15649">
        <ele>15.52</ele>
        <time>2016-09-02T13:57:29Z</time>
      </trkpt>
      <trkpt lat="46.15826" lon="-1.15651">
        <ele>15.04</ele>
        <time>2016-09-02T13:57:30Z</time>
      </trkpt>
      <trkpt lat="46.15831" lon="-1.15651">
        <ele>14.08</ele>
        <time>2016-09-02T13:57:31Z</time>
      </trkpt>
      <trkpt lat="46.15837" lon="-1.1565">
        <ele>14.08</ele>
        <time>2016-09-02T13:57:32Z</time>
      </trkpt>
      <trkpt lat="46.15843" lon="-1.15647">
        <ele>14.08</ele>
        <time>2016-09-02T13:57:33Z</time>
      </trkpt>
      <trkpt lat="46.15867" lon="-1.15637">
        <ele>17.44</ele>
        <time>2016-09-02T13:57:36Z</time>
      </trkpt>
      <trkpt lat="46.15946" lon="-1.15603">
        <ele>16.96</ele>
        <time>2016-09-02T13:57:44Z</time>
      </trkpt>
      <trkpt lat="46.15963" lon="-1.15596">
        <ele>15.52</ele>
        <time>2016-09-02T13:57:46Z</time>
      </trkpt>
      <trkpt lat="46.16044" lon="-1.15566">
        <ele>17.92</ele>
        <time>2016-09-02T13:57:55Z</time>
      </trkpt>
      <trkpt lat="46.16125" lon="-1.15538">
        <ele>16.48</ele>
        <time>2016-09-02T13:58:03Z</time>
      </trkpt>
      <trkpt lat="46.16175" lon="-1.15523">
        <ele>14.08</ele>
        <time>2016-09-02T13:58:10Z</time>
      </trkpt>
      <trkpt lat="46.16184" lon="-1.15522">
        <ele>13.6</ele>
        <time>2016-09-02T13:58:17Z</time>
      </trkpt>
      <trkpt lat="46.16184" lon="-1.15526">
        <ele>13.6</ele>
        <time>2016-09-02T13:58:43Z</time>
      </trkpt>
      <trkpt lat="46.16187" lon="-1.15526">
        <ele>13.12</ele>
        <time>2016-09-02T13:59:05Z</time>
      </trkpt>
      <trkpt lat="46.16189" lon="-1.15525">
        <ele>12.63</ele>
        <time>2016-09-02T13:59:06Z</time>
      </trkpt>
      <trkpt lat="46.16192" lon="-1.15524">
        <ele>13.6</ele>
        <time>2016-09-02T13:59:07Z</time>
      </trkpt>
      <trkpt lat="46.16206" lon="-1.15517">
        <ele>13.6</ele>
        <time>2016-09-02T13:59:11Z</time>
      </trkpt>
      <trkpt lat="46.1622" lon="-1.15507">
        <ele>15.52</ele>
        <time>2016-09-02T13:59:14Z</time>
      </trkpt>
      <trkpt lat="46.16233" lon="-1.155">
        <ele>15.52</ele>
        <time>2016-09-02T13:59:20Z</time>
      </trkpt>
      <trkpt lat="46.16233" lon="-1.155">
        <ele>14.08</ele>
        <time>2016-09-02T13:59:41Z</time>
      </trkpt>
      <trkpt lat="46.16237" lon="-1.15499">
        <ele>15.04</ele>
        <time>2016-09-02T13:59:43Z</time>
      </trkpt>
      <trkpt lat="46.1624" lon="-1.15498">
        <ele>15.52</ele>
        <time>2016-09-02T13:59:44Z</time>
      </trkpt>
      <trkpt lat="46.16249" lon="-1.15496">
        <ele>15.52</ele>
        <time>2016-09-02T13:59:56Z</time>
      </trkpt>
      <trkpt lat="46.16251" lon="-1.15495">
        <ele>15.04</ele>
        <time>2016-09-02T14:00:06Z</time>
      </trkpt>
      <trkpt lat="46.16252" lon="-1.15495">
        <ele>16</ele>
        <time>2016-09-02T14:00:07Z</time>
      </trkpt>
      <trkpt lat="46.16255" lon="-1.15493">
        <ele>15.52</ele>
        <time>2016-09-02T14:00:19Z</time>
      </trkpt>
      <trkpt lat="46.1626" lon="-1.15492">
        <ele>15.52</ele>
        <time>2016-09-02T14:00:36Z</time>
      </trkpt>
      <trkpt lat="46.16263" lon="-1.1549">
        <ele>16</ele>
        <time>2016-09-02T14:00:49Z</time>
      </trkpt>
      <trkpt lat="46.16266" lon="-1.15489">
        <ele>15.04</ele>
        <time>2016-09-02T14:01:00Z</time>
      </trkpt>
      <trkpt lat="46.16273" lon="-1.15487">
        <ele>16.96</ele>
        <time>2016-09-02T14:01:03Z</time>
      </trkpt>
      <trkpt lat="46.16283" lon="-1.1548">
        <ele>15.52</ele>
        <time>2016-09-02T14:01:12Z</time>
      </trkpt>
      <trkpt lat="46.16284" lon="-1.1548">
        <ele>15.52</ele>
        <time>2016-09-02T14:01:30Z</time>
      </trkpt>
      <trkpt lat="46.16284" lon="-1.1548">
        <ele>15.52</ele>
        <time>2016-09-02T14:01:47Z</time>
      </trkpt>
      <trkpt lat="46.16284" lon="-1.1548">
        <ele>15.52</ele>
        <time>2016-09-02T14:02:03Z</time>
      </trkpt>
      <trkpt lat="46.16284" lon="-1.1548">
        <ele>15.04</ele>
        <time>2016-09-02T14:02:32Z</time>
      </trkpt>
      <trkpt lat="46.16284" lon="-1.1548">
        <ele>15.04</ele>
        <time>2016-09-02T14:03:02Z</time>
      </trkpt>
      <trkpt lat="46.16285" lon="-1.1548">
        <ele>15.52</ele>
        <time>2016-09-02T14:03:25Z</time>
      </trkpt>
      <trkpt lat="46.16284" lon="-1.1548">
        <ele>15.52</ele>
        <time>2016-09-02T14:03:49Z</time>
      </trkpt>
      <trkpt lat="46.16285" lon="-1.1548">
        <ele>15.52</ele>
        <time>2016-09-02T14:04:14Z</time>
      </trkpt>
      <trkpt lat="46.16285" lon="-1.1548">
        <ele>16</ele>
        <time>2016-09-02T14:04:43Z</time>
      </trkpt>
      <trkpt lat="46.16286" lon="-1.15479">
        <ele>15.52</ele>
        <time>2016-09-02T14:04:49Z</time>
      </trkpt>
      <trkpt lat="46.16288" lon="-1.15476">
        <ele>16</ele>
        <time>2016-09-02T14:04:51Z</time>
      </trkpt>
      <trkpt lat="46.16292" lon="-1.15471">
        <ele>15.52</ele>
        <time>2016-09-02T14:05:05Z</time>
      </trkpt>
      <trkpt lat="46.16294" lon="-1.15473">
        <ele>15.52</ele>
        <time>2016-09-02T14:05:32Z</time>
      </trkpt>
      <trkpt lat="46.16302" lon="-1.15467">
        <ele>16</ele>
        <time>2016-09-02T14:05:49Z</time>
      </trkpt>
      <trkpt lat="46.16303" lon="-1.15465">
        <ele>16</ele>
        <time>2016-09-02T14:06:08Z</time>
      </trkpt>
      <trkpt lat="46.16305" lon="-1.15466">
        <ele>15.04</ele>
        <time>2016-09-02T14:06:22Z</time>
      </trkpt>
      <trkpt lat="46.16316" lon="-1.15488">
        <ele>16</ele>
        <time>2016-09-02T14:06:30Z</time>
      </trkpt>
      <trkpt lat="46.16332" lon="-1.15529">
        <ele>16.48</ele>
        <time>2016-09-02T14:06:38Z</time>
      </trkpt>
      <trkpt lat="46.16337" lon="-1.15531">
        <ele>16.96</ele>
        <time>2016-09-02T14:06:39Z</time>
      </trkpt>
      <trkpt lat="46.16354" lon="-1.15539">
        <ele>18.88</ele>
        <time>2016-09-02T14:06:42Z</time>
      </trkpt>
      <trkpt lat="46.16438" lon="-1.15562">
        <ele>19.84</ele>
        <time>2016-09-02T14:06:51Z</time>
      </trkpt>
      <trkpt lat="46.16447" lon="-1.15564">
        <ele>19.36</ele>
        <time>2016-09-02T14:06:52Z</time>
      </trkpt>
      <trkpt lat="46.16496" lon="-1.15564">
        <ele>16.48</ele>
        <time>2016-09-02T14:06:58Z</time>
      </trkpt>
      <trkpt lat="46.16501" lon="-1.1556">
        <ele>16.96</ele>
        <time>2016-09-02T14:06:59Z</time>
      </trkpt>
      <trkpt lat="46.16505" lon="-1.15553">
        <ele>16.96</ele>
        <time>2016-09-02T14:07:00Z</time>
      </trkpt>
      <trkpt lat="46.16523" lon="-1.15508">
        <ele>16</ele>
        <time>2016-09-02T14:07:05Z</time>
      </trkpt>
      <trkpt lat="46.16526" lon="-1.15494">
        <ele>16.48</ele>
        <time>2016-09-02T14:07:06Z</time>
      </trkpt>
      <trkpt lat="46.16533" lon="-1.15447">
        <ele>16</ele>
        <time>2016-09-02T14:07:10Z</time>
      </trkpt>
      <trkpt lat="46.16538" lon="-1.15436">
        <ele>16.48</ele>
        <time>2016-09-02T14:07:11Z</time>
      </trkpt>
      <trkpt lat="46.16543" lon="-1.15426">
        <ele>17.44</ele>
        <time>2016-09-02T14:07:12Z</time>
      </trkpt>
      <trkpt lat="46.16549" lon="-1.15417">
        <ele>17.92</ele>
        <time>2016-09-02T14:07:13Z</time>
      </trkpt>
      <trkpt lat="46.16555" lon="-1.15409">
        <ele>17.92</ele>
        <time>2016-09-02T14:07:14Z</time>
      </trkpt>
      <trkpt lat="46.16618" lon="-1.15337">
        <ele>17.44</ele>
        <time>2016-09-02T14:07:23Z</time>
      </trkpt>
      <trkpt lat="46.16628" lon="-1.15329">
        <ele>16.48</ele>
        <time>2016-09-02T14:07:25Z</time>
      </trkpt>
      <trkpt lat="46.16639" lon="-1.15324">
        <ele>15.52</ele>
        <time>2016-09-02T14:07:31Z</time>
      </trkpt>
      <trkpt lat="46.1664" lon="-1.15322">
        <ele>14.56</ele>
        <time>2016-09-02T14:07:53Z</time>
      </trkpt>
      <trkpt lat="46.16646" lon="-1.15321">
        <ele>16.48</ele>
        <time>2016-09-02T14:07:56Z</time>
      </trkpt>
      <trkpt lat="46.16648" lon="-1.1532">
        <ele>16</ele>
        <time>2016-09-02T14:07:57Z</time>
      </trkpt>
      <trkpt lat="46.16684" lon="-1.15321">
        <ele>17.92</ele>
        <time>2016-09-02T14:08:05Z</time>
      </trkpt>
      <trkpt lat="46.1669" lon="-1.1532">
        <ele>18.4</ele>
        <time>2016-09-02T14:08:06Z</time>
      </trkpt>
      <trkpt lat="46.16696" lon="-1.15318">
        <ele>18.4</ele>
        <time>2016-09-02T14:08:07Z</time>
      </trkpt>
      <trkpt lat="46.16761" lon="-1.15287">
        <ele>20.32</ele>
        <time>2016-09-02T14:08:15Z</time>
      </trkpt>
      <trkpt lat="46.16849" lon="-1.15241">
        <ele>16.96</ele>
        <time>2016-09-02T14:08:22Z</time>
      </trkpt>
      <trkpt lat="46.16871" lon="-1.15227">
        <ele>16</ele>
        <time>2016-09-02T14:08:24Z</time>
      </trkpt>
      <trkpt lat="46.16894" lon="-1.1521">
        <ele>13.12</ele>
        <time>2016-09-02T14:08:27Z</time>
      </trkpt>
      <trkpt lat="46.16909" lon="-1.15195">
        <ele>11.19</ele>
        <time>2016-09-02T14:08:32Z</time>
      </trkpt>
      <trkpt lat="46.16912" lon="-1.15193">
        <ele>10.71</ele>
        <time>2016-09-02T14:08:34Z</time>
      </trkpt>
      <trkpt lat="46.16913" lon="-1.15189">
        <ele>10.23</ele>
        <time>2016-09-02T14:08:49Z</time>
      </trkpt>
      <trkpt lat="46.16913" lon="-1.15189">
        <ele>9.75</ele>
        <time>2016-09-02T14:08:59Z</time>
      </trkpt>
      <trkpt lat="46.16918" lon="-1.15183">
        <ele>9.75</ele>
        <time>2016-09-02T14:09:02Z</time>
      </trkpt>
      <trkpt lat="46.16921" lon="-1.1518">
        <ele>10.23</ele>
        <time>2016-09-02T14:09:03Z</time>
      </trkpt>
      <trkpt lat="46.16924" lon="-1.15175">
        <ele>9.75</ele>
        <time>2016-09-02T14:09:04Z</time>
      </trkpt>
      <trkpt lat="46.16928" lon="-1.1517">
        <ele>10.23</ele>
        <time>2016-09-02T14:09:05Z</time>
      </trkpt>
      <trkpt lat="46.16932" lon="-1.15162">
        <ele>11.19</ele>
        <time>2016-09-02T14:09:06Z</time>
      </trkpt>
      <trkpt lat="46.16948" lon="-1.15131">
        <ele>10.23</ele>
        <time>2016-09-02T14:09:10Z</time>
      </trkpt>
      <trkpt lat="46.16953" lon="-1.15125">
        <ele>10.71</ele>
        <time>2016-09-02T14:09:11Z</time>
      </trkpt>
      <trkpt lat="46.16959" lon="-1.15121">
        <ele>11.19</ele>
        <time>2016-09-02T14:09:12Z</time>
      </trkpt>
      <trkpt lat="46.16966" lon="-1.15118">
        <ele>12.15</ele>
        <time>2016-09-02T14:09:13Z</time>
      </trkpt>
      <trkpt lat="46.16973" lon="-1.15116">
        <ele>12.15</ele>
        <time>2016-09-02T14:09:14Z</time>
      </trkpt>
      <trkpt lat="46.16981" lon="-1.15114">
        <ele>12.63</ele>
        <time>2016-09-02T14:09:15Z</time>
      </trkpt>
      <trkpt lat="46.16989" lon="-1.15111">
        <ele>13.12</ele>
        <time>2016-09-02T14:09:16Z</time>
      </trkpt>
      <trkpt lat="46.16997" lon="-1.15106">
        <ele>13.6</ele>
        <time>2016-09-02T14:09:17Z</time>
      </trkpt>
      <trkpt lat="46.17005" lon="-1.151">
        <ele>13.12</ele>
        <time>2016-09-02T14:09:18Z</time>
      </trkpt>
      <trkpt lat="46.17081" lon="-1.15039">
        <ele>15.04</ele>
        <time>2016-09-02T14:09:26Z</time>
      </trkpt>
      <trkpt lat="46.17093" lon="-1.15035">
        <ele>15.04</ele>
        <time>2016-09-02T14:09:27Z</time>
      </trkpt>
      <trkpt lat="46.17118" lon="-1.15029">
        <ele>15.04</ele>
        <time>2016-09-02T14:09:29Z</time>
      </trkpt>
      <trkpt lat="46.1713" lon="-1.15029">
        <ele>16.48</ele>
        <time>2016-09-02T14:09:30Z</time>
      </trkpt>
      <trkpt lat="46.17228" lon="-1.1503">
        <ele>14.08</ele>
        <time>2016-09-02T14:09:38Z</time>
      </trkpt>
      <trkpt lat="46.17275" lon="-1.1503">
        <ele>13.6</ele>
        <time>2016-09-02T14:09:43Z</time>
      </trkpt>
      <trkpt lat="46.17304" lon="-1.1503">
        <ele>11.67</ele>
        <time>2016-09-02T14:09:49Z</time>
      </trkpt>
      <trkpt lat="46.17312" lon="-1.1503">
        <ele>8.79</ele>
        <time>2016-09-02T14:09:55Z</time>
      </trkpt>
      <trkpt lat="46.17317" lon="-1.1503">
        <ele>10.23</ele>
        <time>2016-09-02T14:09:57Z</time>
      </trkpt>
      <trkpt lat="46.17326" lon="-1.1503">
        <ele>7.83</ele>
        <time>2016-09-02T14:10:00Z</time>
      </trkpt>
      <trkpt lat="46.17335" lon="-1.1503">
        <ele>10.71</ele>
        <time>2016-09-02T14:10:02Z</time>
      </trkpt>
      <trkpt lat="46.17386" lon="-1.15031">
        <ele>14.08</ele>
        <time>2016-09-02T14:10:09Z</time>
      </trkpt>
      <trkpt lat="46.17395" lon="-1.15031">
        <ele>13.12</ele>
        <time>2016-09-02T14:10:10Z</time>
      </trkpt>
      <trkpt lat="46.17479" lon="-1.15036">
        <ele>15.52</ele>
        <time>2016-09-02T14:10:17Z</time>
      </trkpt>
      <trkpt lat="46.17507" lon="-1.15041">
        <ele>19.36</ele>
        <time>2016-09-02T14:10:19Z</time>
      </trkpt>
      <trkpt lat="46.17521" lon="-1.15045">
        <ele>17.44</ele>
        <time>2016-09-02T14:10:20Z</time>
      </trkpt>
      <trkpt lat="46.17575" lon="-1.15062">
        <ele>19.36</ele>
        <time>2016-09-02T14:10:24Z</time>
      </trkpt>
      <trkpt lat="46.17623" lon="-1.15081">
        <ele>16</ele>
        <time>2016-09-02T14:10:28Z</time>
      </trkpt>
      <trkpt lat="46.17663" lon="-1.15099">
        <ele>14.08</ele>
        <time>2016-09-02T14:10:32Z</time>
      </trkpt>
      <trkpt lat="46.17688" lon="-1.15115">
        <ele>12.15</ele>
        <time>2016-09-02T14:10:37Z</time>
      </trkpt>
      <trkpt lat="46.17691" lon="-1.15117">
        <ele>11.67</ele>
        <time>2016-09-02T14:10:44Z</time>
      </trkpt>
      <trkpt lat="46.17711" lon="-1.15132">
        <ele>12.63</ele>
        <time>2016-09-02T14:10:53Z</time>
      </trkpt>
      <trkpt lat="46.17745" lon="-1.1516">
        <ele>15.52</ele>
        <time>2016-09-02T14:10:59Z</time>
      </trkpt>
      <trkpt lat="46.17759" lon="-1.15171">
        <ele>17.44</ele>
        <time>2016-09-02T14:11:01Z</time>
      </trkpt>
      <trkpt lat="46.17791" lon="-1.15197">
        <ele>16</ele>
        <time>2016-09-02T14:11:08Z</time>
      </trkpt>
      <trkpt lat="46.17796" lon="-1.15201">
        <ele>14.08</ele>
        <time>2016-09-02T14:11:11Z</time>
      </trkpt>
      <trkpt lat="46.17817" lon="-1.15217">
        <ele>15.04</ele>
        <time>2016-09-02T14:11:19Z</time>
      </trkpt>
      <trkpt lat="46.17853" lon="-1.15243">
        <ele>16</ele>
        <time>2016-09-02T14:11:26Z</time>
      </trkpt>
      <trkpt lat="46.17859" lon="-1.15245">
        <ele>16</ele>
        <time>2016-09-02T14:11:27Z</time>
      </trkpt>
      <trkpt lat="46.17866" lon="-1.15246">
        <ele>14.56</ele>
        <time>2016-09-02T14:11:28Z</time>
      </trkpt>
      <trkpt lat="46.17873" lon="-1.15245">
        <ele>16</ele>
        <time>2016-09-02T14:11:29Z</time>
      </trkpt>
      <trkpt lat="46.17879" lon="-1.15245">
        <ele>16.96</ele>
        <time>2016-09-02T14:11:30Z</time>
      </trkpt>
      <trkpt lat="46.17902" lon="-1.15243">
        <ele>12.63</ele>
        <time>2016-09-02T14:11:35Z</time>
      </trkpt>
      <trkpt lat="46.17907" lon="-1.15243">
        <ele>12.15</ele>
        <time>2016-09-02T14:11:36Z</time>
      </trkpt>
      <trkpt lat="46.17919" lon="-1.15241">
        <ele>15.04</ele>
        <time>2016-09-02T14:11:38Z</time>
      </trkpt>
      <trkpt lat="46.17926" lon="-1.15238">
        <ele>16</ele>
        <time>2016-09-02T14:11:39Z</time>
      </trkpt>
      <trkpt lat="46.17933" lon="-1.15234">
        <ele>16</ele>
        <time>2016-09-02T14:11:40Z</time>
      </trkpt>
      <trkpt lat="46.17987" lon="-1.15207">
        <ele>16.96</ele>
        <time>2016-09-02T14:11:49Z</time>
      </trkpt>
      <trkpt lat="46.18015" lon="-1.15203">
        <ele>15.04</ele>
        <time>2016-09-02T14:11:58Z</time>
      </trkpt>
      <trkpt lat="46.18011" lon="-1.15206">
        <ele>15.04</ele>
        <time>2016-09-02T14:12:18Z</time>
      </trkpt>
      <trkpt lat="46.18012" lon="-1.15207">
        <ele>14.56</ele>
        <time>2016-09-02T14:12:34Z</time>
      </trkpt>
      <trkpt lat="46.18027" lon="-1.15216">
        <ele>16</ele>
        <time>2016-09-02T14:12:40Z</time>
      </trkpt>
      <trkpt lat="46.18031" lon="-1.15219">
        <ele>16</ele>
        <time>2016-09-02T14:12:41Z</time>
      </trkpt>
      <trkpt lat="46.18034" lon="-1.15224">
        <ele>15.04</ele>
        <time>2016-09-02T14:12:42Z</time>
      </trkpt>
      <trkpt lat="46.18038" lon="-1.1523">
        <ele>16</ele>
        <time>2016-09-02T14:12:43Z</time>
      </trkpt>
      <trkpt lat="46.18041" lon="-1.15236">
        <ele>17.44</ele>
        <time>2016-09-02T14:12:44Z</time>
      </trkpt>
      <trkpt lat="46.18044" lon="-1.15243">
        <ele>16</ele>
        <time>2016-09-02T14:12:45Z</time>
      </trkpt>
      <trkpt lat="46.18046" lon="-1.15251">
        <ele>16.96</ele>
        <time>2016-09-02T14:12:46Z</time>
      </trkpt>
      <trkpt lat="46.18049" lon="-1.15259">
        <ele>17.44</ele>
        <time>2016-09-02T14:12:47Z</time>
      </trkpt>
      <trkpt lat="46.1805" lon="-1.15268">
        <ele>18.4</ele>
        <time>2016-09-02T14:12:48Z</time>
      </trkpt>
      <trkpt lat="46.18051" lon="-1.15275">
        <ele>18.88</ele>
        <time>2016-09-02T14:12:49Z</time>
      </trkpt>
      <trkpt lat="46.18051" lon="-1.1528">
        <ele>17.44</ele>
        <time>2016-09-02T14:12:50Z</time>
      </trkpt>
      <trkpt lat="46.18051" lon="-1.15284">
        <ele>16.96</ele>
        <time>2016-09-02T14:12:51Z</time>
      </trkpt>
      <trkpt lat="46.18047" lon="-1.15311">
        <ele>17.92</ele>
        <time>2016-09-02T14:12:58Z</time>
      </trkpt>
      <trkpt lat="46.18045" lon="-1.15316">
        <ele>16.48</ele>
        <time>2016-09-02T14:12:59Z</time>
      </trkpt>
      <trkpt lat="46.18042" lon="-1.15322">
        <ele>16.48</ele>
        <time>2016-09-02T14:13:00Z</time>
      </trkpt>
      <trkpt lat="46.18037" lon="-1.15328">
        <ele>16.96</ele>
        <time>2016-09-02T14:13:01Z</time>
      </trkpt>
      <trkpt lat="46.18031" lon="-1.15333">
        <ele>18.4</ele>
        <time>2016-09-02T14:13:02Z</time>
      </trkpt>
      <trkpt lat="46.18023" lon="-1.15337">
        <ele>17.92</ele>
        <time>2016-09-02T14:13:03Z</time>
      </trkpt>
      <trkpt lat="46.18015" lon="-1.1534">
        <ele>17.92</ele>
        <time>2016-09-02T14:13:04Z</time>
      </trkpt>
      <trkpt lat="46.18008" lon="-1.15343">
        <ele>18.4</ele>
        <time>2016-09-02T14:13:05Z</time>
      </trkpt>
      <trkpt lat="46.18" lon="-1.15348">
        <ele>18.88</ele>
        <time>2016-09-02T14:13:06Z</time>
      </trkpt>
      <trkpt lat="46.17994" lon="-1.15355">
        <ele>18.88</ele>
        <time>2016-09-02T14:13:07Z</time>
      </trkpt>
      <trkpt lat="46.17988" lon="-1.15364">
        <ele>17.92</ele>
        <time>2016-09-02T14:13:08Z</time>
      </trkpt>
      <trkpt lat="46.17983" lon="-1.15375">
        <ele>18.88</ele>
        <time>2016-09-02T14:13:09Z</time>
      </trkpt>
      <trkpt lat="46.17979" lon="-1.15388">
        <ele>19.84</ele>
        <time>2016-09-02T14:13:10Z</time>
      </trkpt>
      <trkpt lat="46.17939" lon="-1.1551">
        <ele>24.17</ele>
        <time>2016-09-02T14:13:18Z</time>
      </trkpt>
      <trkpt lat="46.17933" lon="-1.15527">
        <ele>23.69</ele>
        <time>2016-09-02T14:13:19Z</time>
      </trkpt>
      <trkpt lat="46.17916" lon="-1.1558">
        <ele>27.53</ele>
        <time>2016-09-02T14:13:22Z</time>
      </trkpt>
      <trkpt lat="46.17904" lon="-1.15617">
        <ele>30.42</ele>
        <time>2016-09-02T14:13:24Z</time>
      </trkpt>
      <trkpt lat="46.17874" lon="-1.1571">
        <ele>33.78</ele>
        <time>2016-09-02T14:13:29Z</time>
      </trkpt>
      <trkpt lat="46.17868" lon="-1.1573">
        <ele>33.3</ele>
        <time>2016-09-02T14:13:30Z</time>
      </trkpt>
      <trkpt lat="46.17856" lon="-1.15771">
        <ele>36.67</ele>
        <time>2016-09-02T14:13:32Z</time>
      </trkpt>
      <trkpt lat="46.17846" lon="-1.15814">
        <ele>30.9</ele>
        <time>2016-09-02T14:13:34Z</time>
      </trkpt>
      <trkpt lat="46.17841" lon="-1.15836">
        <ele>32.34</ele>
        <time>2016-09-02T14:13:35Z</time>
      </trkpt>
      <trkpt lat="46.17817" lon="-1.15928">
        <ele>37.15</ele>
        <time>2016-09-02T14:13:39Z</time>
      </trkpt>
      <trkpt lat="46.17811" lon="-1.15951">
        <ele>36.19</ele>
        <time>2016-09-02T14:13:40Z</time>
      </trkpt>
      <trkpt lat="46.17799" lon="-1.16">
        <ele>34.74</ele>
        <time>2016-09-02T14:13:42Z</time>
      </trkpt>
      <trkpt lat="46.17793" lon="-1.16025">
        <ele>38.11</ele>
        <time>2016-09-02T14:13:43Z</time>
      </trkpt>
      <trkpt lat="46.17787" lon="-1.1605">
        <ele>36.67</ele>
        <time>2016-09-02T14:13:44Z</time>
      </trkpt>
      <trkpt lat="46.17765" lon="-1.16145">
        <ele>33.78</ele>
        <time>2016-09-02T14:13:48Z</time>
      </trkpt>
      <trkpt lat="46.17756" lon="-1.16186">
        <ele>33.3</ele>
        <time>2016-09-02T14:13:50Z</time>
      </trkpt>
      <trkpt lat="46.17747" lon="-1.16225">
        <ele>30.42</ele>
        <time>2016-09-02T14:13:52Z</time>
      </trkpt>
      <trkpt lat="46.17709" lon="-1.1638">
        <ele>35.23</ele>
        <time>2016-09-02T14:14:00Z</time>
      </trkpt>
      <trkpt lat="46.17703" lon="-1.16401">
        <ele>34.26</ele>
        <time>2016-09-02T14:14:01Z</time>
      </trkpt>
      <trkpt lat="46.17675" lon="-1.16514">
        <ele>35.23</ele>
        <time>2016-09-02T14:14:06Z</time>
      </trkpt>
      <trkpt lat="46.17663" lon="-1.16561">
        <ele>39.07</ele>
        <time>2016-09-02T14:14:08Z</time>
      </trkpt>
      <trkpt lat="46.17646" lon="-1.16634">
        <ele>35.71</ele>
        <time>2016-09-02T14:14:11Z</time>
      </trkpt>
      <trkpt lat="46.1764" lon="-1.16659">
        <ele>36.19</ele>
        <time>2016-09-02T14:14:12Z</time>
      </trkpt>
      <trkpt lat="46.17634" lon="-1.16684">
        <ele>41.47</ele>
        <time>2016-09-02T14:14:13Z</time>
      </trkpt>
      <trkpt lat="46.17628" lon="-1.1671">
        <ele>40.03</ele>
        <time>2016-09-02T14:14:14Z</time>
      </trkpt>
      <trkpt lat="46.17622" lon="-1.16736">
        <ele>35.71</ele>
        <time>2016-09-02T14:14:15Z</time>
      </trkpt>
      <trkpt lat="46.17616" lon="-1.16762">
        <ele>39.07</ele>
        <time>2016-09-02T14:14:16Z</time>
      </trkpt>
      <trkpt lat="46.17584" lon="-1.16898">
        <ele>42.92</ele>
        <time>2016-09-02T14:14:21Z</time>
      </trkpt>
      <trkpt lat="46.17577" lon="-1.16926">
        <ele>41.95</ele>
        <time>2016-09-02T14:14:22Z</time>
      </trkpt>
      <trkpt lat="46.17558" lon="-1.17012">
        <ele>47.72</ele>
        <time>2016-09-02T14:14:25Z</time>
      </trkpt>
      <trkpt lat="46.17551" lon="-1.17041">
        <ele>45.8</ele>
        <time>2016-09-02T14:14:26Z</time>
      </trkpt>
      <trkpt lat="46.17539" lon="-1.17101">
        <ele>43.4</ele>
        <time>2016-09-02T14:14:28Z</time>
      </trkpt>
      <trkpt lat="46.17513" lon="-1.17223">
        <ele>40.99</ele>
        <time>2016-09-02T14:14:32Z</time>
      </trkpt>
      <trkpt lat="46.17491" lon="-1.17317">
        <ele>44.84</ele>
        <time>2016-09-02T14:14:35Z</time>
      </trkpt>
      <trkpt lat="46.17484" lon="-1.17348">
        <ele>44.36</ele>
        <time>2016-09-02T14:14:36Z</time>
      </trkpt>
      <trkpt lat="46.17476" lon="-1.1738">
        <ele>48.2</ele>
        <time>2016-09-02T14:14:37Z</time>
      </trkpt>
      <trkpt lat="46.17469" lon="-1.17412">
        <ele>43.88</ele>
        <time>2016-09-02T14:14:38Z</time>
      </trkpt>
      <trkpt lat="46.17455" lon="-1.17475">
        <ele>42.44</ele>
        <time>2016-09-02T14:14:40Z</time>
      </trkpt>
      <trkpt lat="46.17441" lon="-1.17536">
        <ele>43.88</ele>
        <time>2016-09-02T14:14:42Z</time>
      </trkpt>
      <trkpt lat="46.17419" lon="-1.17628">
        <ele>49.65</ele>
        <time>2016-09-02T14:14:45Z</time>
      </trkpt>
      <trkpt lat="46.17397" lon="-1.1772">
        <ele>45.32</ele>
        <time>2016-09-02T14:14:48Z</time>
      </trkpt>
      <trkpt lat="46.17383" lon="-1.17781">
        <ele>40.99</ele>
        <time>2016-09-02T14:14:50Z</time>
      </trkpt>
      <trkpt lat="46.17368" lon="-1.17842">
        <ele>37.63</ele>
        <time>2016-09-02T14:14:52Z</time>
      </trkpt>
      <trkpt lat="46.17361" lon="-1.17873">
        <ele>38.11</ele>
        <time>2016-09-02T14:14:53Z</time>
      </trkpt>
      <trkpt lat="46.1731" lon="-1.18093">
        <ele>37.15</ele>
        <time>2016-09-02T14:15:00Z</time>
      </trkpt>
      <trkpt lat="46.17258" lon="-1.1831">
        <ele>38.11</ele>
        <time>2016-09-02T14:15:07Z</time>
      </trkpt>
      <trkpt lat="46.17221" lon="-1.18466">
        <ele>41.95</ele>
        <time>2016-09-02T14:15:12Z</time>
      </trkpt>
      <trkpt lat="46.17214" lon="-1.18497">
        <ele>37.63</ele>
        <time>2016-09-02T14:15:13Z</time>
      </trkpt>
      <trkpt lat="46.17206" lon="-1.18528">
        <ele>38.11</ele>
        <time>2016-09-02T14:15:14Z</time>
      </trkpt>
      <trkpt lat="46.17142" lon="-1.18805">
        <ele>34.26</ele>
        <time>2016-09-02T14:15:23Z</time>
      </trkpt>
      <trkpt lat="46.1712" lon="-1.1893">
        <ele>34.74</ele>
        <time>2016-09-02T14:15:27Z</time>
      </trkpt>
      <trkpt lat="46.17111" lon="-1.19026">
        <ele>36.67</ele>
        <time>2016-09-02T14:15:30Z</time>
      </trkpt>
      <trkpt lat="46.17115" lon="-1.19218">
        <ele>36.19</ele>
        <time>2016-09-02T14:15:36Z</time>
      </trkpt>
      <trkpt lat="46.17147" lon="-1.19401">
        <ele>35.71</ele>
        <time>2016-09-02T14:15:42Z</time>
      </trkpt>
      <trkpt lat="46.17227" lon="-1.19655">
        <ele>39.07</ele>
        <time>2016-09-02T14:15:51Z</time>
      </trkpt>
      <trkpt lat="46.17244" lon="-1.19712">
        <ele>34.74</ele>
        <time>2016-09-02T14:15:53Z</time>
      </trkpt>
      <trkpt lat="46.17313" lon="-1.19938">
        <ele>39.07</ele>
        <time>2016-09-02T14:16:01Z</time>
      </trkpt>
      <trkpt lat="46.17322" lon="-1.19966">
        <ele>38.59</ele>
        <time>2016-09-02T14:16:02Z</time>
      </trkpt>
      <trkpt lat="46.17358" lon="-1.20081">
        <ele>41.95</ele>
        <time>2016-09-02T14:16:06Z</time>
      </trkpt>
      <trkpt lat="46.17367" lon="-1.2011">
        <ele>38.59</ele>
        <time>2016-09-02T14:16:07Z</time>
      </trkpt>
      <trkpt lat="46.17402" lon="-1.20225">
        <ele>34.74</ele>
        <time>2016-09-02T14:16:11Z</time>
      </trkpt>
      <trkpt lat="46.17411" lon="-1.20254">
        <ele>35.71</ele>
        <time>2016-09-02T14:16:12Z</time>
      </trkpt>
      <trkpt lat="46.17429" lon="-1.20312">
        <ele>37.15</ele>
        <time>2016-09-02T14:16:14Z</time>
      </trkpt>
      <trkpt lat="46.17447" lon="-1.20371">
        <ele>33.78</ele>
        <time>2016-09-02T14:16:16Z</time>
      </trkpt>
      <trkpt lat="46.17455" lon="-1.204">
        <ele>34.74</ele>
        <time>2016-09-02T14:16:17Z</time>
      </trkpt>
      <trkpt lat="46.17492" lon="-1.20551">
        <ele>39.07</ele>
        <time>2016-09-02T14:16:22Z</time>
      </trkpt>
      <trkpt lat="46.17498" lon="-1.20582">
        <ele>37.63</ele>
        <time>2016-09-02T14:16:23Z</time>
      </trkpt>
      <trkpt lat="46.17509" lon="-1.20643">
        <ele>34.74</ele>
        <time>2016-09-02T14:16:25Z</time>
      </trkpt>
      <trkpt lat="46.17514" lon="-1.20674">
        <ele>35.23</ele>
        <time>2016-09-02T14:16:26Z</time>
      </trkpt>
      <trkpt lat="46.17522" lon="-1.20737">
        <ele>31.86</ele>
        <time>2016-09-02T14:16:28Z</time>
      </trkpt>
      <trkpt lat="46.17545" lon="-1.21014">
        <ele>31.38</ele>
        <time>2016-09-02T14:16:37Z</time>
      </trkpt>
      <trkpt lat="46.17558" lon="-1.2124">
        <ele>29.46</ele>
        <time>2016-09-02T14:16:45Z</time>
      </trkpt>
      <trkpt lat="46.17553" lon="-1.21428">
        <ele>29.46</ele>
        <time>2016-09-02T14:16:52Z</time>
      </trkpt>
      <trkpt lat="46.17545" lon="-1.2148">
        <ele>33.3</ele>
        <time>2016-09-02T14:16:54Z</time>
      </trkpt>
      <trkpt lat="46.17539" lon="-1.21504">
        <ele>29.94</ele>
        <time>2016-09-02T14:16:55Z</time>
      </trkpt>
      <trkpt lat="46.17493" lon="-1.21613">
        <ele>30.42</ele>
        <time>2016-09-02T14:17:00Z</time>
      </trkpt>
      <trkpt lat="46.17427" lon="-1.21694">
        <ele>28.5</ele>
        <time>2016-09-02T14:17:05Z</time>
      </trkpt>
      <trkpt lat="46.17385" lon="-1.21726">
        <ele>25.13</ele>
        <time>2016-09-02T14:17:08Z</time>
      </trkpt>
      <trkpt lat="46.17372" lon="-1.21735">
        <ele>21.77</ele>
        <time>2016-09-02T14:17:09Z</time>
      </trkpt>
      <trkpt lat="46.17331" lon="-1.21758">
        <ele>18.4</ele>
        <time>2016-09-02T14:17:13Z</time>
      </trkpt>
      <trkpt lat="46.17306" lon="-1.21775">
        <ele>17.92</ele>
        <time>2016-09-02T14:17:17Z</time>
      </trkpt>
      <trkpt lat="46.17301" lon="-1.21781">
        <ele>18.4</ele>
        <time>2016-09-02T14:17:18Z</time>
      </trkpt>
      <trkpt lat="46.17297" lon="-1.21788">
        <ele>19.36</ele>
        <time>2016-09-02T14:17:19Z</time>
      </trkpt>
      <trkpt lat="46.17293" lon="-1.21795">
        <ele>18.4</ele>
        <time>2016-09-02T14:17:20Z</time>
      </trkpt>
      <trkpt lat="46.17289" lon="-1.21803">
        <ele>19.36</ele>
        <time>2016-09-02T14:17:21Z</time>
      </trkpt>
      <trkpt lat="46.1728" lon="-1.2183">
        <ele>21.29</ele>
        <time>2016-09-02T14:17:24Z</time>
      </trkpt>
      <trkpt lat="46.17277" lon="-1.2184">
        <ele>20.32</ele>
        <time>2016-09-02T14:17:25Z</time>
      </trkpt>
      <trkpt lat="46.17276" lon="-1.21849">
        <ele>20.81</ele>
        <time>2016-09-02T14:17:26Z</time>
      </trkpt>
      <trkpt lat="46.17275" lon="-1.21858">
        <ele>19.84</ele>
        <time>2016-09-02T14:17:27Z</time>
      </trkpt>
      <trkpt lat="46.17274" lon="-1.21867">
        <ele>19.36</ele>
        <time>2016-09-02T14:17:28Z</time>
      </trkpt>
      <trkpt lat="46.17276" lon="-1.21877">
        <ele>18.88</ele>
        <time>2016-09-02T14:17:29Z</time>
      </trkpt>
      <trkpt lat="46.1728" lon="-1.21888">
        <ele>17.92</ele>
        <time>2016-09-02T14:17:30Z</time>
      </trkpt>
      <trkpt lat="46.17286" lon="-1.21898">
        <ele>18.4</ele>
        <time>2016-09-02T14:17:31Z</time>
      </trkpt>
      <trkpt lat="46.17293" lon="-1.21907">
        <ele>18.88</ele>
        <time>2016-09-02T14:17:32Z</time>
      </trkpt>
      <trkpt lat="46.17301" lon="-1.21914">
        <ele>17.92</ele>
        <time>2016-09-02T14:17:33Z</time>
      </trkpt>
      <trkpt lat="46.1731" lon="-1.21919">
        <ele>16.48</ele>
        <time>2016-09-02T14:17:34Z</time>
      </trkpt>
      <trkpt lat="46.17319" lon="-1.21923">
        <ele>13.6</ele>
        <time>2016-09-02T14:17:35Z</time>
      </trkpt>
      <trkpt lat="46.17328" lon="-1.21926">
        <ele>15.52</ele>
        <time>2016-09-02T14:17:36Z</time>
      </trkpt>
      <trkpt lat="46.17368" lon="-1.21936">
        <ele>15.52</ele>
        <time>2016-09-02T14:17:41Z</time>
      </trkpt>
      <trkpt lat="46.17374" lon="-1.21936">
        <ele>13.6</ele>
        <time>2016-09-02T14:17:42Z</time>
      </trkpt>
      <trkpt lat="46.17379" lon="-1.21934">
        <ele>11.67</ele>
        <time>2016-09-02T14:17:43Z</time>
      </trkpt>
      <trkpt lat="46.17383" lon="-1.21932">
        <ele>12.15</ele>
        <time>2016-09-02T14:17:44Z</time>
      </trkpt>
      <trkpt lat="46.17387" lon="-1.21928">
        <ele>11.67</ele>
        <time>2016-09-02T14:17:45Z</time>
      </trkpt>
      <trkpt lat="46.17391" lon="-1.21923">
        <ele>11.67</ele>
        <time>2016-09-02T14:17:46Z</time>
      </trkpt>
      <trkpt lat="46.17393" lon="-1.21919">
        <ele>9.75</ele>
        <time>2016-09-02T14:17:47Z</time>
      </trkpt>
      <trkpt lat="46.17409" lon="-1.21909">
        <ele>12.15</ele>
        <time>2016-09-02T14:17:52Z</time>
      </trkpt>
      <trkpt lat="46.17414" lon="-1.21909">
        <ele>11.67</ele>
        <time>2016-09-02T14:17:53Z</time>
      </trkpt>
      <trkpt lat="46.17441" lon="-1.21908">
        <ele>11.19</ele>
        <time>2016-09-02T14:18:02Z</time>
      </trkpt>
      <trkpt lat="46.17442" lon="-1.21909">
        <ele>10.71</ele>
        <time>2016-09-02T14:18:17Z</time>
      </trkpt>
      <trkpt lat="46.17445" lon="-1.21908">
        <ele>11.19</ele>
        <time>2016-09-02T14:18:31Z</time>
      </trkpt>
      <trkpt lat="46.17448" lon="-1.21907">
        <ele>10.23</ele>
        <time>2016-09-02T14:18:42Z</time>
      </trkpt>
      <trkpt lat="46.17454" lon="-1.21906">
        <ele>11.19</ele>
        <time>2016-09-02T14:18:44Z</time>
      </trkpt>
      <trkpt lat="46.17497" lon="-1.21895">
        <ele>11.19</ele>
        <time>2016-09-02T14:18:53Z</time>
      </trkpt>
      <trkpt lat="46.17502" lon="-1.21893">
        <ele>10.71</ele>
        <time>2016-09-02T14:18:54Z</time>
      </trkpt>
      <trkpt lat="46.17507" lon="-1.2189">
        <ele>9.75</ele>
        <time>2016-09-02T14:18:55Z</time>
      </trkpt>
      <trkpt lat="46.17511" lon="-1.21887">
        <ele>10.23</ele>
        <time>2016-09-02T14:18:56Z</time>
      </trkpt>
      <trkpt lat="46.17515" lon="-1.21882">
        <ele>11.19</ele>
        <time>2016-09-02T14:18:57Z</time>
      </trkpt>
      <trkpt lat="46.17518" lon="-1.21875">
        <ele>10.71</ele>
        <time>2016-09-02T14:18:58Z</time>
      </trkpt>
      <trkpt lat="46.17521" lon="-1.21867">
        <ele>10.71</ele>
        <time>2016-09-02T14:18:59Z</time>
      </trkpt>
      <trkpt lat="46.17523" lon="-1.21858">
        <ele>10.71</ele>
        <time>2016-09-02T14:19:00Z</time>
      </trkpt>
      <trkpt lat="46.17524" lon="-1.21848">
        <ele>10.23</ele>
        <time>2016-09-02T14:19:01Z</time>
      </trkpt>
      <trkpt lat="46.17524" lon="-1.21838">
        <ele>11.19</ele>
        <time>2016-09-02T14:19:02Z</time>
      </trkpt>
      <trkpt lat="46.17523" lon="-1.21827">
        <ele>9.75</ele>
        <time>2016-09-02T14:19:03Z</time>
      </trkpt>
      <trkpt lat="46.17516" lon="-1.21758">
        <ele>9.75</ele>
        <time>2016-09-02T14:19:11Z</time>
      </trkpt>
      <trkpt lat="46.17514" lon="-1.21729">
        <ele>8.79</ele>
        <time>2016-09-02T14:19:20Z</time>
      </trkpt>
      <trkpt lat="46.1752" lon="-1.21673">
        <ele>10.23</ele>
        <time>2016-09-02T14:19:27Z</time>
      </trkpt>
      <trkpt lat="46.17521" lon="-1.21666">
        <ele>9.75</ele>
        <time>2016-09-02T14:19:28Z</time>
      </trkpt>
      <trkpt lat="46.17523" lon="-1.21661">
        <ele>8.31</ele>
        <time>2016-09-02T14:19:29Z</time>
      </trkpt>
      <trkpt lat="46.17526" lon="-1.21657">
        <ele>7.35</ele>
        <time>2016-09-02T14:19:30Z</time>
      </trkpt>
      <trkpt lat="46.17529" lon="-1.21655">
        <ele>7.83</ele>
        <time>2016-09-02T14:19:31Z</time>
      </trkpt>
      <trkpt lat="46.17537" lon="-1.21657">
        <ele>6.87</ele>
        <time>2016-09-02T14:19:33Z</time>
      </trkpt>
      <trkpt lat="46.1754" lon="-1.21662">
        <ele>10.71</ele>
        <time>2016-09-02T14:19:34Z</time>
      </trkpt>
      <trkpt lat="46.17543" lon="-1.21669">
        <ele>14.08</ele>
        <time>2016-09-02T14:19:35Z</time>
      </trkpt>
      <trkpt lat="46.17545" lon="-1.21678">
        <ele>14.56</ele>
        <time>2016-09-02T14:19:36Z</time>
      </trkpt>
      <trkpt lat="46.17547" lon="-1.21688">
        <ele>15.52</ele>
        <time>2016-09-02T14:19:37Z</time>
      </trkpt>
      <trkpt lat="46.1755" lon="-1.21711">
        <ele>16.96</ele>
        <time>2016-09-02T14:19:39Z</time>
      </trkpt>
      <trkpt lat="46.17568" lon="-1.21822">
        <ele>14.56</ele>
        <time>2016-09-02T14:19:48Z</time>
      </trkpt>
      <trkpt lat="46.17573" lon="-1.21875">
        <ele>13.6</ele>
        <time>2016-09-02T14:19:55Z</time>
      </trkpt>
      <trkpt lat="46.17573" lon="-1.21887">
        <ele>11.67</ele>
        <time>2016-09-02T14:20:04Z</time>
      </trkpt>
      <trkpt lat="46.17573" lon="-1.21889">
        <ele>12.63</ele>
        <time>2016-09-02T14:20:05Z</time>
      </trkpt>
      <trkpt lat="46.17573" lon="-1.21891">
        <ele>12.63</ele>
        <time>2016-09-02T14:20:06Z</time>
      </trkpt>
      <trkpt lat="46.17572" lon="-1.21895">
        <ele>14.08</ele>
        <time>2016-09-02T14:20:07Z</time>
      </trkpt>
      <trkpt lat="46.17572" lon="-1.21899">
        <ele>14.08</ele>
        <time>2016-09-02T14:20:08Z</time>
      </trkpt>
      <trkpt lat="46.17569" lon="-1.2195">
        <ele>15.52</ele>
        <time>2016-09-02T14:20:15Z</time>
      </trkpt>
      <trkpt lat="46.17572" lon="-1.22032">
        <ele>18.4</ele>
        <time>2016-09-02T14:20:22Z</time>
      </trkpt>
      <trkpt lat="46.17573" lon="-1.22167">
        <ele>22.25</ele>
        <time>2016-09-02T14:20:31Z</time>
      </trkpt>
      <trkpt lat="46.17571" lon="-1.22184">
        <ele>25.61</ele>
        <time>2016-09-02T14:20:32Z</time>
      </trkpt>
      <trkpt lat="46.17569" lon="-1.22202">
        <ele>25.61</ele>
        <time>2016-09-02T14:20:33Z</time>
      </trkpt>
      <trkpt lat="46.1756" lon="-1.22277">
        <ele>30.42</ele>
        <time>2016-09-02T14:20:37Z</time>
      </trkpt>
      <trkpt lat="46.17557" lon="-1.22296">
        <ele>29.94</ele>
        <time>2016-09-02T14:20:38Z</time>
      </trkpt>
      <trkpt lat="46.17544" lon="-1.22397">
        <ele>33.3</ele>
        <time>2016-09-02T14:20:43Z</time>
      </trkpt>
      <trkpt lat="46.17541" lon="-1.22418">
        <ele>33.78</ele>
        <time>2016-09-02T14:20:44Z</time>
      </trkpt>
      <trkpt lat="46.17526" lon="-1.22526">
        <ele>37.63</ele>
        <time>2016-09-02T14:20:49Z</time>
      </trkpt>
      <trkpt lat="46.17522" lon="-1.22548">
        <ele>37.15</ele>
        <time>2016-09-02T14:20:50Z</time>
      </trkpt>
      <trkpt lat="46.17504" lon="-1.22666">
        <ele>41.95</ele>
        <time>2016-09-02T14:20:55Z</time>
      </trkpt>
      <trkpt lat="46.175" lon="-1.2269">
        <ele>41.95</ele>
        <time>2016-09-02T14:20:56Z</time>
      </trkpt>
      <trkpt lat="46.17488" lon="-1.22761">
        <ele>38.59</ele>
        <time>2016-09-02T14:20:59Z</time>
      </trkpt>
      <trkpt lat="46.17484" lon="-1.22785">
        <ele>41.95</ele>
        <time>2016-09-02T14:21:00Z</time>
      </trkpt>
      <trkpt lat="46.1748" lon="-1.22809">
        <ele>45.32</ele>
        <time>2016-09-02T14:21:01Z</time>
      </trkpt>
      <trkpt lat="46.17476" lon="-1.22832">
        <ele>43.88</ele>
        <time>2016-09-02T14:21:02Z</time>
      </trkpt>
      <trkpt lat="46.17423" lon="-1.23085">
        <ele>49.16</ele>
        <time>2016-09-02T14:21:13Z</time>
      </trkpt>
      <trkpt lat="46.17418" lon="-1.23107">
        <ele>49.16</ele>
        <time>2016-09-02T14:21:14Z</time>
      </trkpt>
      <trkpt lat="46.17408" lon="-1.23153">
        <ele>45.32</ele>
        <time>2016-09-02T14:21:16Z</time>
      </trkpt>
      <trkpt lat="46.17392" lon="-1.23221">
        <ele>49.65</ele>
        <time>2016-09-02T14:21:19Z</time>
      </trkpt>
      <trkpt lat="46.17381" lon="-1.23268">
        <ele>50.13</ele>
        <time>2016-09-02T14:21:21Z</time>
      </trkpt>
      <trkpt lat="46.17364" lon="-1.23337">
        <ele>48.2</ele>
        <time>2016-09-02T14:21:24Z</time>
      </trkpt>
      <trkpt lat="46.17358" lon="-1.2336">
        <ele>53.97</ele>
        <time>2016-09-02T14:21:25Z</time>
      </trkpt>
      <trkpt lat="46.17352" lon="-1.23383">
        <ele>53.01</ele>
        <time>2016-09-02T14:21:26Z</time>
      </trkpt>
      <trkpt lat="46.1734" lon="-1.2343">
        <ele>49.65</ele>
        <time>2016-09-02T14:21:28Z</time>
      </trkpt>
      <trkpt lat="46.17334" lon="-1.23454">
        <ele>49.65</ele>
        <time>2016-09-02T14:21:29Z</time>
      </trkpt>
      <trkpt lat="46.17321" lon="-1.23501">
        <ele>54.45</ele>
        <time>2016-09-02T14:21:31Z</time>
      </trkpt>
      <trkpt lat="46.17315" lon="-1.23525">
        <ele>54.45</ele>
        <time>2016-09-02T14:21:32Z</time>
      </trkpt>
      <trkpt lat="46.1728" lon="-1.23647">
        <ele>57.34</ele>
        <time>2016-09-02T14:21:37Z</time>
      </trkpt>
      <trkpt lat="46.17258" lon="-1.2372">
        <ele>54.45</ele>
        <time>2016-09-02T14:21:40Z</time>
      </trkpt>
      <trkpt lat="46.17251" lon="-1.23744">
        <ele>55.41</ele>
        <time>2016-09-02T14:21:41Z</time>
      </trkpt>
      <trkpt lat="46.17244" lon="-1.23768">
        <ele>58.78</ele>
        <time>2016-09-02T14:21:42Z</time>
      </trkpt>
      <trkpt lat="46.17206" lon="-1.23889">
        <ele>64.07</ele>
        <time>2016-09-02T14:21:47Z</time>
      </trkpt>
      <trkpt lat="46.17199" lon="-1.23913">
        <ele>63.1</ele>
        <time>2016-09-02T14:21:48Z</time>
      </trkpt>
      <trkpt lat="46.17191" lon="-1.23936">
        <ele>58.78</ele>
        <time>2016-09-02T14:21:49Z</time>
      </trkpt>
      <trkpt lat="46.17183" lon="-1.2396">
        <ele>60.7</ele>
        <time>2016-09-02T14:21:50Z</time>
      </trkpt>
      <trkpt lat="46.17151" lon="-1.24053">
        <ele>62.62</ele>
        <time>2016-09-02T14:21:54Z</time>
      </trkpt>
      <trkpt lat="46.17143" lon="-1.24077">
        <ele>59.26</ele>
        <time>2016-09-02T14:21:55Z</time>
      </trkpt>
      <trkpt lat="46.17135" lon="-1.241">
        <ele>61.66</ele>
        <time>2016-09-02T14:21:56Z</time>
      </trkpt>
      <trkpt lat="46.17102" lon="-1.24193">
        <ele>64.07</ele>
        <time>2016-09-02T14:22:00Z</time>
      </trkpt>
      <trkpt lat="46.17075" lon="-1.24264">
        <ele>60.7</ele>
        <time>2016-09-02T14:22:03Z</time>
      </trkpt>
      <trkpt lat="46.17056" lon="-1.24311">
        <ele>65.03</ele>
        <time>2016-09-02T14:22:05Z</time>
      </trkpt>
      <trkpt lat="46.17047" lon="-1.24334">
        <ele>65.03</ele>
        <time>2016-09-02T14:22:06Z</time>
      </trkpt>
      <trkpt lat="46.17028" lon="-1.24381">
        <ele>61.18</ele>
        <time>2016-09-02T14:22:08Z</time>
      </trkpt>
      <trkpt lat="46.17018" lon="-1.24405">
        <ele>65.51</ele>
        <time>2016-09-02T14:22:09Z</time>
      </trkpt>
      <trkpt lat="46.16989" lon="-1.24474">
        <ele>61.66</ele>
        <time>2016-09-02T14:22:12Z</time>
      </trkpt>
      <trkpt lat="46.16945" lon="-1.24579">
        <ele>58.3</ele>
        <time>2016-09-02T14:22:17Z</time>
      </trkpt>
      <trkpt lat="46.169" lon="-1.24684">
        <ele>60.22</ele>
        <time>2016-09-02T14:22:22Z</time>
      </trkpt>
      <trkpt lat="46.1687" lon="-1.24748">
        <ele>58.3</ele>
        <time>2016-09-02T14:22:25Z</time>
      </trkpt>
      <trkpt lat="46.1686" lon="-1.2477">
        <ele>61.18</ele>
        <time>2016-09-02T14:22:26Z</time>
      </trkpt>
      <trkpt lat="46.1685" lon="-1.24792">
        <ele>61.18</ele>
        <time>2016-09-02T14:22:27Z</time>
      </trkpt>
      <trkpt lat="46.1684" lon="-1.24813">
        <ele>57.34</ele>
        <time>2016-09-02T14:22:28Z</time>
      </trkpt>
      <trkpt lat="46.1681" lon="-1.24877">
        <ele>53.49</ele>
        <time>2016-09-02T14:22:31Z</time>
      </trkpt>
      <trkpt lat="46.1677" lon="-1.24957">
        <ele>53.49</ele>
        <time>2016-09-02T14:22:35Z</time>
      </trkpt>
      <trkpt lat="46.16749" lon="-1.24997">
        <ele>52.53</ele>
        <time>2016-09-02T14:22:37Z</time>
      </trkpt>
      <trkpt lat="46.16707" lon="-1.25078">
        <ele>48.2</ele>
        <time>2016-09-02T14:22:41Z</time>
      </trkpt>
      <trkpt lat="46.16686" lon="-1.25119">
        <ele>47.72</ele>
        <time>2016-09-02T14:22:43Z</time>
      </trkpt>
      <trkpt lat="46.16663" lon="-1.2516">
        <ele>48.2</ele>
        <time>2016-09-02T14:22:45Z</time>
      </trkpt>
      <trkpt lat="46.16652" lon="-1.25179">
        <ele>45.32</ele>
        <time>2016-09-02T14:22:46Z</time>
      </trkpt>
      <trkpt lat="46.16641" lon="-1.25199">
        <ele>41.47</ele>
        <time>2016-09-02T14:22:47Z</time>
      </trkpt>
      <trkpt lat="46.16579" lon="-1.2531">
        <ele>38.11</ele>
        <time>2016-09-02T14:22:53Z</time>
      </trkpt>
      <trkpt lat="46.16524" lon="-1.25402">
        <ele>34.26</ele>
        <time>2016-09-02T14:22:58Z</time>
      </trkpt>
      <trkpt lat="46.16504" lon="-1.25435">
        <ele>29.46</ele>
        <time>2016-09-02T14:23:00Z</time>
      </trkpt>
      <trkpt lat="46.16423" lon="-1.25563">
        <ele>26.09</ele>
        <time>2016-09-02T14:23:08Z</time>
      </trkpt>
      <trkpt lat="46.16413" lon="-1.25579">
        <ele>25.61</ele>
        <time>2016-09-02T14:23:09Z</time>
      </trkpt>
      <trkpt lat="46.16394" lon="-1.25609">
        <ele>23.21</ele>
        <time>2016-09-02T14:23:11Z</time>
      </trkpt>
      <trkpt lat="46.16344" lon="-1.25681">
        <ele>19.84</ele>
        <time>2016-09-02T14:23:16Z</time>
      </trkpt>
      <trkpt lat="46.16322" lon="-1.25707">
        <ele>18.88</ele>
        <time>2016-09-02T14:23:18Z</time>
      </trkpt>
      <trkpt lat="46.16294" lon="-1.25738">
        <ele>13.12</ele>
        <time>2016-09-02T14:23:21Z</time>
      </trkpt>
      <trkpt lat="46.16286" lon="-1.25746">
        <ele>13.12</ele>
        <time>2016-09-02T14:23:22Z</time>
      </trkpt>
      <trkpt lat="46.16262" lon="-1.25771">
        <ele>9.75</ele>
        <time>2016-09-02T14:23:26Z</time>
      </trkpt>
      <trkpt lat="46.16254" lon="-1.25777">
        <ele>8.79</ele>
        <time>2016-09-02T14:23:28Z</time>
      </trkpt>
      <trkpt lat="46.16229" lon="-1.25802">
        <ele>7.83</ele>
        <time>2016-09-02T14:23:38Z</time>
      </trkpt>
      <trkpt lat="46.16228" lon="-1.25805">
        <ele>6.87</ele>
        <time>2016-09-02T14:23:40Z</time>
      </trkpt>
      <trkpt lat="46.16222" lon="-1.25829">
        <ele>7.83</ele>
        <time>2016-09-02T14:23:47Z</time>
      </trkpt>
      <trkpt lat="46.16219" lon="-1.25833">
        <ele>7.83</ele>
        <time>2016-09-02T14:23:48Z</time>
      </trkpt>
      <trkpt lat="46.16215" lon="-1.25837">
        <ele>8.31</ele>
        <time>2016-09-02T14:23:49Z</time>
      </trkpt>
      <trkpt lat="46.1621" lon="-1.25839">
        <ele>8.79</ele>
        <time>2016-09-02T14:23:50Z</time>
      </trkpt>
      <trkpt lat="46.16206" lon="-1.25838">
        <ele>8.31</ele>
        <time>2016-09-02T14:23:51Z</time>
      </trkpt>
      <trkpt lat="46.16201" lon="-1.25836">
        <ele>7.83</ele>
        <time>2016-09-02T14:23:52Z</time>
      </trkpt>
      <trkpt lat="46.16197" lon="-1.25831">
        <ele>7.35</ele>
        <time>2016-09-02T14:23:53Z</time>
      </trkpt>
      <trkpt lat="46.16195" lon="-1.25825">
        <ele>7.35</ele>
        <time>2016-09-02T14:23:54Z</time>
      </trkpt>
      <trkpt lat="46.16193" lon="-1.25819">
        <ele>6.87</ele>
        <time>2016-09-02T14:23:55Z</time>
      </trkpt>
      <trkpt lat="46.16192" lon="-1.25812">
        <ele>7.35</ele>
        <time>2016-09-02T14:23:56Z</time>
      </trkpt>
      <trkpt lat="46.16192" lon="-1.25806">
        <ele>6.87</ele>
        <time>2016-09-02T14:23:57Z</time>
      </trkpt>
      <trkpt lat="46.16194" lon="-1.258">
        <ele>6.87</ele>
        <time>2016-09-02T14:23:58Z</time>
      </trkpt>
      <trkpt lat="46.16196" lon="-1.25795">
        <ele>6.39</ele>
        <time>2016-09-02T14:23:59Z</time>
      </trkpt>
      <trkpt lat="46.16199" lon="-1.25792">
        <ele>6.39</ele>
        <time>2016-09-02T14:24:00Z</time>
      </trkpt>
      <trkpt lat="46.16203" lon="-1.25789">
        <ele>6.39</ele>
        <time>2016-09-02T14:24:01Z</time>
      </trkpt>
      <trkpt lat="46.16208" lon="-1.25787">
        <ele>6.87</ele>
        <time>2016-09-02T14:24:02Z</time>
      </trkpt>
      <trkpt lat="46.16213" lon="-1.25786">
        <ele>8.79</ele>
        <time>2016-09-02T14:24:03Z</time>
      </trkpt>
      <trkpt lat="46.16218" lon="-1.25785">
        <ele>8.79</ele>
        <time>2016-09-02T14:24:04Z</time>
      </trkpt>
      <trkpt lat="46.16229" lon="-1.25782">
        <ele>9.27</ele>
        <time>2016-09-02T14:24:06Z</time>
      </trkpt>
      <trkpt lat="46.16234" lon="-1.25779">
        <ele>8.79</ele>
        <time>2016-09-02T14:24:07Z</time>
      </trkpt>
      <trkpt lat="46.16239" lon="-1.25774">
        <ele>9.27</ele>
        <time>2016-09-02T14:24:08Z</time>
      </trkpt>
      <trkpt lat="46.16243" lon="-1.25767">
        <ele>8.79</ele>
        <time>2016-09-02T14:24:09Z</time>
      </trkpt>
      <trkpt lat="46.16247" lon="-1.25758">
        <ele>7.83</ele>
        <time>2016-09-02T14:24:10Z</time>
      </trkpt>
      <trkpt lat="46.1625" lon="-1.2575">
        <ele>6.87</ele>
        <time>2016-09-02T14:24:11Z</time>
      </trkpt>
      <trkpt lat="46.16254" lon="-1.2574">
        <ele>7.83</ele>
        <time>2016-09-02T14:24:12Z</time>
      </trkpt>
      <trkpt lat="46.16259" lon="-1.25731">
        <ele>8.79</ele>
        <time>2016-09-02T14:24:13Z</time>
      </trkpt>
      <trkpt lat="46.16265" lon="-1.25722">
        <ele>9.27</ele>
        <time>2016-09-02T14:24:14Z</time>
      </trkpt>
      <trkpt lat="46.16271" lon="-1.25715">
        <ele>9.75</ele>
        <time>2016-09-02T14:24:15Z</time>
      </trkpt>
      <trkpt lat="46.16277" lon="-1.25709">
        <ele>9.27</ele>
        <time>2016-09-02T14:24:16Z</time>
      </trkpt>
      <trkpt lat="46.16288" lon="-1.25696">
        <ele>7.35</ele>
        <time>2016-09-02T14:24:18Z</time>
      </trkpt>
      <trkpt lat="46.16292" lon="-1.2569">
        <ele>7.83</ele>
        <time>2016-09-02T14:24:19Z</time>
      </trkpt>
      <trkpt lat="46.16295" lon="-1.25684">
        <ele>7.83</ele>
        <time>2016-09-02T14:24:20Z</time>
      </trkpt>
      <trkpt lat="46.16297" lon="-1.25678">
        <ele>6.87</ele>
        <time>2016-09-02T14:24:21Z</time>
      </trkpt>
      <trkpt lat="46.16298" lon="-1.25671">
        <ele>7.35</ele>
        <time>2016-09-02T14:24:22Z</time>
      </trkpt>
      <trkpt lat="46.16297" lon="-1.25663">
        <ele>6.39</ele>
        <time>2016-09-02T14:24:23Z</time>
      </trkpt>
      <trkpt lat="46.16295" lon="-1.25655">
        <ele>6.39</ele>
        <time>2016-09-02T14:24:24Z</time>
      </trkpt>
      <trkpt lat="46.16291" lon="-1.25648">
        <ele>6.39</ele>
        <time>2016-09-02T14:24:25Z</time>
      </trkpt>
      <trkpt lat="46.16287" lon="-1.25641">
        <ele>6.39</ele>
        <time>2016-09-02T14:24:26Z</time>
      </trkpt>
      <trkpt lat="46.16282" lon="-1.25635">
        <ele>6.87</ele>
        <time>2016-09-02T14:24:27Z</time>
      </trkpt>
      <trkpt lat="46.16277" lon="-1.2563">
        <ele>6.87</ele>
        <time>2016-09-02T14:24:28Z</time>
      </trkpt>
      <trkpt lat="46.16272" lon="-1.25626">
        <ele>6.87</ele>
        <time>2016-09-02T14:24:29Z</time>
      </trkpt>
      <trkpt lat="46.16268" lon="-1.25623">
        <ele>6.87</ele>
        <time>2016-09-02T14:24:30Z</time>
      </trkpt>
      <trkpt lat="46.16263" lon="-1.25621">
        <ele>6.87</ele>
        <time>2016-09-02T14:24:31Z</time>
      </trkpt>
      <trkpt lat="46.16259" lon="-1.25621">
        <ele>7.35</ele>
        <time>2016-09-02T14:24:32Z</time>
      </trkpt>
      <trkpt lat="46.16254" lon="-1.25622">
        <ele>7.83</ele>
        <time>2016-09-02T14:24:33Z</time>
      </trkpt>
      <trkpt lat="46.1625" lon="-1.25624">
        <ele>8.31</ele>
        <time>2016-09-02T14:24:34Z</time>
      </trkpt>
      <trkpt lat="46.16246" lon="-1.25628">
        <ele>8.79</ele>
        <time>2016-09-02T14:24:35Z</time>
      </trkpt>
      <trkpt lat="46.16243" lon="-1.25634">
        <ele>8.31</ele>
        <time>2016-09-02T14:24:36Z</time>
      </trkpt>
      <trkpt lat="46.16241" lon="-1.25641">
        <ele>7.35</ele>
        <time>2016-09-02T14:24:37Z</time>
      </trkpt>
      <trkpt lat="46.1624" lon="-1.25649">
        <ele>7.83</ele>
        <time>2016-09-02T14:24:38Z</time>
      </trkpt>
      <trkpt lat="46.16239" lon="-1.25657">
        <ele>7.83</ele>
        <time>2016-09-02T14:24:39Z</time>
      </trkpt>
      <trkpt lat="46.16236" lon="-1.25713">
        <ele>7.83</ele>
        <time>2016-09-02T14:24:47Z</time>
      </trkpt>
      <trkpt lat="46.16236" lon="-1.25718">
        <ele>7.35</ele>
        <time>2016-09-02T14:24:56Z</time>
      </trkpt>
      <trkpt lat="46.16237" lon="-1.25713">
        <ele>6.87</ele>
        <time>2016-09-02T14:25:20Z</time>
      </trkpt>
      <trkpt lat="46.16236" lon="-1.25715">
        <ele>5.91</ele>
        <time>2016-09-02T14:25:43Z</time>
      </trkpt>
      <trkpt lat="46.16235" lon="-1.25719">
        <ele>6.87</ele>
        <time>2016-09-02T14:25:44Z</time>
      </trkpt>
      <trkpt lat="46.16233" lon="-1.25722">
        <ele>6.87</ele>
        <time>2016-09-02T14:25:45Z</time>
      </trkpt>
      <trkpt lat="46.16231" lon="-1.25726">
        <ele>6.87</ele>
        <time>2016-09-02T14:25:46Z</time>
      </trkpt>
      <trkpt lat="46.16229" lon="-1.25729">
        <ele>6.87</ele>
        <time>2016-09-02T14:25:47Z</time>
      </trkpt>
      <trkpt lat="46.16208" lon="-1.25763">
        <ele>7.83</ele>
        <time>2016-09-02T14:25:56Z</time>
      </trkpt>
      <trkpt lat="46.16208" lon="-1.25769">
        <ele>6.87</ele>
        <time>2016-09-02T14:26:07Z</time>
      </trkpt>
      <trkpt lat="46.16208" lon="-1.2577">
        <ele>7.35</ele>
        <time>2016-09-02T14:26:13Z</time>
      </trkpt>
      <trkpt lat="46.16209" lon="-1.25776">
        <ele>8.31</ele>
        <time>2016-09-02T14:26:15Z</time>
      </trkpt>
      <trkpt lat="46.1621" lon="-1.25779">
        <ele>7.35</ele>
        <time>2016-09-02T14:26:16Z</time>
      </trkpt>
      <trkpt lat="46.16212" lon="-1.25782">
        <ele>7.83</ele>
        <time>2016-09-02T14:26:17Z</time>
      </trkpt>
      <trkpt lat="46.16214" lon="-1.25785">
        <ele>7.83</ele>
        <time>2016-09-02T14:26:18Z</time>
      </trkpt>
      <trkpt lat="46.16217" lon="-1.25788">
        <ele>6.87</ele>
        <time>2016-09-02T14:26:19Z</time>
      </trkpt>
      <trkpt lat="46.1622" lon="-1.25793">
        <ele>7.83</ele>
        <time>2016-09-02T14:26:20Z</time>
      </trkpt>
      <trkpt lat="46.16223" lon="-1.25798">
        <ele>7.83</ele>
        <time>2016-09-02T14:26:21Z</time>
      </trkpt>
      <trkpt lat="46.16225" lon="-1.25804">
        <ele>8.31</ele>
        <time>2016-09-02T14:26:22Z</time>
      </trkpt>
      <trkpt lat="46.16226" lon="-1.2581">
        <ele>7.83</ele>
        <time>2016-09-02T14:26:23Z</time>
      </trkpt>
      <trkpt lat="46.16227" lon="-1.25817">
        <ele>7.83</ele>
        <time>2016-09-02T14:26:24Z</time>
      </trkpt>
      <trkpt lat="46.16226" lon="-1.25824">
        <ele>7.83</ele>
        <time>2016-09-02T14:26:25Z</time>
      </trkpt>
      <trkpt lat="46.16224" lon="-1.25829">
        <ele>7.83</ele>
        <time>2016-09-02T14:26:26Z</time>
      </trkpt>
      <trkpt lat="46.16222" lon="-1.25835">
        <ele>8.79</ele>
        <time>2016-09-02T14:26:27Z</time>
      </trkpt>
      <trkpt lat="46.16215" lon="-1.25848">
        <ele>9.75</ele>
        <time>2016-09-02T14:26:29Z</time>
      </trkpt>
      <trkpt lat="46.16211" lon="-1.25858">
        <ele>10.23</ele>
        <time>2016-09-02T14:26:30Z</time>
      </trkpt>
      <trkpt lat="46.16208" lon="-1.25868">
        <ele>10.71</ele>
        <time>2016-09-02T14:26:31Z</time>
      </trkpt>
      <trkpt lat="46.16205" lon="-1.25879">
        <ele>10.23</ele>
        <time>2016-09-02T14:26:32Z</time>
      </trkpt>
      <trkpt lat="46.16195" lon="-1.2593">
        <ele>12.63</ele>
        <time>2016-09-02T14:26:36Z</time>
      </trkpt>
      <trkpt lat="46.16173" lon="-1.26005">
        <ele>14.08</ele>
        <time>2016-09-02T14:26:41Z</time>
      </trkpt>
      <trkpt lat="46.16131" lon="-1.26099">
        <ele>17.92</ele>
        <time>2016-09-02T14:26:47Z</time>
      </trkpt>
      <trkpt lat="46.1609" lon="-1.26207">
        <ele>18.4</ele>
        <time>2016-09-02T14:26:53Z</time>
      </trkpt>
      <trkpt lat="46.16024" lon="-1.26339">
        <ele>16.48</ele>
        <time>2016-09-02T14:27:01Z</time>
      </trkpt>
      <trkpt lat="46.16009" lon="-1.2637">
        <ele>16.48</ele>
        <time>2016-09-02T14:27:03Z</time>
      </trkpt>
      <trkpt lat="46.16003" lon="-1.26387">
        <ele>16.96</ele>
        <time>2016-09-02T14:27:04Z</time>
      </trkpt>
      <trkpt lat="46.15998" lon="-1.26405">
        <ele>16</ele>
        <time>2016-09-02T14:27:05Z</time>
      </trkpt>
      <trkpt lat="46.15969" lon="-1.26521">
        <ele>13.6</ele>
        <time>2016-09-02T14:27:13Z</time>
      </trkpt>
      <trkpt lat="46.15964" lon="-1.26564">
        <ele>11.67</ele>
        <time>2016-09-02T14:27:18Z</time>
      </trkpt>
      <trkpt lat="46.15963" lon="-1.26581">
        <ele>10.71</ele>
        <time>2016-09-02T14:27:20Z</time>
      </trkpt>
      <trkpt lat="46.15962" lon="-1.2659">
        <ele>10.23</ele>
        <time>2016-09-02T14:27:21Z</time>
      </trkpt>
      <trkpt lat="46.15959" lon="-1.26598">
        <ele>9.75</ele>
        <time>2016-09-02T14:27:22Z</time>
      </trkpt>
      <trkpt lat="46.15954" lon="-1.26605">
        <ele>10.23</ele>
        <time>2016-09-02T14:27:23Z</time>
      </trkpt>
      <trkpt lat="46.15949" lon="-1.26612">
        <ele>10.71</ele>
        <time>2016-09-02T14:27:24Z</time>
      </trkpt>
      <trkpt lat="46.15943" lon="-1.26619">
        <ele>11.67</ele>
        <time>2016-09-02T14:27:25Z</time>
      </trkpt>
      <trkpt lat="46.15937" lon="-1.26627">
        <ele>11.67</ele>
        <time>2016-09-02T14:27:26Z</time>
      </trkpt>
      <trkpt lat="46.15914" lon="-1.26671">
        <ele>13.12</ele>
        <time>2016-09-02T14:27:30Z</time>
      </trkpt>
      <trkpt lat="46.1591" lon="-1.26686">
        <ele>13.6</ele>
        <time>2016-09-02T14:27:31Z</time>
      </trkpt>
      <trkpt lat="46.15888" lon="-1.26825">
        <ele>14.08</ele>
        <time>2016-09-02T14:27:40Z</time>
      </trkpt>
      <trkpt lat="46.15877" lon="-1.2696">
        <ele>14.08</ele>
        <time>2016-09-02T14:27:50Z</time>
      </trkpt>
      <trkpt lat="46.15883" lon="-1.27069">
        <ele>13.12</ele>
        <time>2016-09-02T14:27:58Z</time>
      </trkpt>
      <trkpt lat="46.15898" lon="-1.27157">
        <ele>11.19</ele>
        <time>2016-09-02T14:28:08Z</time>
      </trkpt>
      <trkpt lat="46.15913" lon="-1.27216">
        <ele>10.71</ele>
        <time>2016-09-02T14:28:14Z</time>
      </trkpt>
      <trkpt lat="46.15914" lon="-1.27228">
        <ele>10.23</ele>
        <time>2016-09-02T14:28:15Z</time>
      </trkpt>
      <trkpt lat="46.15911" lon="-1.27287">
        <ele>7.83</ele>
        <time>2016-09-02T14:28:21Z</time>
      </trkpt>
      <trkpt lat="46.1591" lon="-1.27295">
        <ele>7.83</ele>
        <time>2016-09-02T14:28:22Z</time>
      </trkpt>
      <trkpt lat="46.15909" lon="-1.2733">
        <ele>9.75</ele>
        <time>2016-09-02T14:28:26Z</time>
      </trkpt>
      <trkpt lat="46.15911" lon="-1.27362">
        <ele>9.75</ele>
        <time>2016-09-02T14:28:29Z</time>
      </trkpt>
      <trkpt lat="46.15913" lon="-1.27372">
        <ele>9.27</ele>
        <time>2016-09-02T14:28:30Z</time>
      </trkpt>
      <trkpt lat="46.15915" lon="-1.27383">
        <ele>9.75</ele>
        <time>2016-09-02T14:28:31Z</time>
      </trkpt>
      <trkpt lat="46.15956" lon="-1.27475">
        <ele>7.35</ele>
        <time>2016-09-02T14:28:41Z</time>
      </trkpt>
      <trkpt lat="46.15997" lon="-1.27587">
        <ele>6.87</ele>
        <time>2016-09-02T14:28:54Z</time>
      </trkpt>
      <trkpt lat="46.16004" lon="-1.27605">
        <ele>5.42</ele>
        <time>2016-09-02T14:29:01Z</time>
      </trkpt>
      <trkpt lat="46.15997" lon="-1.27597">
        <ele>4.94</ele>
        <time>2016-09-02T14:29:29Z</time>
      </trkpt>
      <trkpt lat="46.15998" lon="-1.27604">
        <ele>5.42</ele>
        <time>2016-09-02T14:29:35Z</time>
      </trkpt>
      <trkpt lat="46.16006" lon="-1.27641">
        <ele>5.91</ele>
        <time>2016-09-02T14:29:44Z</time>
      </trkpt>
      <trkpt lat="46.16005" lon="-1.27644">
        <ele>5.91</ele>
        <time>2016-09-02T14:29:45Z</time>
      </trkpt>
      <trkpt lat="46.16004" lon="-1.27646">
        <ele>5.91</ele>
        <time>2016-09-02T14:29:46Z</time>
      </trkpt>
      <trkpt lat="46.16002" lon="-1.27648">
        <ele>5.42</ele>
        <time>2016-09-02T14:29:47Z</time>
      </trkpt>
      <trkpt lat="46.15999" lon="-1.27649">
        <ele>4.94</ele>
        <time>2016-09-02T14:29:48Z</time>
      </trkpt>
      <trkpt lat="46.15995" lon="-1.27649">
        <ele>5.42</ele>
        <time>2016-09-02T14:29:49Z</time>
      </trkpt>
      <trkpt lat="46.15969" lon="-1.27649">
        <ele>5.91</ele>
        <time>2016-09-02T14:29:57Z</time>
      </trkpt>
      <trkpt lat="46.15957" lon="-1.27648">
        <ele>5.42</ele>
        <time>2016-09-02T14:30:12Z</time>
      </trkpt>
      <trkpt lat="46.15956" lon="-1.27648">
        <ele>5.42</ele>
        <time>2016-09-02T14:30:13Z</time>
      </trkpt>
      <trkpt lat="46.15951" lon="-1.27648">
        <ele>5.91</ele>
        <time>2016-09-02T14:30:18Z</time>
      </trkpt>
      <trkpt lat="46.1595" lon="-1.2765">
        <ele>5.42</ele>
        <time>2016-09-02T14:30:19Z</time>
      </trkpt>
      <trkpt lat="46.15946" lon="-1.2768">
        <ele>7.83</ele>
        <time>2016-09-02T14:30:24Z</time>
      </trkpt>
      <trkpt lat="46.15934" lon="-1.27751">
        <ele>10.23</ele>
        <time>2016-09-02T14:30:31Z</time>
      </trkpt>
      <trkpt lat="46.15927" lon="-1.27801">
        <ele>11.67</ele>
        <time>2016-09-02T14:30:35Z</time>
      </trkpt>
      <trkpt lat="46.15924" lon="-1.27829">
        <ele>13.12</ele>
        <time>2016-09-02T14:30:37Z</time>
      </trkpt>
      <trkpt lat="46.15905" lon="-1.27968">
        <ele>13.12</ele>
        <time>2016-09-02T14:30:46Z</time>
      </trkpt>
      <trkpt lat="46.15867" lon="-1.2806">
        <ele>14.56</ele>
        <time>2016-09-02T14:30:53Z</time>
      </trkpt>
      <trkpt lat="46.15844" lon="-1.28111">
        <ele>13.12</ele>
        <time>2016-09-02T14:30:59Z</time>
      </trkpt>
      <trkpt lat="46.15819" lon="-1.28178">
        <ele>14.08</ele>
        <time>2016-09-02T14:31:09Z</time>
      </trkpt>
      <trkpt lat="46.15811" lon="-1.28199">
        <ele>15.52</ele>
        <time>2016-09-02T14:31:11Z</time>
      </trkpt>
      <trkpt lat="46.1577" lon="-1.28305">
        <ele>17.92</ele>
        <time>2016-09-02T14:31:19Z</time>
      </trkpt>
      <trkpt lat="46.15753" lon="-1.28354">
        <ele>18.88</ele>
        <time>2016-09-02T14:31:22Z</time>
      </trkpt>
      <trkpt lat="46.15718" lon="-1.28466">
        <ele>22.25</ele>
        <time>2016-09-02T14:31:28Z</time>
      </trkpt>
      <trkpt lat="46.15649" lon="-1.28625">
        <ele>22.73</ele>
        <time>2016-09-02T14:31:36Z</time>
      </trkpt>
      <trkpt lat="46.15622" lon="-1.28686">
        <ele>24.17</ele>
        <time>2016-09-02T14:31:39Z</time>
      </trkpt>
      <trkpt lat="46.15606" lon="-1.28726">
        <ele>22.25</ele>
        <time>2016-09-02T14:31:41Z</time>
      </trkpt>
      <trkpt lat="46.15592" lon="-1.28768">
        <ele>24.65</ele>
        <time>2016-09-02T14:31:43Z</time>
      </trkpt>
      <trkpt lat="46.15587" lon="-1.28791">
        <ele>26.09</ele>
        <time>2016-09-02T14:31:44Z</time>
      </trkpt>
      <trkpt lat="46.15583" lon="-1.28814">
        <ele>26.09</ele>
        <time>2016-09-02T14:31:45Z</time>
      </trkpt>
      <trkpt lat="46.15545" lon="-1.29005">
        <ele>25.13</ele>
        <time>2016-09-02T14:31:53Z</time>
      </trkpt>
      <trkpt lat="46.15513" lon="-1.29092">
        <ele>24.65</ele>
        <time>2016-09-02T14:31:57Z</time>
      </trkpt>
      <trkpt lat="46.15468" lon="-1.29182">
        <ele>19.84</ele>
        <time>2016-09-02T14:32:02Z</time>
      </trkpt>
      <trkpt lat="46.15452" lon="-1.29207">
        <ele>19.36</ele>
        <time>2016-09-02T14:32:04Z</time>
      </trkpt>
      <trkpt lat="46.15439" lon="-1.29225">
        <ele>15.52</ele>
        <time>2016-09-02T14:32:06Z</time>
      </trkpt>
      <trkpt lat="46.15423" lon="-1.29242">
        <ele>13.12</ele>
        <time>2016-09-02T14:32:09Z</time>
      </trkpt>
      <trkpt lat="46.15413" lon="-1.29251">
        <ele>10.23</ele>
        <time>2016-09-02T14:32:13Z</time>
      </trkpt>
      <trkpt lat="46.15415" lon="-1.29248">
        <ele>9.75</ele>
        <time>2016-09-02T14:32:24Z</time>
      </trkpt>
      <trkpt lat="46.15416" lon="-1.29246">
        <ele>9.75</ele>
        <time>2016-09-02T14:32:35Z</time>
      </trkpt>
      <trkpt lat="46.15415" lon="-1.29247">
        <ele>10.71</ele>
        <time>2016-09-02T14:32:36Z</time>
      </trkpt>
      <trkpt lat="46.15413" lon="-1.29249">
        <ele>11.19</ele>
        <time>2016-09-02T14:32:37Z</time>
      </trkpt>
      <trkpt lat="46.15411" lon="-1.29252">
        <ele>11.19</ele>
        <time>2016-09-02T14:32:38Z</time>
      </trkpt>
      <trkpt lat="46.15409" lon="-1.29256">
        <ele>11.19</ele>
        <time>2016-09-02T14:32:39Z</time>
      </trkpt>
      <trkpt lat="46.15407" lon="-1.29261">
        <ele>11.19</ele>
        <time>2016-09-02T14:32:40Z</time>
      </trkpt>
      <trkpt lat="46.15406" lon="-1.29267">
        <ele>10.71</ele>
        <time>2016-09-02T14:32:41Z</time>
      </trkpt>
      <trkpt lat="46.15405" lon="-1.29275">
        <ele>11.19</ele>
        <time>2016-09-02T14:32:42Z</time>
      </trkpt>
      <trkpt lat="46.15395" lon="-1.29319">
        <ele>13.6</ele>
        <time>2016-09-02T14:32:47Z</time>
      </trkpt>
      <trkpt lat="46.15374" lon="-1.29413">
        <ele>16.96</ele>
        <time>2016-09-02T14:32:54Z</time>
      </trkpt>
      <trkpt lat="46.15372" lon="-1.29503">
        <ele>18.88</ele>
        <time>2016-09-02T14:32:59Z</time>
      </trkpt>
      <trkpt lat="46.15378" lon="-1.29582">
        <ele>22.25</ele>
        <time>2016-09-02T14:33:03Z</time>
      </trkpt>
      <trkpt lat="46.15371" lon="-1.2973">
        <ele>22.25</ele>
        <time>2016-09-02T14:33:10Z</time>
      </trkpt>
      <trkpt lat="46.15354" lon="-1.29976">
        <ele>24.65</ele>
        <time>2016-09-02T14:33:21Z</time>
      </trkpt>
      <trkpt lat="46.15331" lon="-1.30191">
        <ele>26.09</ele>
        <time>2016-09-02T14:33:30Z</time>
      </trkpt>
      <trkpt lat="46.15313" lon="-1.30388">
        <ele>25.13</ele>
        <time>2016-09-02T14:33:38Z</time>
      </trkpt>
      <trkpt lat="46.15326" lon="-1.305">
        <ele>21.77</ele>
        <time>2016-09-02T14:33:43Z</time>
      </trkpt>
      <trkpt lat="46.15332" lon="-1.30568">
        <ele>17.92</ele>
        <time>2016-09-02T14:33:47Z</time>
      </trkpt>
      <trkpt lat="46.15333" lon="-1.3058">
        <ele>18.4</ele>
        <time>2016-09-02T14:33:48Z</time>
      </trkpt>
      <trkpt lat="46.15337" lon="-1.30609">
        <ele>15.04</ele>
        <time>2016-09-02T14:33:51Z</time>
      </trkpt>
      <trkpt lat="46.15339" lon="-1.30616">
        <ele>14.56</ele>
        <time>2016-09-02T14:33:52Z</time>
      </trkpt>
      <trkpt lat="46.15346" lon="-1.30629">
        <ele>12.15</ele>
        <time>2016-09-02T14:33:54Z</time>
      </trkpt>
      <trkpt lat="46.15348" lon="-1.30637">
        <ele>13.12</ele>
        <time>2016-09-02T14:33:55Z</time>
      </trkpt>
      <trkpt lat="46.1535" lon="-1.30646">
        <ele>14.56</ele>
        <time>2016-09-02T14:33:56Z</time>
      </trkpt>
      <trkpt lat="46.15351" lon="-1.30656">
        <ele>14.08</ele>
        <time>2016-09-02T14:33:57Z</time>
      </trkpt>
      <trkpt lat="46.15351" lon="-1.30667">
        <ele>15.04</ele>
        <time>2016-09-02T14:33:58Z</time>
      </trkpt>
      <trkpt lat="46.15351" lon="-1.30678">
        <ele>16</ele>
        <time>2016-09-02T14:33:59Z</time>
      </trkpt>
      <trkpt lat="46.15351" lon="-1.30704">
        <ele>16.96</ele>
        <time>2016-09-02T14:34:01Z</time>
      </trkpt>
      <trkpt lat="46.1535" lon="-1.30807">
        <ele>20.32</ele>
        <time>2016-09-02T14:34:07Z</time>
      </trkpt>
      <trkpt lat="46.15352" lon="-1.30827">
        <ele>20.81</ele>
        <time>2016-09-02T14:34:08Z</time>
      </trkpt>
      <trkpt lat="46.15383" lon="-1.30998">
        <ele>23.21</ele>
        <time>2016-09-02T14:34:16Z</time>
      </trkpt>
      <trkpt lat="46.15404" lon="-1.31093">
        <ele>26.57</ele>
        <time>2016-09-02T14:34:20Z</time>
      </trkpt>
      <trkpt lat="46.15424" lon="-1.31187">
        <ele>22.25</ele>
        <time>2016-09-02T14:34:24Z</time>
      </trkpt>
      <trkpt lat="46.15459" lon="-1.31328">
        <ele>19.84</ele>
        <time>2016-09-02T14:34:31Z</time>
      </trkpt>
      <trkpt lat="46.15512" lon="-1.31447">
        <ele>17.92</ele>
        <time>2016-09-02T14:34:39Z</time>
      </trkpt>
      <trkpt lat="46.15521" lon="-1.31468">
        <ele>14.56</ele>
        <time>2016-09-02T14:34:41Z</time>
      </trkpt>
      <trkpt lat="46.15547" lon="-1.31515">
        <ele>12.15</ele>
        <time>2016-09-02T14:34:48Z</time>
      </trkpt>
      <trkpt lat="46.15549" lon="-1.3152">
        <ele>12.15</ele>
        <time>2016-09-02T14:34:49Z</time>
      </trkpt>
      <trkpt lat="46.15549" lon="-1.31526">
        <ele>12.63</ele>
        <time>2016-09-02T14:34:50Z</time>
      </trkpt>
      <trkpt lat="46.15549" lon="-1.31532">
        <ele>12.63</ele>
        <time>2016-09-02T14:34:51Z</time>
      </trkpt>
      <trkpt lat="46.15547" lon="-1.31537">
        <ele>11.67</ele>
        <time>2016-09-02T14:34:52Z</time>
      </trkpt>
      <trkpt lat="46.15545" lon="-1.31541">
        <ele>12.15</ele>
        <time>2016-09-02T14:34:53Z</time>
      </trkpt>
      <trkpt lat="46.15541" lon="-1.31544">
        <ele>12.63</ele>
        <time>2016-09-02T14:34:54Z</time>
      </trkpt>
      <trkpt lat="46.15538" lon="-1.31545">
        <ele>11.67</ele>
        <time>2016-09-02T14:34:55Z</time>
      </trkpt>
      <trkpt lat="46.15533" lon="-1.31543">
        <ele>11.67</ele>
        <time>2016-09-02T14:34:56Z</time>
      </trkpt>
      <trkpt lat="46.15529" lon="-1.31538">
        <ele>11.19</ele>
        <time>2016-09-02T14:34:57Z</time>
      </trkpt>
      <trkpt lat="46.15527" lon="-1.31532">
        <ele>10.71</ele>
        <time>2016-09-02T14:34:58Z</time>
      </trkpt>
      <trkpt lat="46.15525" lon="-1.31524">
        <ele>10.71</ele>
        <time>2016-09-02T14:34:59Z</time>
      </trkpt>
      <trkpt lat="46.15524" lon="-1.31516">
        <ele>10.71</ele>
        <time>2016-09-02T14:35:00Z</time>
      </trkpt>
      <trkpt lat="46.15522" lon="-1.31505">
        <ele>11.19</ele>
        <time>2016-09-02T14:35:01Z</time>
      </trkpt>
      <trkpt lat="46.155" lon="-1.31423">
        <ele>14.56</ele>
        <time>2016-09-02T14:35:08Z</time>
      </trkpt>
      <trkpt lat="46.15453" lon="-1.31304">
        <ele>13.12</ele>
        <time>2016-09-02T14:35:17Z</time>
      </trkpt>
      <trkpt lat="46.15442" lon="-1.31278">
        <ele>12.15</ele>
        <time>2016-09-02T14:35:20Z</time>
      </trkpt>
      <trkpt lat="46.15438" lon="-1.31273">
        <ele>11.67</ele>
        <time>2016-09-02T14:35:21Z</time>
      </trkpt>
      <trkpt lat="46.15421" lon="-1.31233">
        <ele>12.15</ele>
        <time>2016-09-02T14:35:31Z</time>
      </trkpt>
      <trkpt lat="46.1542" lon="-1.3123">
        <ele>11.67</ele>
        <time>2016-09-02T14:35:41Z</time>
      </trkpt>
      <trkpt lat="46.1542" lon="-1.31232">
        <ele>11.19</ele>
        <time>2016-09-02T14:36:09Z</time>
      </trkpt>
      <trkpt lat="46.15421" lon="-1.31234">
        <ele>11.67</ele>
        <time>2016-09-02T14:36:29Z</time>
      </trkpt>
      <trkpt lat="46.15421" lon="-1.31234">
        <ele>11.19</ele>
        <time>2016-09-02T14:36:41Z</time>
      </trkpt>
      <trkpt lat="46.15421" lon="-1.31227">
        <ele>11.19</ele>
        <time>2016-09-02T14:36:44Z</time>
      </trkpt>
      <trkpt lat="46.15421" lon="-1.31225">
        <ele>10.23</ele>
        <time>2016-09-02T14:36:45Z</time>
      </trkpt>
      <trkpt lat="46.15422" lon="-1.312">
        <ele>10.71</ele>
        <time>2016-09-02T14:36:50Z</time>
      </trkpt>
      <trkpt lat="46.15407" lon="-1.31118">
        <ele>12.63</ele>
        <time>2016-09-02T14:36:59Z</time>
      </trkpt>
      <trkpt lat="46.15382" lon="-1.30985">
        <ele>15.52</ele>
        <time>2016-09-02T14:37:08Z</time>
      </trkpt>
      <trkpt lat="46.15347" lon="-1.30798">
        <ele>15.04</ele>
        <time>2016-09-02T14:37:18Z</time>
      </trkpt>
      <trkpt lat="46.15343" lon="-1.30695">
        <ele>13.6</ele>
        <time>2016-09-02T14:37:25Z</time>
      </trkpt>
      <trkpt lat="46.15343" lon="-1.30684">
        <ele>13.12</ele>
        <time>2016-09-02T14:37:26Z</time>
      </trkpt>
      <trkpt lat="46.15341" lon="-1.30674">
        <ele>13.12</ele>
        <time>2016-09-02T14:37:27Z</time>
      </trkpt>
      <trkpt lat="46.15339" lon="-1.30666">
        <ele>13.12</ele>
        <time>2016-09-02T14:37:28Z</time>
      </trkpt>
      <trkpt lat="46.15336" lon="-1.3066">
        <ele>12.63</ele>
        <time>2016-09-02T14:37:29Z</time>
      </trkpt>
      <trkpt lat="46.15333" lon="-1.30656">
        <ele>12.15</ele>
        <time>2016-09-02T14:37:30Z</time>
      </trkpt>
      <trkpt lat="46.15329" lon="-1.30652">
        <ele>11.67</ele>
        <time>2016-09-02T14:37:31Z</time>
      </trkpt>
      <trkpt lat="46.15326" lon="-1.30648">
        <ele>11.19</ele>
        <time>2016-09-02T14:37:32Z</time>
      </trkpt>
      <trkpt lat="46.15323" lon="-1.30644">
        <ele>11.19</ele>
        <time>2016-09-02T14:37:33Z</time>
      </trkpt>
      <trkpt lat="46.15321" lon="-1.30638">
        <ele>11.19</ele>
        <time>2016-09-02T14:37:34Z</time>
      </trkpt>
      <trkpt lat="46.1532" lon="-1.30632">
        <ele>11.19</ele>
        <time>2016-09-02T14:37:35Z</time>
      </trkpt>
      <trkpt lat="46.1532" lon="-1.30627">
        <ele>10.71</ele>
        <time>2016-09-02T14:37:36Z</time>
      </trkpt>
      <trkpt lat="46.15322" lon="-1.30622">
        <ele>10.71</ele>
        <time>2016-09-02T14:37:37Z</time>
      </trkpt>
      <trkpt lat="46.15325" lon="-1.30618">
        <ele>10.71</ele>
        <time>2016-09-02T14:37:38Z</time>
      </trkpt>
      <trkpt lat="46.15329" lon="-1.30616">
        <ele>10.71</ele>
        <time>2016-09-02T14:37:39Z</time>
      </trkpt>
      <trkpt lat="46.15333" lon="-1.30616">
        <ele>9.75</ele>
        <time>2016-09-02T14:37:40Z</time>
      </trkpt>
      <trkpt lat="46.15338" lon="-1.30618">
        <ele>10.71</ele>
        <time>2016-09-02T14:37:41Z</time>
      </trkpt>
      <trkpt lat="46.15341" lon="-1.30622">
        <ele>11.67</ele>
        <time>2016-09-02T14:37:42Z</time>
      </trkpt>
      <trkpt lat="46.15344" lon="-1.30627">
        <ele>11.67</ele>
        <time>2016-09-02T14:37:43Z</time>
      </trkpt>
      <trkpt lat="46.15346" lon="-1.30633">
        <ele>12.15</ele>
        <time>2016-09-02T14:37:44Z</time>
      </trkpt>
      <trkpt lat="46.15347" lon="-1.3064">
        <ele>12.63</ele>
        <time>2016-09-02T14:37:45Z</time>
      </trkpt>
      <trkpt lat="46.15347" lon="-1.3065">
        <ele>13.6</ele>
        <time>2016-09-02T14:37:46Z</time>
      </trkpt>
      <trkpt lat="46.15346" lon="-1.30659">
        <ele>14.08</ele>
        <time>2016-09-02T14:37:47Z</time>
      </trkpt>
      <trkpt lat="46.15346" lon="-1.30752">
        <ele>16.96</ele>
        <time>2016-09-02T14:37:54Z</time>
      </trkpt>
      <trkpt lat="46.15349" lon="-1.30823">
        <ele>20.32</ele>
        <time>2016-09-02T14:37:58Z</time>
      </trkpt>
      <trkpt lat="46.15377" lon="-1.30978">
        <ele>21.29</ele>
        <time>2016-09-02T14:38:06Z</time>
      </trkpt>
      <trkpt lat="46.15406" lon="-1.31105">
        <ele>19.84</ele>
        <time>2016-09-02T14:38:12Z</time>
      </trkpt>
      <trkpt lat="46.15451" lon="-1.31299">
        <ele>18.4</ele>
        <time>2016-09-02T14:38:22Z</time>
      </trkpt>
      <trkpt lat="46.15462" lon="-1.31333">
        <ele>17.44</ele>
        <time>2016-09-02T14:38:24Z</time>
      </trkpt>
      <trkpt lat="46.15517" lon="-1.31459">
        <ele>15.04</ele>
        <time>2016-09-02T14:38:33Z</time>
      </trkpt>
      <trkpt lat="46.1553" lon="-1.31486">
        <ele>13.6</ele>
        <time>2016-09-02T14:38:36Z</time>
      </trkpt>
      <trkpt lat="46.15546" lon="-1.31515">
        <ele>12.15</ele>
        <time>2016-09-02T14:38:40Z</time>
      </trkpt>
      <trkpt lat="46.1555" lon="-1.31524">
        <ele>13.12</ele>
        <time>2016-09-02T14:38:41Z</time>
      </trkpt>
      <trkpt lat="46.15552" lon="-1.31534">
        <ele>14.56</ele>
        <time>2016-09-02T14:38:42Z</time>
      </trkpt>
      <trkpt lat="46.15555" lon="-1.31544">
        <ele>14.56</ele>
        <time>2016-09-02T14:38:43Z</time>
      </trkpt>
      <trkpt lat="46.15593" lon="-1.31628">
        <ele>15.04</ele>
        <time>2016-09-02T14:38:51Z</time>
      </trkpt>
      <trkpt lat="46.15632" lon="-1.31724">
        <ele>19.36</ele>
        <time>2016-09-02T14:38:57Z</time>
      </trkpt>
      <trkpt lat="46.15702" lon="-1.31931">
        <ele>16.48</ele>
        <time>2016-09-02T14:39:07Z</time>
      </trkpt>
      <trkpt lat="46.15723" lon="-1.31995">
        <ele>18.4</ele>
        <time>2016-09-02T14:39:10Z</time>
      </trkpt>
      <trkpt lat="46.15813" lon="-1.32272">
        <ele>19.84</ele>
        <time>2016-09-02T14:39:23Z</time>
      </trkpt>
      <trkpt lat="46.15837" lon="-1.32347">
        <ele>15.52</ele>
        <time>2016-09-02T14:39:27Z</time>
      </trkpt>
      <trkpt lat="46.15843" lon="-1.32366">
        <ele>16</ele>
        <time>2016-09-02T14:39:28Z</time>
      </trkpt>
      <trkpt lat="46.15905" lon="-1.32559">
        <ele>16</ele>
        <time>2016-09-02T14:39:39Z</time>
      </trkpt>
      <trkpt lat="46.15956" lon="-1.32718">
        <ele>18.4</ele>
        <time>2016-09-02T14:39:47Z</time>
      </trkpt>
      <trkpt lat="46.15974" lon="-1.32782">
        <ele>15.52</ele>
        <time>2016-09-02T14:39:50Z</time>
      </trkpt>
      <trkpt lat="46.15995" lon="-1.32914">
        <ele>15.04</ele>
        <time>2016-09-02T14:39:57Z</time>
      </trkpt>
      <trkpt lat="46.15996" lon="-1.3295">
        <ele>13.6</ele>
        <time>2016-09-02T14:39:59Z</time>
      </trkpt>
      <trkpt lat="46.15996" lon="-1.3306">
        <ele>10.23</ele>
        <time>2016-09-02T14:40:06Z</time>
      </trkpt>
      <trkpt lat="46.15995" lon="-1.33087">
        <ele>8.79</ele>
        <time>2016-09-02T14:40:08Z</time>
      </trkpt>
      <trkpt lat="46.15993" lon="-1.33121">
        <ele>7.35</ele>
        <time>2016-09-02T14:40:11Z</time>
      </trkpt>
      <trkpt lat="46.15992" lon="-1.33147">
        <ele>5.91</ele>
        <time>2016-09-02T14:40:14Z</time>
      </trkpt>
      <trkpt lat="46.15992" lon="-1.33154">
        <ele>6.39</ele>
        <time>2016-09-02T14:40:15Z</time>
      </trkpt>
      <trkpt lat="46.15993" lon="-1.33162">
        <ele>5.91</ele>
        <time>2016-09-02T14:40:16Z</time>
      </trkpt>
      <trkpt lat="46.15994" lon="-1.33182">
        <ele>5.42</ele>
        <time>2016-09-02T14:40:19Z</time>
      </trkpt>
      <trkpt lat="46.15993" lon="-1.33189">
        <ele>4.46</ele>
        <time>2016-09-02T14:40:20Z</time>
      </trkpt>
      <trkpt lat="46.1599" lon="-1.33194">
        <ele>4.94</ele>
        <time>2016-09-02T14:40:21Z</time>
      </trkpt>
      <trkpt lat="46.15986" lon="-1.33199">
        <ele>4.46</ele>
        <time>2016-09-02T14:40:22Z</time>
      </trkpt>
      <trkpt lat="46.15982" lon="-1.33201">
        <ele>4.94</ele>
        <time>2016-09-02T14:40:23Z</time>
      </trkpt>
      <trkpt lat="46.15978" lon="-1.33202">
        <ele>4.94</ele>
        <time>2016-09-02T14:40:24Z</time>
      </trkpt>
      <trkpt lat="46.15973" lon="-1.33198">
        <ele>4.94</ele>
        <time>2016-09-02T14:40:25Z</time>
      </trkpt>
      <trkpt lat="46.15968" lon="-1.33193">
        <ele>4.46</ele>
        <time>2016-09-02T14:40:26Z</time>
      </trkpt>
      <trkpt lat="46.15963" lon="-1.33188">
        <ele>4.46</ele>
        <time>2016-09-02T14:40:27Z</time>
      </trkpt>
      <trkpt lat="46.15959" lon="-1.33183">
        <ele>5.42</ele>
        <time>2016-09-02T14:40:28Z</time>
      </trkpt>
      <trkpt lat="46.15954" lon="-1.33179">
        <ele>4.94</ele>
        <time>2016-09-02T14:40:29Z</time>
      </trkpt>
      <trkpt lat="46.15951" lon="-1.33176">
        <ele>4.46</ele>
        <time>2016-09-02T14:40:30Z</time>
      </trkpt>
      <trkpt lat="46.15947" lon="-1.33174">
        <ele>4.46</ele>
        <time>2016-09-02T14:40:31Z</time>
      </trkpt>
      <trkpt lat="46.15935" lon="-1.33169">
        <ele>3.5</ele>
        <time>2016-09-02T14:40:38Z</time>
      </trkpt>
      <trkpt lat="46.15937" lon="-1.33168">
        <ele>3.02</ele>
        <time>2016-09-02T14:40:57Z</time>
      </trkpt>
      <trkpt lat="46.15936" lon="-1.33167">
        <ele>2.54</ele>
        <time>2016-09-02T14:41:00Z</time>
      </trkpt>
      <trkpt lat="46.15933" lon="-1.33164">
        <ele>3.02</ele>
        <time>2016-09-02T14:41:02Z</time>
      </trkpt>
      <trkpt lat="46.15932" lon="-1.3316">
        <ele>3.5</ele>
        <time>2016-09-02T14:41:03Z</time>
      </trkpt>
      <trkpt lat="46.15931" lon="-1.33156">
        <ele>3.5</ele>
        <time>2016-09-02T14:41:04Z</time>
      </trkpt>
      <trkpt lat="46.1593" lon="-1.33152">
        <ele>3.5</ele>
        <time>2016-09-02T14:41:05Z</time>
      </trkpt>
      <trkpt lat="46.1593" lon="-1.33148">
        <ele>3.02</ele>
        <time>2016-09-02T14:41:06Z</time>
      </trkpt>
      <trkpt lat="46.1593" lon="-1.33144">
        <ele>3.02</ele>
        <time>2016-09-02T14:41:07Z</time>
      </trkpt>
      <trkpt lat="46.15931" lon="-1.33141">
        <ele>3.02</ele>
        <time>2016-09-02T14:41:08Z</time>
      </trkpt>
      <trkpt lat="46.15933" lon="-1.33138">
        <ele>2.54</ele>
        <time>2016-09-02T14:41:09Z</time>
      </trkpt>
      <trkpt lat="46.15935" lon="-1.33136">
        <ele>2.06</ele>
        <time>2016-09-02T14:41:10Z</time>
      </trkpt>
      <trkpt lat="46.15938" lon="-1.33134">
        <ele>2.06</ele>
        <time>2016-09-02T14:41:11Z</time>
      </trkpt>
      <trkpt lat="46.15941" lon="-1.33134">
        <ele>2.54</ele>
        <time>2016-09-02T14:41:12Z</time>
      </trkpt>
      <trkpt lat="46.15944" lon="-1.33135">
        <ele>2.54</ele>
        <time>2016-09-02T14:41:13Z</time>
      </trkpt>
      <trkpt lat="46.15947" lon="-1.33136">
        <ele>3.02</ele>
        <time>2016-09-02T14:41:14Z</time>
      </trkpt>
      <trkpt lat="46.1595" lon="-1.33138">
        <ele>3.98</ele>
        <time>2016-09-02T14:41:15Z</time>
      </trkpt>
      <trkpt lat="46.15952" lon="-1.33141">
        <ele>3.5</ele>
        <time>2016-09-02T14:41:16Z</time>
      </trkpt>
      <trkpt lat="46.15959" lon="-1.33145">
        <ele>2.06</ele>
        <time>2016-09-02T14:41:22Z</time>
      </trkpt>
      <trkpt lat="46.15966" lon="-1.33148">
        <ele>3.02</ele>
        <time>2016-09-02T14:41:25Z</time>
      </trkpt>
      <trkpt lat="46.15969" lon="-1.33148">
        <ele>3.02</ele>
        <time>2016-09-02T14:41:26Z</time>
      </trkpt>
      <trkpt lat="46.15978" lon="-1.3315">
        <ele>2.54</ele>
        <time>2016-09-02T14:41:28Z</time>
      </trkpt>
      <trkpt lat="46.15982" lon="-1.33152">
        <ele>3.98</ele>
        <time>2016-09-02T14:41:29Z</time>
      </trkpt>
      <trkpt lat="46.15987" lon="-1.33155">
        <ele>4.46</ele>
        <time>2016-09-02T14:41:30Z</time>
      </trkpt>
      <trkpt lat="46.15992" lon="-1.33159">
        <ele>4.94</ele>
        <time>2016-09-02T14:41:31Z</time>
      </trkpt>
      <trkpt lat="46.15997" lon="-1.33163">
        <ele>5.42</ele>
        <time>2016-09-02T14:41:32Z</time>
      </trkpt>
      <trkpt lat="46.16002" lon="-1.33167">
        <ele>5.91</ele>
        <time>2016-09-02T14:41:33Z</time>
      </trkpt>
      <trkpt lat="46.16009" lon="-1.33169">
        <ele>5.91</ele>
        <time>2016-09-02T14:41:34Z</time>
      </trkpt>
      <trkpt lat="46.16017" lon="-1.33169">
        <ele>4.94</ele>
        <time>2016-09-02T14:41:35Z</time>
      </trkpt>
      <trkpt lat="46.16026" lon="-1.33167">
        <ele>4.46</ele>
        <time>2016-09-02T14:41:36Z</time>
      </trkpt>
      <trkpt lat="46.16035" lon="-1.33165">
        <ele>4.94</ele>
        <time>2016-09-02T14:41:37Z</time>
      </trkpt>
      <trkpt lat="46.16045" lon="-1.33164">
        <ele>4.94</ele>
        <time>2016-09-02T14:41:38Z</time>
      </trkpt>
      <trkpt lat="46.16055" lon="-1.33165">
        <ele>6.39</ele>
        <time>2016-09-02T14:41:39Z</time>
      </trkpt>
      <trkpt lat="46.16065" lon="-1.33167">
        <ele>6.87</ele>
        <time>2016-09-02T14:41:40Z</time>
      </trkpt>
      <trkpt lat="46.16137" lon="-1.33181">
        <ele>10.23</ele>
        <time>2016-09-02T14:41:46Z</time>
      </trkpt>
      <trkpt lat="46.16266" lon="-1.33199">
        <ele>11.19</ele>
        <time>2016-09-02T14:41:55Z</time>
      </trkpt>
      <trkpt lat="46.16296" lon="-1.33204">
        <ele>10.23</ele>
        <time>2016-09-02T14:41:57Z</time>
      </trkpt>
      <trkpt lat="46.1631" lon="-1.3321">
        <ele>10.71</ele>
        <time>2016-09-02T14:41:58Z</time>
      </trkpt>
      <trkpt lat="46.16323" lon="-1.33219">
        <ele>11.19</ele>
        <time>2016-09-02T14:41:59Z</time>
      </trkpt>
      <trkpt lat="46.16336" lon="-1.33229">
        <ele>12.15</ele>
        <time>2016-09-02T14:42:00Z</time>
      </trkpt>
      <trkpt lat="46.16349" lon="-1.33241">
        <ele>10.71</ele>
        <time>2016-09-02T14:42:01Z</time>
      </trkpt>
      <trkpt lat="46.16374" lon="-1.33267">
        <ele>15.52</ele>
        <time>2016-09-02T14:42:03Z</time>
      </trkpt>
      <trkpt lat="46.16386" lon="-1.3328">
        <ele>14.08</ele>
        <time>2016-09-02T14:42:04Z</time>
      </trkpt>
      <trkpt lat="46.16464" lon="-1.33352">
        <ele>13.12</ele>
        <time>2016-09-02T14:42:10Z</time>
      </trkpt>
      <trkpt lat="46.16478" lon="-1.3336">
        <ele>13.12</ele>
        <time>2016-09-02T14:42:11Z</time>
      </trkpt>
      <trkpt lat="46.16522" lon="-1.3338">
        <ele>16.48</ele>
        <time>2016-09-02T14:42:14Z</time>
      </trkpt>
      <trkpt lat="46.16616" lon="-1.33391">
        <ele>17.92</ele>
        <time>2016-09-02T14:42:20Z</time>
      </trkpt>
      <trkpt lat="46.16737" lon="-1.33427">
        <ele>18.4</ele>
        <time>2016-09-02T14:42:27Z</time>
      </trkpt>
      <trkpt lat="46.16923" lon="-1.33467">
        <ele>18.4</ele>
        <time>2016-09-02T14:42:37Z</time>
      </trkpt>
      <trkpt lat="46.17085" lon="-1.33492">
        <ele>20.81</ele>
        <time>2016-09-02T14:42:46Z</time>
      </trkpt>
      <trkpt lat="46.1712" lon="-1.33491">
        <ele>21.77</ele>
        <time>2016-09-02T14:42:48Z</time>
      </trkpt>
      <trkpt lat="46.17171" lon="-1.33484">
        <ele>16.96</ele>
        <time>2016-09-02T14:42:51Z</time>
      </trkpt>
      <trkpt lat="46.17189" lon="-1.3348">
        <ele>17.44</ele>
        <time>2016-09-02T14:42:52Z</time>
      </trkpt>
      <trkpt lat="46.17222" lon="-1.33468">
        <ele>18.4</ele>
        <time>2016-09-02T14:42:54Z</time>
      </trkpt>
      <trkpt lat="46.17301" lon="-1.33443">
        <ele>18.4</ele>
        <time>2016-09-02T14:42:59Z</time>
      </trkpt>
      <trkpt lat="46.17317" lon="-1.33443">
        <ele>20.32</ele>
        <time>2016-09-02T14:43:00Z</time>
      </trkpt>
      <trkpt lat="46.17333" lon="-1.33446">
        <ele>21.29</ele>
        <time>2016-09-02T14:43:01Z</time>
      </trkpt>
      <trkpt lat="46.17349" lon="-1.33451">
        <ele>21.77</ele>
        <time>2016-09-02T14:43:02Z</time>
      </trkpt>
      <trkpt lat="46.17364" lon="-1.33457">
        <ele>21.77</ele>
        <time>2016-09-02T14:43:03Z</time>
      </trkpt>
      <trkpt lat="46.17464" lon="-1.33487">
        <ele>20.81</ele>
        <time>2016-09-02T14:43:09Z</time>
      </trkpt>
      <trkpt lat="46.17657" lon="-1.33489">
        <ele>18.88</ele>
        <time>2016-09-02T14:43:20Z</time>
      </trkpt>
      <trkpt lat="46.17673" lon="-1.33485">
        <ele>16.48</ele>
        <time>2016-09-02T14:43:21Z</time>
      </trkpt>
      <trkpt lat="46.17689" lon="-1.33478">
        <ele>16.48</ele>
        <time>2016-09-02T14:43:22Z</time>
      </trkpt>
      <trkpt lat="46.17704" lon="-1.33469">
        <ele>16.48</ele>
        <time>2016-09-02T14:43:23Z</time>
      </trkpt>
      <trkpt lat="46.17734" lon="-1.33448">
        <ele>17.92</ele>
        <time>2016-09-02T14:43:25Z</time>
      </trkpt>
      <trkpt lat="46.17829" lon="-1.33389">
        <ele>14.56</ele>
        <time>2016-09-02T14:43:32Z</time>
      </trkpt>
      <trkpt lat="46.17853" lon="-1.33385">
        <ele>14.08</ele>
        <time>2016-09-02T14:43:34Z</time>
      </trkpt>
      <trkpt lat="46.17902" lon="-1.33375">
        <ele>13.12</ele>
        <time>2016-09-02T14:43:40Z</time>
      </trkpt>
      <trkpt lat="46.17907" lon="-1.33373">
        <ele>10.71</ele>
        <time>2016-09-02T14:43:41Z</time>
      </trkpt>
      <trkpt lat="46.17911" lon="-1.33369">
        <ele>9.75</ele>
        <time>2016-09-02T14:43:42Z</time>
      </trkpt>
      <trkpt lat="46.17914" lon="-1.33366">
        <ele>10.23</ele>
        <time>2016-09-02T14:43:43Z</time>
      </trkpt>
      <trkpt lat="46.17916" lon="-1.33363">
        <ele>10.71</ele>
        <time>2016-09-02T14:43:44Z</time>
      </trkpt>
      <trkpt lat="46.17917" lon="-1.3336">
        <ele>9.75</ele>
        <time>2016-09-02T14:43:45Z</time>
      </trkpt>
      <trkpt lat="46.17919" lon="-1.33356">
        <ele>8.31</ele>
        <time>2016-09-02T14:43:49Z</time>
      </trkpt>
      <trkpt lat="46.17919" lon="-1.33354">
        <ele>8.31</ele>
        <time>2016-09-02T14:43:50Z</time>
      </trkpt>
      <trkpt lat="46.1792" lon="-1.33351">
        <ele>9.75</ele>
        <time>2016-09-02T14:43:51Z</time>
      </trkpt>
      <trkpt lat="46.17924" lon="-1.33315">
        <ele>9.27</ele>
        <time>2016-09-02T14:43:57Z</time>
      </trkpt>
      <trkpt lat="46.17926" lon="-1.33308">
        <ele>8.31</ele>
        <time>2016-09-02T14:43:58Z</time>
      </trkpt>
      <trkpt lat="46.1793" lon="-1.33303">
        <ele>6.87</ele>
        <time>2016-09-02T14:43:59Z</time>
      </trkpt>
      <trkpt lat="46.17935" lon="-1.33299">
        <ele>7.35</ele>
        <time>2016-09-02T14:44:00Z</time>
      </trkpt>
      <trkpt lat="46.17941" lon="-1.33298">
        <ele>8.31</ele>
        <time>2016-09-02T14:44:01Z</time>
      </trkpt>
      <trkpt lat="46.17948" lon="-1.33298">
        <ele>10.23</ele>
        <time>2016-09-02T14:44:02Z</time>
      </trkpt>
      <trkpt lat="46.17956" lon="-1.33299">
        <ele>11.19</ele>
        <time>2016-09-02T14:44:03Z</time>
      </trkpt>
      <trkpt lat="46.17984" lon="-1.333">
        <ele>13.6</ele>
        <time>2016-09-02T14:44:06Z</time>
      </trkpt>
      <trkpt lat="46.18022" lon="-1.33298">
        <ele>12.15</ele>
        <time>2016-09-02T14:44:10Z</time>
      </trkpt>
      <trkpt lat="46.18031" lon="-1.33294">
        <ele>12.15</ele>
        <time>2016-09-02T14:44:11Z</time>
      </trkpt>
      <trkpt lat="46.18039" lon="-1.33288">
        <ele>12.15</ele>
        <time>2016-09-02T14:44:12Z</time>
      </trkpt>
      <trkpt lat="46.18103" lon="-1.33221">
        <ele>14.08</ele>
        <time>2016-09-02T14:44:19Z</time>
      </trkpt>
      <trkpt lat="46.18179" lon="-1.33152">
        <ele>12.15</ele>
        <time>2016-09-02T14:44:27Z</time>
      </trkpt>
      <trkpt lat="46.18206" lon="-1.33131">
        <ele>8.31</ele>
        <time>2016-09-02T14:44:31Z</time>
      </trkpt>
      <trkpt lat="46.18211" lon="-1.33126">
        <ele>8.31</ele>
        <time>2016-09-02T14:44:32Z</time>
      </trkpt>
      <trkpt lat="46.18223" lon="-1.33119">
        <ele>8.31</ele>
        <time>2016-09-02T14:44:35Z</time>
      </trkpt>
      <trkpt lat="46.18277" lon="-1.33097">
        <ele>10.23</ele>
        <time>2016-09-02T14:44:44Z</time>
      </trkpt>
      <trkpt lat="46.18293" lon="-1.33088">
        <ele>8.79</ele>
        <time>2016-09-02T14:44:46Z</time>
      </trkpt>
      <trkpt lat="46.18322" lon="-1.33069">
        <ele>11.67</ele>
        <time>2016-09-02T14:44:49Z</time>
      </trkpt>
      <trkpt lat="46.18398" lon="-1.33005">
        <ele>10.23</ele>
        <time>2016-09-02T14:44:57Z</time>
      </trkpt>
      <trkpt lat="46.18427" lon="-1.32977">
        <ele>9.27</ele>
        <time>2016-09-02T14:45:03Z</time>
      </trkpt>
      <trkpt lat="46.18431" lon="-1.32974">
        <ele>7.83</ele>
        <time>2016-09-02T14:45:06Z</time>
      </trkpt>
      <trkpt lat="46.18435" lon="-1.32979">
        <ele>7.83</ele>
        <time>2016-09-02T14:45:12Z</time>
      </trkpt>
      <trkpt lat="46.18437" lon="-1.32981">
        <ele>8.31</ele>
        <time>2016-09-02T14:45:13Z</time>
      </trkpt>
      <trkpt lat="46.18438" lon="-1.32984">
        <ele>9.75</ele>
        <time>2016-09-02T14:45:14Z</time>
      </trkpt>
      <trkpt lat="46.1844" lon="-1.32988">
        <ele>9.75</ele>
        <time>2016-09-02T14:45:15Z</time>
      </trkpt>
      <trkpt lat="46.18441" lon="-1.32991">
        <ele>9.75</ele>
        <time>2016-09-02T14:45:16Z</time>
      </trkpt>
      <trkpt lat="46.18443" lon="-1.32995">
        <ele>9.75</ele>
        <time>2016-09-02T14:45:17Z</time>
      </trkpt>
      <trkpt lat="46.18453" lon="-1.33022">
        <ele>8.31</ele>
        <time>2016-09-02T14:45:27Z</time>
      </trkpt>
      <trkpt lat="46.18454" lon="-1.33024">
        <ele>8.31</ele>
        <time>2016-09-02T14:45:43Z</time>
      </trkpt>
      <trkpt lat="46.18453" lon="-1.33022">
        <ele>8.79</ele>
        <time>2016-09-02T14:46:05Z</time>
      </trkpt>
      <trkpt lat="46.18453" lon="-1.33022">
        <ele>8.79</ele>
        <time>2016-09-02T14:46:26Z</time>
      </trkpt>
      <trkpt lat="46.18452" lon="-1.33021">
        <ele>8.79</ele>
        <time>2016-09-02T14:46:47Z</time>
      </trkpt>
      <trkpt lat="46.18452" lon="-1.3302">
        <ele>8.31</ele>
        <time>2016-09-02T14:47:10Z</time>
      </trkpt>
      <trkpt lat="46.18454" lon="-1.33028">
        <ele>8.79</ele>
        <time>2016-09-02T14:47:16Z</time>
      </trkpt>
      <trkpt lat="46.18469" lon="-1.33065">
        <ele>11.19</ele>
        <time>2016-09-02T14:47:24Z</time>
      </trkpt>
      <trkpt lat="46.18505" lon="-1.33129">
        <ele>12.63</ele>
        <time>2016-09-02T14:47:31Z</time>
      </trkpt>
      <trkpt lat="46.18566" lon="-1.33224">
        <ele>12.15</ele>
        <time>2016-09-02T14:47:41Z</time>
      </trkpt>
      <trkpt lat="46.18613" lon="-1.33293">
        <ele>12.15</ele>
        <time>2016-09-02T14:47:53Z</time>
      </trkpt>
      <trkpt lat="46.18669" lon="-1.33352">
        <ele>10.71</ele>
        <time>2016-09-02T14:48:02Z</time>
      </trkpt>
      <trkpt lat="46.18743" lon="-1.33398">
        <ele>10.71</ele>
        <time>2016-09-02T14:48:12Z</time>
      </trkpt>
      <trkpt lat="46.18834" lon="-1.33422">
        <ele>9.75</ele>
        <time>2016-09-02T14:48:22Z</time>
      </trkpt>
      <trkpt lat="46.18931" lon="-1.33405">
        <ele>12.15</ele>
        <time>2016-09-02T14:48:31Z</time>
      </trkpt>
      <trkpt lat="46.18958" lon="-1.33398">
        <ele>8.31</ele>
        <time>2016-09-02T14:48:34Z</time>
      </trkpt>
      <trkpt lat="46.18974" lon="-1.33392">
        <ele>4.46</ele>
        <time>2016-09-02T14:48:37Z</time>
      </trkpt>
      <trkpt lat="46.1898" lon="-1.3339">
        <ele>3.5</ele>
        <time>2016-09-02T14:48:39Z</time>
      </trkpt>
      <trkpt lat="46.19017" lon="-1.33381">
        <ele>5.42</ele>
        <time>2016-09-02T14:48:46Z</time>
      </trkpt>
      <trkpt lat="46.1906" lon="-1.33376">
        <ele>3.5</ele>
        <time>2016-09-02T14:48:55Z</time>
      </trkpt>
      <trkpt lat="46.19062" lon="-1.33376">
        <ele>2.06</ele>
        <time>2016-09-02T14:49:04Z</time>
      </trkpt>
      <trkpt lat="46.19061" lon="-1.33376">
        <ele>2.54</ele>
        <time>2016-09-02T14:49:33Z</time>
      </trkpt>
      <trkpt lat="46.19061" lon="-1.33376">
        <ele>2.54</ele>
        <time>2016-09-02T14:50:02Z</time>
      </trkpt>
      <trkpt lat="46.19061" lon="-1.33376">
        <ele>1.1</ele>
        <time>2016-09-02T14:50:22Z</time>
      </trkpt>
      <trkpt lat="46.19067" lon="-1.33376">
        <ele>1.58</ele>
        <time>2016-09-02T14:50:25Z</time>
      </trkpt>
      <trkpt lat="46.19087" lon="-1.33378">
        <ele>1.1</ele>
        <time>2016-09-02T14:50:33Z</time>
      </trkpt>
      <trkpt lat="46.19089" lon="-1.33381">
        <ele>2.06</ele>
        <time>2016-09-02T14:50:34Z</time>
      </trkpt>
      <trkpt lat="46.19091" lon="-1.33385">
        <ele>3.02</ele>
        <time>2016-09-02T14:50:35Z</time>
      </trkpt>
      <trkpt lat="46.19094" lon="-1.33391">
        <ele>3.02</ele>
        <time>2016-09-02T14:50:36Z</time>
      </trkpt>
      <trkpt lat="46.19126" lon="-1.33454">
        <ele>5.42</ele>
        <time>2016-09-02T14:50:44Z</time>
      </trkpt>
      <trkpt lat="46.19131" lon="-1.33466">
        <ele>5.42</ele>
        <time>2016-09-02T14:50:45Z</time>
      </trkpt>
      <trkpt lat="46.1916" lon="-1.33562">
        <ele>4.46</ele>
        <time>2016-09-02T14:50:53Z</time>
      </trkpt>
      <trkpt lat="46.19184" lon="-1.33669">
        <ele>5.91</ele>
        <time>2016-09-02T14:51:03Z</time>
      </trkpt>
      <trkpt lat="46.19194" lon="-1.33714">
        <ele>9.27</ele>
        <time>2016-09-02T14:51:06Z</time>
      </trkpt>
      <trkpt lat="46.19204" lon="-1.33759">
        <ele>7.83</ele>
        <time>2016-09-02T14:51:09Z</time>
      </trkpt>
      <trkpt lat="46.19213" lon="-1.33791">
        <ele>4.46</ele>
        <time>2016-09-02T14:51:12Z</time>
      </trkpt>
      <trkpt lat="46.19233" lon="-1.33875">
        <ele>7.83</ele>
        <time>2016-09-02T14:51:20Z</time>
      </trkpt>
      <trkpt lat="46.19236" lon="-1.33889">
        <ele>7.83</ele>
        <time>2016-09-02T14:51:21Z</time>
      </trkpt>
      <trkpt lat="46.19254" lon="-1.3397">
        <ele>10.23</ele>
        <time>2016-09-02T14:51:26Z</time>
      </trkpt>
      <trkpt lat="46.19275" lon="-1.34061">
        <ele>13.12</ele>
        <time>2016-09-02T14:51:31Z</time>
      </trkpt>
      <trkpt lat="46.19293" lon="-1.34142">
        <ele>17.44</ele>
        <time>2016-09-02T14:51:35Z</time>
      </trkpt>
      <trkpt lat="46.19303" lon="-1.34184">
        <ele>18.4</ele>
        <time>2016-09-02T14:51:37Z</time>
      </trkpt>
      <trkpt lat="46.19312" lon="-1.34227">
        <ele>22.25</ele>
        <time>2016-09-02T14:51:39Z</time>
      </trkpt>
      <trkpt lat="46.19375" lon="-1.34461">
        <ele>21.29</ele>
        <time>2016-09-02T14:51:50Z</time>
      </trkpt>
      <trkpt lat="46.19386" lon="-1.34503">
        <ele>19.36</ele>
        <time>2016-09-02T14:51:52Z</time>
      </trkpt>
      <trkpt lat="46.19416" lon="-1.34621">
        <ele>14.56</ele>
        <time>2016-09-02T14:51:59Z</time>
      </trkpt>
      <trkpt lat="46.19423" lon="-1.3465">
        <ele>11.67</ele>
        <time>2016-09-02T14:52:02Z</time>
      </trkpt>
      <trkpt lat="46.19425" lon="-1.34658">
        <ele>11.67</ele>
        <time>2016-09-02T14:52:03Z</time>
      </trkpt>
      <trkpt lat="46.19425" lon="-1.34666">
        <ele>11.67</ele>
        <time>2016-09-02T14:52:04Z</time>
      </trkpt>
      <trkpt lat="46.19425" lon="-1.34673">
        <ele>11.67</ele>
        <time>2016-09-02T14:52:05Z</time>
      </trkpt>
      <trkpt lat="46.19425" lon="-1.34704">
        <ele>12.63</ele>
        <time>2016-09-02T14:52:09Z</time>
      </trkpt>
      <trkpt lat="46.19427" lon="-1.34712">
        <ele>12.63</ele>
        <time>2016-09-02T14:52:10Z</time>
      </trkpt>
      <trkpt lat="46.19431" lon="-1.34721">
        <ele>12.63</ele>
        <time>2016-09-02T14:52:11Z</time>
      </trkpt>
      <trkpt lat="46.19452" lon="-1.3476">
        <ele>14.56</ele>
        <time>2016-09-02T14:52:15Z</time>
      </trkpt>
      <trkpt lat="46.19465" lon="-1.34785">
        <ele>16.48</ele>
        <time>2016-09-02T14:52:17Z</time>
      </trkpt>
      <trkpt lat="46.19502" lon="-1.34844">
        <ele>18.4</ele>
        <time>2016-09-02T14:52:21Z</time>
      </trkpt>
      <trkpt lat="46.19602" lon="-1.35009">
        <ele>18.4</ele>
        <time>2016-09-02T14:52:31Z</time>
      </trkpt>
      <trkpt lat="46.197" lon="-1.35216">
        <ele>16.96</ele>
        <time>2016-09-02T14:52:42Z</time>
      </trkpt>
      <trkpt lat="46.19773" lon="-1.35377">
        <ele>14.08</ele>
        <time>2016-09-02T14:52:52Z</time>
      </trkpt>
      <trkpt lat="46.19785" lon="-1.3541">
        <ele>12.63</ele>
        <time>2016-09-02T14:52:55Z</time>
      </trkpt>
      <trkpt lat="46.19809" lon="-1.35467">
        <ele>10.23</ele>
        <time>2016-09-02T14:53:03Z</time>
      </trkpt>
      <trkpt lat="46.19812" lon="-1.35474">
        <ele>10.71</ele>
        <time>2016-09-02T14:53:04Z</time>
      </trkpt>
      <trkpt lat="46.19814" lon="-1.35483">
        <ele>11.67</ele>
        <time>2016-09-02T14:53:05Z</time>
      </trkpt>
      <trkpt lat="46.19833" lon="-1.35566">
        <ele>14.56</ele>
        <time>2016-09-02T14:53:12Z</time>
      </trkpt>
      <trkpt lat="46.1984" lon="-1.356">
        <ele>15.52</ele>
        <time>2016-09-02T14:53:14Z</time>
      </trkpt>
      <trkpt lat="46.19853" lon="-1.35655">
        <ele>19.84</ele>
        <time>2016-09-02T14:53:17Z</time>
      </trkpt>
      <trkpt lat="46.19858" lon="-1.35674">
        <ele>18.4</ele>
        <time>2016-09-02T14:53:18Z</time>
      </trkpt>
      <trkpt lat="46.19867" lon="-1.35709">
        <ele>16.48</ele>
        <time>2016-09-02T14:53:20Z</time>
      </trkpt>
      <trkpt lat="46.19895" lon="-1.35819">
        <ele>13.6</ele>
        <time>2016-09-02T14:53:27Z</time>
      </trkpt>
      <trkpt lat="46.19901" lon="-1.3586">
        <ele>12.63</ele>
        <time>2016-09-02T14:53:30Z</time>
      </trkpt>
      <trkpt lat="46.19901" lon="-1.35873">
        <ele>13.6</ele>
        <time>2016-09-02T14:53:31Z</time>
      </trkpt>
      <trkpt lat="46.199" lon="-1.35886">
        <ele>12.63</ele>
        <time>2016-09-02T14:53:32Z</time>
      </trkpt>
      <trkpt lat="46.19898" lon="-1.35899">
        <ele>12.63</ele>
        <time>2016-09-02T14:53:33Z</time>
      </trkpt>
      <trkpt lat="46.19897" lon="-1.3591">
        <ele>12.15</ele>
        <time>2016-09-02T14:53:34Z</time>
      </trkpt>
      <trkpt lat="46.19885" lon="-1.3596">
        <ele>10.23</ele>
        <time>2016-09-02T14:53:41Z</time>
      </trkpt>
      <trkpt lat="46.19883" lon="-1.35962">
        <ele>7.83</ele>
        <time>2016-09-02T14:53:49Z</time>
      </trkpt>
      <trkpt lat="46.19882" lon="-1.35961">
        <ele>7.83</ele>
        <time>2016-09-02T14:54:03Z</time>
      </trkpt>
      <trkpt lat="46.19881" lon="-1.35968">
        <ele>9.75</ele>
        <time>2016-09-02T14:54:05Z</time>
      </trkpt>
      <trkpt lat="46.1988" lon="-1.35972">
        <ele>9.75</ele>
        <time>2016-09-02T14:54:06Z</time>
      </trkpt>
      <trkpt lat="46.19873" lon="-1.36002">
        <ele>10.23</ele>
        <time>2016-09-02T14:54:11Z</time>
      </trkpt>
      <trkpt lat="46.19868" lon="-1.3603">
        <ele>9.75</ele>
        <time>2016-09-02T14:54:15Z</time>
      </trkpt>
      <trkpt lat="46.19868" lon="-1.36037">
        <ele>10.23</ele>
        <time>2016-09-02T14:54:16Z</time>
      </trkpt>
      <trkpt lat="46.19873" lon="-1.36087">
        <ele>13.6</ele>
        <time>2016-09-02T14:54:21Z</time>
      </trkpt>
      <trkpt lat="46.19876" lon="-1.36099">
        <ele>13.6</ele>
        <time>2016-09-02T14:54:22Z</time>
      </trkpt>
      <trkpt lat="46.1988" lon="-1.36111">
        <ele>13.12</ele>
        <time>2016-09-02T14:54:23Z</time>
      </trkpt>
      <trkpt lat="46.19885" lon="-1.36123">
        <ele>12.63</ele>
        <time>2016-09-02T14:54:24Z</time>
      </trkpt>
      <trkpt lat="46.19891" lon="-1.36135">
        <ele>12.63</ele>
        <time>2016-09-02T14:54:25Z</time>
      </trkpt>
      <trkpt lat="46.1991" lon="-1.36172">
        <ele>15.52</ele>
        <time>2016-09-02T14:54:28Z</time>
      </trkpt>
      <trkpt lat="46.19959" lon="-1.3625">
        <ele>12.63</ele>
        <time>2016-09-02T14:54:35Z</time>
      </trkpt>
      <trkpt lat="46.19966" lon="-1.36257">
        <ele>11.19</ele>
        <time>2016-09-02T14:54:36Z</time>
      </trkpt>
      <trkpt lat="46.19975" lon="-1.36262">
        <ele>12.15</ele>
        <time>2016-09-02T14:54:37Z</time>
      </trkpt>
      <trkpt lat="46.19984" lon="-1.36265">
        <ele>11.67</ele>
        <time>2016-09-02T14:54:38Z</time>
      </trkpt>
      <trkpt lat="46.19994" lon="-1.36265">
        <ele>11.67</ele>
        <time>2016-09-02T14:54:39Z</time>
      </trkpt>
      <trkpt lat="46.20005" lon="-1.36263">
        <ele>12.15</ele>
        <time>2016-09-02T14:54:40Z</time>
      </trkpt>
      <trkpt lat="46.20015" lon="-1.36259">
        <ele>11.67</ele>
        <time>2016-09-02T14:54:41Z</time>
      </trkpt>
      <trkpt lat="46.20025" lon="-1.36254">
        <ele>11.67</ele>
        <time>2016-09-02T14:54:42Z</time>
      </trkpt>
      <trkpt lat="46.20068" lon="-1.36238">
        <ele>11.67</ele>
        <time>2016-09-02T14:54:46Z</time>
      </trkpt>
      <trkpt lat="46.20079" lon="-1.36237">
        <ele>11.67</ele>
        <time>2016-09-02T14:54:47Z</time>
      </trkpt>
      <trkpt lat="46.2009" lon="-1.36238">
        <ele>12.63</ele>
        <time>2016-09-02T14:54:48Z</time>
      </trkpt>
      <trkpt lat="46.20191" lon="-1.36245">
        <ele>11.67</ele>
        <time>2016-09-02T14:54:57Z</time>
      </trkpt>
      <trkpt lat="46.20225" lon="-1.36245">
        <ele>9.75</ele>
        <time>2016-09-02T14:55:01Z</time>
      </trkpt>
      <trkpt lat="46.20245" lon="-1.36246">
        <ele>7.83</ele>
        <time>2016-09-02T14:55:04Z</time>
      </trkpt>
      <trkpt lat="46.20305" lon="-1.3627">
        <ele>10.23</ele>
        <time>2016-09-02T14:55:13Z</time>
      </trkpt>
      <trkpt lat="46.20352" lon="-1.3629">
        <ele>10.23</ele>
        <time>2016-09-02T14:55:18Z</time>
      </trkpt>
      <trkpt lat="46.20362" lon="-1.36291">
        <ele>10.71</ele>
        <time>2016-09-02T14:55:19Z</time>
      </trkpt>
      <trkpt lat="46.2046" lon="-1.36297">
        <ele>8.79</ele>
        <time>2016-09-02T14:55:29Z</time>
      </trkpt>
      <trkpt lat="46.20533" lon="-1.36299">
        <ele>5.42</ele>
        <time>2016-09-02T14:55:38Z</time>
      </trkpt>
      <trkpt lat="46.20556" lon="-1.36298">
        <ele>3.98</ele>
        <time>2016-09-02T14:55:44Z</time>
      </trkpt>
      <trkpt lat="46.20565" lon="-1.36297">
        <ele>3.98</ele>
        <time>2016-09-02T14:55:54Z</time>
      </trkpt>
      <trkpt lat="46.20566" lon="-1.36297">
        <ele>3.02</ele>
        <time>2016-09-02T14:56:14Z</time>
      </trkpt>
      <trkpt lat="46.20571" lon="-1.36309">
        <ele>3.02</ele>
        <time>2016-09-02T14:56:25Z</time>
      </trkpt>
      <trkpt lat="46.20571" lon="-1.36312">
        <ele>3.02</ele>
        <time>2016-09-02T14:56:29Z</time>
      </trkpt>
      <trkpt lat="46.20571" lon="-1.36317">
        <ele>3.02</ele>
        <time>2016-09-02T14:56:31Z</time>
      </trkpt>
      <trkpt lat="46.20567" lon="-1.36371">
        <ele>3.98</ele>
        <time>2016-09-02T14:56:40Z</time>
      </trkpt>
      <trkpt lat="46.20565" lon="-1.36399">
        <ele>4.94</ele>
        <time>2016-09-02T14:56:43Z</time>
      </trkpt>
      <trkpt lat="46.20563" lon="-1.36507">
        <ele>3.5</ele>
        <time>2016-09-02T14:56:56Z</time>
      </trkpt>
      <trkpt lat="46.2057" lon="-1.36523">
        <ele>3.02</ele>
        <time>2016-09-02T14:57:03Z</time>
      </trkpt>
      <trkpt lat="46.20588" lon="-1.36523">
        <ele>3.98</ele>
        <time>2016-09-02T14:57:11Z</time>
      </trkpt>
      <trkpt lat="46.20589" lon="-1.36522">
        <ele>3.5</ele>
        <time>2016-09-02T14:57:12Z</time>
      </trkpt>
      <trkpt lat="46.20594" lon="-1.3651">
        <ele>3.5</ele>
        <time>2016-09-02T14:57:21Z</time>
      </trkpt>
      <trkpt lat="46.20594" lon="-1.36507">
        <ele>2.54</ele>
        <time>2016-09-02T14:57:34Z</time>
      </trkpt>
      <trkpt lat="46.20589" lon="-1.36508">
        <ele>1.58</ele>
        <time>2016-09-02T14:57:44Z</time>
      </trkpt>
      <trkpt lat="46.20587" lon="-1.36508">
        <ele>1.58</ele>
        <time>2016-09-02T14:57:58Z</time>
      </trkpt>
      <trkpt lat="46.20585" lon="-1.3651">
        <ele>1.58</ele>
        <time>2016-09-02T14:58:11Z</time>
      </trkpt>
      <trkpt lat="46.20584" lon="-1.3651">
        <ele>2.06</ele>
        <time>2016-09-02T14:58:21Z</time>
      </trkpt>
      <trkpt lat="46.20584" lon="-1.3651">
        <ele>2.06</ele>
        <time>2016-09-02T14:58:31Z</time>
      </trkpt>
      <trkpt lat="46.20585" lon="-1.36513">
        <ele>2.54</ele>
        <time>2016-09-02T14:58:43Z</time>
      </trkpt>
      <trkpt lat="46.20585" lon="-1.36519">
        <ele>1.58</ele>
        <time>2016-09-02T14:58:50Z</time>
      </trkpt>
      <trkpt lat="46.20585" lon="-1.3652">
        <ele>2.06</ele>
        <time>2016-09-02T14:58:51Z</time>
      </trkpt>
      <trkpt lat="46.20583" lon="-1.36521">
        <ele>2.06</ele>
        <time>2016-09-02T14:58:52Z</time>
      </trkpt>
      <trkpt lat="46.20582" lon="-1.36522">
        <ele>2.06</ele>
        <time>2016-09-02T14:58:53Z</time>
      </trkpt>
      <trkpt lat="46.2058" lon="-1.36522">
        <ele>1.58</ele>
        <time>2016-09-02T14:58:54Z</time>
      </trkpt>
      <trkpt lat="46.20578" lon="-1.36521">
        <ele>1.58</ele>
        <time>2016-09-02T14:58:55Z</time>
      </trkpt>
      <trkpt lat="46.20576" lon="-1.36521">
        <ele>2.06</ele>
        <time>2016-09-02T14:58:56Z</time>
      </trkpt>
      <trkpt lat="46.20574" lon="-1.36521">
        <ele>1.58</ele>
        <time>2016-09-02T14:58:57Z</time>
      </trkpt>
      <trkpt lat="46.20571" lon="-1.36521">
        <ele>2.06</ele>
        <time>2016-09-02T14:58:58Z</time>
      </trkpt>
      <trkpt lat="46.20562" lon="-1.36517">
        <ele>2.06</ele>
        <time>2016-09-02T14:59:03Z</time>
      </trkpt>
      <trkpt lat="46.20562" lon="-1.36514">
        <ele>2.06</ele>
        <time>2016-09-02T14:59:04Z</time>
      </trkpt>
      <trkpt lat="46.20561" lon="-1.36511">
        <ele>2.06</ele>
        <time>2016-09-02T14:59:05Z</time>
      </trkpt>
      <trkpt lat="46.20559" lon="-1.36508">
        <ele>2.06</ele>
        <time>2016-09-02T14:59:06Z</time>
      </trkpt>
      <trkpt lat="46.20557" lon="-1.36505">
        <ele>2.06</ele>
        <time>2016-09-02T14:59:07Z</time>
      </trkpt>
      <trkpt lat="46.20556" lon="-1.36501">
        <ele>2.06</ele>
        <time>2016-09-02T14:59:08Z</time>
      </trkpt>
      <trkpt lat="46.20554" lon="-1.36498">
        <ele>1.58</ele>
        <time>2016-09-02T14:59:09Z</time>
      </trkpt>
      <trkpt lat="46.20552" lon="-1.36495">
        <ele>2.06</ele>
        <time>2016-09-02T14:59:10Z</time>
      </trkpt>
      <trkpt lat="46.20549" lon="-1.36493">
        <ele>2.06</ele>
        <time>2016-09-02T14:59:11Z</time>
      </trkpt>
      <trkpt lat="46.20546" lon="-1.36492">
        <ele>2.06</ele>
        <time>2016-09-02T14:59:12Z</time>
      </trkpt>
      <trkpt lat="46.20513" lon="-1.36489">
        <ele>2.54</ele>
        <time>2016-09-02T14:59:22Z</time>
      </trkpt>
      <trkpt lat="46.20462" lon="-1.36485">
        <ele>3.5</ele>
        <time>2016-09-02T14:59:35Z</time>
      </trkpt>
      <trkpt lat="46.20419" lon="-1.36483">
        <ele>5.42</ele>
        <time>2016-09-02T14:59:45Z</time>
      </trkpt>
      <trkpt lat="46.20369" lon="-1.36482">
        <ele>6.87</ele>
        <time>2016-09-02T14:59:57Z</time>
      </trkpt>
      <trkpt lat="46.20326" lon="-1.36483">
        <ele>7.35</ele>
        <time>2016-09-02T15:00:08Z</time>
      </trkpt>
      <trkpt lat="46.20317" lon="-1.36488">
        <ele>7.35</ele>
        <time>2016-09-02T15:00:11Z</time>
      </trkpt>
      <trkpt lat="46.20317" lon="-1.36507">
        <ele>8.79</ele>
        <time>2016-09-02T15:00:15Z</time>
      </trkpt>
      <trkpt lat="46.20326" lon="-1.3658">
        <ele>9.27</ele>
        <time>2016-09-02T15:00:27Z</time>
      </trkpt>
      <trkpt lat="46.20334" lon="-1.36637">
        <ele>8.31</ele>
        <time>2016-09-02T15:00:38Z</time>
      </trkpt>
      <trkpt lat="46.20338" lon="-1.36679">
        <ele>8.31</ele>
        <time>2016-09-02T15:00:46Z</time>
      </trkpt>
      <trkpt lat="46.20345" lon="-1.36746">
        <ele>8.31</ele>
        <time>2016-09-02T15:00:58Z</time>
      </trkpt>
      <trkpt lat="46.20341" lon="-1.36799">
        <ele>9.75</ele>
        <time>2016-09-02T15:01:10Z</time>
      </trkpt>
      <trkpt lat="46.20324" lon="-1.36806">
        <ele>9.27</ele>
        <time>2016-09-02T15:01:16Z</time>
      </trkpt>
      <trkpt lat="46.20295" lon="-1.36809">
        <ele>10.23</ele>
        <time>2016-09-02T15:01:24Z</time>
      </trkpt>
      <trkpt lat="46.20262" lon="-1.36809">
        <ele>11.19</ele>
        <time>2016-09-02T15:01:33Z</time>
      </trkpt>
      <trkpt lat="46.20225" lon="-1.36805">
        <ele>11.19</ele>
        <time>2016-09-02T15:01:45Z</time>
      </trkpt>
      <trkpt lat="46.20216" lon="-1.36807">
        <ele>12.15</ele>
        <time>2016-09-02T15:01:49Z</time>
      </trkpt>
      <trkpt lat="46.20214" lon="-1.3681">
        <ele>11.67</ele>
        <time>2016-09-02T15:01:50Z</time>
      </trkpt>
      <trkpt lat="46.20213" lon="-1.36813">
        <ele>12.15</ele>
        <time>2016-09-02T15:01:51Z</time>
      </trkpt>
      <trkpt lat="46.20211" lon="-1.3685">
        <ele>12.63</ele>
        <time>2016-09-02T15:02:00Z</time>
      </trkpt>
      <trkpt lat="46.20212" lon="-1.36901">
        <ele>12.63</ele>
        <time>2016-09-02T15:02:10Z</time>
      </trkpt>
      <trkpt lat="46.20213" lon="-1.36962">
        <ele>12.15</ele>
        <time>2016-09-02T15:02:22Z</time>
      </trkpt>
      <trkpt lat="46.20213" lon="-1.37018">
        <ele>12.15</ele>
        <time>2016-09-02T15:02:33Z</time>
      </trkpt>
      <trkpt lat="46.20224" lon="-1.37055">
        <ele>12.15</ele>
        <time>2016-09-02T15:02:42Z</time>
      </trkpt>
      <trkpt lat="46.20226" lon="-1.37058">
        <ele>11.19</ele>
        <time>2016-09-02T15:02:43Z</time>
      </trkpt>
      <trkpt lat="46.20226" lon="-1.37062">
        <ele>11.19</ele>
        <time>2016-09-02T15:02:44Z</time>
      </trkpt>
      <trkpt lat="46.20214" lon="-1.37118">
        <ele>12.15</ele>
        <time>2016-09-02T15:02:55Z</time>
      </trkpt>
      <trkpt lat="46.20198" lon="-1.3716">
        <ele>11.67</ele>
        <time>2016-09-02T15:03:04Z</time>
      </trkpt>
      <trkpt lat="46.20181" lon="-1.37221">
        <ele>12.63</ele>
        <time>2016-09-02T15:03:17Z</time>
      </trkpt>
      <trkpt lat="46.20167" lon="-1.37257">
        <ele>13.12</ele>
        <time>2016-09-02T15:03:28Z</time>
      </trkpt>
      <trkpt lat="46.20137" lon="-1.37303">
        <ele>11.67</ele>
        <time>2016-09-02T15:03:40Z</time>
      </trkpt>
      <trkpt lat="46.20122" lon="-1.37332">
        <ele>12.15</ele>
        <time>2016-09-02T15:03:48Z</time>
      </trkpt>
      <trkpt lat="46.20123" lon="-1.37336">
        <ele>11.19</ele>
        <time>2016-09-02T15:03:49Z</time>
      </trkpt>
      <trkpt lat="46.20124" lon="-1.37341">
        <ele>11.19</ele>
        <time>2016-09-02T15:03:50Z</time>
      </trkpt>
      <trkpt lat="46.20138" lon="-1.37398">
        <ele>11.67</ele>
        <time>2016-09-02T15:04:02Z</time>
      </trkpt>
      <trkpt lat="46.20135" lon="-1.37418">
        <ele>11.67</ele>
        <time>2016-09-02T15:04:09Z</time>
      </trkpt>
      <trkpt lat="46.20136" lon="-1.3742">
        <ele>11.67</ele>
        <time>2016-09-02T15:04:10Z</time>
      </trkpt>
      <trkpt lat="46.20137" lon="-1.37422">
        <ele>11.19</ele>
        <time>2016-09-02T15:04:11Z</time>
      </trkpt>
      <trkpt lat="46.20139" lon="-1.37425">
        <ele>11.67</ele>
        <time>2016-09-02T15:04:12Z</time>
      </trkpt>
      <trkpt lat="46.20141" lon="-1.37427">
        <ele>12.15</ele>
        <time>2016-09-02T15:04:13Z</time>
      </trkpt>
      <trkpt lat="46.20143" lon="-1.37433">
        <ele>12.63</ele>
        <time>2016-09-02T15:04:15Z</time>
      </trkpt>
      <trkpt lat="46.20143" lon="-1.37437">
        <ele>12.15</ele>
        <time>2016-09-02T15:04:16Z</time>
      </trkpt>
      <trkpt lat="46.20141" lon="-1.37442">
        <ele>12.15</ele>
        <time>2016-09-02T15:04:17Z</time>
      </trkpt>
      <trkpt lat="46.20124" lon="-1.37496">
        <ele>11.19</ele>
        <time>2016-09-02T15:04:31Z</time>
      </trkpt>
      <trkpt lat="46.20122" lon="-1.37498">
        <ele>10.71</ele>
        <time>2016-09-02T15:04:32Z</time>
      </trkpt>
      <trkpt lat="46.20119" lon="-1.375">
        <ele>10.23</ele>
        <time>2016-09-02T15:04:33Z</time>
      </trkpt>
      <trkpt lat="46.20117" lon="-1.375">
        <ele>10.71</ele>
        <time>2016-09-02T15:04:34Z</time>
      </trkpt>
      <trkpt lat="46.20114" lon="-1.375">
        <ele>11.19</ele>
        <time>2016-09-02T15:04:35Z</time>
      </trkpt>
      <trkpt lat="46.20112" lon="-1.375">
        <ele>11.67</ele>
        <time>2016-09-02T15:04:36Z</time>
      </trkpt>
      <trkpt lat="46.2011" lon="-1.375">
        <ele>11.19</ele>
        <time>2016-09-02T15:04:37Z</time>
      </trkpt>
      <trkpt lat="46.20108" lon="-1.37499">
        <ele>11.19</ele>
        <time>2016-09-02T15:04:38Z</time>
      </trkpt>
      <trkpt lat="46.20105" lon="-1.37498">
        <ele>11.19</ele>
        <time>2016-09-02T15:04:39Z</time>
      </trkpt>
      <trkpt lat="46.20103" lon="-1.37498">
        <ele>10.71</ele>
        <time>2016-09-02T15:04:40Z</time>
      </trkpt>
      <trkpt lat="46.201" lon="-1.37499">
        <ele>11.67</ele>
        <time>2016-09-02T15:04:41Z</time>
      </trkpt>
      <trkpt lat="46.20098" lon="-1.37502">
        <ele>11.67</ele>
        <time>2016-09-02T15:04:42Z</time>
      </trkpt>
      <trkpt lat="46.20096" lon="-1.37506">
        <ele>11.67</ele>
        <time>2016-09-02T15:04:43Z</time>
      </trkpt>
      <trkpt lat="46.20095" lon="-1.37509">
        <ele>11.67</ele>
        <time>2016-09-02T15:04:44Z</time>
      </trkpt>
      <trkpt lat="46.20093" lon="-1.37513">
        <ele>11.67</ele>
        <time>2016-09-02T15:04:45Z</time>
      </trkpt>
      <trkpt lat="46.2009" lon="-1.37516">
        <ele>11.67</ele>
        <time>2016-09-02T15:04:46Z</time>
      </trkpt>
      <trkpt lat="46.20087" lon="-1.37519">
        <ele>11.19</ele>
        <time>2016-09-02T15:04:47Z</time>
      </trkpt>
      <trkpt lat="46.20084" lon="-1.3752">
        <ele>11.19</ele>
        <time>2016-09-02T15:04:48Z</time>
      </trkpt>
      <trkpt lat="46.20081" lon="-1.37521">
        <ele>11.19</ele>
        <time>2016-09-02T15:04:49Z</time>
      </trkpt>
      <trkpt lat="46.20078" lon="-1.37521">
        <ele>11.19</ele>
        <time>2016-09-02T15:04:50Z</time>
      </trkpt>
      <trkpt lat="46.20074" lon="-1.3752">
        <ele>11.67</ele>
        <time>2016-09-02T15:04:51Z</time>
      </trkpt>
      <trkpt lat="46.20071" lon="-1.37519">
        <ele>11.19</ele>
        <time>2016-09-02T15:04:52Z</time>
      </trkpt>
      <trkpt lat="46.20033" lon="-1.37518">
        <ele>11.67</ele>
        <time>2016-09-02T15:05:04Z</time>
      </trkpt>
      <trkpt lat="46.20032" lon="-1.37522">
        <ele>12.15</ele>
        <time>2016-09-02T15:05:05Z</time>
      </trkpt>
      <trkpt lat="46.20026" lon="-1.37538">
        <ele>11.19</ele>
        <time>2016-09-02T15:05:09Z</time>
      </trkpt>
      <trkpt lat="46.20023" lon="-1.3754">
        <ele>11.19</ele>
        <time>2016-09-02T15:05:10Z</time>
      </trkpt>
      <trkpt lat="46.20019" lon="-1.37541">
        <ele>11.67</ele>
        <time>2016-09-02T15:05:11Z</time>
      </trkpt>
      <trkpt lat="46.19974" lon="-1.37542">
        <ele>11.19</ele>
        <time>2016-09-02T15:05:24Z</time>
      </trkpt>
      <trkpt lat="46.19918" lon="-1.37542">
        <ele>10.71</ele>
        <time>2016-09-02T15:05:37Z</time>
      </trkpt>
      <trkpt lat="46.19849" lon="-1.37544">
        <ele>10.71</ele>
        <time>2016-09-02T15:05:52Z</time>
      </trkpt>
      <trkpt lat="46.19763" lon="-1.37544">
        <ele>9.75</ele>
        <time>2016-09-02T15:06:09Z</time>
      </trkpt>
      <trkpt lat="46.19685" lon="-1.37544">
        <ele>9.75</ele>
        <time>2016-09-02T15:06:25Z</time>
      </trkpt>
      <trkpt lat="46.19681" lon="-1.37542">
        <ele>10.23</ele>
        <time>2016-09-02T15:06:26Z</time>
      </trkpt>
      <trkpt lat="46.19679" lon="-1.37537">
        <ele>9.75</ele>
        <time>2016-09-02T15:06:27Z</time>
      </trkpt>
      <trkpt lat="46.19678" lon="-1.3753">
        <ele>9.27</ele>
        <time>2016-09-02T15:06:28Z</time>
      </trkpt>
      <trkpt lat="46.19677" lon="-1.37524">
        <ele>9.27</ele>
        <time>2016-09-02T15:06:29Z</time>
      </trkpt>
      <trkpt lat="46.19677" lon="-1.37517">
        <ele>9.75</ele>
        <time>2016-09-02T15:06:30Z</time>
      </trkpt>
      <trkpt lat="46.19677" lon="-1.37433">
        <ele>9.75</ele>
        <time>2016-09-02T15:06:42Z</time>
      </trkpt>
      <trkpt lat="46.19676" lon="-1.37427">
        <ele>10.23</ele>
        <time>2016-09-02T15:06:43Z</time>
      </trkpt>
      <trkpt lat="46.19674" lon="-1.37423">
        <ele>10.23</ele>
        <time>2016-09-02T15:06:44Z</time>
      </trkpt>
      <trkpt lat="46.1967" lon="-1.3742">
        <ele>10.23</ele>
        <time>2016-09-02T15:06:45Z</time>
      </trkpt>
      <trkpt lat="46.19666" lon="-1.37419">
        <ele>10.71</ele>
        <time>2016-09-02T15:06:46Z</time>
      </trkpt>
      <trkpt lat="46.19662" lon="-1.37419">
        <ele>10.71</ele>
        <time>2016-09-02T15:06:47Z</time>
      </trkpt>
      <trkpt lat="46.19599" lon="-1.37422">
        <ele>10.71</ele>
        <time>2016-09-02T15:07:00Z</time>
      </trkpt>
      <trkpt lat="46.1953" lon="-1.37422">
        <ele>10.71</ele>
        <time>2016-09-02T15:07:14Z</time>
      </trkpt>
      <trkpt lat="46.19475" lon="-1.37415">
        <ele>9.75</ele>
        <time>2016-09-02T15:07:27Z</time>
      </trkpt>
      <trkpt lat="46.19407" lon="-1.37404">
        <ele>10.23</ele>
        <time>2016-09-02T15:07:42Z</time>
      </trkpt>
      <trkpt lat="46.19338" lon="-1.37397">
        <ele>9.75</ele>
        <time>2016-09-02T15:07:57Z</time>
      </trkpt>
      <trkpt lat="46.19299" lon="-1.37392">
        <ele>9.75</ele>
        <time>2016-09-02T15:08:09Z</time>
      </trkpt>
      <trkpt lat="46.19294" lon="-1.37393">
        <ele>9.75</ele>
        <time>2016-09-02T15:08:11Z</time>
      </trkpt>
      <trkpt lat="46.19292" lon="-1.37395">
        <ele>9.75</ele>
        <time>2016-09-02T15:08:12Z</time>
      </trkpt>
      <trkpt lat="46.1929" lon="-1.37398">
        <ele>9.75</ele>
        <time>2016-09-02T15:08:13Z</time>
      </trkpt>
      <trkpt lat="46.19289" lon="-1.37403">
        <ele>10.23</ele>
        <time>2016-09-02T15:08:14Z</time>
      </trkpt>
      <trkpt lat="46.19288" lon="-1.37409">
        <ele>10.23</ele>
        <time>2016-09-02T15:08:15Z</time>
      </trkpt>
      <trkpt lat="46.19288" lon="-1.37415">
        <ele>10.23</ele>
        <time>2016-09-02T15:08:16Z</time>
      </trkpt>
      <trkpt lat="46.19275" lon="-1.37489">
        <ele>9.75</ele>
        <time>2016-09-02T15:08:29Z</time>
      </trkpt>
      <trkpt lat="46.19269" lon="-1.37511">
        <ele>9.27</ele>
        <time>2016-09-02T15:08:37Z</time>
      </trkpt>
      <trkpt lat="46.19259" lon="-1.37563">
        <ele>9.27</ele>
        <time>2016-09-02T15:08:47Z</time>
      </trkpt>
      <trkpt lat="46.19244" lon="-1.37659">
        <ele>8.79</ele>
        <time>2016-09-02T15:09:03Z</time>
      </trkpt>
      <trkpt lat="46.19232" lon="-1.37748">
        <ele>8.79</ele>
        <time>2016-09-02T15:09:17Z</time>
      </trkpt>
      <trkpt lat="46.19213" lon="-1.37853">
        <ele>8.31</ele>
        <time>2016-09-02T15:09:34Z</time>
      </trkpt>
      <trkpt lat="46.19199" lon="-1.37941">
        <ele>8.31</ele>
        <time>2016-09-02T15:09:48Z</time>
      </trkpt>
      <trkpt lat="46.19187" lon="-1.38011">
        <ele>8.31</ele>
        <time>2016-09-02T15:10:00Z</time>
      </trkpt>
      <trkpt lat="46.19185" lon="-1.38016">
        <ele>7.83</ele>
        <time>2016-09-02T15:10:01Z</time>
      </trkpt>
      <trkpt lat="46.19179" lon="-1.3803">
        <ele>7.35</ele>
        <time>2016-09-02T15:10:04Z</time>
      </trkpt>
      <trkpt lat="46.19175" lon="-1.38031">
        <ele>7.83</ele>
        <time>2016-09-02T15:10:05Z</time>
      </trkpt>
      <trkpt lat="46.19171" lon="-1.38032">
        <ele>7.35</ele>
        <time>2016-09-02T15:10:06Z</time>
      </trkpt>
      <trkpt lat="46.19121" lon="-1.38029">
        <ele>7.35</ele>
        <time>2016-09-02T15:10:18Z</time>
      </trkpt>
      <trkpt lat="46.19106" lon="-1.38032">
        <ele>7.83</ele>
        <time>2016-09-02T15:10:22Z</time>
      </trkpt>
      <trkpt lat="46.19102" lon="-1.38035">
        <ele>7.83</ele>
        <time>2016-09-02T15:10:23Z</time>
      </trkpt>
      <trkpt lat="46.19099" lon="-1.38038">
        <ele>7.35</ele>
        <time>2016-09-02T15:10:24Z</time>
      </trkpt>
      <trkpt lat="46.19096" lon="-1.38043">
        <ele>7.35</ele>
        <time>2016-09-02T15:10:25Z</time>
      </trkpt>
      <trkpt lat="46.19093" lon="-1.38048">
        <ele>7.35</ele>
        <time>2016-09-02T15:10:26Z</time>
      </trkpt>
      <trkpt lat="46.19091" lon="-1.38053">
        <ele>7.83</ele>
        <time>2016-09-02T15:10:27Z</time>
      </trkpt>
      <trkpt lat="46.19064" lon="-1.38125">
        <ele>7.83</ele>
        <time>2016-09-02T15:10:41Z</time>
      </trkpt>
      <trkpt lat="46.19049" lon="-1.38184">
        <ele>8.31</ele>
        <time>2016-09-02T15:10:52Z</time>
      </trkpt>
      <trkpt lat="46.19029" lon="-1.38212">
        <ele>6.87</ele>
        <time>2016-09-02T15:10:59Z</time>
      </trkpt>
      <trkpt lat="46.19025" lon="-1.38215">
        <ele>6.87</ele>
        <time>2016-09-02T15:11:00Z</time>
      </trkpt>
      <trkpt lat="46.19021" lon="-1.38216">
        <ele>7.35</ele>
        <time>2016-09-02T15:11:01Z</time>
      </trkpt>
      <trkpt lat="46.18969" lon="-1.38232">
        <ele>8.31</ele>
        <time>2016-09-02T15:11:14Z</time>
      </trkpt>
      <trkpt lat="46.1895" lon="-1.38242">
        <ele>8.31</ele>
        <time>2016-09-02T15:11:19Z</time>
      </trkpt>
      <trkpt lat="46.1891" lon="-1.38254">
        <ele>8.79</ele>
        <time>2016-09-02T15:11:29Z</time>
      </trkpt>
      <trkpt lat="46.18877" lon="-1.38255">
        <ele>8.31</ele>
        <time>2016-09-02T15:11:39Z</time>
      </trkpt>
      <trkpt lat="46.18863" lon="-1.38255">
        <ele>8.79</ele>
        <time>2016-09-02T15:11:43Z</time>
      </trkpt>
      <trkpt lat="46.18861" lon="-1.3826">
        <ele>8.79</ele>
        <time>2016-09-02T15:11:44Z</time>
      </trkpt>
      <trkpt lat="46.1886" lon="-1.38265">
        <ele>8.31</ele>
        <time>2016-09-02T15:11:45Z</time>
      </trkpt>
      <trkpt lat="46.18861" lon="-1.38271">
        <ele>7.83</ele>
        <time>2016-09-02T15:11:46Z</time>
      </trkpt>
      <trkpt lat="46.18861" lon="-1.38276">
        <ele>7.83</ele>
        <time>2016-09-02T15:11:47Z</time>
      </trkpt>
      <trkpt lat="46.18852" lon="-1.38315">
        <ele>7.35</ele>
        <time>2016-09-02T15:11:55Z</time>
      </trkpt>
      <trkpt lat="46.18829" lon="-1.38362">
        <ele>6.39</ele>
        <time>2016-09-02T15:12:06Z</time>
      </trkpt>
      <trkpt lat="46.18811" lon="-1.38407">
        <ele>6.39</ele>
        <time>2016-09-02T15:12:18Z</time>
      </trkpt>
      <trkpt lat="46.18801" lon="-1.3842">
        <ele>6.39</ele>
        <time>2016-09-02T15:12:27Z</time>
      </trkpt>
      <trkpt lat="46.18795" lon="-1.38447">
        <ele>6.87</ele>
        <time>2016-09-02T15:12:38Z</time>
      </trkpt>
      <trkpt lat="46.18778" lon="-1.38484">
        <ele>6.39</ele>
        <time>2016-09-02T15:12:47Z</time>
      </trkpt>
      <trkpt lat="46.18757" lon="-1.38539">
        <ele>6.39</ele>
        <time>2016-09-02T15:12:59Z</time>
      </trkpt>
      <trkpt lat="46.18752" lon="-1.38606">
        <ele>5.91</ele>
        <time>2016-09-02T15:13:12Z</time>
      </trkpt>
      <trkpt lat="46.1875" lon="-1.38689">
        <ele>7.35</ele>
        <time>2016-09-02T15:13:27Z</time>
      </trkpt>
      <trkpt lat="46.18748" lon="-1.38762">
        <ele>6.87</ele>
        <time>2016-09-02T15:13:40Z</time>
      </trkpt>
      <trkpt lat="46.18749" lon="-1.38848">
        <ele>6.39</ele>
        <time>2016-09-02T15:13:55Z</time>
      </trkpt>
      <trkpt lat="46.18751" lon="-1.38905">
        <ele>5.42</ele>
        <time>2016-09-02T15:14:08Z</time>
      </trkpt>
      <trkpt lat="46.1875" lon="-1.38942">
        <ele>4.94</ele>
        <time>2016-09-02T15:14:24Z</time>
      </trkpt>
      <trkpt lat="46.1875" lon="-1.38968">
        <ele>5.42</ele>
        <time>2016-09-02T15:14:36Z</time>
      </trkpt>
      <trkpt lat="46.1875" lon="-1.38974">
        <ele>5.42</ele>
        <time>2016-09-02T15:14:39Z</time>
      </trkpt>
      <trkpt lat="46.1875" lon="-1.38976">
        <ele>5.42</ele>
        <time>2016-09-02T15:14:40Z</time>
      </trkpt>
      <trkpt lat="46.18749" lon="-1.39005">
        <ele>5.42</ele>
        <time>2016-09-02T15:14:53Z</time>
      </trkpt>
      <trkpt lat="46.18748" lon="-1.39034">
        <ele>4.46</ele>
        <time>2016-09-02T15:15:05Z</time>
      </trkpt>
      <trkpt lat="46.18745" lon="-1.39058">
        <ele>5.42</ele>
        <time>2016-09-02T15:15:17Z</time>
      </trkpt>
      <trkpt lat="46.18744" lon="-1.39072">
        <ele>3.5</ele>
        <time>2016-09-02T15:15:23Z</time>
      </trkpt>
      <trkpt lat="46.18744" lon="-1.39074">
        <ele>4.94</ele>
        <time>2016-09-02T15:15:24Z</time>
      </trkpt>
      <trkpt lat="46.18744" lon="-1.39077">
        <ele>4.94</ele>
        <time>2016-09-02T15:15:25Z</time>
      </trkpt>
      <trkpt lat="46.18744" lon="-1.39081">
        <ele>5.42</ele>
        <time>2016-09-02T15:15:26Z</time>
      </trkpt>
      <trkpt lat="46.18744" lon="-1.39086">
        <ele>5.42</ele>
        <time>2016-09-02T15:15:27Z</time>
      </trkpt>
      <trkpt lat="46.18738" lon="-1.39157">
        <ele>5.42</ele>
        <time>2016-09-02T15:15:41Z</time>
      </trkpt>
      <trkpt lat="46.18735" lon="-1.39225">
        <ele>5.42</ele>
        <time>2016-09-02T15:15:54Z</time>
      </trkpt>
      <trkpt lat="46.18726" lon="-1.39293">
        <ele>5.42</ele>
        <time>2016-09-02T15:16:07Z</time>
      </trkpt>
      <trkpt lat="46.18719" lon="-1.39365">
        <ele>4.94</ele>
        <time>2016-09-02T15:16:21Z</time>
      </trkpt>
      <trkpt lat="46.18721" lon="-1.39405">
        <ele>3.98</ele>
        <time>2016-09-02T15:16:31Z</time>
      </trkpt>
      <trkpt lat="46.18728" lon="-1.39471">
        <ele>4.94</ele>
        <time>2016-09-02T15:16:44Z</time>
      </trkpt>
      <trkpt lat="46.18738" lon="-1.39551">
        <ele>4.46</ele>
        <time>2016-09-02T15:16:59Z</time>
      </trkpt>
      <trkpt lat="46.18738" lon="-1.39621">
        <ele>4.46</ele>
        <time>2016-09-02T15:17:13Z</time>
      </trkpt>
      <trkpt lat="46.18729" lon="-1.39692">
        <ele>4.46</ele>
        <time>2016-09-02T15:17:26Z</time>
      </trkpt>
      <trkpt lat="46.18725" lon="-1.39768">
        <ele>3.98</ele>
        <time>2016-09-02T15:17:39Z</time>
      </trkpt>
      <trkpt lat="46.18721" lon="-1.39851">
        <ele>3.5</ele>
        <time>2016-09-02T15:17:53Z</time>
      </trkpt>
      <trkpt lat="46.18717" lon="-1.39916">
        <ele>3.98</ele>
        <time>2016-09-02T15:18:04Z</time>
      </trkpt>
      <trkpt lat="46.18717" lon="-1.39933">
        <ele>3.98</ele>
        <time>2016-09-02T15:18:07Z</time>
      </trkpt>
      <trkpt lat="46.18712" lon="-1.40011">
        <ele>3.98</ele>
        <time>2016-09-02T15:18:20Z</time>
      </trkpt>
      <trkpt lat="46.18706" lon="-1.40083">
        <ele>3.5</ele>
        <time>2016-09-02T15:18:32Z</time>
      </trkpt>
      <trkpt lat="46.18701" lon="-1.40147">
        <ele>3.5</ele>
        <time>2016-09-02T15:18:46Z</time>
      </trkpt>
      <trkpt lat="46.18698" lon="-1.40185">
        <ele>3.5</ele>
        <time>2016-09-02T15:18:54Z</time>
      </trkpt>
      <trkpt lat="46.18704" lon="-1.40263">
        <ele>3.98</ele>
        <time>2016-09-02T15:19:07Z</time>
      </trkpt>
      <trkpt lat="46.18717" lon="-1.40341">
        <ele>3.98</ele>
        <time>2016-09-02T15:19:20Z</time>
      </trkpt>
      <trkpt lat="46.18716" lon="-1.40347">
        <ele>4.46</ele>
        <time>2016-09-02T15:19:21Z</time>
      </trkpt>
      <trkpt lat="46.18711" lon="-1.40437">
        <ele>3.02</ele>
        <time>2016-09-02T15:19:36Z</time>
      </trkpt>
      <trkpt lat="46.18706" lon="-1.40517">
        <ele>4.94</ele>
        <time>2016-09-02T15:19:50Z</time>
      </trkpt>
      <trkpt lat="46.18708" lon="-1.40572">
        <ele>4.94</ele>
        <time>2016-09-02T15:20:00Z</time>
      </trkpt>
      <trkpt lat="46.18707" lon="-1.40607">
        <ele>3.02</ele>
        <time>2016-09-02T15:20:07Z</time>
      </trkpt>
      <trkpt lat="46.18706" lon="-1.40612">
        <ele>3.5</ele>
        <time>2016-09-02T15:20:08Z</time>
      </trkpt>
      <trkpt lat="46.18705" lon="-1.40617">
        <ele>3.02</ele>
        <time>2016-09-02T15:20:09Z</time>
      </trkpt>
      <trkpt lat="46.18705" lon="-1.40622">
        <ele>3.5</ele>
        <time>2016-09-02T15:20:10Z</time>
      </trkpt>
      <trkpt lat="46.18704" lon="-1.40627">
        <ele>3.5</ele>
        <time>2016-09-02T15:20:11Z</time>
      </trkpt>
      <trkpt lat="46.18708" lon="-1.40669">
        <ele>3.5</ele>
        <time>2016-09-02T15:20:19Z</time>
      </trkpt>
      <trkpt lat="46.18709" lon="-1.40681">
        <ele>3.02</ele>
        <time>2016-09-02T15:20:21Z</time>
      </trkpt>
      <trkpt lat="46.18705" lon="-1.40751">
        <ele>3.5</ele>
        <time>2016-09-02T15:20:33Z</time>
      </trkpt>
      <trkpt lat="46.18704" lon="-1.40756">
        <ele>3.5</ele>
        <time>2016-09-02T15:20:34Z</time>
      </trkpt>
      <trkpt lat="46.18703" lon="-1.40814">
        <ele>3.02</ele>
        <time>2016-09-02T15:20:45Z</time>
      </trkpt>
      <trkpt lat="46.18704" lon="-1.40822">
        <ele>3.02</ele>
        <time>2016-09-02T15:20:47Z</time>
      </trkpt>
      <trkpt lat="46.18717" lon="-1.40833">
        <ele>2.54</ele>
        <time>2016-09-02T15:20:52Z</time>
      </trkpt>
      <trkpt lat="46.18743" lon="-1.40841">
        <ele>3.02</ele>
        <time>2016-09-02T15:21:02Z</time>
      </trkpt>
      <trkpt lat="46.18745" lon="-1.40842">
        <ele>2.54</ele>
        <time>2016-09-02T15:21:03Z</time>
      </trkpt>
      <trkpt lat="46.18752" lon="-1.40836">
        <ele>2.06</ele>
        <time>2016-09-02T15:21:07Z</time>
      </trkpt>
      <trkpt lat="46.18753" lon="-1.40811">
        <ele>2.54</ele>
        <time>2016-09-02T15:21:14Z</time>
      </trkpt>
      <trkpt lat="46.18759" lon="-1.40807">
        <ele>3.02</ele>
        <time>2016-09-02T15:21:22Z</time>
      </trkpt>
      <trkpt lat="46.18761" lon="-1.40807">
        <ele>3.02</ele>
        <time>2016-09-02T15:21:30Z</time>
      </trkpt>
      <trkpt lat="46.18761" lon="-1.40807">
        <ele>1.58</ele>
        <time>2016-09-02T15:21:39Z</time>
      </trkpt>
      <trkpt lat="46.1876" lon="-1.40807">
        <ele>2.06</ele>
        <time>2016-09-02T15:22:03Z</time>
      </trkpt>
      <trkpt lat="46.18759" lon="-1.40807">
        <ele>1.58</ele>
        <time>2016-09-02T15:22:27Z</time>
      </trkpt>
      <trkpt lat="46.18759" lon="-1.40807">
        <ele>2.06</ele>
        <time>2016-09-02T15:22:52Z</time>
      </trkpt>
      <trkpt lat="46.18759" lon="-1.40807">
        <ele>1.58</ele>
        <time>2016-09-02T15:23:20Z</time>
      </trkpt>
      <trkpt lat="46.18759" lon="-1.40807">
        <ele>1.58</ele>
        <time>2016-09-02T15:23:45Z</time>
      </trkpt>
      <trkpt lat="46.1876" lon="-1.40806">
        <ele>2.06</ele>
        <time>2016-09-02T15:24:09Z</time>
      </trkpt>
      <trkpt lat="46.1876" lon="-1.40806">
        <ele>2.06</ele>
        <time>2016-09-02T15:24:35Z</time>
      </trkpt>
      <trkpt lat="46.1876" lon="-1.40806">
        <ele>2.06</ele>
        <time>2016-09-02T15:25:00Z</time>
      </trkpt>
      <trkpt lat="46.18759" lon="-1.40806">
        <ele>2.06</ele>
        <time>2016-09-02T15:25:23Z</time>
      </trkpt>
      <trkpt lat="46.18759" lon="-1.40806">
        <ele>2.54</ele>
        <time>2016-09-02T15:25:47Z</time>
      </trkpt>
      <trkpt lat="46.18759" lon="-1.40806">
        <ele>2.54</ele>
        <time>2016-09-02T15:26:11Z</time>
      </trkpt>
      <trkpt lat="46.18758" lon="-1.40806">
        <ele>2.06</ele>
        <time>2016-09-02T15:26:35Z</time>
      </trkpt>
      <trkpt lat="46.18758" lon="-1.40805">
        <ele>2.54</ele>
        <time>2016-09-02T15:26:56Z</time>
      </trkpt>
      <trkpt lat="46.18759" lon="-1.40805">
        <ele>2.06</ele>
        <time>2016-09-02T15:27:13Z</time>
      </trkpt>
      <trkpt lat="46.18759" lon="-1.40805">
        <ele>2.06</ele>
        <time>2016-09-02T15:27:36Z</time>
      </trkpt>
      <trkpt lat="46.18759" lon="-1.40803">
        <ele>2.06</ele>
        <time>2016-09-02T15:28:02Z</time>
      </trkpt>
      <trkpt lat="46.18759" lon="-1.40803">
        <ele>2.06</ele>
        <time>2016-09-02T15:28:26Z</time>
      </trkpt>
      <trkpt lat="46.18759" lon="-1.40802">
        <ele>2.54</ele>
        <time>2016-09-02T15:28:50Z</time>
      </trkpt>
      <trkpt lat="46.1876" lon="-1.40803">
        <ele>2.54</ele>
        <time>2016-09-02T15:29:09Z</time>
      </trkpt>
      <trkpt lat="46.1876" lon="-1.40804">
        <ele>2.54</ele>
        <time>2016-09-02T15:29:33Z</time>
      </trkpt>
      <trkpt lat="46.1876" lon="-1.40804">
        <ele>2.54</ele>
        <time>2016-09-02T15:29:56Z</time>
      </trkpt>
      <trkpt lat="46.18761" lon="-1.40805">
        <ele>2.06</ele>
        <time>2016-09-02T15:30:21Z</time>
      </trkpt>
      <trkpt lat="46.18761" lon="-1.40805">
        <ele>2.54</ele>
        <time>2016-09-02T15:30:48Z</time>
      </trkpt>
      <trkpt lat="46.18761" lon="-1.40805">
        <ele>3.02</ele>
        <time>2016-09-02T15:31:11Z</time>
      </trkpt>
      <trkpt lat="46.1876" lon="-1.40806">
        <ele>2.54</ele>
        <time>2016-09-02T15:31:40Z</time>
      </trkpt>
      <trkpt lat="46.1876" lon="-1.40806">
        <ele>2.54</ele>
        <time>2016-09-02T15:32:03Z</time>
      </trkpt>
      <trkpt lat="46.18759" lon="-1.40807">
        <ele>2.54</ele>
        <time>2016-09-02T15:32:30Z</time>
      </trkpt>
      <trkpt lat="46.18759" lon="-1.40806">
        <ele>2.06</ele>
        <time>2016-09-02T15:32:53Z</time>
      </trkpt>
      <trkpt lat="46.1876" lon="-1.40806">
        <ele>2.54</ele>
        <time>2016-09-02T15:33:17Z</time>
      </trkpt>
      <trkpt lat="46.1876" lon="-1.40805">
        <ele>3.02</ele>
        <time>2016-09-02T15:33:34Z</time>
      </trkpt>
      <trkpt lat="46.1876" lon="-1.40805">
        <ele>2.06</ele>
        <time>2016-09-02T15:33:39Z</time>
      </trkpt>
      <trkpt lat="46.1876" lon="-1.40805">
        <ele>6.39</ele>
        <time>2016-09-02T15:33:46Z</time>
      </trkpt>
      <trkpt lat="46.1876" lon="-1.40805">
        <ele>2.54</ele>
        <time>2016-09-02T15:33:47Z</time>
      </trkpt>
      <trkpt lat="46.18758" lon="-1.40805">
        <ele>3.5</ele>
        <time>2016-09-02T15:33:54Z</time>
      </trkpt>
      <trkpt lat="46.1876" lon="-1.40803">
        <ele>3.5</ele>
        <time>2016-09-02T15:34:05Z</time>
      </trkpt>
      <trkpt lat="46.1876" lon="-1.40805">
        <ele>2.54</ele>
        <time>2016-09-02T15:34:15Z</time>
      </trkpt>
      <trkpt lat="46.18759" lon="-1.40805">
        <ele>1.1</ele>
        <time>2016-09-02T15:34:26Z</time>
      </trkpt>
      <trkpt lat="46.18756" lon="-1.40806">
        <ele>2.54</ele>
        <time>2016-09-02T15:34:29Z</time>
      </trkpt>
      <trkpt lat="46.18754" lon="-1.4081">
        <ele>2.54</ele>
        <time>2016-09-02T15:34:32Z</time>
      </trkpt>
      <trkpt lat="46.18754" lon="-1.40815">
        <ele>4.46</ele>
        <time>2016-09-02T15:34:35Z</time>
      </trkpt>
      <trkpt lat="46.18754" lon="-1.40818">
        <ele>7.35</ele>
        <time>2016-09-02T15:34:37Z</time>
      </trkpt>
      <trkpt lat="46.18754" lon="-1.4082">
        <ele>2.54</ele>
        <time>2016-09-02T15:34:38Z</time>
      </trkpt>
      <trkpt lat="46.18754" lon="-1.40821">
        <ele>2.54</ele>
        <time>2016-09-02T15:34:39Z</time>
      </trkpt>
      <trkpt lat="46.18743" lon="-1.4084">
        <ele>4.94</ele>
        <time>2016-09-02T15:34:54Z</time>
      </trkpt>
      <trkpt lat="46.18737" lon="-1.40839">
        <ele>1.58</ele>
        <time>2016-09-02T15:34:56Z</time>
      </trkpt>
      <trkpt lat="46.18732" lon="-1.40838">
        <ele>2.54</ele>
        <time>2016-09-02T15:35:01Z</time>
      </trkpt>
      <trkpt lat="46.18721" lon="-1.40837">
        <ele>2.54</ele>
        <time>2016-09-02T15:35:11Z</time>
      </trkpt>
      <trkpt lat="46.18707" lon="-1.4083">
        <ele>1.58</ele>
        <time>2016-09-02T15:35:24Z</time>
      </trkpt>
      <trkpt lat="46.18691" lon="-1.40828">
        <ele>1.58</ele>
        <time>2016-09-02T15:35:35Z</time>
      </trkpt>
      <trkpt lat="46.18676" lon="-1.40821">
        <ele>2.54</ele>
        <time>2016-09-02T15:35:46Z</time>
      </trkpt>
      <trkpt lat="46.1867" lon="-1.40817">
        <ele>2.06</ele>
        <time>2016-09-02T15:35:52Z</time>
      </trkpt>
      <trkpt lat="46.18666" lon="-1.40815">
        <ele>2.54</ele>
        <time>2016-09-02T15:35:54Z</time>
      </trkpt>
      <trkpt lat="46.18648" lon="-1.40811">
        <ele>2.54</ele>
        <time>2016-09-02T15:36:07Z</time>
      </trkpt>
      <trkpt lat="46.18647" lon="-1.40811">
        <ele>2.54</ele>
        <time>2016-09-02T15:36:09Z</time>
      </trkpt>
      <trkpt lat="46.18644" lon="-1.40814">
        <ele>3.02</ele>
        <time>2016-09-02T15:36:12Z</time>
      </trkpt>
      <trkpt lat="46.18639" lon="-1.40821">
        <ele>2.06</ele>
        <time>2016-09-02T15:36:17Z</time>
      </trkpt>
      <trkpt lat="46.18637" lon="-1.40823">
        <ele>2.06</ele>
        <time>2016-09-02T15:36:19Z</time>
      </trkpt>
      <trkpt lat="46.18624" lon="-1.40832">
        <ele>2.06</ele>
        <time>2016-09-02T15:36:29Z</time>
      </trkpt>
      <trkpt lat="46.18602" lon="-1.4085">
        <ele>2.54</ele>
        <time>2016-09-02T15:36:42Z</time>
      </trkpt>
      <trkpt lat="46.18587" lon="-1.40863">
        <ele>2.06</ele>
        <time>2016-09-02T15:36:53Z</time>
      </trkpt>
      <trkpt lat="46.1857" lon="-1.40876">
        <ele>1.1</ele>
        <time>2016-09-02T15:37:05Z</time>
      </trkpt>
      <trkpt lat="46.18556" lon="-1.40885">
        <ele>1.58</ele>
        <time>2016-09-02T15:37:15Z</time>
      </trkpt>
      <trkpt lat="46.18548" lon="-1.40896">
        <ele>2.06</ele>
        <time>2016-09-02T15:37:22Z</time>
      </trkpt>
      <trkpt lat="46.18539" lon="-1.40926">
        <ele>2.06</ele>
        <time>2016-09-02T15:37:36Z</time>
      </trkpt>
      <trkpt lat="46.18536" lon="-1.4095">
        <ele>2.06</ele>
        <time>2016-09-02T15:37:47Z</time>
      </trkpt>
      <trkpt lat="46.18535" lon="-1.40973">
        <ele>1.58</ele>
        <time>2016-09-02T15:37:57Z</time>
      </trkpt>
      <trkpt lat="46.18533" lon="-1.40981">
        <ele>2.06</ele>
        <time>2016-09-02T15:38:01Z</time>
      </trkpt>
      <trkpt lat="46.1853" lon="-1.41005">
        <ele>3.5</ele>
        <time>2016-09-02T15:38:13Z</time>
      </trkpt>
      <trkpt lat="46.18522" lon="-1.4103">
        <ele>3.5</ele>
        <time>2016-09-02T15:38:24Z</time>
      </trkpt>
      <trkpt lat="46.18518" lon="-1.41057">
        <ele>3.98</ele>
        <time>2016-09-02T15:38:36Z</time>
      </trkpt>
      <trkpt lat="46.18517" lon="-1.41087">
        <ele>3.02</ele>
        <time>2016-09-02T15:38:49Z</time>
      </trkpt>
      <trkpt lat="46.18518" lon="-1.4111">
        <ele>3.5</ele>
        <time>2016-09-02T15:38:59Z</time>
      </trkpt>
      <trkpt lat="46.18519" lon="-1.41132">
        <ele>4.46</ele>
        <time>2016-09-02T15:39:10Z</time>
      </trkpt>
      <trkpt lat="46.18521" lon="-1.41154">
        <ele>4.46</ele>
        <time>2016-09-02T15:39:20Z</time>
      </trkpt>
      <trkpt lat="46.18522" lon="-1.41177">
        <ele>5.42</ele>
        <time>2016-09-02T15:39:31Z</time>
      </trkpt>
      <trkpt lat="46.18521" lon="-1.4119">
        <ele>5.42</ele>
        <time>2016-09-02T15:39:39Z</time>
      </trkpt>
      <trkpt lat="46.18521" lon="-1.41196">
        <ele>6.39</ele>
        <time>2016-09-02T15:39:42Z</time>
      </trkpt>
      <trkpt lat="46.1851" lon="-1.41211">
        <ele>8.79</ele>
        <time>2016-09-02T15:39:55Z</time>
      </trkpt>
      <trkpt lat="46.18496" lon="-1.41218">
        <ele>11.19</ele>
        <time>2016-09-02T15:40:08Z</time>
      </trkpt>
      <trkpt lat="46.18485" lon="-1.41219">
        <ele>11.67</ele>
        <time>2016-09-02T15:40:18Z</time>
      </trkpt>
      <trkpt lat="46.18482" lon="-1.41222">
        <ele>10.71</ele>
        <time>2016-09-02T15:40:21Z</time>
      </trkpt>
      <trkpt lat="46.18477" lon="-1.4123">
        <ele>9.75</ele>
        <time>2016-09-02T15:40:28Z</time>
      </trkpt>
      <trkpt lat="46.18471" lon="-1.41235">
        <ele>7.83</ele>
        <time>2016-09-02T15:40:33Z</time>
      </trkpt>
      <trkpt lat="46.1846" lon="-1.41242">
        <ele>4.94</ele>
        <time>2016-09-02T15:40:41Z</time>
      </trkpt>
      <trkpt lat="46.18451" lon="-1.41246">
        <ele>4.46</ele>
        <time>2016-09-02T15:40:49Z</time>
      </trkpt>
      <trkpt lat="46.18449" lon="-1.41246">
        <ele>4.46</ele>
        <time>2016-09-02T15:40:54Z</time>
      </trkpt>
      <trkpt lat="46.18446" lon="-1.41246">
        <ele>3.5</ele>
        <time>2016-09-02T15:41:05Z</time>
      </trkpt>
      <trkpt lat="46.18445" lon="-1.41244">
        <ele>2.54</ele>
        <time>2016-09-02T15:41:07Z</time>
      </trkpt>
      <trkpt lat="46.1844" lon="-1.41238">
        <ele>3.02</ele>
        <time>2016-09-02T15:41:13Z</time>
      </trkpt>
      <trkpt lat="46.1843" lon="-1.41221">
        <ele>2.06</ele>
        <time>2016-09-02T15:41:25Z</time>
      </trkpt>
      <trkpt lat="46.18427" lon="-1.41203">
        <ele>2.54</ele>
        <time>2016-09-02T15:41:35Z</time>
      </trkpt>
      <trkpt lat="46.18424" lon="-1.41187">
        <ele>3.5</ele>
        <time>2016-09-02T15:41:44Z</time>
      </trkpt>
      <trkpt lat="46.18425" lon="-1.41183">
        <ele>2.54</ele>
        <time>2016-09-02T15:41:49Z</time>
      </trkpt>
      <trkpt lat="46.18427" lon="-1.41183">
        <ele>2.06</ele>
        <time>2016-09-02T15:41:59Z</time>
      </trkpt>
      <trkpt lat="46.18427" lon="-1.41182">
        <ele>2.54</ele>
        <time>2016-09-02T15:42:16Z</time>
      </trkpt>
      <trkpt lat="46.18427" lon="-1.41181">
        <ele>2.54</ele>
        <time>2016-09-02T15:42:25Z</time>
      </trkpt>
      <trkpt lat="46.18427" lon="-1.41181">
        <ele>2.54</ele>
        <time>2016-09-02T15:42:48Z</time>
      </trkpt>
      <trkpt lat="46.18427" lon="-1.41181">
        <ele>3.02</ele>
        <time>2016-09-02T15:43:12Z</time>
      </trkpt>
      <trkpt lat="46.18427" lon="-1.41181">
        <ele>3.02</ele>
        <time>2016-09-02T15:43:20Z</time>
      </trkpt>
      <trkpt lat="46.18427" lon="-1.41181">
        <ele>2.06</ele>
        <time>2016-09-02T15:43:44Z</time>
      </trkpt>
      <trkpt lat="46.18427" lon="-1.41181">
        <ele>3.02</ele>
        <time>2016-09-02T15:44:07Z</time>
      </trkpt>
      <trkpt lat="46.18427" lon="-1.41182">
        <ele>2.06</ele>
        <time>2016-09-02T15:44:31Z</time>
      </trkpt>
      <trkpt lat="46.18427" lon="-1.41182">
        <ele>3.02</ele>
        <time>2016-09-02T15:44:57Z</time>
      </trkpt>
      <trkpt lat="46.18427" lon="-1.41182">
        <ele>2.54</ele>
        <time>2016-09-02T15:45:24Z</time>
      </trkpt>
      <trkpt lat="46.18426" lon="-1.41182">
        <ele>2.54</ele>
        <time>2016-09-02T15:45:50Z</time>
      </trkpt>
      <trkpt lat="46.18426" lon="-1.41182">
        <ele>2.54</ele>
        <time>2016-09-02T15:46:14Z</time>
      </trkpt>
      <trkpt lat="46.18426" lon="-1.41182">
        <ele>2.06</ele>
        <time>2016-09-02T15:46:39Z</time>
      </trkpt>
      <trkpt lat="46.18426" lon="-1.41182">
        <ele>2.06</ele>
        <time>2016-09-02T15:47:04Z</time>
      </trkpt>
      <trkpt lat="46.18426" lon="-1.41181">
        <ele>2.06</ele>
        <time>2016-09-02T15:47:32Z</time>
      </trkpt>
      <trkpt lat="46.18426" lon="-1.41182">
        <ele>2.54</ele>
        <time>2016-09-02T15:47:57Z</time>
      </trkpt>
      <trkpt lat="46.18426" lon="-1.41181">
        <ele>2.54</ele>
        <time>2016-09-02T15:48:22Z</time>
      </trkpt>
      <trkpt lat="46.18426" lon="-1.41182">
        <ele>1.58</ele>
        <time>2016-09-02T15:48:47Z</time>
      </trkpt>
      <trkpt lat="46.18426" lon="-1.41182">
        <ele>2.06</ele>
        <time>2016-09-02T15:49:14Z</time>
      </trkpt>
      <trkpt lat="46.18426" lon="-1.41182">
        <ele>1.58</ele>
        <time>2016-09-02T15:49:40Z</time>
      </trkpt>
      <trkpt lat="46.18426" lon="-1.41181">
        <ele>2.06</ele>
        <time>2016-09-02T15:50:05Z</time>
      </trkpt>
      <trkpt lat="46.18426" lon="-1.41182">
        <ele>1.58</ele>
        <time>2016-09-02T15:50:28Z</time>
      </trkpt>
      <trkpt lat="46.18426" lon="-1.41182">
        <ele>2.06</ele>
        <time>2016-09-02T15:50:55Z</time>
      </trkpt>
      <trkpt lat="46.18426" lon="-1.41181">
        <ele>2.06</ele>
        <time>2016-09-02T15:51:30Z</time>
      </trkpt>
      <trkpt lat="46.18426" lon="-1.41181">
        <ele>2.06</ele>
        <time>2016-09-02T15:51:53Z</time>
      </trkpt>
      <trkpt lat="46.18426" lon="-1.41181">
        <ele>1.58</ele>
        <time>2016-09-02T15:52:16Z</time>
      </trkpt>
      <trkpt lat="46.18426" lon="-1.41181">
        <ele>1.58</ele>
        <time>2016-09-02T15:52:42Z</time>
      </trkpt>
      <trkpt lat="46.18426" lon="-1.41182">
        <ele>1.58</ele>
        <time>2016-09-02T15:53:09Z</time>
      </trkpt>
      <trkpt lat="46.18426" lon="-1.41182">
        <ele>1.1</ele>
        <time>2016-09-02T15:53:37Z</time>
      </trkpt>
      <trkpt lat="46.18426" lon="-1.41181">
        <ele>1.58</ele>
        <time>2016-09-02T15:54:04Z</time>
      </trkpt>
      <trkpt lat="46.18426" lon="-1.41181">
        <ele>1.58</ele>
        <time>2016-09-02T15:54:30Z</time>
      </trkpt>
      <trkpt lat="46.18426" lon="-1.41181">
        <ele>1.1</ele>
        <time>2016-09-02T15:54:54Z</time>
      </trkpt>
      <trkpt lat="46.18426" lon="-1.41181">
        <ele>1.1</ele>
        <time>2016-09-02T15:55:21Z</time>
      </trkpt>
      <trkpt lat="46.18426" lon="-1.41181">
        <ele>0.62</ele>
        <time>2016-09-02T15:55:47Z</time>
      </trkpt>
      <trkpt lat="46.18426" lon="-1.41181">
        <ele>1.1</ele>
        <time>2016-09-02T15:56:10Z</time>
      </trkpt>
      <trkpt lat="46.18426" lon="-1.41181">
        <ele>1.1</ele>
        <time>2016-09-02T15:56:36Z</time>
      </trkpt>
      <trkpt lat="46.18426" lon="-1.41181">
        <ele>-1.79</ele>
        <time>2016-09-02T15:56:39Z</time>
      </trkpt>
      <trkpt lat="46.18426" lon="-1.41181">
        <ele>1.58</ele>
        <time>2016-09-02T15:56:40Z</time>
      </trkpt>
      <trkpt lat="46.18426" lon="-1.41182">
        <ele>1.1</ele>
        <time>2016-09-02T15:57:04Z</time>
      </trkpt>
      <trkpt lat="46.18426" lon="-1.41182">
        <ele>1.1</ele>
        <time>2016-09-02T15:57:28Z</time>
      </trkpt>
      <trkpt lat="46.18426" lon="-1.41182">
        <ele>0.62</ele>
        <time>2016-09-02T15:57:55Z</time>
      </trkpt>
      <trkpt lat="46.18426" lon="-1.41182">
        <ele>0.62</ele>
        <time>2016-09-02T15:58:18Z</time>
      </trkpt>
      <trkpt lat="46.18426" lon="-1.41182">
        <ele>0.62</ele>
        <time>2016-09-02T15:58:43Z</time>
      </trkpt>
      <trkpt lat="46.18426" lon="-1.41182">
        <ele>0.62</ele>
        <time>2016-09-02T15:59:08Z</time>
      </trkpt>
      <trkpt lat="46.18426" lon="-1.41182">
        <ele>0.62</ele>
        <time>2016-09-02T15:59:38Z</time>
      </trkpt>
      <trkpt lat="46.18426" lon="-1.41182">
        <ele>0.62</ele>
        <time>2016-09-02T16:00:07Z</time>
      </trkpt>
      <trkpt lat="46.18426" lon="-1.41182">
        <ele>0.62</ele>
        <time>2016-09-02T16:00:34Z</time>
      </trkpt>
      <trkpt lat="46.18426" lon="-1.41182">
        <ele>0.62</ele>
        <time>2016-09-02T16:01:00Z</time>
      </trkpt>
      <trkpt lat="46.18426" lon="-1.41182">
        <ele>1.1</ele>
        <time>2016-09-02T16:01:27Z</time>
      </trkpt>
      <trkpt lat="46.18426" lon="-1.41182">
        <ele>0.62</ele>
        <time>2016-09-02T16:01:52Z</time>
      </trkpt>
      <trkpt lat="46.18426" lon="-1.41182">
        <ele>0.62</ele>
        <time>2016-09-02T16:02:17Z</time>
      </trkpt>
      <trkpt lat="46.18426" lon="-1.41182">
        <ele>1.1</ele>
        <time>2016-09-02T16:02:26Z</time>
      </trkpt>
      <trkpt lat="46.18426" lon="-1.41182">
        <ele>0.14</ele>
        <time>2016-09-02T16:02:54Z</time>
      </trkpt>
      <trkpt lat="46.18426" lon="-1.41182">
        <ele>0.62</ele>
        <time>2016-09-02T16:03:18Z</time>
      </trkpt>
      <trkpt lat="46.18426" lon="-1.41182">
        <ele>0.14</ele>
        <time>2016-09-02T16:03:46Z</time>
      </trkpt>
      <trkpt lat="46.18426" lon="-1.41182">
        <ele>0.14</ele>
        <time>2016-09-02T16:04:09Z</time>
      </trkpt>
      <trkpt lat="46.18426" lon="-1.41182">
        <ele>-0.34</ele>
        <time>2016-09-02T16:04:36Z</time>
      </trkpt>
      <trkpt lat="46.18426" lon="-1.41182">
        <ele>0.14</ele>
        <time>2016-09-02T16:05:04Z</time>
      </trkpt>
      <trkpt lat="46.18426" lon="-1.41183">
        <ele>-0.34</ele>
        <time>2016-09-02T16:05:31Z</time>
      </trkpt>
      <trkpt lat="46.18426" lon="-1.41183">
        <ele>0.14</ele>
        <time>2016-09-02T16:05:55Z</time>
      </trkpt>
      <trkpt lat="46.18426" lon="-1.41183">
        <ele>0.14</ele>
        <time>2016-09-02T16:06:29Z</time>
      </trkpt>
      <trkpt lat="46.18426" lon="-1.41183">
        <ele>0.14</ele>
        <time>2016-09-02T16:06:57Z</time>
      </trkpt>
      <trkpt lat="46.18426" lon="-1.41183">
        <ele>-0.34</ele>
        <time>2016-09-02T16:07:24Z</time>
      </trkpt>
      <trkpt lat="46.18426" lon="-1.41183">
        <ele>-0.34</ele>
        <time>2016-09-02T16:07:52Z</time>
      </trkpt>
      <trkpt lat="46.18426" lon="-1.41183">
        <ele>0.14</ele>
        <time>2016-09-02T16:08:24Z</time>
      </trkpt>
      <trkpt lat="46.18426" lon="-1.41183">
        <ele>0.14</ele>
        <time>2016-09-02T16:08:57Z</time>
      </trkpt>
      <trkpt lat="46.18426" lon="-1.41184">
        <ele>-0.34</ele>
        <time>2016-09-02T16:09:20Z</time>
      </trkpt>
      <trkpt lat="46.18426" lon="-1.41184">
        <ele>-0.34</ele>
        <time>2016-09-02T16:09:46Z</time>
      </trkpt>
      <trkpt lat="46.18426" lon="-1.41184">
        <ele>-0.82</ele>
        <time>2016-09-02T16:10:14Z</time>
      </trkpt>
      <trkpt lat="46.18426" lon="-1.41184">
        <ele>0.14</ele>
        <time>2016-09-02T16:10:41Z</time>
      </trkpt>
      <trkpt lat="46.18426" lon="-1.41184">
        <ele>-0.34</ele>
        <time>2016-09-02T16:11:08Z</time>
      </trkpt>
      <trkpt lat="46.18426" lon="-1.41184">
        <ele>-0.34</ele>
        <time>2016-09-02T16:11:38Z</time>
      </trkpt>
      <trkpt lat="46.18426" lon="-1.41184">
        <ele>-0.82</ele>
        <time>2016-09-02T16:12:05Z</time>
      </trkpt>
      <trkpt lat="46.18426" lon="-1.41183">
        <ele>-0.34</ele>
        <time>2016-09-02T16:12:27Z</time>
      </trkpt>
      <trkpt lat="46.18426" lon="-1.41183">
        <ele>-0.34</ele>
        <time>2016-09-02T16:12:53Z</time>
      </trkpt>
      <trkpt lat="46.18426" lon="-1.41183">
        <ele>-0.34</ele>
        <time>2016-09-02T16:13:21Z</time>
      </trkpt>
      <trkpt lat="46.18426" lon="-1.41183">
        <ele>-0.82</ele>
        <time>2016-09-02T16:13:53Z</time>
      </trkpt>
      <trkpt lat="46.18426" lon="-1.41183">
        <ele>-0.34</ele>
        <time>2016-09-02T16:14:22Z</time>
      </trkpt>
      <trkpt lat="46.18426" lon="-1.41183">
        <ele>-0.82</ele>
        <time>2016-09-02T16:14:51Z</time>
      </trkpt>
      <trkpt lat="46.18426" lon="-1.41183">
        <ele>-0.82</ele>
        <time>2016-09-02T16:15:22Z</time>
      </trkpt>
      <trkpt lat="46.18426" lon="-1.41183">
        <ele>-4.19</ele>
        <time>2016-09-02T16:15:32Z</time>
      </trkpt>
      <trkpt lat="46.18426" lon="-1.41183">
        <ele>-0.34</ele>
        <time>2016-09-02T16:15:34Z</time>
      </trkpt>
      <trkpt lat="46.18426" lon="-1.41183">
        <ele>-0.34</ele>
        <time>2016-09-02T16:15:35Z</time>
      </trkpt>
      <trkpt lat="46.18427" lon="-1.41184">
        <ele>-0.82</ele>
        <time>2016-09-02T16:16:03Z</time>
      </trkpt>
      <trkpt lat="46.18427" lon="-1.41184">
        <ele>-4.19</ele>
        <time>2016-09-02T16:16:22Z</time>
      </trkpt>
      <trkpt lat="46.18427" lon="-1.41184">
        <ele>-0.82</ele>
        <time>2016-09-02T16:16:23Z</time>
      </trkpt>
      <trkpt lat="46.18427" lon="-1.41184">
        <ele>-1.3</ele>
        <time>2016-09-02T16:16:47Z</time>
      </trkpt>
      <trkpt lat="46.18427" lon="-1.41184">
        <ele>-1.3</ele>
        <time>2016-09-02T16:17:16Z</time>
      </trkpt>
      <trkpt lat="46.18427" lon="-1.41184">
        <ele>-0.82</ele>
        <time>2016-09-02T16:17:44Z</time>
      </trkpt>
      <trkpt lat="46.18427" lon="-1.41184">
        <ele>-1.3</ele>
        <time>2016-09-02T16:18:08Z</time>
      </trkpt>
      <trkpt lat="46.18427" lon="-1.41184">
        <ele>-1.3</ele>
        <time>2016-09-02T16:18:37Z</time>
      </trkpt>
      <trkpt lat="46.18427" lon="-1.41184">
        <ele>-1.3</ele>
        <time>2016-09-02T16:19:03Z</time>
      </trkpt>
      <trkpt lat="46.18427" lon="-1.41184">
        <ele>-1.79</ele>
        <time>2016-09-02T16:19:33Z</time>
      </trkpt>
      <trkpt lat="46.18427" lon="-1.41184">
        <ele>-1.3</ele>
        <time>2016-09-02T16:20:00Z</time>
      </trkpt>
      <trkpt lat="46.18427" lon="-1.41184">
        <ele>-1.3</ele>
        <time>2016-09-02T16:20:27Z</time>
      </trkpt>
      <trkpt lat="46.18427" lon="-1.41184">
        <ele>-0.82</ele>
        <time>2016-09-02T16:20:55Z</time>
      </trkpt>
      <trkpt lat="46.18427" lon="-1.41184">
        <ele>-1.3</ele>
        <time>2016-09-02T16:21:18Z</time>
      </trkpt>
      <trkpt lat="46.18427" lon="-1.41185">
        <ele>-1.3</ele>
        <time>2016-09-02T16:21:43Z</time>
      </trkpt>
      <trkpt lat="46.18427" lon="-1.41185">
        <ele>-1.3</ele>
        <time>2016-09-02T16:22:08Z</time>
      </trkpt>
      <trkpt lat="46.18427" lon="-1.41185">
        <ele>-1.3</ele>
        <time>2016-09-02T16:22:33Z</time>
      </trkpt>
      <trkpt lat="46.18427" lon="-1.41185">
        <ele>-1.3</ele>
        <time>2016-09-02T16:22:59Z</time>
      </trkpt>
      <trkpt lat="46.18427" lon="-1.41185">
        <ele>-1.3</ele>
        <time>2016-09-02T16:23:26Z</time>
      </trkpt>
      <trkpt lat="46.18427" lon="-1.41185">
        <ele>-1.3</ele>
        <time>2016-09-02T16:23:52Z</time>
      </trkpt>
      <trkpt lat="46.18427" lon="-1.41185">
        <ele>-1.3</ele>
        <time>2016-09-02T16:24:17Z</time>
      </trkpt>
      <trkpt lat="46.18427" lon="-1.41185">
        <ele>-1.3</ele>
        <time>2016-09-02T16:24:44Z</time>
      </trkpt>
      <trkpt lat="46.18427" lon="-1.41185">
        <ele>-1.3</ele>
        <time>2016-09-02T16:25:07Z</time>
      </trkpt>
      <trkpt lat="46.18427" lon="-1.41185">
        <ele>-1.79</ele>
        <time>2016-09-02T16:25:29Z</time>
      </trkpt>
      <trkpt lat="46.18427" lon="-1.41185">
        <ele>-1.3</ele>
        <time>2016-09-02T16:25:55Z</time>
      </trkpt>
      <trkpt lat="46.18427" lon="-1.41185">
        <ele>-1.3</ele>
        <time>2016-09-02T16:26:22Z</time>
      </trkpt>
      <trkpt lat="46.18428" lon="-1.41184">
        <ele>-1.3</ele>
        <time>2016-09-02T16:26:48Z</time>
      </trkpt>
      <trkpt lat="46.18427" lon="-1.41184">
        <ele>-1.3</ele>
        <time>2016-09-02T16:27:14Z</time>
      </trkpt>
      <trkpt lat="46.18427" lon="-1.41184">
        <ele>-1.79</ele>
        <time>2016-09-02T16:27:39Z</time>
      </trkpt>
      <trkpt lat="46.18427" lon="-1.41184">
        <ele>-1.3</ele>
        <time>2016-09-02T16:28:04Z</time>
      </trkpt>
      <trkpt lat="46.18427" lon="-1.41184">
        <ele>-1.3</ele>
        <time>2016-09-02T16:28:33Z</time>
      </trkpt>
      <trkpt lat="46.18427" lon="-1.41184">
        <ele>-1.3</ele>
        <time>2016-09-02T16:28:57Z</time>
      </trkpt>
      <trkpt lat="46.18427" lon="-1.41184">
        <ele>-1.3</ele>
        <time>2016-09-02T16:29:21Z</time>
      </trkpt>
      <trkpt lat="46.18427" lon="-1.41184">
        <ele>-1.79</ele>
        <time>2016-09-02T16:29:44Z</time>
      </trkpt>
      <trkpt lat="46.18427" lon="-1.41184">
        <ele>-1.3</ele>
        <time>2016-09-02T16:30:10Z</time>
      </trkpt>
      <trkpt lat="46.18427" lon="-1.41184">
        <ele>-1.3</ele>
        <time>2016-09-02T16:30:34Z</time>
      </trkpt>
      <trkpt lat="46.18427" lon="-1.41184">
        <ele>-1.79</ele>
        <time>2016-09-02T16:30:59Z</time>
      </trkpt>
      <trkpt lat="46.18427" lon="-1.41184">
        <ele>-1.3</ele>
        <time>2016-09-02T16:31:25Z</time>
      </trkpt>
      <trkpt lat="46.18427" lon="-1.41184">
        <ele>-1.3</ele>
        <time>2016-09-02T16:31:56Z</time>
      </trkpt>
      <trkpt lat="46.18427" lon="-1.41184">
        <ele>-1.3</ele>
        <time>2016-09-02T16:32:20Z</time>
      </trkpt>
      <trkpt lat="46.18427" lon="-1.41184">
        <ele>-1.3</ele>
        <time>2016-09-02T16:32:45Z</time>
      </trkpt>
      <trkpt lat="46.18427" lon="-1.41184">
        <ele>-1.3</ele>
        <time>2016-09-02T16:33:12Z</time>
      </trkpt>
      <trkpt lat="46.18427" lon="-1.41184">
        <ele>-1.3</ele>
        <time>2016-09-02T16:33:37Z</time>
      </trkpt>
      <trkpt lat="46.18427" lon="-1.41184">
        <ele>-1.3</ele>
        <time>2016-09-02T16:34:04Z</time>
      </trkpt>
      <trkpt lat="46.18427" lon="-1.41184">
        <ele>-1.3</ele>
        <time>2016-09-02T16:34:28Z</time>
      </trkpt>
      <trkpt lat="46.18427" lon="-1.41184">
        <ele>-0.82</ele>
        <time>2016-09-02T16:34:55Z</time>
      </trkpt>
      <trkpt lat="46.18427" lon="-1.41184">
        <ele>-1.3</ele>
        <time>2016-09-02T16:35:19Z</time>
      </trkpt>
      <trkpt lat="46.18427" lon="-1.41184">
        <ele>-0.82</ele>
        <time>2016-09-02T16:35:49Z</time>
      </trkpt>
      <trkpt lat="46.18427" lon="-1.41184">
        <ele>-1.3</ele>
        <time>2016-09-02T16:36:17Z</time>
      </trkpt>
      <trkpt lat="46.18427" lon="-1.41184">
        <ele>-0.82</ele>
        <time>2016-09-02T16:36:45Z</time>
      </trkpt>
      <trkpt lat="46.18427" lon="-1.41184">
        <ele>-0.82</ele>
        <time>2016-09-02T16:37:14Z</time>
      </trkpt>
      <trkpt lat="46.18428" lon="-1.41185">
        <ele>-1.3</ele>
        <time>2016-09-02T16:37:43Z</time>
      </trkpt>
      <trkpt lat="46.18427" lon="-1.41185">
        <ele>-1.3</ele>
        <time>2016-09-02T16:38:12Z</time>
      </trkpt>
      <trkpt lat="46.18427" lon="-1.41184">
        <ele>-0.82</ele>
        <time>2016-09-02T16:38:36Z</time>
      </trkpt>
      <trkpt lat="46.18427" lon="-1.41184">
        <ele>-1.3</ele>
        <time>2016-09-02T16:39:02Z</time>
      </trkpt>
      <trkpt lat="46.18427" lon="-1.41184">
        <ele>-0.34</ele>
        <time>2016-09-02T16:39:26Z</time>
      </trkpt>
      <trkpt lat="46.18427" lon="-1.41184">
        <ele>-0.82</ele>
        <time>2016-09-02T16:39:49Z</time>
      </trkpt>
      <trkpt lat="46.18427" lon="-1.41184">
        <ele>-0.82</ele>
        <time>2016-09-02T16:40:11Z</time>
      </trkpt>
      <trkpt lat="46.18427" lon="-1.41184">
        <ele>-1.79</ele>
        <time>2016-09-02T16:40:36Z</time>
      </trkpt>
      <trkpt lat="46.18427" lon="-1.41184">
        <ele>-5.15</ele>
        <time>2016-09-02T16:40:39Z</time>
      </trkpt>
      <trkpt lat="46.18427" lon="-1.41184">
        <ele>1.1</ele>
        <time>2016-09-02T16:40:40Z</time>
      </trkpt>
      <trkpt lat="46.18427" lon="-1.41183">
        <ele>-0.82</ele>
        <time>2016-09-02T16:40:43Z</time>
      </trkpt>
      <trkpt lat="46.18427" lon="-1.41183">
        <ele>-0.82</ele>
        <time>2016-09-02T16:41:07Z</time>
      </trkpt>
      <trkpt lat="46.18427" lon="-1.41184">
        <ele>-0.82</ele>
        <time>2016-09-02T16:41:31Z</time>
      </trkpt>
      <trkpt lat="46.18427" lon="-1.41184">
        <ele>-0.82</ele>
        <time>2016-09-02T16:41:55Z</time>
      </trkpt>
      <trkpt lat="46.18427" lon="-1.41184">
        <ele>-0.82</ele>
        <time>2016-09-02T16:42:17Z</time>
      </trkpt>
      <trkpt lat="46.18427" lon="-1.41184">
        <ele>-1.3</ele>
        <time>2016-09-02T16:42:38Z</time>
      </trkpt>
      <trkpt lat="46.18427" lon="-1.41183">
        <ele>-1.3</ele>
        <time>2016-09-02T16:43:02Z</time>
      </trkpt>
      <trkpt lat="46.18427" lon="-1.41184">
        <ele>-0.82</ele>
        <time>2016-09-02T16:43:24Z</time>
      </trkpt>
      <trkpt lat="46.18427" lon="-1.41183">
        <ele>-1.3</ele>
        <time>2016-09-02T16:43:48Z</time>
      </trkpt>
      <trkpt lat="46.18428" lon="-1.41183">
        <ele>-0.34</ele>
        <time>2016-09-02T16:44:13Z</time>
      </trkpt>
      <trkpt lat="46.18427" lon="-1.41183">
        <ele>-0.82</ele>
        <time>2016-09-02T16:44:36Z</time>
      </trkpt>
      <trkpt lat="46.18427" lon="-1.41183">
        <ele>-0.82</ele>
        <time>2016-09-02T16:45:02Z</time>
      </trkpt>
      <trkpt lat="46.18427" lon="-1.41183">
        <ele>-1.3</ele>
        <time>2016-09-02T16:45:26Z</time>
      </trkpt>
      <trkpt lat="46.18427" lon="-1.41183">
        <ele>-0.82</ele>
        <time>2016-09-02T16:45:51Z</time>
      </trkpt>
      <trkpt lat="46.18427" lon="-1.41183">
        <ele>-0.82</ele>
        <time>2016-09-02T16:46:16Z</time>
      </trkpt>
      <trkpt lat="46.18427" lon="-1.41184">
        <ele>-0.34</ele>
        <time>2016-09-02T16:46:43Z</time>
      </trkpt>
      <trkpt lat="46.18427" lon="-1.41184">
        <ele>-0.82</ele>
        <time>2016-09-02T16:47:09Z</time>
      </trkpt>
      <trkpt lat="46.18427" lon="-1.41184">
        <ele>-0.82</ele>
        <time>2016-09-02T16:47:33Z</time>
      </trkpt>
      <trkpt lat="46.18427" lon="-1.41183">
        <ele>-0.82</ele>
        <time>2016-09-02T16:47:55Z</time>
      </trkpt>
      <trkpt lat="46.18427" lon="-1.41183">
        <ele>-0.34</ele>
        <time>2016-09-02T16:48:21Z</time>
      </trkpt>
      <trkpt lat="46.18427" lon="-1.41183">
        <ele>-0.82</ele>
        <time>2016-09-02T16:48:43Z</time>
      </trkpt>
      <trkpt lat="46.18428" lon="-1.41183">
        <ele>-0.82</ele>
        <time>2016-09-02T16:49:06Z</time>
      </trkpt>
      <trkpt lat="46.18428" lon="-1.41183">
        <ele>-1.3</ele>
        <time>2016-09-02T16:49:27Z</time>
      </trkpt>
      <trkpt lat="46.18428" lon="-1.41183">
        <ele>-0.82</ele>
        <time>2016-09-02T16:49:48Z</time>
      </trkpt>
      <trkpt lat="46.18428" lon="-1.41183">
        <ele>-0.82</ele>
        <time>2016-09-02T16:50:10Z</time>
      </trkpt>
      <trkpt lat="46.18428" lon="-1.41183">
        <ele>-0.82</ele>
        <time>2016-09-02T16:50:36Z</time>
      </trkpt>
      <trkpt lat="46.18428" lon="-1.41183">
        <ele>-0.82</ele>
        <time>2016-09-02T16:50:57Z</time>
      </trkpt>
      <trkpt lat="46.18428" lon="-1.41183">
        <ele>-0.82</ele>
        <time>2016-09-02T16:51:25Z</time>
      </trkpt>
      <trkpt lat="46.18428" lon="-1.41183">
        <ele>-0.82</ele>
        <time>2016-09-02T16:51:46Z</time>
      </trkpt>
      <trkpt lat="46.18428" lon="-1.41183">
        <ele>-0.82</ele>
        <time>2016-09-02T16:52:08Z</time>
      </trkpt>
      <trkpt lat="46.18428" lon="-1.41183">
        <ele>-0.82</ele>
        <time>2016-09-02T16:52:34Z</time>
      </trkpt>
      <trkpt lat="46.18428" lon="-1.41184">
        <ele>-0.82</ele>
        <time>2016-09-02T16:52:53Z</time>
      </trkpt>
      <trkpt lat="46.18428" lon="-1.41184">
        <ele>-1.3</ele>
        <time>2016-09-02T16:53:14Z</time>
      </trkpt>
      <trkpt lat="46.18428" lon="-1.41184">
        <ele>-0.82</ele>
        <time>2016-09-02T16:53:39Z</time>
      </trkpt>
      <trkpt lat="46.18428" lon="-1.41184">
        <ele>-0.34</ele>
        <time>2016-09-02T16:54:00Z</time>
      </trkpt>
      <trkpt lat="46.18428" lon="-1.41184">
        <ele>-0.82</ele>
        <time>2016-09-02T16:54:22Z</time>
      </trkpt>
      <trkpt lat="46.18428" lon="-1.41184">
        <ele>-0.82</ele>
        <time>2016-09-02T16:54:48Z</time>
      </trkpt>
      <trkpt lat="46.18427" lon="-1.41184">
        <ele>-0.82</ele>
        <time>2016-09-02T16:55:11Z</time>
      </trkpt>
      <trkpt lat="46.18427" lon="-1.41184">
        <ele>-0.82</ele>
        <time>2016-09-02T16:55:33Z</time>
      </trkpt>
      <trkpt lat="46.18427" lon="-1.41184">
        <ele>-0.82</ele>
        <time>2016-09-02T16:55:54Z</time>
      </trkpt>
      <trkpt lat="46.18427" lon="-1.41183">
        <ele>-0.82</ele>
        <time>2016-09-02T16:56:16Z</time>
      </trkpt>
      <trkpt lat="46.18427" lon="-1.41183">
        <ele>-1.3</ele>
        <time>2016-09-02T16:56:40Z</time>
      </trkpt>
      <trkpt lat="46.18427" lon="-1.41183">
        <ele>-0.82</ele>
        <time>2016-09-02T16:57:08Z</time>
      </trkpt>
      <trkpt lat="46.18427" lon="-1.41183">
        <ele>-1.3</ele>
        <time>2016-09-02T16:57:31Z</time>
      </trkpt>
      <trkpt lat="46.18427" lon="-1.41183">
        <ele>-0.82</ele>
        <time>2016-09-02T16:57:59Z</time>
      </trkpt>
      <trkpt lat="46.18427" lon="-1.41183">
        <ele>-0.82</ele>
        <time>2016-09-02T16:58:27Z</time>
      </trkpt>
      <trkpt lat="46.18427" lon="-1.41183">
        <ele>-1.3</ele>
        <time>2016-09-02T16:58:55Z</time>
      </trkpt>
      <trkpt lat="46.18427" lon="-1.41183">
        <ele>-0.82</ele>
        <time>2016-09-02T16:59:22Z</time>
      </trkpt>
      <trkpt lat="46.18427" lon="-1.41183">
        <ele>-0.82</ele>
        <time>2016-09-02T16:59:48Z</time>
      </trkpt>
      <trkpt lat="46.18428" lon="-1.41183">
        <ele>-0.82</ele>
        <time>2016-09-02T17:00:14Z</time>
      </trkpt>
      <trkpt lat="46.18427" lon="-1.41183">
        <ele>-0.82</ele>
        <time>2016-09-02T17:00:38Z</time>
      </trkpt>
      <trkpt lat="46.18427" lon="-1.41183">
        <ele>-1.3</ele>
        <time>2016-09-02T17:01:02Z</time>
      </trkpt>
      <trkpt lat="46.18427" lon="-1.41183">
        <ele>-0.82</ele>
        <time>2016-09-02T17:01:26Z</time>
      </trkpt>
      <trkpt lat="46.18427" lon="-1.41183">
        <ele>-0.82</ele>
        <time>2016-09-02T17:01:51Z</time>
      </trkpt>
      <trkpt lat="46.18427" lon="-1.41183">
        <ele>-1.3</ele>
        <time>2016-09-02T17:02:16Z</time>
      </trkpt>
      <trkpt lat="46.18427" lon="-1.41184">
        <ele>-0.82</ele>
        <time>2016-09-02T17:02:39Z</time>
      </trkpt>
      <trkpt lat="46.18427" lon="-1.41184">
        <ele>-1.3</ele>
        <time>2016-09-02T17:03:00Z</time>
      </trkpt>
      <trkpt lat="46.18428" lon="-1.41184">
        <ele>-1.3</ele>
        <time>2016-09-02T17:03:23Z</time>
      </trkpt>
      <trkpt lat="46.18428" lon="-1.41184">
        <ele>-0.82</ele>
        <time>2016-09-02T17:03:47Z</time>
      </trkpt>
      <trkpt lat="46.18428" lon="-1.41183">
        <ele>-0.82</ele>
        <time>2016-09-02T17:04:10Z</time>
      </trkpt>
      <trkpt lat="46.18428" lon="-1.41183">
        <ele>-0.82</ele>
        <time>2016-09-02T17:04:32Z</time>
      </trkpt>
      <trkpt lat="46.18428" lon="-1.41183">
        <ele>-1.3</ele>
        <time>2016-09-02T17:04:54Z</time>
      </trkpt>
      <trkpt lat="46.18427" lon="-1.41183">
        <ele>-0.82</ele>
        <time>2016-09-02T17:05:17Z</time>
      </trkpt>
      <trkpt lat="46.18427" lon="-1.41183">
        <ele>-0.82</ele>
        <time>2016-09-02T17:05:41Z</time>
      </trkpt>
      <trkpt lat="46.18427" lon="-1.41183">
        <ele>-0.82</ele>
        <time>2016-09-02T17:06:04Z</time>
      </trkpt>
      <trkpt lat="46.18427" lon="-1.41183">
        <ele>-1.3</ele>
        <time>2016-09-02T17:06:27Z</time>
      </trkpt>
      <trkpt lat="46.18427" lon="-1.41183">
        <ele>-1.3</ele>
        <time>2016-09-02T17:06:48Z</time>
      </trkpt>
      <trkpt lat="46.18427" lon="-1.41183">
        <ele>-0.82</ele>
        <time>2016-09-02T17:07:12Z</time>
      </trkpt>
      <trkpt lat="46.18427" lon="-1.41183">
        <ele>-1.3</ele>
        <time>2016-09-02T17:07:37Z</time>
      </trkpt>
      <trkpt lat="46.18427" lon="-1.41183">
        <ele>-1.3</ele>
        <time>2016-09-02T17:08:01Z</time>
      </trkpt>
      <trkpt lat="46.18427" lon="-1.41183">
        <ele>-0.82</ele>
        <time>2016-09-02T17:08:22Z</time>
      </trkpt>
      <trkpt lat="46.18427" lon="-1.41183">
        <ele>-5.63</ele>
        <time>2016-09-02T17:08:33Z</time>
      </trkpt>
      <trkpt lat="46.18427" lon="-1.41183">
        <ele>-0.34</ele>
        <time>2016-09-02T17:08:34Z</time>
      </trkpt>
      <trkpt lat="46.18427" lon="-1.41182">
        <ele>0.62</ele>
        <time>2016-09-02T17:08:39Z</time>
      </trkpt>
      <trkpt lat="46.18427" lon="-1.41183">
        <ele>-2.75</ele>
        <time>2016-09-02T17:08:42Z</time>
      </trkpt>
      <trkpt lat="46.18427" lon="-1.41183">
        <ele>-7.55</ele>
        <time>2016-09-02T17:08:43Z</time>
      </trkpt>
      <trkpt lat="46.18428" lon="-1.41184">
        <ele>-0.34</ele>
        <time>2016-09-02T17:08:44Z</time>
      </trkpt>
      <trkpt lat="46.18427" lon="-1.41183">
        <ele>0.62</ele>
        <time>2016-09-02T17:08:49Z</time>
      </trkpt>
      <trkpt lat="46.18427" lon="-1.41183">
        <ele>0.14</ele>
        <time>2016-09-02T17:08:59Z</time>
      </trkpt>
      <trkpt lat="46.18427" lon="-1.41183">
        <ele>0.14</ele>
        <time>2016-09-02T17:09:07Z</time>
      </trkpt>
      <trkpt lat="46.18427" lon="-1.41183">
        <ele>0.14</ele>
        <time>2016-09-02T17:09:18Z</time>
      </trkpt>
      <trkpt lat="46.18428" lon="-1.41183">
        <ele>0.14</ele>
        <time>2016-09-02T17:09:25Z</time>
      </trkpt>
      <trkpt lat="46.18427" lon="-1.41185">
        <ele>1.1</ele>
        <time>2016-09-02T17:09:27Z</time>
      </trkpt>
      <trkpt lat="46.18427" lon="-1.4119">
        <ele>1.58</ele>
        <time>2016-09-02T17:09:31Z</time>
      </trkpt>
      <trkpt lat="46.18433" lon="-1.41204">
        <ele>0.62</ele>
        <time>2016-09-02T17:09:43Z</time>
      </trkpt>
      <trkpt lat="46.18435" lon="-1.41211">
        <ele>1.1</ele>
        <time>2016-09-02T17:09:48Z</time>
      </trkpt>
      <trkpt lat="46.18437" lon="-1.41215">
        <ele>0.14</ele>
        <time>2016-09-02T17:09:52Z</time>
      </trkpt>
      <trkpt lat="46.18443" lon="-1.41229">
        <ele>0.62</ele>
        <time>2016-09-02T17:10:04Z</time>
      </trkpt>
      <trkpt lat="46.18445" lon="-1.41235">
        <ele>0.62</ele>
        <time>2016-09-02T17:10:09Z</time>
      </trkpt>
      <trkpt lat="46.18452" lon="-1.41242">
        <ele>1.1</ele>
        <time>2016-09-02T17:10:20Z</time>
      </trkpt>
      <trkpt lat="46.18458" lon="-1.41241">
        <ele>2.06</ele>
        <time>2016-09-02T17:10:31Z</time>
      </trkpt>
      <trkpt lat="46.18465" lon="-1.41236">
        <ele>3.5</ele>
        <time>2016-09-02T17:10:43Z</time>
      </trkpt>
      <trkpt lat="46.1847" lon="-1.41234">
        <ele>4.46</ele>
        <time>2016-09-02T17:10:53Z</time>
      </trkpt>
      <trkpt lat="46.18477" lon="-1.4123">
        <ele>6.39</ele>
        <time>2016-09-02T17:11:04Z</time>
      </trkpt>
      <trkpt lat="46.18481" lon="-1.41226">
        <ele>7.35</ele>
        <time>2016-09-02T17:11:11Z</time>
      </trkpt>
      <trkpt lat="46.18488" lon="-1.41221">
        <ele>7.83</ele>
        <time>2016-09-02T17:11:20Z</time>
      </trkpt>
      <trkpt lat="46.18498" lon="-1.41219">
        <ele>7.35</ele>
        <time>2016-09-02T17:11:31Z</time>
      </trkpt>
      <trkpt lat="46.18509" lon="-1.41215">
        <ele>4.94</ele>
        <time>2016-09-02T17:11:45Z</time>
      </trkpt>
      <trkpt lat="46.18513" lon="-1.41213">
        <ele>4.94</ele>
        <time>2016-09-02T17:11:50Z</time>
      </trkpt>
      <trkpt lat="46.1852" lon="-1.41206">
        <ele>3.02</ele>
        <time>2016-09-02T17:12:02Z</time>
      </trkpt>
      <trkpt lat="46.18522" lon="-1.41196">
        <ele>1.58</ele>
        <time>2016-09-02T17:12:10Z</time>
      </trkpt>
      <trkpt lat="46.18524" lon="-1.41185">
        <ele>1.58</ele>
        <time>2016-09-02T17:12:20Z</time>
      </trkpt>
      <trkpt lat="46.18525" lon="-1.41182">
        <ele>1.1</ele>
        <time>2016-09-02T17:12:23Z</time>
      </trkpt>
      <trkpt lat="46.18524" lon="-1.41168">
        <ele>0.62</ele>
        <time>2016-09-02T17:12:32Z</time>
      </trkpt>
      <trkpt lat="46.18523" lon="-1.41155">
        <ele>0.62</ele>
        <time>2016-09-02T17:12:39Z</time>
      </trkpt>
      <trkpt lat="46.1852" lon="-1.41138">
        <ele>0.14</ele>
        <time>2016-09-02T17:12:50Z</time>
      </trkpt>
      <trkpt lat="46.18519" lon="-1.41121">
        <ele>0.14</ele>
        <time>2016-09-02T17:13:00Z</time>
      </trkpt>
      <trkpt lat="46.18518" lon="-1.41115">
        <ele>0.14</ele>
        <time>2016-09-02T17:13:04Z</time>
      </trkpt>
      <trkpt lat="46.18517" lon="-1.41103">
        <ele>0.14</ele>
        <time>2016-09-02T17:13:12Z</time>
      </trkpt>
      <trkpt lat="46.18517" lon="-1.41085">
        <ele>0.14</ele>
        <time>2016-09-02T17:13:23Z</time>
      </trkpt>
      <trkpt lat="46.18519" lon="-1.41067">
        <ele>-0.34</ele>
        <time>2016-09-02T17:13:33Z</time>
      </trkpt>
      <trkpt lat="46.18522" lon="-1.41051">
        <ele>-0.34</ele>
        <time>2016-09-02T17:13:43Z</time>
      </trkpt>
      <trkpt lat="46.1853" lon="-1.41034">
        <ele>-0.82</ele>
        <time>2016-09-02T17:13:55Z</time>
      </trkpt>
      <trkpt lat="46.18537" lon="-1.41022">
        <ele>-0.82</ele>
        <time>2016-09-02T17:14:04Z</time>
      </trkpt>
      <trkpt lat="46.18545" lon="-1.41014">
        <ele>-0.82</ele>
        <time>2016-09-02T17:14:12Z</time>
      </trkpt>
      <trkpt lat="46.18549" lon="-1.41012">
        <ele>-0.82</ele>
        <time>2016-09-02T17:14:16Z</time>
      </trkpt>
      <trkpt lat="46.1856" lon="-1.41006">
        <ele>-0.82</ele>
        <time>2016-09-02T17:14:26Z</time>
      </trkpt>
      <trkpt lat="46.1857" lon="-1.41002">
        <ele>-0.82</ele>
        <time>2016-09-02T17:14:36Z</time>
      </trkpt>
      <trkpt lat="46.18577" lon="-1.40997">
        <ele>-0.82</ele>
        <time>2016-09-02T17:14:43Z</time>
      </trkpt>
      <trkpt lat="46.18583" lon="-1.40997">
        <ele>-0.82</ele>
        <time>2016-09-02T17:14:49Z</time>
      </trkpt>
      <trkpt lat="46.18594" lon="-1.40991">
        <ele>-0.82</ele>
        <time>2016-09-02T17:15:00Z</time>
      </trkpt>
      <trkpt lat="46.18597" lon="-1.40986">
        <ele>-0.82</ele>
        <time>2016-09-02T17:15:04Z</time>
      </trkpt>
      <trkpt lat="46.18606" lon="-1.40978">
        <ele>-0.82</ele>
        <time>2016-09-02T17:15:13Z</time>
      </trkpt>
      <trkpt lat="46.18608" lon="-1.40971">
        <ele>-0.82</ele>
        <time>2016-09-02T17:15:17Z</time>
      </trkpt>
      <trkpt lat="46.1861" lon="-1.40957">
        <ele>-0.34</ele>
        <time>2016-09-02T17:15:26Z</time>
      </trkpt>
      <trkpt lat="46.18613" lon="-1.4094">
        <ele>-0.82</ele>
        <time>2016-09-02T17:15:36Z</time>
      </trkpt>
      <trkpt lat="46.18613" lon="-1.40938">
        <ele>-0.82</ele>
        <time>2016-09-02T17:15:37Z</time>
      </trkpt>
      <trkpt lat="46.18618" lon="-1.40921">
        <ele>-0.34</ele>
        <time>2016-09-02T17:15:48Z</time>
      </trkpt>
      <trkpt lat="46.18619" lon="-1.40908">
        <ele>0.14</ele>
        <time>2016-09-02T17:15:57Z</time>
      </trkpt>
      <trkpt lat="46.18621" lon="-1.40895">
        <ele>-0.34</ele>
        <time>2016-09-02T17:16:06Z</time>
      </trkpt>
      <trkpt lat="46.18623" lon="-1.40876">
        <ele>0.14</ele>
        <time>2016-09-02T17:16:16Z</time>
      </trkpt>
      <trkpt lat="46.18625" lon="-1.40858">
        <ele>0.14</ele>
        <time>2016-09-02T17:16:27Z</time>
      </trkpt>
      <trkpt lat="46.18629" lon="-1.40838">
        <ele>0.62</ele>
        <time>2016-09-02T17:16:39Z</time>
      </trkpt>
      <trkpt lat="46.18632" lon="-1.40826">
        <ele>0.14</ele>
        <time>2016-09-02T17:16:47Z</time>
      </trkpt>
      <trkpt lat="46.18633" lon="-1.40821">
        <ele>0.14</ele>
        <time>2016-09-02T17:16:50Z</time>
      </trkpt>
      <trkpt lat="46.18637" lon="-1.40814">
        <ele>0.62</ele>
        <time>2016-09-02T17:17:00Z</time>
      </trkpt>
      <trkpt lat="46.18641" lon="-1.40814">
        <ele>0.62</ele>
        <time>2016-09-02T17:17:06Z</time>
      </trkpt>
      <trkpt lat="46.18652" lon="-1.40817">
        <ele>0.14</ele>
        <time>2016-09-02T17:17:17Z</time>
      </trkpt>
      <trkpt lat="46.18661" lon="-1.40818">
        <ele>0.14</ele>
        <time>2016-09-02T17:17:25Z</time>
      </trkpt>
      <trkpt lat="46.18674" lon="-1.40824">
        <ele>0.62</ele>
        <time>2016-09-02T17:17:37Z</time>
      </trkpt>
      <trkpt lat="46.18685" lon="-1.40829">
        <ele>0.14</ele>
        <time>2016-09-02T17:17:48Z</time>
      </trkpt>
      <trkpt lat="46.18694" lon="-1.40832">
        <ele>0.62</ele>
        <time>2016-09-02T17:17:57Z</time>
      </trkpt>
      <trkpt lat="46.18699" lon="-1.40833">
        <ele>1.1</ele>
        <time>2016-09-02T17:18:00Z</time>
      </trkpt>
      <trkpt lat="46.18712" lon="-1.40834">
        <ele>1.1</ele>
        <time>2016-09-02T17:18:10Z</time>
      </trkpt>
      <trkpt lat="46.18723" lon="-1.40838">
        <ele>1.58</ele>
        <time>2016-09-02T17:18:18Z</time>
      </trkpt>
      <trkpt lat="46.18728" lon="-1.40838">
        <ele>1.1</ele>
        <time>2016-09-02T17:18:22Z</time>
      </trkpt>
      <trkpt lat="46.18741" lon="-1.4084">
        <ele>1.58</ele>
        <time>2016-09-02T17:18:34Z</time>
      </trkpt>
      <trkpt lat="46.18749" lon="-1.40842">
        <ele>1.1</ele>
        <time>2016-09-02T17:18:41Z</time>
      </trkpt>
      <trkpt lat="46.18751" lon="-1.40834">
        <ele>2.06</ele>
        <time>2016-09-02T17:18:48Z</time>
      </trkpt>
      <trkpt lat="46.1875" lon="-1.4082">
        <ele>1.58</ele>
        <time>2016-09-02T17:18:57Z</time>
      </trkpt>
      <trkpt lat="46.18755" lon="-1.40812">
        <ele>1.58</ele>
        <time>2016-09-02T17:19:06Z</time>
      </trkpt>
      <trkpt lat="46.18758" lon="-1.4081">
        <ele>0.14</ele>
        <time>2016-09-02T17:19:15Z</time>
      </trkpt>
      <trkpt lat="46.18758" lon="-1.40809">
        <ele>2.06</ele>
        <time>2016-09-02T17:19:17Z</time>
      </trkpt>
      <trkpt lat="46.18759" lon="-1.40807">
        <ele>1.58</ele>
        <time>2016-09-02T17:19:31Z</time>
      </trkpt>
      <trkpt lat="46.18759" lon="-1.40806">
        <ele>2.06</ele>
        <time>2016-09-02T17:19:46Z</time>
      </trkpt>
      <trkpt lat="46.18759" lon="-1.40804">
        <ele>3.02</ele>
        <time>2016-09-02T17:20:02Z</time>
      </trkpt>
      <trkpt lat="46.18759" lon="-1.40805">
        <ele>3.5</ele>
        <time>2016-09-02T17:20:16Z</time>
      </trkpt>
    </trkseg>
  </trk>
</gpx>